# Wetter Temperatur Luftdruck Luftfeuchtigkeit Sichtweite Windgeschwindigkeit Windrichtung Zeit
1 Clear 22 1012 13 16093 1.94 152.84 19:42 17.10.2019
2 Clouds 21 1012 8 16093 6.7 230 19:20 17.10.2019
3 Clouds 20 1012 8 16093 6.7 230 18:59 17.10.2019
4 Clear 20 1013 20 16093 1.94 152.84 18:39 17.10.2019
5 Clouds 19 1013 9 16093 6.7 220 18:20 17.10.2019
6 Clouds 16 1013 13 16093 4.6 220 17:43 17.10.2019
7 Clouds 16 1013 13 16093 4.6 220 17:43 17.10.2019
8 Clouds 13 1014 10 16093 5.1 220 17:24 17.10.2019
9 Clouds 13 1014 10 16093 5.1 220 16:58 17.10.2019
10 Clouds 12 1014 25 16093 4.1 190 16:40 17.10.2019
11 Clouds 12 1014 25 16093 4.1 190 16:40 17.10.2019
12 Clouds 10 1014 25 16093 4.1 190 16:19 17.10.2019
13 Clouds 10 1014 17 16093 6.7 210 15:57 17.10.2019
14 Clouds 10 1014 17 16093 6.7 210 15:38 17.10.2019
15 Clear 7 1013 64 11265 2.1 200 15:20 17.10.2019
16 -273 0 0 0 0 0 14:56 17.10.2019
17 Clear 7 1015 64 16093 1.5 180 14:37 17.10.2019
18 Clear 7 1014 23 16093 4.313 218 14:19 17.10.2019
19 Clear 7 1015 59 16093 4.313 218 13:39 17.10.2019
20 Clear 7 1015 59 16093 4.313 218 13:39 17.10.2019
21 Clear 7 1014 59 16093 4.313 218 13:20 17.10.2019
22 Clear 7 1015 17 16093 4.313 218 12:57 17.10.2019
23 Clear 7 1016 51 16093 2.1 210 12:37 17.10.2019
24 Clouds 7 1015 31 16093 3.6 190 12:18 17.10.2019
25 Clear 8 1016 55 16093 4.149 213 11:42 17.10.2019
26 Clear 8 1016 55 16093 4.149 213 11:42 17.10.2019
27 Clear 8 1016 25 16093 4.149 213 11:22 17.10.2019
28 Clear 8 1016 25 16093 1.5 260 10:59 17.10.2019
29 Clear 8 1017 59 16093 2.1 210 10:41 17.10.2019
30 Clear 9 1016 29 16093 2.1 130 10:19 17.10.2019
31 Clear 9 1016 29 16093 2.1 130 09:56 17.10.2019
32 Clear 9 1017 55 16093 3.995 213 09:37 17.10.2019
33 Clear 9 1016 19 16093 1.5 140 09:19 17.10.2019
34 Clear 9 1017 45 16093 1.5 200 08:48 17.10.2019
35 Clear 9 1017 19 16093 2.1 260 08:27 17.10.2019
36 Clear 10 1017 22 16093 2.1 230 07:59 17.10.2019
37 Clear 10 1018 45 16093 1.5 210 07:41 17.10.2019
38 Clear 10 1017 34 16093 3.6 290 07:21 17.10.2019
39 Clear 11 1018 48 16093 2.1 200 06:43 17.10.2019
40 Clear 11 1018 22 16093 2.6 270 06:24 17.10.2019
41 Clear 12 1018 21 16093 5.7 180 05:59 17.10.2019
42 Clear 12 1019 34 16093 2.646 216 05:35 17.10.2019
43 Clear 13 1019 19 16093 5.7 180 04:57 17.10.2019
44 Clear 13 1018 16 16093 4.6 150 04:31 17.10.2019
45 Clear 15 1019 30 16093 2.646 216 03:45 17.10.2019
46 Clouds 21 1018 11 16093 5.1 300 01:55 17.10.2019
47 Clear 24 1019 6 16093 4.1 210 00:41 17.10.2019
48 Clouds 24 1019 9 16093 3.1 40 00:20 17.10.2019
49 Clear 24 1019 7 16093 2.6 180 23:42 16.10.2019
50 Clear 24 1018 11 16093 3.34 58 23:21 16.10.2019
51 Clouds 24 1020 10 16093 3.1 310 22:57 16.10.2019
52 Clear 24 1020 8 16093 2.1 220 22:38 16.10.2019
53 Clouds 24 1020 11 16093 3.34 58 22:20 16.10.2019
54 Clouds 23 1020 11 16093 3.34 58 21:58 16.10.2019
55 Clear 23 1021 9 16093 3.786 57 21:38 16.10.2019
56 Clouds 22 1021 11 16093 0.768 58 21:20 16.10.2019
57 Clouds 22 1021 11 16093 0.768 58 20:58 16.10.2019
58 Clouds 22 1021 11 16093 0.768 58 20:58 16.10.2019
59 Clear 22 1022 11 16093 0.768 58 20:40 16.10.2019
60 Clear 21 1020 21 16093 2.1 100 20:21 16.10.2019
61 Clouds 21 1022 11 16093 1.5 320 19:59 16.10.2019
62 Clear 20 1023 24 16093 0.768 58 19:40 16.10.2019
63 Clear 19 1022 14 16093 0.768 58 19:21 16.10.2019
64 Clouds 17 1022 14 16093 0.768 58 18:56 16.10.2019
65 Clear 17 1023 30 16093 1.5 160 18:56 16.10.2019
66 Clear 16 1023 30 16093 1.5 160 18:37 16.10.2019
67 Clouds 13 1023 25 16093 3.06 213 18:18 16.10.2019
68 Clouds 12 1023 25 16093 3.06 213 17:54 16.10.2019
69 Clear 10 1024 52 16093 3.06 213 17:36 16.10.2019
70 Clouds 8 1022 42 16093 3.6 210 17:18 16.10.2019
71 Clear 7 1023 26 16093 3.06 213 16:43 16.10.2019
72 Clear 6 1021 65 16093 1.5 200 16:22 16.10.2019
73 Clouds 6 1022 39 16093 2.1 160 15:58 16.10.2019
74 Clear 6 1021 80 16093 3.06 213 15:39 16.10.2019
75 Clear 3 1021 45 16093 3.1 220 15:19 16.10.2019
76 Clear 3 1023 86 16093 3.439 211 14:58 16.10.2019
77 Clear 3 1023 86 16093 3.439 211 14:58 16.10.2019
78 Clear 3 1023 86 16093 3.599 210 14:39 16.10.2019
79 Clear 3 1023 86 16093 3.599 210 14:19 16.10.2019
80 Clear 3 1021 60 16093 3.599 210 13:57 16.10.2019
81 Clear 3 1023 33 16093 3.599 210 13:38 16.10.2019
82 Clear 3 1022 64 16093 1.5 260 13:20 16.10.2019
83 Clear 3 1023 33 16093 3.599 210 12:42 16.10.2019
84 Clear 3 1022 56 16093 2.561 221 12:19 16.10.2019
85 Clear 3 1024 39 16093 2.561 221 11:45 16.10.2019
86 Clear 3 1023 56 16093 2.6 320 11:19 16.10.2019
87 Clear 3 1025 39 16093 2.561 221 10:41 16.10.2019
88 Clear 3 1023 52 16093 3.6 310 10:23 16.10.2019
89 Clear 3 1024 48 16093 2.6 200 09:58 16.10.2019
90 Clear 4 1026 40 16093 2.084 227 09:39 16.10.2019
91 Clear 4 1026 40 16093 2.084 227 09:39 16.10.2019
92 Clear 3 1024 60 16093 4.6 180 09:20 16.10.2019
93 Clear 4 1026 74 16093 1.712 222 08:44 16.10.2019
94 Clear 4 1027 74 16093 1.712 222 08:26 16.10.2019
95 Clear 4 1027 69 16093 1.712 222 07:56 16.10.2019
96 Clear 4 1027 69 16093 1.712 222 07:38 16.10.2019
97 Clear 4 1027 74 16093 1.712 222 07:20 16.10.2019
98 Clear 5 1027 69 16093 1.712 222 06:40 16.10.2019
99 Clear 5 1027 69 16093 0.422 145 06:19 16.10.2019
100 Clear 9 1026 39 16093 0.422 145 03:33 16.10.2019
101 Clouds 11 1024 30 16093 2.6 80 02:50 16.10.2019
102 Clear 14 1024 24 16093 2.1 80 01:20 16.10.2019
103 Clear 14 1023 26 16093 3.1 60 00:54 16.10.2019
104 Clear 14 1024 24 16093 2.6 80 00:35 16.10.2019
105 Clear 15 1024 24 16093 3.32 25 23:42 15.10.2019
106 Clear 15 1024 26 16093 1.5 120 23:22 15.10.2019
107 Clouds 15 1023 29 16093 3.6 50 22:57 15.10.2019
108 Clear 14 1025 28 16093 2.1 80 22:38 15.10.2019
109 Clear 14 1025 28 16093 1.5 80 22:20 15.10.2019
110 Clouds 14 1023 30 16093 2.6 0 21:56 15.10.2019
111 Clouds 14 1023 30 16093 2.6 0 21:56 15.10.2019
112 Clouds 14 1023 30 16093 2.6 0 21:56 15.10.2019
113 Clear 14 1025 30 16093 2.1 60 21:38 15.10.2019
114 Clear 13 1025 30 16093 2.6 130 21:20 15.10.2019
115 Clouds 13 1024 35 16093 2.387 77 20:57 15.10.2019
116 Clear 12 1026 34 16093 3.1 60 20:39 15.10.2019
117 Clear 12 1026 34 16093 2.6 70 20:20 15.10.2019
118 Clouds 11 1024 34 16093 2.6 20 19:58 15.10.2019
119 Clear 11 1026 40 16093 2.1 170 19:40 15.10.2019
120 Clear 10 1026 40 16093 2.387 77 19:20 15.10.2019
121 Clear 10 1026 45 16093 2.6 70 18:47 15.10.2019
122 Clear 9 1026 45 16093 2.1 160 18:29 15.10.2019
123 Clouds 8 1024 52 16093 1.5 0 17:59 15.10.2019
124 Clouds 7 1024 52 32767 2.6 140 17:40 15.10.2019
125 -273 0 0 0 0 0 17:20 15.10.2019
126 Clouds 5 1024 56 16093 2.6 130 16:57 15.10.2019
127 Clear 4 1026 80 16093 0.225 273 16:38 15.10.2019
128 Clear 3 1026 80 16093 0.225 273 16:20 15.10.2019
129 Clear 1 1025 86 16093 0.225 273 15:43 15.10.2019
130 Clear 1 1025 86 16093 1.23 285 15:21 15.10.2019
131 Clear 1 1024 69 16093 3.1 180 14:59 15.10.2019
132 Clear 1 1025 71 16093 0.701 322 14:38 15.10.2019
133 Clear 1 1026 71 16093 2.1 210 14:20 15.10.2019
134 Clear 1 1026 71 16093 2.1 210 14:20 15.10.2019
135 Clear 1 1024 59 16093 2.1 220 13:58 15.10.2019
136 Clear 1 1026 71 16093 0.701 322 13:40 15.10.2019
137 Clear 2 1026 74 16093 0.701 322 13:19 15.10.2019
138 Clear 2 1026 64 16093 0.701 322 12:44 15.10.2019
139 Clear 3 1024 56 16093 2.1 310 12:22 15.10.2019
140 -273 0 0 0 0 0 11:57 15.10.2019
141 Clear 4 1025 56 16093 3.1 290 11:38 15.10.2019
142 Clear 5 1023 52 16093 5.1 330 11:19 15.10.2019
143 Clear 6 1023 42 16093 4.1 30 10:45 15.10.2019
144 Clear 6 1021 36 16093 8.2 40 10:22 15.10.2019
145 Clear 6 1019 38 16093 2.1 170 09:58 15.10.2019
146 Clear 6 1020 35 16093 3.6 20 09:39 15.10.2019
147 -273 0 0 0 0 0 09:20 15.10.2019
148 Clear 8 1018 17 16093 3.6 280 08:56 15.10.2019
149 Clear 8 1018 18 16093 3.1 270 08:37 15.10.2019
150 Clear 8 1019 23 16093 2.6 200 08:18 15.10.2019
151 Clear 8 1018 14 16093 2.6 260 07:41 15.10.2019
152 Clear 9 1018 14 16093 6.7 280 07:21 15.10.2019
153 Clear 9 1018 12 16093 3.1 270 06:47 15.10.2019
154 Clear 9 1017 14 16093 7.2 300 06:29 15.10.2019
155 Clear 10 1018 15 16093 3.1 280 05:48 15.10.2019
156 Clear 11 1017 11 16093 4.1 290 05:29 15.10.2019
157 Clear 14 1016 10 16093 5.7 280 04:39 15.10.2019
158 Clouds 14 1014 19 16093 2.6 80 03:38 15.10.2019
159 Clouds 14 1014 19 16093 2.6 80 03:38 15.10.2019
160 Clouds 17 1015 12 32767 5.1 260 02:51 15.10.2019
161 Clouds 20 1013 10 32767 7.7 280 01:49 15.10.2019
162 Clear 21 1014 8 16093 4.6 290 01:22 15.10.2019
163 Clouds 22 1013 11 16093 4.1 40 00:50 15.10.2019
164 Clear 22 1013 7 16093 6.7 300 00:22 15.10.2019
165 Clear 22 1013 6 16093 6.7 260 23:45 14.10.2019
166 Clear 23 1013 7 16093 9.3 280 23:21 14.10.2019
167 Clouds 23 1013 10 16093 4.1 60 22:58 14.10.2019
168 Clear 23 1013 8 16093 9.3 290 22:38 14.10.2019
169 Clear 23 1013 8 16093 6.7 320 22:18 14.10.2019
170 Clouds 23 1013 9 16093 5.1 40 22:18 14.10.2019
171 Clouds 23 1013 9 16093 5.1 40 21:55 14.10.2019
172 Clear 23 1014 8 16093 8.2 300 21:36 14.10.2019
173 Clear 22 1014 8 16093 9.3 290 21:18 14.10.2019
174 -273 0 0 0 0 0 20:55 14.10.2019
175 Clouds 22 1014 11 16093 8.2 250 20:54 14.10.2019
176 Clouds 22 1014 11 16093 8.2 250 20:54 14.10.2019
177 Clouds 22 1014 9 16093 4.1 40 20:54 14.10.2019
178 Clear 22 1015 9 16093 5.1 300 20:36 14.10.2019
179 Clouds 21 1015 9 16093 2.6 0 20:18 14.10.2019
180 Clear 19 1015 12 16093 2.749 13 19:41 14.10.2019
181 Clear 18 1016 13 16093 2.1 20 19:23 14.10.2019
182 Clear 18 1016 13 16093 2.1 20 19:23 14.10.2019
183 Clouds 19 1015 14 16093 3.44 241.729 18:58 14.10.2019
184 Clear 18 1016 20 16093 2.6 360 18:39 14.10.2019
185 Clouds 17 1015 13 32186 5.1 270 18:19 14.10.2019
186 Clouds 15 1015 14 16093 3.1 210 17:56 14.10.2019
187 Clear 14 1016 28 16093 0.78 222.091 17:37 14.10.2019
188 Clouds 12 1016 20 16093 2.6 120 17:19 14.10.2019
189 Clear 10 1016 45 16093 3.1 10 16:43 14.10.2019
190 Clouds 8 1015 24 16093 3.6 150 16:21 14.10.2019
191 Clouds 6 1015 25 16093 5.1 190 15:42 14.10.2019
192 Clear 4 1015 32 16093 2.1 110 15:23 14.10.2019
193 Clear 4 1015 32 16093 2.1 110 14:57 14.10.2019
194 Clear 4 1015 32 16093 2.1 110 14:57 14.10.2019
195 Clear 4 1016 59 16093 1.5 200 14:39 14.10.2019
196 Clouds 4 1015 24 16093 6.2 190 14:19 14.10.2019
197 Clear 4 1016 68 16093 2.7 249.441 13:44 14.10.2019
198 Clear 4 1015 24 16093 2.57 244.924 13:21 14.10.2019
199 Clear 5 1015 24 16093 2.57 244.924 12:55 14.10.2019
200 Clear 5 1016 19 16093 2.57 244.924 12:37 14.10.2019
201 Clear 4 1015 22 16093 2.1 180 12:18 14.10.2019
202 Clear 4 1015 22 16093 2.1 180 12:18 14.10.2019
203 Clear 4 1015 22 16093 2.1 180 12:18 14.10.2019
204 Clear 4 1016 20 16093 1.01 243.739 11:44 14.10.2019
205 Clouds 4 1015 24 16093 2.6 190 11:26 14.10.2019
206 Clear 5 1015 24 16093 2.1 190 10:57 14.10.2019
207 Clear 5 1015 24 16093 2.1 190 10:57 14.10.2019
208 Clouds 5 1015 24 16093 4.6 200 10:38 14.10.2019
209 Clouds 5 1015 24 16093 4.6 200 10:19 14.10.2019
210 Clear 6 1014 18 16093 2.1 280 09:42 14.10.2019
211 Clear 6 1015 24 16093 2.6 130 09:21 14.10.2019
212 Clear 7 1015 23 16093 2.6 270 08:51 14.10.2019
213 Clear 7 1015 23 16093 2.6 270 08:23 14.10.2019
214 Clear 7 1016 59 16093 2.14 301.125 07:47 14.10.2019
215 Clear 8 1015 18 16093 3.6 310 07:26 14.10.2019
216 Clear 8 1015 18 16093 3.1 290 06:59 14.10.2019
217 Clouds 8 1015 21 16093 6.2 190 06:28 14.10.2019
218 Clouds 9 1016 17 16093 6.2 160 05:57 14.10.2019
219 Clear 9 1015 21 16093 4.1 180 05:27 14.10.2019
220 Clear 11 1016 39 16093 1.5 220 04:34 14.10.2019
221 Clouds 13 1015 15 16093 2.6 120 03:26 14.10.2019
222 Clear 17 1015 9 16093 1.5 90 02:34 14.10.2019
223 Clouds 21 1015 7 16093 2.1 0 01:22 14.10.2019
224 Clear 21 1015 6 16093 3.6 110 00:45 14.10.2019
225 Clear 22 1015 6 16093 4.35 240.662 00:19 14.10.2019
226 Clear 22 1015 6 16093 1.5 360 23:44 13.10.2019
227 Clouds 22 1015 7 16093 4.1 60 23:20 13.10.2019
228 Clouds 22 1015 7 16093 4.1 60 23:20 13.10.2019
229 Clouds 22 1015 7 16093 4.1 60 22:58 13.10.2019
230 Clear 22 1015 6 16093 2.1 30 22:40 13.10.2019
231 Clear 21 1016 7 16093 3.6 20 22:21 13.10.2019
232 Clear 21 1016 6 16093 4.35 240.662 21:57 13.10.2019
233 Clear 21 1016 6 16093 4.35 240.662 21:37 13.10.2019
234 Clear 21 1016 6 16093 4.35 240.662 21:37 13.10.2019
235 Clear 20 1016 6 12874 2.1 300 21:18 13.10.2019
236 Clear 20 1016 6 12874 2.1 300 20:57 13.10.2019
237 Clear 19 1017 8 16093 3.1 280 20:37 13.10.2019
238 Clear 19 1017 11 16093 1.5 130 20:19 13.10.2019
239 -273 0 0 0 0 0 19:56 13.10.2019
240 Clear 18 1017 11 16093 1.5 130 19:56 13.10.2019
241 Clear 18 1018 14 16093 2.62 172.555 19:55 13.10.2019
242 Clear 18 1018 14 16093 2.62 172.555 19:55 13.10.2019
243 Clear 18 1018 14 16093 2.62 172.555 19:37 13.10.2019
244 Clear 17 1017 14 16093 2.62 172.555 19:19 13.10.2019
245 Clear 16 1017 14 16093 2.62 172.555 18:55 13.10.2019
246 Clear 15 1017 14 16093 5.1 200 18:36 13.10.2019
247 Clear 14 1018 12 16093 1.71 216.676 18:18 13.10.2019
248 Clear 14 1018 12 16093 1.71 216.676 18:18 13.10.2019
249 -273 0 0 0 0 0 17:42 13.10.2019
250 Clear 9 1017 21 16093 3.1 190 17:24 13.10.2019
251 Clear 7 1018 26 16093 1.5 120 16:54 13.10.2019
252 Clear 5 1017 52 16093 2.1 160 16:36 13.10.2019
253 Clear 4 1017 43 16093 1.5 170 16:18 13.10.2019
254 Clear 3 1016 32 16093 4.1 180 15:40 13.10.2019
255 Clear 0 1016 40 16093 3.1 190 15:22 13.10.2019
256 Clear 0 1016 40 16093 3.1 190 14:59 13.10.2019
257 Clear 0 1018 79 16093 1.58 269.855 14:40 13.10.2019
258 Clear 0 1016 47 16093 1.58 269.855 14:22 13.10.2019
259 Clear 0 1016 47 16093 1.58 269.855 13:59 13.10.2019
260 Clear 1 1017 74 16093 2.1 170 13:38 13.10.2019
261 Clear 1 1017 74 16093 2.1 170 13:38 13.10.2019
262 Clear 1 1016 26 16093 2.1 130 13:20 13.10.2019
263 Clear 1 1016 26 16093 2.1 130 12:56 13.10.2019
264 Clear 1 1015 43 16093 3.1 210 12:38 13.10.2019
265 Clear 1 1015 43 16093 3.1 210 12:19 13.10.2019
266 Clear 1 1017 80 16093 1.5 200 11:56 13.10.2019
267 Clear 2 1017 80 16093 1.5 200 11:38 13.10.2019
268 Clear 2 1016 40 16093 3.6 180 11:18 13.10.2019
269 Clear 2 1017 80 16093 1.02 280.275 10:41 13.10.2019
270 Clear 2 1016 43 16093 2.1 130 10:23 13.10.2019
271 Clear 2 1015 27 16093 3.1 210 09:41 13.10.2019
272 Clear 3 1015 47 16093 3.6 110 09:22 13.10.2019
273 Clear 3 1015 47 16093 3.6 110 08:59 13.10.2019
274 Clear 3 1017 31 16093 2.79 296.593 08:40 13.10.2019
275 Clear 4 1015 35 16093 2.1 190 08:21 13.10.2019
276 Clear 5 1015 39 16093 4.6 300 07:46 13.10.2019
277 Clear 5 1015 26 12874 5.1 190 07:21 13.10.2019
278 Clear 5 1015 28 16093 3.1 190 06:41 13.10.2019
279 Clear 6 1017 69 16093 1.43 263.068 05:46 13.10.2019
280 Clear 8 1016 52 16093 1.43 263.068 04:49 13.10.2019
281 Clear 8 1015 23 16093 3.1 100 04:29 13.10.2019
282 Clouds 14 1014 14 16093 1.5 60 02:42 13.10.2019
283 Clouds 18 1014 10 16093 3.13 8.576 01:54 13.10.2019
284 Clouds 18 1014 10 16093 2.87 15.978 01:30 13.10.2019
285 Clear 19 1015 13 16093 2.1 360 00:47 13.10.2019
286 Clouds 19 1014 9 16093 4.1 350 00:21 13.10.2019
287 Clear 19 1015 14 16093 1.38 350.974 23:56 12.10.2019
288 Clear 19 1015 14 16093 1.38 350.974 23:37 12.10.2019
289 Clouds 19 1014 7 16093 3.1 20 23:19 12.10.2019
290 Clouds 19 1014 7 16093 3.1 20 22:57 12.10.2019
291 Clear 19 1015 14 16093 2.1 340 22:38 12.10.2019
292 Clouds 18 1015 7 16093 2.6 0 22:20 12.10.2019
293 Clouds 18 1015 7 16093 2.6 0 21:54 12.10.2019
294 Clouds 18 1015 7 16093 2.6 0 21:54 12.10.2019
295 Clear 17 1016 17 16093 1.38 350.974 21:36 12.10.2019
296 Clouds 16 1015 7 16093 3.1 50 21:18 12.10.2019
297 Clear 15 1018 30 16093 1.5 30 20:40 12.10.2019
298 Clouds 15 1016 8 16093 1.5 0 20:22 12.10.2019
299 Clouds 14 1017 20 16093 2.6 70 19:38 12.10.2019
300 Clouds 13 1017 20 16093 2.6 70 19:20 12.10.2019
301 Clouds 12 1017 9 16093 2.1 190 18:56 12.10.2019
302 Clouds 12 1017 9 16093 2.1 190 18:56 12.10.2019
303 Clouds 12 1017 9 16093 2.1 190 18:56 12.10.2019
304 Clouds 11 1017 22 16093 2.1 110 18:37 12.10.2019
305 Clouds 9 1017 22 16093 2.1 110 18:19 12.10.2019
306 Clear 8 1020 60 16093 3.1 10 17:42 12.10.2019
307 Clouds 5 1017 36 16093 0.81 338.79 17:19 12.10.2019
308 Clouds 4 1018 40 16093 3.1 200 16:54 12.10.2019
309 Clear 3 1019 31 16093 1.5 240 16:36 12.10.2019
310 Clouds 1 1017 37 16093 3.1 160 16:18 12.10.2019
311 Clear -1 1019 85 16093 0.81 338.79 15:40 12.10.2019
312 Clear -2 1019 85 16093 1.5 200 15:22 12.10.2019
313 Clear -2 1019 92 16093 0.32 95.693 14:43 12.10.2019
314 Clouds -2 1018 50 16093 3.1 130 14:22 12.10.2019
315 Clouds -2 1018 50 16093 3.1 130 13:57 12.10.2019
316 Clear -2 1017 46 16093 0.32 95.693 13:38 12.10.2019
317 Clouds -2 1018 54 16093 4.1 140 13:20 12.10.2019
318 Clear -2 1019 86 16093 0.62 158.13 12:39 12.10.2019
319 Clear -2 1018 50 16093 2.6 350 12:21 12.10.2019
320 Clouds -1 1018 50 16093 2.6 140 11:58 12.10.2019
321 Clear -1 1020 86 16093 1.5 170 11:38 12.10.2019
322 Clouds -1 1018 55 16093 5.1 210 11:19 12.10.2019
323 Clear -1 1020 79 16093 0.78 282.059 10:41 12.10.2019
324 Clear -1 1018 47 16093 0.78 282.059 10:23 12.10.2019
325 Clouds 0 1018 55 16093 3.1 140 09:58 12.10.2019
326 Clouds 0 1018 55 16093 3.1 140 09:57 12.10.2019
327 Clear 0 1020 79 16093 1.5 270 09:39 12.10.2019
328 Clear 0 1018 51 16093 1.91 264.266 09:20 12.10.2019
329 Clear 0 1020 46 16093 1.69 288.585 08:56 12.10.2019
330 Clear 0 1020 46 16093 1.69 288.585 08:55 12.10.2019
331 Clear 0 1020 46 16093 1.69 288.585 08:36 12.10.2019
332 Clouds 0 1020 47 16093 4.1 160 08:18 12.10.2019
333 Clear 1 1020 44 16093 1.5 180 07:33 12.10.2019
334 Clouds 1 1021 47 16093 5.1 150 06:44 12.10.2019
335 Clear 2 1022 41 16093 2.6 190 05:46 12.10.2019
336 Clear 2 1023 38 16093 1.51 219.519 04:47 12.10.2019
337 Clear 3 1023 44 16093 1.5 190 03:57 12.10.2019
338 Clouds 5 1022 47 16093 4.1 120 02:57 12.10.2019
339 Clouds 9 1022 23 32186 3.1 140 01:36 12.10.2019
340 Clouds 10 1022 17 16093 2.79 126.985 00:58 12.10.2019
341 Clear 10 1023 24 16093 1.5 100 00:39 12.10.2019
342 Rain 10 1024 15 16093 1.87 135.043 23:57 11.10.2019
343 Rain 10 1024 15 16093 1.87 135.043 23:38 11.10.2019
344 Rain 9 1023 19 16093 1.5 0 23:19 11.10.2019
345 Rain 9 1024 18 16093 1.5 20 22:39 11.10.2019
346 Rain 9 1023 19 16093 1.5 0 22:21 11.10.2019
347 Rain 8 1023 19 16093 1.5 0 21:55 11.10.2019
348 Rain 8 1025 19 16093 1.87 135.043 21:36 11.10.2019
349 Rain 7 1024 33 16093 1.5 150 21:18 11.10.2019
350 Rain 6 1024 38 16093 3.1 180 20:43 11.10.2019
351 Rain 5 1024 38 16093 3.1 180 20:25 11.10.2019
352 Rain 4 1024 38 16093 3.1 180 19:56 11.10.2019
353 Rain 3 1025 47 16093 4.1 190 19:38 11.10.2019
354 Rain 3 1024 51 16093 5.1 180 19:18 11.10.2019
355 Rain 2 1026 40 16093 2.37 167.274 18:56 11.10.2019
356 Rain 1 1026 40 16093 2.37 167.274 18:37 11.10.2019
357 Snow 0 1025 58 16093 3.1 170 18:18 11.10.2019
358 Snow -1 1025 58 16093 3.1 170 17:57 11.10.2019
359 Snow -2 1025 68 16093 1.5 170 17:37 11.10.2019
360 Clear -3 1024 63 16093 3.6 180 17:18 11.10.2019
361 Clear -5 1027 85 16093 2.12 247.702 16:42 11.10.2019
362 Clear -6 1024 72 16093 2.1 130 16:21 11.10.2019
363 Clear -8 1024 72 16093 2.1 130 15:59 11.10.2019
364 Clear -8 1026 85 16093 2.12 247.702 15:39 11.10.2019
365 Clouds -9 1024 92 32767 2.65 262.704 15:19 11.10.2019
366 Clear -9 1026 92 16093 2.65 262.704 14:48 11.10.2019
367 Clear -9 1023 78 16093 1.5 200 14:29 11.10.2019
368 Clear -9 1023 78 16093 1.5 160 13:57 11.10.2019
369 Clear -9 1026 92 16093 1.5 220 13:39 11.10.2019
370 Clear -9 1023 92 16093 2.1 60 13:21 11.10.2019
371 Clear -9 1023 92 16093 2.1 60 12:56 11.10.2019
372 Clear -9 1025 92 16093 2.04 262.211 12:38 11.10.2019
373 Clear -9 1023 85 16093 1.5 170 12:19 11.10.2019
374 Clear -9 1026 85 16093 1.42 325.074 11:41 11.10.2019
375 Clear -9 1023 78 16093 1.42 325.074 11:22 11.10.2019
376 Clear -9 1023 92 16093 1.42 325.074 11:22 11.10.2019
377 Clear -9 1023 92 16093 1.42 325.074 10:58 11.10.2019
378 Clouds -9 1023 92 16093 1.42 325.074 10:40 11.10.2019
379 Clear -8 1023 72 16093 4.1 340 10:22 11.10.2019
380 Clear -8 1023 72 16093 4.1 340 09:55 11.10.2019
381 Clear -8 1024 92 16093 2.1 50 09:37 11.10.2019
382 Clear -8 1022 78 16093 7.2 170 09:19 11.10.2019
383 Clear -8 1022 78 16093 7.2 170 08:55 11.10.2019
384 Clouds -8 1023 92 16093 2.6 170 08:36 11.10.2019
385 Clear -8 1023 78 16093 4.1 110 08:18 11.10.2019
386 Clouds -8 1024 92 16093 4.6 170 07:41 11.10.2019
387 Clouds -8 1024 78 16093 2.1 190 07:22 11.10.2019
388 Clouds -7 1024 92 16093 1.37 147.777 06:47 11.10.2019
389 Clouds -7 1024 79 16093 2.02 122.589 06:22 11.10.2019
390 Clouds -7 1027 86 16093 2.6 100 05:39 11.10.2019
391 Snow -6 1027 86 16093 1.5 130 04:59 11.10.2019
392 Snow -6 1024 85 16093 2.02 122.589 04:24 11.10.2019
393 Snow -4 1022 73 12874 3.38 56.16 02:19 11.10.2019
394 Clouds -4 1024 68 16093 2.1 180 00:43 11.10.2019
395 Clouds -4 1021 73 16093 3.37 53.12 00:25 11.10.2019
396 Clouds -4 1023 58 16093 3.15 28.696 23:43 10.10.2019
397 Clouds -4 1020 79 16093 3.6 20 23:21 10.10.2019
398 Clouds -4 1021 73 16093 3.15 28.696 22:57 10.10.2019
399 Clouds -4 1021 73 16093 3.15 28.696 22:57 10.10.2019
400 Snow -4 1021 85 9656 3.6 40 22:39 10.10.2019
401 Snow -4 1021 79 11265 2.6 20 22:20 10.10.2019
402 Snow -4 1021 79 11265 2.6 20 21:57 10.10.2019
403 Snow -4 1023 73 16093 3.15 28.696 21:38 10.10.2019
404 Snow -4 1021 79 2414 4.6 30 21:20 10.10.2019
405 Snow -5 1024 79 6437 1.5 50 20:42 10.10.2019
406 Snow -5 1021 79 1207 3.6 20 20:21 10.10.2019
407 Snow -5 1021 85 1207 2.6 10 19:58 10.10.2019
408 Snow -6 1024 85 2816 3.6 50 19:40 10.10.2019
409 Snow -6 1022 92 1609 2.1 10 19:20 10.10.2019
410 Snow -6 1022 92 1609 2.1 10 19:20 10.10.2019
411 Snow -6 1025 85 1207 2.6 50 18:57 10.10.2019
412 Snow -6 1025 85 1207 2.6 50 18:38 10.10.2019
413 Snow -6 1021 85 402 3.6 30 18:19 10.10.2019
414 Snow -7 1022 92 402 9.8 10 17:41 10.10.2019
415 Snow -7 1021 92 805 4.6 20 17:20 10.10.2019
416 Snow -7 1021 92 805 4.6 20 16:59 10.10.2019
417 Snow -6 1022 92 402 7.2 20 16:41 10.10.2019
418 Snow -6 1020 85 2414 5.7 20 16:22 10.10.2019
419 Snow -6 1023 92 805 3.6 60 15:44 10.10.2019
420 Snow -6 1020 92 4828 2.1 20 15:25 10.10.2019
421 Snow -6 1020 92 8047 4.6 20 14:59 10.10.2019
422 Snow -5 1022 92 4828 4.1 60 14:38 10.10.2019
423 Snow -5 1022 92 4828 4.1 60 14:38 10.10.2019
424 Snow -5 1019 85 8047 4.1 20 14:19 10.10.2019
425 Snow -5 1019 85 8047 4.1 20 13:59 10.10.2019
426 Snow -5 1022 85 6437 4.6 40 13:40 10.10.2019
427 Snow -4 1018 85 4023 4.6 20 13:19 10.10.2019
428 Snow -4 1018 85 4023 4.6 20 12:55 10.10.2019
429 Snow -4 1021 85 16093 3.6 50 12:37 10.10.2019
430 Mist -4 1018 92 4828 4.6 10 12:18 10.10.2019
431 Mist -3 1020 79 16093 3.6 20 11:42 10.10.2019
432 Mist -3 1017 92 6437 6.7 20 11:21 10.10.2019
433 Mist -3 1017 92 6437 7.2 30 10:59 10.10.2019
434 Mist -3 1021 80 16093 3.6 40 10:41 10.10.2019
435 Mist -3 1017 92 8047 5.7 30 10:22 10.10.2019
436 Mist -2 1017 92 8047 5.7 30 09:54 10.10.2019
437 Snow -2 1017 92 4828 6.2 10 09:36 10.10.2019
438 Snow -1 1016 92 3219 6.7 20 09:18 10.10.2019
439 Snow -1 1019 92 6437 6.2 10 08:41 10.10.2019
440 Snow -1 1016 92 3219 6.7 10 08:21 10.10.2019
441 Mist 0 1016 92 3219 6.7 10 07:58 10.10.2019
442 Rain 0 1016 58 6437 4.6 20 07:37 10.10.2019
443 Drizzle 0 1016 58 6437 3.6 40 07:19 10.10.2019
444 Snow 1 1018 86 6437 4.6 50 06:40 10.10.2019
445 Drizzle 2 1015 74 9656 7.7 20 05:57 10.10.2019
446 Clouds 3 1014 69 16093 7.7 360 05:22 10.10.2019
447 Clouds 5 1015 55 16093 8.2 50 04:37 10.10.2019
448 Clouds 10 1011 49 16093 10.8 360 02:49 10.10.2019
449 Haze 21 1005 17 8047 14.9 20 01:41 10.10.2019
450 Haze 20 1005 17 8047 14.9 20 01:41 10.10.2019
451 Clouds 24 1002 7 16093 5.7 250 01:22 10.10.2019
452 Clear 25 1002 6 16093 2.6 120 00:41 10.10.2019
453 Clouds 25 1002 7 16093 5.1 200 00:19 10.10.2019
454 Clouds 26 1002 6 16093 5.1 200 23:38 09.10.2019
455 Clouds 26 1003 8 16093 4.1 190 23:19 09.10.2019
456 Clouds 26 1003 8 16093 4.1 190 23:19 09.10.2019
457 Clear 26 1003 6 16093 3.1 110 22:42 09.10.2019
458 Clouds 26 1004 9 16093 4.6 180 22:23 09.10.2019
459 Clouds 26 1004 9 16093 4.6 180 21:59 09.10.2019
460 Clear 26 1004 7 16093 4.6 150 21:39 09.10.2019
461 Clouds 25 1005 10 16093 3.6 180 21:19 09.10.2019
462 Clouds 25 1005 10 16093 3.6 180 20:55 09.10.2019
463 Clear 25 1006 8 16093 5.7 120 20:37 09.10.2019
464 Clouds 24 1006 10 16093 5.7 220 20:18 09.10.2019
465 Clouds 24 1006 10 16093 5.7 220 20:18 09.10.2019
466 Clouds 24 1006 10 16093 5.7 220 20:18 09.10.2019
467 Clear 23 1007 11 16093 3.6 140 19:45 09.10.2019
468 Clouds 22 1008 13 16093 5.25 179.356 19:23 09.10.2019
469 Clouds 21 1008 13 16093 5.25 179.356 18:57 09.10.2019
470 Clouds 20 1009 15 16093 1.5 0 18:37 09.10.2019
471 Clouds 18 1008 25 32767 3.1 0 18:18 09.10.2019
472 Clouds 17 1008 25 32767 3.1 0 17:54 09.10.2019
473 Clouds 13 1009 22 16093 4.1 190 17:36 09.10.2019
474 Clouds 13 1008 17 16093 5.1 220 17:18 09.10.2019
475 Clouds 12 1008 23 16093 4.1 180 16:40 09.10.2019
476 Clouds 12 1009 25 16093 1.61 189.415 16:21 09.10.2019
477 Clouds 12 1009 25 16093 1.61 189.415 15:58 09.10.2019
478 Clouds 11 1009 23 16093 4.1 180 15:39 09.10.2019
479 Clouds 9 1009 27 16093 2.1 130 15:19 09.10.2019
480 Clear 8 1010 51 16093 1.8 220.255 14:56 09.10.2019
481 Clear 8 1010 51 16093 1.8 220.255 14:37 09.10.2019
482 Clouds 8 1009 27 16093 2.6 160 14:18 09.10.2019
483 Clear 8 1009 25 16093 5.1 250 13:39 09.10.2019
484 Clouds 8 1010 31 16093 2.1 150 13:20 09.10.2019
485 Clear 8 1010 48 16093 2.28 218.883 12:57 09.10.2019
486 Clear 9 1010 48 16093 2.28 218.883 12:38 09.10.2019
487 Clouds 8 1009 24 16093 4.1 120 12:20 09.10.2019
488 Clouds 8 1009 24 16093 4.1 120 11:55 09.10.2019
489 Clouds 8 1009 24 16093 4.1 120 11:55 09.10.2019
490 Clear 8 1010 51 16093 2.1 150 11:36 09.10.2019
491 Clear 8 1010 51 16093 2.1 150 11:36 09.10.2019
492 Clear 9 1010 21 16093 3.27 248.667 11:18 09.10.2019
493 Clear 8 1011 51 16093 3.27 248.667 10:42 09.10.2019
494 Clear 8 1011 24 16093 1.5 130 10:20 09.10.2019
495 Clear 9 1011 24 16093 1.5 130 09:56 09.10.2019
496 Clear 10 1011 39 16093 3.27 248.667 09:38 09.10.2019
497 Clouds 9 1010 18 16093 4.6 220 09:18 09.10.2019
498 Clear 10 1011 29 16093 2.1 200 08:39 09.10.2019
499 Clear 10 1011 18 16093 2.6 150 08:20 09.10.2019
500 Clear 11 1012 36 16093 2.1 330 07:47 09.10.2019
501 Clear 11 1012 20 16093 3.1 190 07:25 09.10.2019
502 Clear 11 1012 20 16093 3.1 190 07:25 09.10.2019
503 Clear 11 1011 19 16093 2.6 240 07:25 09.10.2019
504 Clear 11 1012 20 16093 3.1 190 06:59 09.10.2019
505 Clear 12 1011 15 16093 3.1 250 06:41 09.10.2019
506 Clear 12 1012 34 16093 2.25 261.964 05:53 09.10.2019
507 Clear 13 1013 31 16093 2.25 261.964 05:18 09.10.2019
508 Clear 16 1012 20 16093 2.25 261.964 03:48 09.10.2019
509 Clouds 20 1011 7 16093 3.1 70 02:34 09.10.2019
510 Clear 24 1011 6 16093 3.1 90 01:39 09.10.2019
511 Clear 24 1011 6 16093 3.1 90 01:39 09.10.2019
512 Clouds 24 1011 5 16093 4.1 60 01:18 09.10.2019
513 Clouds 25 1011 5 16093 4.1 60 00:55 09.10.2019
514 Clouds 25 1011 5 16093 4.1 60 00:55 09.10.2019
515 Clear 25 1012 5 16093 4.1 40 00:36 09.10.2019
516 Clouds 25 1011 5 16093 6.2 40 00:18 09.10.2019
517 Clear 25 1012 6 16093 2.6 30 23:38 08.10.2019
518 Clouds 25 1011 5 16093 5.1 30 23:18 08.10.2019
519 Clouds 25 1011 5 16093 5.1 30 22:55 08.10.2019
520 Clear 25 1012 5 16093 2.1 10 22:36 08.10.2019
521 Clouds 25 1012 6 16093 5.7 80 22:18 08.10.2019
522 Clouds 25 1012 6 16093 5.7 80 21:55 08.10.2019
523 Clear 25 1013 5 16093 2.6 340 21:36 08.10.2019
524 Clouds 24 1013 5 16093 2.1 0 21:18 08.10.2019
525 Clear 24 1014 6 16093 2.6 110 20:54 08.10.2019
526 Clear 24 1014 6 16093 2.6 110 20:36 08.10.2019
527 Clouds 23 1013 5 16093 2.1 0 20:18 08.10.2019
528 Clear 22 1015 13 16093 2.1 60 19:41 08.10.2019
529 Clouds 20 1014 7 16093 4.1 220 19:23 08.10.2019
530 Clouds 19 1014 12 32767 3.4 227.361 18:57 08.10.2019
531 Clouds 19 1014 11 16093 2.6 230 18:39 08.10.2019
532 Clouds 16 1015 9 16093 2.6 0 18:19 08.10.2019
533 Clouds 16 1015 9 16093 2.6 0 17:56 08.10.2019
534 Clear 15 1016 25 16093 0.95 289.74 17:56 08.10.2019
535 Clouds 13 1015 15 16093 4.6 190 17:38 08.10.2019
536 Clouds 13 1014 13 16093 4.1 230 17:18 08.10.2019
537 Clear 11 1016 36 16093 0.95 289.74 16:41 08.10.2019
538 Clouds 11 1015 17 16093 3.6 200 16:22 08.10.2019
539 Clouds 11 1015 17 16093 3.6 200 15:57 08.10.2019
540 Clouds 10 1015 18 16093 3.1 210 15:38 08.10.2019
541 Clouds 8 1015 26 16093 2.6 170 15:19 08.10.2019
542 Clouds 7 1015 18 16093 4.6 180 14:42 08.10.2019
543 -273 0 0 0 0 0 14:42 08.10.2019
544 Clouds 7 1015 33 16093 3.1 140 14:22 08.10.2019
545 Clouds 7 1015 33 16093 3.1 140 13:59 08.10.2019
546 Clouds 6 1015 23 16093 5.1 180 13:39 08.10.2019
547 Clouds 7 1016 30 16093 3.6 120 13:21 08.10.2019
548 Clouds 7 1016 30 16093 3.6 120 12:59 08.10.2019
549 Clear 7 1016 26 16093 3.1 190 12:40 08.10.2019
550 Clear 7 1016 35 16093 2.6 140 12:20 08.10.2019
551 Clear 7 1016 35 16093 2.6 140 11:56 08.10.2019
552 Clear 7 1016 18 16093 1.95 233.664 11:37 08.10.2019
553 Clear 7 1017 35 16093 2.6 150 11:19 08.10.2019
554 Clear 7 1016 15 16093 2.1 190 10:40 08.10.2019
555 Clear 7 1018 47 16093 1.95 233.664 10:22 08.10.2019
556 Clear 8 1016 13 16093 3.6 230 09:58 08.10.2019
557 Clear 8 1016 18 16093 3.6 240 09:40 08.10.2019
558 Clear 8 1017 31 16093 1.5 210 09:20 08.10.2019
559 Clear 8 1018 41 16093 2.11 272.903 08:44 08.10.2019
560 Clear 8 1017 24 16093 3.1 250 08:25 08.10.2019
561 Clear 9 1018 33 16093 1.94 248.353 07:46 08.10.2019
562 Clear 10 1018 21 16093 2.6 240 07:23 08.10.2019
563 Clear 11 1018 24 16093 2.1 160 06:56 08.10.2019
564 Clear 10 1018 22 16093 3.1 290 06:34 08.10.2019
565 Clear 11 1018 22 32767 1.5 260 05:57 08.10.2019
566 Clear 11 1018 22 32767 1.5 260 05:57 08.10.2019
567 Clear 11 1019 39 16093 2.48 259.121 05:38 08.10.2019
568 Clear 13 1019 34 16093 2.48 259.121 04:42 08.10.2019
569 Clouds 16 1019 11 32767 3.1 350 03:29 08.10.2019
570 Clouds 20 1018 5 16093 3.1 130 02:40 08.10.2019
571 Clear 23 1019 5 16093 2.65 102.81 01:49 08.10.2019
572 Clouds 23 1018 3 16093 2.65 102.81 01:31 08.10.2019
573 Clouds 24 1019 4 16093 2.1 0 00:50 08.10.2019
574 Clouds 24 1019 4 16093 2.1 90 00:21 08.10.2019
575 Clear 24 1020 5 16093 2.1 140 23:41 07.10.2019
576 Clear 24 1020 3 16093 1.5 0 23:21 07.10.2019
577 Clear 24 1020 3 16093 1.5 0 22:58 07.10.2019
578 Clouds 24 1020 5 16093 2.1 40 22:40 07.10.2019
579 Clear 23 1022 10 16093 1.5 30 22:20 07.10.2019
580 Clouds 23 1021 12 32186 2.1 100 21:57 07.10.2019
581 Clear 22 1022 10 16093 2.1 60 21:39 07.10.2019
582 Clouds 21 1022 7 16093 2.6 0 21:20 07.10.2019
583 Clouds 20 1022 14 16093 3.1 110 20:58 07.10.2019
584 Clear 20 1024 10 16093 3.1 130 20:39 07.10.2019
585 Clouds 19 1023 13 16093 2.1 0 20:20 07.10.2019
586 Clear 18 1025 14 16093 1.5 100 19:58 07.10.2019
587 Clear 18 1025 14 16093 1.5 100 19:39 07.10.2019
588 Clouds 17 1024 11 16093 2.1 350 19:19 07.10.2019
589 Clouds 16 1024 11 16093 2.1 350 18:56 07.10.2019
590 Clouds 16 1024 11 16093 2.1 350 18:56 07.10.2019
591 Clear 15 1026 22 16093 2.23 132.856 18:38 07.10.2019
592 Clear 14 1025 16 16093 3.1 210 18:18 07.10.2019
593 Clear 12 1027 27 16093 1.39 201.87 17:43 07.10.2019
594 Clouds 10 1025 42 16093 4.6 220 17:20 07.10.2019
595 Clear 8 1026 31 16093 1.39 201.87 16:56 07.10.2019
596 Clouds 7 1026 56 16093 2.1 200 16:38 07.10.2019
597 Clear 6 1026 52 16093 2.6 160 16:19 07.10.2019
598 Clouds 4 1026 64 16093 4.6 200 15:44 07.10.2019
599 Clouds 1 1026 64 16093 4.6 200 15:25 07.10.2019
600 Clouds 1 1026 64 16093 2.1 160 14:55 07.10.2019
601 Clear 1 1028 79 11265 0.83 296.627 14:37 07.10.2019
602 Clear 1 1026 64 16093 4.1 110 14:18 07.10.2019
603 Clear 1 1027 79 16093 0.83 296.627 13:41 07.10.2019
604 Clear 2 1026 60 16093 3.1 150 13:19 07.10.2019
605 Clear 2 1026 60 16093 3.1 150 12:55 07.10.2019
606 Clear 3 1026 36 16093 1.19 264.309 12:37 07.10.2019
607 Clear 3 1026 56 16093 3.1 180 12:18 07.10.2019
608 Clear 3 1026 56 16093 3.1 180 11:56 07.10.2019
609 Clear 3 1028 74 16093 2 331.47 11:37 07.10.2019
610 Clear 3 1026 52 16093 5.1 160 11:18 07.10.2019
611 Clear 3 1028 69 16093 2 331.47 10:41 07.10.2019
612 Clear 3 1028 69 16093 2 331.47 10:41 07.10.2019
613 Clear 3 1027 52 16093 4.1 170 10:20 07.10.2019
614 Clear 3 1027 52 16093 4.1 170 10:20 07.10.2019
615 Clear 4 1028 23 16093 2 331.47 09:42 07.10.2019
616 Clear 4 1026 36 16093 2.68 295.19 09:23 07.10.2019
617 Clear 5 1027 38 16093 1.5 280 08:56 07.10.2019
618 Clear 5 1028 24 16093 2.27 290.666 08:38 07.10.2019
619 Clear 5 1027 45 16093 4.6 180 08:19 07.10.2019
620 Clear 6 1028 64 16093 1.5 200 07:41 07.10.2019
621 Clear 6 1027 42 16093 4.1 180 07:21 07.10.2019
622 Clear 6 1027 42 16093 4.1 180 07:21 07.10.2019
623 Clear 6 1029 64 16093 2.27 290.666 06:48 07.10.2019
624 Clear 7 1027 39 16093 4.1 190 06:27 07.10.2019
625 Clear 7 1029 51 16093 2.66 140.506 05:42 07.10.2019
626 Clear 8 1027 34 16093 3.1 150 05:21 07.10.2019
627 Clear 10 1027 27 16093 2.6 150 04:23 07.10.2019
628 Clear 11 1028 27 16093 1.5 110 03:44 07.10.2019
629 Clear 12 1026 24 16093 2.6 130 03:19 07.10.2019
630 Clear 12 1026 24 16093 2.6 130 03:19 07.10.2019
631 Clear 14 1026 21 32767 2.1 110 02:20 07.10.2019
632 Clear 14 1026 21 32767 2.1 110 02:20 07.10.2019
633 Clear 15 1027 14 16093 1.5 150 01:50 07.10.2019
634 Clouds 16 1026 17 16093 2.6 150 01:21 07.10.2019
635 Clear 16 1027 14 16093 2.6 170 00:38 07.10.2019
636 Clouds 16 1026 18 16093 3.69 133.79 00:19 07.10.2019
637 Clear 16 1028 16 16093 2.6 180 23:42 06.10.2019
638 Clear 16 1028 16 16093 2.6 180 23:42 06.10.2019
639 Clouds 16 1027 22 16093 2.6 220 23:21 06.10.2019
640 Clouds 15 1027 21 16093 4.1 130 22:59 06.10.2019
641 Clear 15 1028 17 16093 3.1 160 22:40 06.10.2019
642 Clouds 15 1028 22 16093 3.69 133.79 22:21 06.10.2019
643 Clouds 15 1028 22 16093 3.69 133.79 22:21 06.10.2019
644 Clear 14 1029 19 16093 3.1 150 21:57 06.10.2019
645 Clear 14 1029 19 16093 3.1 150 21:37 06.10.2019
646 Clouds 14 1029 26 16093 2.66 109.697 21:19 06.10.2019
647 Clouds 13 1029 26 16093 2.66 109.697 20:57 06.10.2019
648 Clear 13 1031 20 16093 2.6 160 20:38 06.10.2019
649 Clouds 12 1029 22 16093 4.6 30 20:20 06.10.2019
650 Clouds 12 1030 25 16093 2.6 40 19:57 06.10.2019
651 Clear 12 1031 25 16093 1.5 160 19:37 06.10.2019
652 Clear 12 1031 25 16093 1.5 160 19:37 06.10.2019
653 Clouds 12 1030 29 16093 4.1 20 19:19 06.10.2019
654 Clouds 11 1030 29 16093 4.1 20 18:56 06.10.2019
655 Clear 11 1031 27 16093 1.17 103.112 18:38 06.10.2019
656 Clear 11 1031 27 16093 1.17 103.112 18:38 06.10.2019
657 Clouds 10 1029 37 16093 3.6 40 18:19 06.10.2019
658 Clear 9 1031 31 16093 2.6 50 17:43 06.10.2019
659 Clouds 9 1028 42 16093 4.6 40 17:21 06.10.2019
660 Clouds 8 1029 36 32767 2.6 90 16:59 06.10.2019
661 Clear 8 1030 36 16093 2.54 25.496 16:41 06.10.2019
662 Clouds 7 1028 39 16093 2.6 330 16:23 06.10.2019
663 Clouds 7 1029 45 16093 2.54 25.496 15:45 06.10.2019
664 Clouds 7 1026 42 16093 3.1 360 15:22 06.10.2019
665 Clouds 7 1027 36 16093 3.1 340 14:58 06.10.2019
666 Clouds 7 1027 36 16093 3.1 340 14:58 06.10.2019
667 Clouds 7 1028 36 16093 2.1 40 14:40 06.10.2019
668 Clouds 7 1025 45 16093 2.6 330 14:21 06.10.2019
669 Clouds 8 1027 36 16093 1.5 310 13:55 06.10.2019
670 Clouds 8 1027 36 16093 1.5 310 13:37 06.10.2019
671 Clouds 8 1024 36 16093 2.1 360 13:18 06.10.2019
672 Clouds 8 1024 36 16093 2.1 360 12:55 06.10.2019
673 Clouds 8 1024 36 16093 2.1 360 12:55 06.10.2019
674 Clouds 8 1025 31 16093 3.1 20 12:37 06.10.2019
675 Clouds 8 1023 42 16093 4.1 300 12:19 06.10.2019
676 Clouds 7 1023 39 16093 3.6 360 11:42 06.10.2019
677 Clouds 7 1022 36 16093 6.7 340 11:24 06.10.2019
678 Clouds 7 1022 36 16093 6.7 340 11:24 06.10.2019
679 Clouds 7 1022 36 16093 5.1 350 10:56 06.10.2019
680 Clouds 6 1023 42 16093 2.6 350 10:56 06.10.2019
681 Clouds 6 1023 42 16093 2.6 350 10:38 06.10.2019
682 Clouds 6 1022 36 16093 1.5 360 10:19 06.10.2019
683 Clouds 6 1022 34 16093 1.5 320 09:41 06.10.2019
684 Clear 7 1019 34 16093 8.2 330 09:20 06.10.2019
685 Clear 7 1021 45 16093 2.6 300 08:50 06.10.2019
686 Clear 8 1019 34 16093 10.3 340 08:30 06.10.2019
687 Clouds 8 1019 42 16093 3.1 250 07:59 06.10.2019
688 Clouds 8 1019 42 16093 3.1 250 07:59 06.10.2019
689 Clear 9 1021 45 16093 2.1 290 07:40 06.10.2019
690 Clouds 9 1019 32 16093 3.6 210 06:59 06.10.2019
691 Clear 11 1018 37 16093 3.6 140 05:41 06.10.2019
692 Clear 11 1018 37 16093 3.6 140 05:41 06.10.2019
693 Clear 13 1020 23 16093 1.5 70 04:40 06.10.2019
694 Clouds 15 1018 25 16093 5.7 140 02:56 06.10.2019
695 Clouds 16 1017 22 16093 6.7 160 02:32 06.10.2019
696 Clear 18 1018 16 16093 3.6 70 01:49 06.10.2019
697 Clouds 18 1017 20 16093 6.7 130 01:30 06.10.2019
698 Clouds 18 1017 20 16093 6.7 130 01:30 06.10.2019
699 Clear 19 1019 14 16093 4.1 140 00:59 06.10.2019
700 Clear 19 1019 14 16093 4.1 140 00:36 06.10.2019
701 Clouds 19 1018 22 16093 6.2 150 00:18 06.10.2019
702 Clear 19 1019 13 16093 4.6 160 23:40 05.10.2019
703 Clouds 18 1019 16 16093 6.2 120 23:19 05.10.2019
704 Clear 18 1020 12 16093 3.1 150 22:54 05.10.2019
705 Clear 18 1020 12 16093 3.1 150 22:54 05.10.2019
706 Clouds 18 1020 18 16093 5.7 100 22:36 05.10.2019
707 Clouds 18 1019 23 16093 6.7 110 22:18 05.10.2019
708 Clouds 18 1019 23 16093 6.7 110 22:18 05.10.2019
709 Clear 17 1021 12 16093 3.6 170 21:41 05.10.2019
710 Clouds 16 1020 21 16093 5.1 100 21:22 05.10.2019
711 Clouds 16 1020 21 16093 5.1 100 20:57 05.10.2019
712 Clear 15 1022 12 16093 4.6 170 20:39 05.10.2019
713 Clouds 15 1021 22 16093 7.7 110 20:19 05.10.2019
714 Clouds 15 1021 22 16093 7.7 110 20:19 05.10.2019
715 Clear 14 1023 16 16093 4.6 150 19:41 05.10.2019
716 Clouds 14 1022 24 16093 7.2 90 19:22 05.10.2019
717 Clouds 14 1022 24 16093 7.2 90 19:22 05.10.2019
718 Clouds 13 1022 24 16093 7.2 90 18:58 05.10.2019
719 Clear 13 1023 20 16093 6.2 130 18:39 05.10.2019
720 Clouds 12 1021 32 16093 7.2 110 18:21 05.10.2019
721 Clouds 11 1021 32 16093 7.2 110 17:59 05.10.2019
722 Clear 10 1022 32 16093 5.1 100 17:40 05.10.2019
723 Clouds 9 1021 46 16093 3.6 110 17:21 05.10.2019
724 Clear 9 1021 39 16093 3.6 70 16:42 05.10.2019
725 Clouds 8 1020 52 16093 5.1 140 16:23 05.10.2019
726 Clouds 8 1020 52 16093 5.1 140 15:59 05.10.2019
727 Clear 7 1021 49 16093 3.25 126.588 15:40 05.10.2019
728 Clouds 6 1019 65 16093 3.6 140 15:21 05.10.2019
729 Clouds 5 1019 65 16093 4.6 160 14:58 05.10.2019
730 Clouds 5 1019 65 16093 4.6 160 14:58 05.10.2019
731 Clouds 6 1019 65 16093 4.6 160 14:40 05.10.2019
732 Clouds 6 1019 56 16093 4.1 140 14:20 05.10.2019
733 Clear 6 1018 49 16093 4.6 100 13:42 05.10.2019
734 Clouds 7 1018 31 16093 2.6 0 13:23 05.10.2019
735 Clouds 7 1018 31 16093 5.1 150 12:47 05.10.2019
736 Clear 7 1018 22 16093 3.6 200 12:21 05.10.2019
737 Clear 7 1018 22 16093 3.6 200 12:21 05.10.2019
738 Clear 8 1018 22 16093 3.6 200 11:59 05.10.2019
739 Clear 8 1018 42 16093 1.5 290 11:39 05.10.2019
740 Clear 8 1017 34 16093 3.1 260 11:19 05.10.2019
741 Clear 9 1017 27 16093 11.8 290 10:45 05.10.2019
742 Clear 9 1017 27 16093 11.8 290 10:26 05.10.2019
743 Clear 9 1017 27 16093 11.8 290 10:26 05.10.2019
744 Clear 10 1017 27 16093 11.8 280 09:59 05.10.2019
745 Clear 10 1015 26 16093 16.5 280 09:39 05.10.2019
746 Clear 10 1015 26 16093 16.5 280 09:39 05.10.2019
747 Clear 11 1016 50 16093 5.1 100 09:20 05.10.2019
748 Clear 11 1014 24 16093 17 280 08:40 05.10.2019
749 Clear 12 1015 26 16093 3.1 230 08:20 05.10.2019
750 Clear 12 1015 26 16093 3.1 230 07:57 05.10.2019
751 Clear 12 1014 21 16093 11.8 280 07:35 05.10.2019
752 Clear 12 1013 19 16093 3.6 280 06:59 05.10.2019
753 Clear 13 1013 54 16093 4.45 12.843 06:28 05.10.2019
754 Clear 12 1012 58 16093 3.1 170 06:28 05.10.2019
755 Clouds 13 1012 54 16093 1.67 170.199 05:51 05.10.2019
756 Clear 16 1011 32 16093 2.6 350 03:57 05.10.2019
757 Clouds 16 1009 42 16093 2.1 310 03:28 05.10.2019
758 Haze 21 1011 32 16093 2.1 290 01:41 05.10.2019
759 Haze 22 1010 30 16093 1.87 179.174 01:20 05.10.2019
760 Clear 23 1011 30 16093 2.6 320 00:43 05.10.2019
761 Clouds 22 1010 22 16093 5.1 280 00:23 05.10.2019
762 Clear 23 1012 30 16093 1.95 12.924 23:44 04.10.2019
763 Clouds 23 1012 34 16093 3.1 360 23:26 04.10.2019
764 Clouds 23 1012 34 16093 3.1 360 23:26 04.10.2019
765 Clouds 22 1012 34 16093 3.1 360 22:59 04.10.2019
766 Clear 23 1013 32 16093 1.5 310 22:39 04.10.2019
767 Clouds 23 1012 20 16093 9.8 220 22:20 04.10.2019
768 Clouds 22 1012 17 16093 9.3 200 21:57 04.10.2019
769 Clear 21 1014 39 16093 3.6 10 21:38 04.10.2019
770 Clouds 20 1014 30 16093 3.6 30 21:19 04.10.2019
771 -273 0 0 0 0 0 20:55 04.10.2019
772 Clear 19 1016 41 16093 3.1 30 20:36 04.10.2019
773 Clouds 17 1015 39 16093 2.1 80 20:18 04.10.2019
774 Clear 18 1018 50 16093 0.88 85.345 19:45 04.10.2019
775 Clouds 17 1016 41 16093 3.6 20 19:26 04.10.2019
776 Clouds 16 1017 39 16093 2.6 0 18:57 04.10.2019
777 Clear 15 1019 62 16093 2.1 20 18:38 04.10.2019
778 Clouds 12 1018 66 16093 2.1 0 18:19 04.10.2019
779 Clear 10 1020 66 16093 1.5 10 17:42 04.10.2019
780 Clouds 10 1019 70 16093 2.04 333.623 17:22 04.10.2019
781 Clouds 9 1019 58 16093 2.04 333.623 16:59 04.10.2019
782 Clear 7 1021 81 16093 1.5 360 16:41 04.10.2019
783 Clear 8 1021 81 16093 1.5 360 16:41 04.10.2019
784 Clear 7 1019 70 16093 2.04 333.623 16:19 04.10.2019
785 Clouds 6 1019 80 16093 1.5 220 15:58 04.10.2019
786 Clouds 5 1019 80 16093 1.5 220 15:39 04.10.2019
787 Clear 4 1019 75 16093 2.1 240 15:21 04.10.2019
788 Clear 4 1019 75 16093 2.1 240 14:58 04.10.2019
789 Clear 5 1019 80 16093 2.6 240 14:39 04.10.2019
790 Clear 5 1019 75 16093 1.9 334.352 14:21 04.10.2019
791 Clear 5 1019 75 16093 3.1 360 13:45 04.10.2019
792 Clear 5 1019 70 16093 1.62 349.543 13:24 04.10.2019
793 Clear 5 1019 70 16093 1.62 349.543 12:58 04.10.2019
794 Clear 6 1021 93 16093 1.62 349.543 12:40 04.10.2019
795 Clear 6 1020 75 16093 2.22 334.451 12:21 04.10.2019
796 Clear 6 1020 70 16093 3.6 350 11:43 04.10.2019
797 Clear 6 1020 70 16093 3.6 350 11:42 04.10.2019
798 Clear 6 1020 61 16093 2.6 210 11:22 04.10.2019
799 Clear 7 1020 70 16093 2.22 334.451 10:55 04.10.2019
800 Clear 7 1020 70 16093 2.6 360 10:37 04.10.2019
801 Clear 7 1020 66 16093 3.1 330 10:18 04.10.2019
802 Clear 7 1021 86 16093 2.22 334.451 09:41 04.10.2019
803 Clear 8 1020 61 16093 1.5 354.771 09:23 04.10.2019
804 Clear 8 1022 93 16093 1.5 354.771 08:45 04.10.2019
805 Clear 8 1020 53 16093 5.7 180 08:26 04.10.2019
806 Clear 9 1022 81 16093 1.5 354.771 07:47 04.10.2019
807 Clear 9 1021 57 16093 1.5 354.771 07:26 04.10.2019
808 Clear 9 1021 50 16093 5.1 190 06:58 04.10.2019
809 Clear 10 1022 81 16093 1.5 200 06:39 04.10.2019
810 Clouds 10 1022 46 16093 5.7 190 06:20 04.10.2019
811 Clouds 10 1022 46 16093 5.7 190 06:20 04.10.2019
812 Clear 11 1022 47 16093 5.7 190 05:20 04.10.2019
813 Clear 12 1023 76 16093 1.12 262.786 04:37 04.10.2019
814 Clouds 14 1022 44 16093 4.6 160 03:18 04.10.2019
815 Clear 15 1022 47 16093 2.1 310 02:43 04.10.2019
816 Clear 17 1021 39 16093 6.7 160 01:53 04.10.2019
817 Clear 17 1021 39 16093 6.7 160 01:53 04.10.2019
818 Clear 18 1021 32 16093 4.1 170 01:26 04.10.2019
819 Clear 19 1021 30 16093 2.58 105.38 00:32 04.10.2019
820 Clear 19 1023 36 16093 1.5 290 23:39 03.10.2019
821 Clear 19 1022 32 16093 3.1 0 23:21 03.10.2019
822 Clear 19 1022 32 16093 3.1 0 22:57 03.10.2019
823 Clear 18 1024 36 16093 2.1 330 22:39 03.10.2019
824 Clear 18 1024 36 16093 2.1 330 22:39 03.10.2019
825 Clear 18 1022 34 16093 3.6 100 22:21 03.10.2019
826 Clear 17 1022 34 16093 3.6 100 21:57 03.10.2019
827 Clear 17 1025 41 16093 2.1 10 21:39 03.10.2019
828 Clouds 16 1024 47 16093 3.6 10 21:19 03.10.2019
829 Clouds 16 1024 47 16093 3.6 10 20:57 03.10.2019
830 Clear 15 1026 44 16093 3.1 50 20:38 03.10.2019
831 Clouds 15 1025 41 16093 2.1 0 20:20 03.10.2019
832 Clouds 14 1025 41 16093 2.1 0 19:55 03.10.2019
833 Clouds 14 1025 47 16093 4.6 180 19:37 03.10.2019
834 Clear 13 1025 47 16093 5.1 190 19:19 03.10.2019
835 Clear 13 1025 47 16093 5.1 190 18:54 03.10.2019
836 Clouds 12 1027 57 16093 2.1 330 18:36 03.10.2019
837 Clouds 11 1026 54 16093 6.2 180 18:18 03.10.2019
838 Clouds 10 1028 61 16093 1.5 340 17:42 03.10.2019
839 Clouds 9 1026 66 16093 2.6 210 17:21 03.10.2019
840 Clouds 9 1028 65 16093 1.5 350 16:54 03.10.2019
841 Clouds 9 1028 65 16093 1.5 350 16:54 03.10.2019
842 Clouds 9 1028 65 16093 1.5 350 16:54 03.10.2019
843 Clouds 9 1026 66 16093 4.6 120 16:36 03.10.2019
844 Clouds 8 1026 70 16093 2.6 220 16:18 03.10.2019
845 Clouds 8 1028 65 16093 2.1 360 15:42 03.10.2019
846 Clouds 8 1026 81 16093 3.6 340 15:23 03.10.2019
847 Clouds 8 1026 81 16093 3.6 340 14:56 03.10.2019
848 Clouds 8 1026 81 16093 3.6 340 14:56 03.10.2019
849 Clouds 8 1027 70 16093 2.1 60 14:36 03.10.2019
850 Clouds 9 1025 81 16093 2.1 130 14:18 03.10.2019
851 Clouds 9 1027 81 16093 3.1 70 13:43 03.10.2019
852 Clouds 9 1025 81 16093 3.1 140 13:22 03.10.2019
853 Clouds 9 1025 81 16093 4.6 170 12:58 03.10.2019
854 Clouds 9 1026 66 16093 3.93 126.336 12:39 03.10.2019
855 Clouds 9 1026 66 16093 3.93 126.336 12:39 03.10.2019
856 Clouds 8 1024 81 16093 3.1 140 12:19 03.10.2019
857 Clouds 8 1024 81 16093 3.1 140 11:56 03.10.2019
858 Clouds 8 1024 81 16093 3.1 140 11:56 03.10.2019
859 Clouds 8 1024 81 16093 3.1 140 11:56 03.10.2019
860 Clouds 8 1026 76 16093 1.5 110 11:37 03.10.2019
861 Clouds 8 1025 87 16093 2.6 130 11:19 03.10.2019
862 Clouds 8 1025 87 16093 2.6 160 10:42 03.10.2019
863 Clouds 9 1025 81 16093 4.1 100 10:19 03.10.2019
864 Clouds 9 1025 81 16093 4.1 100 09:59 03.10.2019
865 Clouds 9 1027 71 16093 2.6 170 09:40 03.10.2019
866 Clouds 9 1025 76 16093 1.5 120 09:22 03.10.2019
867 Clouds 9 1025 76 16093 1.5 120 08:59 03.10.2019
868 Clouds 9 1027 71 16093 4.81 151.787 08:40 03.10.2019
869 Clouds 10 1025 71 16093 2.1 100 08:22 03.10.2019
870 Clouds 10 1027 71 16093 4.81 151.787 07:41 03.10.2019
871 Clouds 10 1025 62 16093 4.81 151.787 07:19 03.10.2019
872 Clouds 10 1026 62 16093 1.5 360 06:51 03.10.2019
873 Clouds 10 1024 62 16093 0.17 98.227 06:25 03.10.2019
874 Clouds 10 1025 76 16093 2.1 10 05:47 03.10.2019
875 Clouds 10 1024 66 16093 3.1 40 05:20 03.10.2019
876 Clear 10 1024 81 16093 0.17 98.227 04:39 03.10.2019
877 Clear 12 1020 66 16093 4.1 30 03:26 03.10.2019
878 Clear 14 1021 62 16093 3.6 30 02:43 03.10.2019
879 Clear 16 1019 58 16093 2.1 30 01:59 03.10.2019
880 Clear 16 1019 48 16093 2.6 60 01:37 03.10.2019
881 Haze 17 1019 48 16093 3.04 325.593 00:51 03.10.2019
882 Haze 17 1017 45 16093 2.6 20 00:26 03.10.2019
883 Clear 16 1018 48 16093 1.66 187.232 23:44 02.10.2019
884 Clouds 16 1017 58 16093 1.5 0 23:22 02.10.2019
885 Clear 15 1018 58 16093 1.66 187.232 22:47 02.10.2019
886 Clouds 14 1016 51 16093 3.6 40 22:23 02.10.2019
887 Clouds 13 1019 66 16093 2.6 50 21:58 02.10.2019
888 Clouds 12 1019 66 16093 2.6 50 21:39 02.10.2019
889 Clouds 12 1017 62 16093 3.1 50 21:20 02.10.2019
890 Clouds 11 1019 66 16093 1.77 92.658 20:57 02.10.2019
891 Clouds 11 1019 66 16093 1.77 92.658 20:39 02.10.2019
892 Clouds 11 1017 62 16093 3.6 60 20:20 02.10.2019
893 Clouds 10 1018 66 16093 1.77 92.658 19:57 02.10.2019
894 Clouds 8 1020 81 16093 2.6 90 19:39 02.10.2019
895 Clouds 8 1018 76 16093 1.5 0 19:20 02.10.2019
896 Clouds 7 1020 93 11265 1.77 92.658 18:57 02.10.2019
897 Clouds 7 1020 93 11265 1.77 92.658 18:38 02.10.2019
898 Clouds 7 1018 93 4828 2.6 100 18:19 02.10.2019
899 Mist 7 1018 93 4828 2.6 100 17:56 02.10.2019
900 Drizzle 7 1020 93 6437 1.12 137.833 17:36 02.10.2019
901 Rain 6 1018 100 2414 5.7 120 17:18 02.10.2019
902 Rain 6 1017 100 2414 4.6 110 16:41 02.10.2019
903 Rain 6 1018 93 4828 1.5 50 16:21 02.10.2019
904 Rain 6 1017 100 2012 2.6 20 15:57 02.10.2019
905 Rain 6 1017 93 2414 2.1 10 15:38 02.10.2019
906 Rain 6 1017 93 2414 2.1 10 15:19 02.10.2019
907 Rain 6 1017 100 805 2.1 70 14:56 02.10.2019
908 Drizzle 6 1019 100 8047 1.5 80 14:38 02.10.2019
909 Drizzle 6 1019 100 8047 1.5 80 14:19 02.10.2019
910 Rain 6 1018 93 6437 1.5 70 13:43 02.10.2019
911 Rain 6 1018 93 6437 1.5 70 13:23 02.10.2019
912 Rain 6 1017 100 2816 2.1 60 12:57 02.10.2019
913 Rain 6 1018 93 3219 2.1 70 12:37 02.10.2019
914 Rain 6 1018 93 3219 2.1 70 12:37 02.10.2019
915 Rain 6 1018 93 3219 2.1 70 12:18 02.10.2019
916 Rain 6 1019 93 16093 2.1 90 11:43 02.10.2019
917 Rain 6 1019 93 16093 2.1 90 11:23 02.10.2019
918 Rain 6 1017 100 4023 2.6 70 10:42 02.10.2019
919 Rain 6 1019 100 6437 2.1 70 10:20 02.10.2019
920 Rain 6 1017 100 1609 2.6 50 09:57 02.10.2019
921 Rain 6 1019 100 11265 2.6 80 09:36 02.10.2019
922 Rain 6 1019 100 11265 2.6 80 09:18 02.10.2019
923 Rain 6 1017 100 4828 3.1 70 08:42 02.10.2019
924 Drizzle 7 1019 93 6437 2.1 80 08:22 02.10.2019
925 Rain 7 1017 100 2816 4.6 70 07:56 02.10.2019
926 Rain 7 1017 100 4023 4.1 70 07:37 02.10.2019
927 Rain 7 1017 100 4023 4.1 70 07:19 02.10.2019
928 Rain 7 1018 100 4828 4.1 70 06:31 02.10.2019
929 Rain 8 1017 100 4828 3.6 60 05:52 02.10.2019
930 Rain 8 1017 100 4828 5.1 80 05:23 02.10.2019
931 Rain 8 1018 93 11265 2.1 70 04:41 02.10.2019
932 Rain 8 1016 100 11265 4.1 50 03:51 02.10.2019
933 Rain 8 1017 93 11265 2.6 60 02:39 02.10.2019
934 Rain 9 1017 93 11265 2.6 60 02:20 02.10.2019
935 Drizzle 9 1014 76 16093 4.6 20 01:18 02.10.2019
936 Drizzle 10 1016 93 4023 2.1 60 00:30 02.10.2019
937 Clouds 10 1014 76 16093 5.7 40 23:59 01.10.2019
938 Clouds 10 1016 87 16093 2.6 70 23:41 01.10.2019
939 Clouds 10 1016 87 16093 2.6 70 23:41 01.10.2019
940 Clouds 10 1016 87 16093 2.6 70 23:22 01.10.2019
941 Clouds 10 1014 76 16093 5.1 350 22:58 01.10.2019
942 Clouds 9 1016 87 16093 2.6 50 22:38 01.10.2019
943 Clouds 9 1014 81 16093 5.7 50 22:18 01.10.2019
944 Clouds 9 1014 76 16093 5.1 70 21:44 01.10.2019
945 Clouds 10 1016 87 16093 1.5 30 21:24 01.10.2019
946 Clouds 10 1017 87 16093 2.1 80 20:59 01.10.2019
947 Clouds 10 1017 87 0 2.1 100 20:39 01.10.2019
948 Clouds 10 1017 87 0 2.1 100 20:21 01.10.2019
949 Drizzle 10 1018 93 11265 2.6 60 19:59 01.10.2019
950 Drizzle 10 1018 93 4023 3.1 70 19:41 01.10.2019
951 Rain 10 1018 93 4023 3.1 70 19:23 01.10.2019
952 Rain 10 1018 93 4828 3.1 50 18:56 01.10.2019
953 Drizzle 10 1018 93 3219 2.6 60 18:38 01.10.2019
954 Drizzle 10 1018 93 3219 2.6 60 18:19 01.10.2019
955 Drizzle 9 1018 100 4023 3.1 40 17:43 01.10.2019
956 Drizzle 9 1018 100 4023 3.1 40 17:22 01.10.2019
957 Drizzle 9 1016 87 16093 4.1 110 16:59 01.10.2019
958 Drizzle 9 1016 87 16093 4.1 110 16:41 01.10.2019
959 Rain 9 1018 93 3219 3.1 60 16:22 01.10.2019
960 Rain 9 1017 93 4828 2.6 60 15:49 01.10.2019
961 Rain 10 1017 93 4023 2.1 80 15:25 01.10.2019
962 Rain 10 1015 100 11265 5.1 90 14:58 01.10.2019
963 Rain 10 1017 93 4828 3.1 80 14:40 01.10.2019
964 Rain 10 1017 93 4828 3.1 80 14:20 01.10.2019
965 Rain 10 1015 100 4023 3.84 79.071 13:56 01.10.2019
966 Rain 10 1017 93 6437 3.84 79.071 13:37 01.10.2019
967 Rain 10 1017 93 6437 3.84 79.071 13:37 01.10.2019
968 Rain 10 1017 93 6437 3.52 83.419 13:18 01.10.2019
969 Rain 10 1015 100 11265 3.6 100 12:55 01.10.2019
970 Rain 10 1015 100 16093 2.6 100 12:37 01.10.2019
971 Rain 10 1015 100 16093 2.6 100 12:18 01.10.2019
972 Mist 10 1015 87 6437 3.03 66.578 11:55 01.10.2019
973 Mist 10 1017 87 11265 1.5 80 11:36 01.10.2019
974 Clouds 11 1016 93 16093 2.1 50 11:18 01.10.2019
975 Clouds 11 1016 93 16093 2.1 50 10:45 01.10.2019
976 Clouds 11 1017 87 16093 1.5 40 10:27 01.10.2019
977 Mist 11 1016 93 8047 1.5 340 09:45 01.10.2019
978 Mist 11 1017 87 16093 2.34 37.826 09:26 01.10.2019
979 Drizzle 11 1016 93 4828 2.6 330 08:44 01.10.2019
980 Clouds 12 1018 76 16093 2.1 50 08:25 01.10.2019
981 Clouds 12 1017 76 16093 2.6 10 07:53 01.10.2019
982 Clouds 12 1017 71 16093 3.1 10 07:26 01.10.2019
983 Clouds 12 1017 71 16093 3.1 10 07:26 01.10.2019
984 Clouds 12 1017 71 16093 3.1 30 06:51 01.10.2019
985 Clouds 12 1017 71 16093 3.6 40 06:25 01.10.2019
986 Clouds 13 1016 76 16093 4.6 40 05:59 01.10.2019
987 Clouds 13 1018 66 16093 3.6 40 05:40 01.10.2019
988 Clouds 14 1017 62 16093 4.1 40 04:42 01.10.2019
989 Clouds 16 1015 55 16093 6.7 30 03:34 01.10.2019
990 Smoke 19 1014 52 16093 7.2 40 02:19 01.10.2019
991 Smoke 21 1013 37 16093 5.7 40 01:51 01.10.2019
992 Clouds 22 1013 35 16093 4.6 340 00:44 01.10.2019
993 Clouds 22 1013 35 16093 4.6 340 00:44 01.10.2019
994 Clouds 22 1013 35 16093 4.6 340 00:24 01.10.2019
995 Clouds 22 1013 35 16093 4.6 340 00:24 01.10.2019
996 Clouds 22 1013 35 16093 4.6 340 00:24 01.10.2019
997 Clear 22 1013 37 16093 3.6 20 23:42 30.09.2019
998 Clear 22 1013 37 16093 3.6 20 23:42 30.09.2019
999 Clear 21 1013 37 16093 3.6 20 23:22 30.09.2019
1000 Clear 21 1013 37 16093 2.1 10 22:55 30.09.2019
1001 Clear 21 1013 42 16093 4.1 360 22:37 30.09.2019
1002 Clear 20 1013 42 16093 4.1 360 22:19 30.09.2019
1003 Clouds 20 1014 40 16093 1.5 60 21:55 30.09.2019
1004 Clear 20 1014 45 16093 3.1 350 21:36 30.09.2019
1005 Clear 20 1014 45 16093 3.1 350 21:18 30.09.2019
1006 Clear 19 1014 45 16093 4.6 20 20:54 30.09.2019
1007 Clear 19 1014 45 16093 4.6 360 20:36 30.09.2019
1008 Clear 19 1014 45 16093 4.6 360 20:36 30.09.2019
1009 Clear 18 1014 45 16093 4.6 360 20:18 30.09.2019
1010 Clear 18 1014 45 16093 4.6 360 20:18 30.09.2019
1011 Clear 18 1014 45 16093 4.6 360 20:18 30.09.2019
1012 Clear 17 1014 48 16093 2.6 350 19:42 30.09.2019
1013 Clear 17 1014 48 16093 2.6 350 19:20 30.09.2019
1014 Clear 16 1014 48 16093 3.1 20 18:59 30.09.2019
1015 Clear 16 1015 51 16093 4.6 10 18:41 30.09.2019
1016 Clear 15 1015 51 16093 4.6 10 18:20 30.09.2019
1017 Clear 14 1015 54 16093 4.1 40 17:56 30.09.2019
1018 Clear 14 1015 54 16093 5.1 20 17:38 30.09.2019
1019 Clear 14 1015 54 16093 5.1 20 17:19 30.09.2019
1020 -273 0 0 0 0 0 16:42 30.09.2019
1021 Clear 12 1015 62 16093 3.1 320 16:20 30.09.2019
1022 Clear 12 1015 62 16093 3.1 320 16:20 30.09.2019
1023 Clear 12 1015 62 16093 3.1 320 16:20 30.09.2019
1024 Clear 11 1014 66 16093 2.6 320 15:59 30.09.2019
1025 Clouds 11 1012 81 16093 4.1 300 15:39 30.09.2019
1026 Clouds 11 1012 81 16093 4.1 300 15:39 30.09.2019
1027 Clear 10 1014 81 0 6.25 339.482 15:19 30.09.2019
1028 Clouds 11 1011 76 16093 3.6 300 14:58 30.09.2019
1029 Clouds 11 1011 76 16093 3.6 300 14:38 30.09.2019
1030 Clouds 11 1011 76 16093 3.6 300 14:19 30.09.2019
1031 Clear 12 1011 62 16093 7.2 360 13:59 30.09.2019
1032 Clear 12 1011 62 16093 8.2 10 13:40 30.09.2019
1033 Clear 13 1011 62 16093 8.2 10 13:21 30.09.2019
1034 Clear 14 1010 58 16093 9.3 350 12:44 30.09.2019
1035 Clear 14 1010 58 16093 9.3 350 12:44 30.09.2019
1036 Clear 15 1009 62 16093 8.7 340 12:25 30.09.2019
1037 Clear 16 1009 58 16093 6.7 330 11:59 30.09.2019
1038 Clear 16 1009 58 16093 6.7 330 11:59 30.09.2019
1039 Clear 16 1008 31 16093 5.1 160 11:40 30.09.2019
1040 Clear 16 1008 31 16093 5.1 160 11:21 30.09.2019
1041 Clear 18 1008 36 16093 2.6 270 10:56 30.09.2019
1042 Clear 18 1008 31 16093 5.1 160 10:37 30.09.2019
1043 Clear 18 1008 31 16093 5.1 160 10:37 30.09.2019
1044 Clear 19 1008 31 16093 5.1 160 10:18 30.09.2019
1045 Clear 18 1008 36 16093 4.6 160 09:40 30.09.2019
1046 Clear 18 1008 26 16093 4.6 160 09:21 30.09.2019
1047 Clear 18 1008 26 16093 2.6 200 08:51 30.09.2019
1048 Clear 18 1008 27 16093 4.6 160 08:33 30.09.2019
1049 Clear 19 1008 26 16093 3.1 180 07:58 30.09.2019
1050 Clear 19 1007 26 16093 2.6 200 07:39 30.09.2019
1051 Clear 19 1007 26 16093 2.6 200 07:18 30.09.2019
1052 Clear 20 1007 26 16093 4.1 210 06:42 30.09.2019
1053 Clouds 22 1008 18 16093 7.2 180 05:56 30.09.2019
1054 Clear 22 1007 15 16093 2.1 220 05:38 30.09.2019
1055 Clear 26 1005 8 16093 8.7 200 02:51 30.09.2019
1056 Clear 27 1004 7 16093 11.3 200 02:20 30.09.2019
1057 Clouds 28 1004 8 16093 13.9 210 01:24 30.09.2019
1058 -273 0 0 0 0 0 01:24 30.09.2019
1059 Clouds 29 1004 7 16093 11.3 200 00:37 30.09.2019
1060 Clear 30 1003 5 16093 9.3 200 00:19 30.09.2019
1061 Clouds 30 1004 7 16093 11.3 200 00:19 30.09.2019
1062 Clouds 30 1004 9 16093 11.8 180 23:42 29.09.2019
1063 Clouds 30 1004 9 16093 11.8 180 23:21 29.09.2019
1064 Clear 30 1004 7 16093 10.3 210 22:45 29.09.2019
1065 Clouds 30 1005 11 16093 12.9 210 22:25 29.09.2019
1066 Clear 29 1005 9 16093 8.2 210 21:59 29.09.2019
1067 Clear 29 1005 9 16093 7.2 190 21:39 29.09.2019
1068 Clear 28 1005 9 16093 7.2 190 21:20 29.09.2019
1069 Clear 28 1006 19 16093 1.5 120 20:59 29.09.2019
1070 Clouds 27 1006 15 16093 8.7 190 20:41 29.09.2019
1071 Clouds 27 1006 15 16093 8.7 190 20:19 29.09.2019
1072 Clouds 26 1006 13 32186 10.8 190 19:56 29.09.2019
1073 Clouds 26 1007 15 16093 9.8 190 19:37 29.09.2019
1074 Clouds 26 1007 15 16093 9.8 190 19:18 29.09.2019
1075 Clouds 24 1007 22 16093 9.8 180 18:55 29.09.2019
1076 Clouds 24 1007 22 16093 9.8 180 18:36 29.09.2019
1077 Clouds 23 1007 22 16093 9.8 180 18:18 29.09.2019
1078 Clouds 23 1008 26 16093 5.7 190 18:18 29.09.2019
1079 -273 0 0 0 0 0 17:55 29.09.2019
1080 Clouds 22 1008 26 16093 5.7 190 17:55 29.09.2019
1081 Clouds 22 1008 26 16093 5.7 190 17:54 29.09.2019
1082 Clouds 22 1008 26 16093 5.7 190 17:54 29.09.2019
1083 Clouds 19 1008 26 16093 5.7 190 17:36 29.09.2019
1084 Clouds 19 1008 26 16093 5.7 190 17:18 29.09.2019
1085 Fog 18 1008 34 16093 4.1 180 16:41 29.09.2019
1086 Fog 16 1008 93 2414 0.87 281.994 16:20 29.09.2019
1087 Fog 14 1008 93 805 0.87 281.994 15:59 29.09.2019
1088 Fog 12 1008 93 1609 0.87 281.994 15:39 29.09.2019
1089 Fog 10 1008 93 1609 1.64 343.425 15:19 29.09.2019
1090 Fog 10 1009 93 1207 1.64 343.425 14:59 29.09.2019
1091 Fog 9 1008 93 805 1.64 343.425 14:38 29.09.2019
1092 Fog 9 1008 93 805 1.64 343.425 14:19 29.09.2019
1093 Fog 9 1007 100 11265 2.6 240 13:57 29.09.2019
1094 Fog 9 1008 100 0 1.64 343.425 13:38 29.09.2019
1095 Fog 9 1008 100 0 1.8 318.847 13:18 29.09.2019
1096 Mist 10 1008 93 3219 3.1 350 12:56 29.09.2019
1097 Clear 10 1008 93 16093 3.6 30 12:38 29.09.2019
1098 Clear 10 1008 93 16093 3.6 30 12:20 29.09.2019
1099 Clear 11 1009 93 16093 1.39 52.56 11:41 29.09.2019
1100 Clear 11 1009 93 16093 1.39 52.56 11:20 29.09.2019
1101 Clear 11 1009 93 16093 1.39 52.56 11:20 29.09.2019
1102 Clear 11 1008 87 16093 2.1 10 10:58 29.09.2019
1103 Clear 12 1009 93 16093 1.39 52.56 10:40 29.09.2019
1104 Clear 11 1009 93 16093 1.39 52.56 10:40 29.09.2019
1105 Clear 12 1009 93 16093 1.39 52.56 10:21 29.09.2019
1106 Clear 12 1009 93 16093 1.39 52.56 10:21 29.09.2019
1107 Clear 12 1008 81 16093 4.6 340 09:59 29.09.2019
1108 Clear 12 1009 87 16093 1.39 52.56 09:41 29.09.2019
1109 Clear 13 1009 81 16093 6.2 340 09:19 29.09.2019
1110 Clear 14 1009 81 16093 6.2 340 08:43 29.09.2019
1111 Clear 14 1009 81 16093 2.6 300 08:22 29.09.2019
1112 Clear 15 1008 67 16093 5.7 340 07:45 29.09.2019
1113 Clear 15 1008 67 16093 5.7 340 07:27 29.09.2019
1114 Clear 16 1008 62 16093 5.1 350 06:55 29.09.2019
1115 Clear 16 1008 62 16093 5.7 350 06:32 29.09.2019
1116 Clear 17 1009 62 16093 8.12 168.279 04:52 29.09.2019
1117 Clear 17 1009 58 16093 8.12 168.279 04:24 29.09.2019
1118 Clear 18 1008 51 16093 1.5 210 03:42 29.09.2019
1119 Clear 21 1008 42 16093 1.5 350 02:19 29.09.2019
1120 Clear 21 1008 37 16093 4.6 360 01:45 29.09.2019
1121 Clear 22 1008 37 16093 2.6 310 01:20 29.09.2019
1122 Clear 23 1008 37 16093 2.6 340 00:41 29.09.2019
1123 Clear 23 1008 37 16093 2.6 340 00:19 29.09.2019
1124 Clear 24 1009 35 16093 3.6 340 23:39 28.09.2019
1125 Clear 23 1009 35 16093 3.6 340 23:20 28.09.2019
1126 Clouds 23 1009 40 16093 3.6 330 22:41 28.09.2019
1127 Clouds 23 1009 40 16093 3.6 330 22:41 28.09.2019
1128 Clear 22 1011 37 16093 2.6 330 22:23 28.09.2019
1129 Clear 22 1011 37 16093 2.6 330 22:23 28.09.2019
1130 Clear 21 1012 45 16093 2.6 320 21:59 28.09.2019
1131 Clear 20 1012 42 16093 2.1 290 21:40 28.09.2019
1132 Clear 21 1012 42 16093 2.1 290 21:40 28.09.2019
1133 Clear 20 1012 42 16093 2.1 290 21:21 28.09.2019
1134 Clear 20 1013 51 16093 1.42 252.87 20:58 28.09.2019
1135 Clear 20 1014 51 16093 2.1 340 20:40 28.09.2019
1136 Clear 19 1014 51 16093 2.1 340 20:20 28.09.2019
1137 Clear 18 1015 55 16093 3.1 300 19:57 28.09.2019
1138 Clear 17 1016 55 16093 1.5 250 19:38 28.09.2019
1139 Clear 17 1016 55 16093 1.5 250 19:20 28.09.2019
1140 Clear 16 1016 67 16093 2.6 300 18:57 28.09.2019
1141 Clear 15 1017 66 16093 2.1 290 18:39 28.09.2019
1142 Clear 15 1017 66 16093 2.1 290 18:20 28.09.2019
1143 Clear 14 1017 81 16093 2.63 219.46 17:56 28.09.2019
1144 Clear 13 1017 81 16093 2.1 20 17:37 28.09.2019
1145 Clouds 12 1016 62 16093 6.7 160 17:19 28.09.2019
1146 Clear 10 1017 93 16093 2.63 219.46 16:41 28.09.2019
1147 Clear 10 1017 93 16093 2.63 219.46 16:23 28.09.2019
1148 Clear 9 1017 93 16093 2.63 219.46 15:42 28.09.2019
1149 Clear 9 1017 93 16093 2.05 133.816 15:23 28.09.2019
1150 Clouds 9 1017 93 16093 2.05 133.816 14:57 28.09.2019
1151 Clouds 9 1017 93 16093 1.5 350 14:39 28.09.2019
1152 Clouds 9 1017 93 16093 1.5 350 14:21 28.09.2019
1153 Clouds 9 1015 93 16093 2.1 360 13:57 28.09.2019
1154 Clouds 9 1015 87 16093 3.1 350 13:38 28.09.2019
1155 Clouds 9 1015 87 16093 3.1 350 13:19 28.09.2019
1156 Clouds 9 1016 81 16093 1.68 131.135 12:44 28.09.2019
1157 Clouds 9 1016 81 16093 1.63 47.71 12:19 28.09.2019
1158 Clouds 9 1016 87 16093 2.6 80 11:55 28.09.2019
1159 Clear 9 1017 93 16093 1.5 70 11:36 28.09.2019
1160 Clear 9 1017 93 16093 1.5 70 11:18 28.09.2019
1161 Clear 9 1018 87 16093 2.1 90 10:40 28.09.2019
1162 Clear 9 1018 87 16093 2.1 90 10:20 28.09.2019
1163 Clear 10 1016 87 16093 2.1 110 09:54 28.09.2019
1164 Clear 10 1018 87 16093 1.63 47.71 09:36 28.09.2019
1165 Thunderstorm 10 1016 87 16093 2.1 120 09:18 28.09.2019
1166 Thunderstorm 11 1016 87 16093 2.1 120 08:42 28.09.2019
1167 Rain 11 1018 81 16093 3.1 90 08:23 28.09.2019
1168 Rain 12 1017 87 16093 2.1 90 07:45 28.09.2019
1169 Rain 12 1017 93 16093 1.5 80 07:21 28.09.2019
1170 Rain 12 1017 81 16093 4.1 10 06:53 28.09.2019
1171 Rain 12 1017 93 16093 3.96 101.889 06:31 28.09.2019
1172 Rain 13 1019 87 16093 1.5 360 05:47 28.09.2019
1173 Rain 13 1019 87 16093 1.5 360 05:20 28.09.2019
1174 Rain 14 1018 82 16093 1.5 350 04:39 28.09.2019
1175 Rain 15 1014 62 16093 9.3 360 03:56 28.09.2019
1176 Rain 15 1016 58 16093 5.1 10 03:22 28.09.2019
1177 Rain 16 1015 54 16093 4.6 350 02:48 28.09.2019
1178 Rain 17 1014 51 16093 5.7 350 02:30 28.09.2019
1179 Rain 18 1012 32 16093 7.7 10 01:48 28.09.2019
1180 Rain 20 1012 32 16093 7.7 10 01:26 28.09.2019
1181 Rain 22 1012 30 16093 9.8 360 00:52 28.09.2019
1182 Rain 22 1011 28 16093 7.7 360 00:31 28.09.2019
1183 Rain 24 1011 23 16093 6.7 10 23:58 27.09.2019
1184 Rain 24 1011 23 16093 5.1 340 23:37 27.09.2019
1185 Rain 24 1011 23 16093 5.1 340 23:19 27.09.2019
1186 Clear 24 1011 23 16093 3.1 150 22:45 27.09.2019
1187 Clear 23 1011 23 16093 3.1 150 22:19 27.09.2019
1188 Clear 22 1011 26 16093 3.6 140 21:56 27.09.2019
1189 Clear 22 1012 28 16093 3.1 150 21:37 27.09.2019
1190 Clouds 21 1012 36 32767 4.6 70 21:19 27.09.2019
1191 Clouds 20 1012 36 32767 4.6 70 20:55 27.09.2019
1192 Clouds 20 1013 34 16093 2.6 170 20:37 27.09.2019
1193 Clouds 19 1013 34 16093 2.6 170 20:18 27.09.2019
1194 Clouds 18 1012 36 32767 3.6 170 19:43 27.09.2019
1195 Clouds 18 1013 36 16093 4.1 160 19:23 27.09.2019
1196 Clouds 17 1014 36 16093 5.1 150 18:58 27.09.2019
1197 Clear 16 1014 36 16093 4.6 170 18:39 27.09.2019
1198 Clear 15 1014 36 16093 4.6 170 18:20 27.09.2019
1199 Clear 15 1014 36 16093 4.6 170 18:20 27.09.2019
1200 Clouds 14 1014 44 32767 3.6 150 17:54 27.09.2019
1201 Clear 14 1015 41 16093 3.6 130 17:36 27.09.2019
1202 Clear 14 1015 41 16093 3.6 130 17:18 27.09.2019
1203 Clouds 13 1014 54 32186 3.1 140 16:42 27.09.2019
1204 Clouds 12 1014 54 32186 3.1 140 16:20 27.09.2019
1205 Clouds 10 1014 70 16093 3.15 136.274 15:58 27.09.2019
1206 Clear 9 1015 70 16093 3.15 136.274 15:39 27.09.2019
1207 Clouds 9 1011 66 16093 2.1 280 15:19 27.09.2019
1208 Clouds 9 1011 66 16093 2.1 280 14:56 27.09.2019
1209 Clear 9 1015 70 16093 1.5 210 14:37 27.09.2019
1210 Clear 10 1015 70 16093 1.5 210 14:18 27.09.2019
1211 Clear 10 1014 61 16093 2.1 310 13:55 27.09.2019
1212 Clear 10 1014 57 16093 2.6 310 13:37 27.09.2019
1213 Clear 11 1014 57 16093 2.6 310 13:18 27.09.2019
1214 Clear 12 1013 57 16093 5.1 10 12:42 27.09.2019
1215 Clear 13 1013 54 16093 4.6 60 12:21 27.09.2019
1216 Clear 15 1010 50 16093 3.1 50 11:40 27.09.2019
1217 Clear 15 1010 50 16093 3.1 50 11:40 27.09.2019
1218 Clouds 16 1009 36 16093 2.6 200 11:22 27.09.2019
1219 Clear 16 1009 33 16093 2.1 350 10:58 27.09.2019
1220 Clear 16 1009 33 16093 2.1 350 10:58 27.09.2019
1221 Clouds 16 1009 38 16093 4.6 200 10:40 27.09.2019
1222 Clouds 17 1009 38 16093 4.6 200 10:20 27.09.2019
1223 Clear 17 1009 31 16093 4.6 230 09:43 27.09.2019
1224 Clear 18 1009 31 16093 4.6 230 09:22 27.09.2019
1225 Clear 18 1009 36 16093 1.5 170 08:58 27.09.2019
1226 Clear 18 1009 33 16093 2.67 221.427 08:39 27.09.2019
1227 Clear 18 1009 33 16093 2.67 221.427 08:20 27.09.2019
1228 Clear 19 1009 30 16093 4.1 260 07:46 27.09.2019
1229 Clear 19 1010 20 16093 4.1 260 07:23 27.09.2019
1230 Clear 20 1010 20 16093 5.1 290 06:43 27.09.2019
1231 Clear 20 1010 14 16093 5.1 250 06:24 27.09.2019
1232 Clear 21 1010 14 16093 5.1 250 05:51 27.09.2019
1233 Clear 22 1010 13 16093 5.1 250 05:32 27.09.2019
1234 Clear 24 1010 12 16093 4.6 260 03:56 27.09.2019
1235 Clear 25 1009 12 16093 5.1 270 02:59 27.09.2019
1236 Clear 28 1009 12 16093 8.2 270 01:52 27.09.2019
1237 Clear 29 1008 12 16093 3.6 250 01:28 27.09.2019
1238 Clear 29 1009 17 16093 2.47 212.658 00:22 27.09.2019
1239 Clear 29 1010 18 16093 1.5 340 23:56 26.09.2019
1240 Clear 28 1010 17 16093 2.47 212.658 23:38 26.09.2019
1241 Clear 28 1010 17 16093 2.47 212.658 23:18 26.09.2019
1242 Clear 28 1011 22 16093 2.1 10 22:56 26.09.2019
1243 Clear 28 1012 22 16093 2.47 212.658 22:38 26.09.2019
1244 Clear 28 1012 22 16093 2.47 212.658 22:18 26.09.2019
1245 Clear 27 1013 25 16093 1.5 60 21:55 26.09.2019
1246 Clear 26 1013 28 16093 1.5 10 21:36 26.09.2019
1247 Clear 25 1013 28 16093 1.5 10 21:18 26.09.2019
1248 Clear 24 1014 37 16093 1.41 136.06 20:56 26.09.2019
1249 Clouds 23 1014 35 16093 1.41 136.06 20:38 26.09.2019
1250 Clouds 23 1014 35 16093 1.41 136.06 20:38 26.09.2019
1251 Clouds 22 1014 35 16093 1.41 136.06 20:20 26.09.2019
1252 Clouds 20 1014 42 32767 1.5 0 19:40 26.09.2019
1253 Clouds 20 1015 45 16093 2.6 340 19:19 26.09.2019
1254 Clear 18 1017 54 16093 1.41 136.06 18:59 26.09.2019
1255 Clear 18 1017 54 16093 1.41 136.06 18:59 26.09.2019
1256 Clear 18 1018 58 16093 2.1 80 18:39 26.09.2019
1257 Clear 15 1018 58 16093 2.1 80 18:21 26.09.2019
1258 Clear 13 1018 62 16093 0.5 69.86 17:56 26.09.2019
1259 Clear 13 1018 62 16093 0.5 69.86 17:36 26.09.2019
1260 Clear 12 1018 62 16093 0.5 69.86 17:18 26.09.2019
1261 Clear 12 1019 75 16093 0.5 69.86 16:40 26.09.2019
1262 Clouds 11 1018 81 16093 0.5 69.86 16:21 26.09.2019
1263 Clear 10 1019 86 16093 0.5 69.86 15:58 26.09.2019
1264 Clear 9 1019 86 11265 0.5 69.86 15:38 26.09.2019
1265 Clouds 7 1018 81 16093 1.82 339.955 15:19 26.09.2019
1266 Clear 7 1018 81 16093 2.6 200 14:57 26.09.2019
1267 Clear 7 1018 81 16093 2.6 200 14:57 26.09.2019
1268 Clear 7 1018 81 16093 2.6 200 14:37 26.09.2019
1269 Clear 7 1018 81 16093 2.6 200 14:37 26.09.2019
1270 Clear 7 1018 81 16093 2.6 200 14:19 26.09.2019
1271 Clouds 7 1019 81 16093 1.5 230 13:41 26.09.2019
1272 Clouds 7 1019 81 16093 1.5 230 13:41 26.09.2019
1273 Clouds 7 1019 81 16093 1.5 230 13:41 26.09.2019
1274 Clouds 8 1019 81 16093 1.5 230 13:20 26.09.2019
1275 Clear 8 1020 81 16093 1.5 320 12:59 26.09.2019
1276 Clear 8 1020 81 16093 1.5 320 12:59 26.09.2019
1277 Clear 8 1020 81 16093 1.5 320 12:41 26.09.2019
1278 Clear 8 1020 81 16093 1.5 320 12:20 26.09.2019
1279 Clear 9 1021 75 16093 3.66 337.699 11:42 26.09.2019
1280 Clear 9 1021 75 16093 3.66 337.699 11:23 26.09.2019
1281 Clear 10 1021 66 16093 3.1 350 10:56 26.09.2019
1282 Clear 10 1022 66 16093 1.5 10 10:38 26.09.2019
1283 Clear 11 1022 66 16093 1.5 10 10:20 26.09.2019
1284 Clear 12 1021 66 16093 5.1 350 09:44 26.09.2019
1285 Clear 12 1022 62 16093 5.1 360 09:26 26.09.2019
1286 Clear 13 1021 58 16093 8.7 350 08:57 26.09.2019
1287 Clear 14 1022 54 16093 6.2 360 08:39 26.09.2019
1288 Clear 14 1022 54 16093 6.2 360 08:21 26.09.2019
1289 Clear 15 1020 45 16093 8.2 340 07:43 26.09.2019
1290 Clear 15 1020 45 16093 8.2 340 07:21 26.09.2019
1291 Clouds 16 1020 42 16093 4.6 310 06:47 26.09.2019
1292 Clear 16 1021 58 16093 7.31 350.212 06:27 26.09.2019
1293 Clear 17 1020 58 16093 1.58 56.682 05:44 26.09.2019
1294 Clear 17 1020 58 16093 1.58 56.682 05:25 26.09.2019
1295 Clouds 22 1017 28 16093 3.6 70 03:18 26.09.2019
1296 Clear 25 1017 22 16093 3.6 60 01:54 26.09.2019
1297 Clear 25 1017 22 16093 3.6 60 01:54 26.09.2019
1298 Clear 26 1017 22 16093 4.1 40 01:29 26.09.2019
1299 Clear 27 1017 19 16093 3.6 60 00:56 26.09.2019
1300 Clear 27 1017 24 16093 1.5 70 00:37 26.09.2019
1301 Clear 27 1017 20 16093 2.6 70 23:58 25.09.2019
1302 Clear 27 1017 18 16093 3.6 100 23:39 25.09.2019
1303 Clear 27 1017 18 16093 3.6 100 23:18 25.09.2019
1304 Clear 27 1017 18 16093 3.6 100 23:18 25.09.2019
1305 Clear 26 1017 19 16093 3.6 120 22:42 25.09.2019
1306 Clear 26 1017 19 16093 3.6 120 22:21 25.09.2019
1307 Clear 25 1017 22 16093 3.1 150 21:57 25.09.2019
1308 Clear 25 1018 22 16093 2.1 160 21:39 25.09.2019
1309 Clear 24 1018 22 16093 2.1 160 21:19 25.09.2019
1310 Clear 23 1019 26 16093 2.1 70 20:58 25.09.2019
1311 Clear 23 1019 26 16093 3.1 80 20:40 25.09.2019
1312 Clear 23 1019 26 16093 3.1 80 20:22 25.09.2019
1313 Clear 22 1020 28 16093 2.6 100 19:54 25.09.2019
1314 Clear 22 1020 30 16093 2.1 90 19:36 25.09.2019
1315 Clouds 21 1019 30 16093 1.86 70.599 19:18 25.09.2019
1316 Clouds 20 1019 30 32767 1.86 70.599 18:55 25.09.2019
1317 Clear 20 1020 34 16093 2.1 40 18:36 25.09.2019
1318 Clear 18 1020 34 16093 2.1 40 18:18 25.09.2019
1319 Clear 18 1020 34 16093 2.1 40 18:18 25.09.2019
1320 Clear 17 1021 39 16093 0.89 90 17:38 25.09.2019
1321 Clear 16 1021 39 16093 0.89 90 17:19 25.09.2019
1322 Clear 15 1021 47 16093 0.89 90 16:46 25.09.2019
1323 Clear 13 1021 47 16093 0.89 90 16:28 25.09.2019
1324 Clear 12 1021 57 16093 0.89 90 15:59 25.09.2019
1325 Clear 11 1020 57 16093 0.89 90 15:41 25.09.2019
1326 Clear 9 1020 57 16093 3.21 43.611 15:23 25.09.2019
1327 Clear 10 1020 50 16093 1.5 200 14:57 25.09.2019
1328 Clear 10 1020 50 16093 3.21 43.611 14:39 25.09.2019
1329 Clear 10 1020 50 16093 3.21 43.611 14:39 25.09.2019
1330 Clear 10 1020 50 16093 3.21 43.611 14:21 25.09.2019
1331 Clear 10 1019 40 16093 3.6 100 13:41 25.09.2019
1332 Clear 10 1019 40 16093 3.6 100 13:41 25.09.2019
1333 Clear 10 1019 40 16093 3.6 100 13:23 25.09.2019
1334 Clear 10 1018 57 16093 3.21 28.707 12:59 25.09.2019
1335 Clear 11 1018 61 16093 3.21 28.707 12:39 25.09.2019
1336 Clear 11 1017 33 16093 1.5 270 12:21 25.09.2019
1337 Clear 11 1017 32 16093 1.5 240 11:55 25.09.2019
1338 Clear 11 1017 40 16093 0.73 316.219 11:36 25.09.2019
1339 Clear 11 1017 40 16093 0.73 316.219 11:18 25.09.2019
1340 Clear 12 1018 53 16093 0.73 316.219 10:43 25.09.2019
1341 Clear 12 1018 53 16093 0.73 316.219 10:24 25.09.2019
1342 Clear 13 1018 32 16093 0.73 316.219 09:56 25.09.2019
1343 Clear 13 1018 32 16093 0.73 316.219 09:37 25.09.2019
1344 Clear 13 1018 27 16093 1.52 316.918 09:19 25.09.2019
1345 Clear 13 1017 53 16093 3.93 297.184 08:42 25.09.2019
1346 Clear 14 1017 53 16093 3.93 297.184 08:21 25.09.2019
1347 Clear 14 1017 50 16093 3.93 297.184 07:57 25.09.2019
1348 Clouds 15 1016 31 16093 3.6 210 07:37 25.09.2019
1349 Clouds 15 1016 31 16093 3.6 210 07:19 25.09.2019
1350 Clear 16 1016 26 16093 3.93 297.184 06:43 25.09.2019
1351 Clear 16 1016 27 16093 7 259.349 06:21 25.09.2019
1352 Clear 18 1016 18 16093 7 259.349 05:27 25.09.2019
1353 Clouds 19 1015 14 16093 2.6 140 04:50 25.09.2019
1354 Clear 26 1015 9 16093 6.27 254.382 02:19 25.09.2019
1355 Clear 28 1015 8 16093 2.1 160 00:45 25.09.2019
1356 -273 0 0 0 0 0 00:24 25.09.2019
1357 Clear 29 1016 7 16093 2.71 304.03 23:55 24.09.2019
1358 Clear 28 1016 7 16093 2.71 304.03 23:36 24.09.2019
1359 Clear 28 1016 7 16093 2.71 304.03 23:18 24.09.2019
1360 Clear 28 1016 8 16093 2.1 140 22:39 24.09.2019
1361 Clear 28 1016 8 16093 2.1 140 22:20 24.09.2019
1362 Clear 28 1017 8 16093 2.6 90 21:56 24.09.2019
1363 Clear 28 1017 8 16093 2.6 60 21:37 24.09.2019
1364 Clear 27 1017 8 16093 2.6 60 21:19 24.09.2019
1365 Clear 27 1017 8 16093 2.6 60 21:19 24.09.2019
1366 Clear 27 1018 8 16093 2.1 120 20:57 24.09.2019
1367 Clear 27 1018 8 16093 2.1 120 20:57 24.09.2019
1368 Clear 27 1018 10 16093 2.6 110 20:39 24.09.2019
1369 Clear 26 1018 10 16093 2.6 110 20:20 24.09.2019
1370 Clouds 25 1019 16 32186 4.1 270 19:44 24.09.2019
1371 Clouds 24 1019 16 32186 4.1 270 19:23 24.09.2019
1372 Clear 24 1020 12 16093 2.1 130 18:59 24.09.2019
1373 Clear 23 1020 15 16093 2.6 160 18:41 24.09.2019
1374 Clear 22 1020 15 16093 2.6 160 18:22 24.09.2019
1375 Clear 21 1020 15 16093 1.5 160 17:58 24.09.2019
1376 Clear 20 1020 19 16093 3.1 180 17:38 24.09.2019
1377 -273 0 0 0 0 0 17:20 24.09.2019
1378 Clear 17 1020 19 16093 2.34 230.988 16:57 24.09.2019
1379 Clear 15 1020 19 16093 2.34 230.988 16:39 24.09.2019
1380 Clear 14 1020 19 16093 2.34 230.988 16:18 24.09.2019
1381 Clear 14 1020 19 16093 2.34 230.988 16:18 24.09.2019
1382 Clouds 13 1020 37 16093 3.1 190 15:42 24.09.2019
1383 Clear 10 1020 23 16093 2.6 190 15:23 24.09.2019
1384 Clouds 10 1020 34 16093 3.1 180 14:44 24.09.2019
1385 Clouds 11 1020 34 16093 3.1 180 14:20 24.09.2019
1386 Clouds 11 1019 37 16093 3.6 180 13:56 24.09.2019
1387 Clouds 11 1019 37 16093 3.6 180 13:56 24.09.2019
1388 Clouds 11 1019 37 16093 3.6 180 13:38 24.09.2019
1389 Clouds 11 1019 37 16093 3.6 180 13:20 24.09.2019
1390 Clouds 12 1019 40 16093 3.1 200 12:40 24.09.2019
1391 Clouds 11 1019 40 16093 3.1 200 12:21 24.09.2019
1392 Clouds 12 1019 35 16093 1.5 250 11:43 24.09.2019
1393 Clouds 12 1019 35 16093 1.5 250 11:43 24.09.2019
1394 Clouds 12 1019 35 16093 1.5 250 11:22 24.09.2019
1395 Clouds 12 1019 25 16093 3.1 200 10:59 24.09.2019
1396 Clouds 13 1019 25 16093 3.1 200 10:39 24.09.2019
1397 Clouds 13 1019 25 16093 3.1 200 10:20 24.09.2019
1398 Clouds 13 1019 43 16093 3.6 200 09:46 24.09.2019
1399 Clouds 13 1019 43 16093 3.6 200 09:46 24.09.2019
1400 Clouds 13 1019 43 16093 3.6 200 09:28 24.09.2019
1401 Clear 14 1019 25 16093 4.1 310 08:58 24.09.2019
1402 Clouds 14 1019 41 16093 2.6 220 08:40 24.09.2019
1403 Clouds 14 1019 41 16093 2.6 220 08:40 24.09.2019
1404 Clouds 14 1019 41 16093 2.6 220 08:22 24.09.2019
1405 Clear 15 1019 26 16093 3.1 300 07:57 24.09.2019
1406 Clear 15 1020 46 16093 2.44 286.474 07:38 24.09.2019
1407 Clouds 15 1019 27 16093 3.1 220 07:19 24.09.2019
1408 Clear 15 1020 25 16093 1.5 280 06:37 24.09.2019
1409 Clear 15 1020 25 16093 1.5 280 06:37 24.09.2019
1410 Clear 16 1020 25 16093 1.5 280 06:18 24.09.2019
1411 Clear 17 1020 47 16093 0.51 267.387 05:21 24.09.2019
1412 Clear 20 1020 36 16093 0.51 267.387 03:46 24.09.2019
1413 Clear 21 1020 34 16093 3.52 94.53 03:22 24.09.2019
1414 Clear 22 1020 22 16093 3.52 94.53 02:43 24.09.2019
1415 Clear 24 1019 17 16093 2.6 330 01:41 24.09.2019
1416 Clear 25 1019 13 16093 2.6 310 00:41 24.09.2019
1417 Clear 26 1019 13 16093 2.6 310 00:22 24.09.2019
1418 Clear 26 1020 10 16093 3.17 108.332 23:41 23.09.2019
1419 Clear 26 1020 10 16093 3.17 108.332 23:22 23.09.2019
1420 Clear 27 1020 11 16093 2.6 170 22:41 23.09.2019
1421 Clear 26 1020 11 16093 2.6 170 22:21 23.09.2019
1422 Clear 26 1020 12 16093 3.6 130 21:59 23.09.2019
1423 Clear 25 1021 12 16093 4.1 120 21:41 23.09.2019
1424 Clear 25 1021 12 16093 4.1 120 21:41 23.09.2019
1425 Clear 24 1021 12 16093 4.1 120 21:20 23.09.2019
1426 Clear 24 1021 12 16093 4.1 120 21:20 23.09.2019
1427 Clear 24 1022 15 16093 2.6 80 20:58 23.09.2019
1428 Clear 23 1022 17 16093 2.1 100 20:39 23.09.2019
1429 Clouds 23 1022 18 16093 4.1 310 20:18 23.09.2019
1430 Clear 22 1023 19 16093 1.5 90 19:40 23.09.2019
1431 Clear 21 1023 24 16093 1.9 112.378 19:22 23.09.2019
1432 Clear 21 1023 24 16093 1.9 112.378 19:22 23.09.2019
1433 Clear 21 1023 24 16093 1.9 112.378 19:22 23.09.2019
1434 Clear 21 1023 24 16093 1.9 112.378 19:22 23.09.2019
1435 Clear 21 1023 24 16093 1.9 112.378 18:59 23.09.2019
1436 Clouds 20 1022 22 32767 2.6 100 18:41 23.09.2019
1437 Clouds 19 1022 22 32767 2.6 100 18:19 23.09.2019
1438 Clear 18 1023 22 16093 0.43 158.972 17:56 23.09.2019
1439 Clear 17 1023 22 16093 0.43 158.972 17:38 23.09.2019
1440 Clear 16 1023 22 16093 0.43 158.972 17:19 23.09.2019
1441 Clear 14 1023 22 16093 0.43 158.972 16:55 23.09.2019
1442 Clear 13 1023 50 16093 2.6 210 16:36 23.09.2019
1443 Clouds 12 1021 40 16093 4.6 230 16:18 23.09.2019
1444 Clouds 12 1021 40 16093 4.6 230 16:18 23.09.2019
1445 Clouds 11 1021 46 16093 0.43 158.972 15:55 23.09.2019
1446 Clear 9 1022 22 16093 0.43 158.972 15:37 23.09.2019
1447 Clear 8 1022 34 16093 0.91 5.704 15:18 23.09.2019
1448 Clouds 8 1021 57 16093 4.1 200 14:40 23.09.2019
1449 Clouds 8 1021 57 16093 4.1 200 14:20 23.09.2019
1450 Clouds 8 1021 53 16093 2.6 210 13:58 23.09.2019
1451 Clear 8 1021 40 16093 1.5 280 13:38 23.09.2019
1452 Clear 8 1021 40 16093 1.5 280 13:18 23.09.2019
1453 Clouds 9 1020 32 16093 2.6 180 12:43 23.09.2019
1454 Clear 9 1022 70 16093 0.52 282.041 12:23 23.09.2019
1455 Clear 9 1022 70 16093 0.52 282.041 11:57 23.09.2019
1456 Clear 9 1021 65 16093 0.52 282.041 11:39 23.09.2019
1457 Clear 9 1021 65 16093 0.52 282.041 11:20 23.09.2019
1458 Clear 10 1021 30 16093 1.5 280 10:49 23.09.2019
1459 Clear 10 1022 65 16093 0.52 282.041 10:21 23.09.2019
1460 Clear 11 1021 30 16093 0.52 282.041 09:56 23.09.2019
1461 Clear 11 1022 57 16093 0.52 282.041 09:37 23.09.2019
1462 Clear 11 1021 30 16093 2.6 200 09:19 23.09.2019
1463 Clear 11 1021 37 16093 1.5 110 08:42 23.09.2019
1464 Clear 12 1021 46 16093 2.1 240 08:22 23.09.2019
1465 Clear 12 1021 40 16093 4.6 260 07:47 23.09.2019
1466 Clear 13 1021 37 16093 3.1 270 07:24 23.09.2019
1467 Clear 14 1021 35 16093 4.6 320 06:24 23.09.2019
1468 Clear 14 1021 31 32767 5.1 320 05:47 23.09.2019
1469 Clear 15 1022 35 16093 0.84 248.338 05:19 23.09.2019
1470 Clear 15 1021 33 16093 1.5 350 04:54 23.09.2019
1471 Rain 21 1020 17 16093 3.6 70 02:36 23.09.2019
1472 Rain 22 1020 17 16093 3.6 70 02:36 23.09.2019
1473 Clear 23 1019 13 16093 4.1 80 00:42 23.09.2019
1474 Clouds 23 1018 15 16093 6.2 100 00:22 23.09.2019
1475 Clear 23 1019 14 16093 3.1 120 23:50 22.09.2019
1476 Clear 23 1019 15 16093 3.1 110 23:32 22.09.2019
1477 Rain 23 1019 17 16093 4.37 182.493 22:57 22.09.2019
1478 Rain 23 1019 17 16093 1.5 170 22:38 22.09.2019
1479 Rain 22 1019 17 16093 1.5 170 22:20 22.09.2019
1480 Clear 22 1020 21 16093 2.6 60 21:43 22.09.2019
1481 Clear 21 1020 21 16093 2.6 60 21:21 22.09.2019
1482 Clear 20 1020 24 16093 3.6 130 20:55 22.09.2019
1483 Clear 20 1021 27 16093 1.5 130 20:36 22.09.2019
1484 Clear 20 1021 27 16093 1.5 130 20:18 22.09.2019
1485 Clear 18 1021 31 16093 1.9 131.37 19:41 22.09.2019
1486 Clear 18 1021 31 16093 1.9 131.37 19:22 22.09.2019
1487 Clouds 17 1021 38 32186 1.9 131.37 18:59 22.09.2019
1488 Clear 16 1022 62 16093 1.9 131.37 18:38 22.09.2019
1489 Clouds 15 1021 41 16093 4.1 210 18:19 22.09.2019
1490 Clear 14 1022 71 16093 2.99 353.364 17:56 22.09.2019
1491 Clear 13 1022 76 16093 2.99 353.364 17:37 22.09.2019
1492 Clear 12 1022 76 16093 2.99 353.364 17:18 22.09.2019
1493 Clouds 11 1021 71 16093 2.6 170 16:42 22.09.2019
1494 Clear 9 1022 87 16093 2.99 353.364 16:23 22.09.2019
1495 Clear 8 1022 93 16093 2.99 353.364 15:47 22.09.2019
1496 Clear 7 1022 93 16093 2.99 353.364 15:28 22.09.2019
1497 Rain 6 1022 86 16093 0.66 250.158 14:58 22.09.2019
1498 Clear 6 1021 93 16093 0.66 250.158 14:40 22.09.2019
1499 Clear 6 1021 93 16093 0.66 250.158 14:21 22.09.2019
1500 Clear 7 1020 87 16093 0.66 250.158 13:55 22.09.2019
1501 Clear 7 1020 87 16093 0.66 250.158 13:36 22.09.2019
1502 Clear 7 1020 87 16093 0.66 250.158 13:36 22.09.2019
1503 Clear 7 1020 87 16093 0.34 232.754 13:18 22.09.2019
1504 Clear 7 1020 81 16093 1.5 210 12:42 22.09.2019
1505 Clear 7 1020 81 16093 1.97 120.725 12:22 22.09.2019
1506 Rain 8 1020 87 16093 3.6 260 11:56 22.09.2019
1507 Rain 8 1021 93 16093 1.5 240 11:38 22.09.2019
1508 Rain 8 1021 93 16093 1.5 240 11:19 22.09.2019
1509 Clear 8 1020 93 16093 1.97 120.725 10:43 22.09.2019
1510 Rain 8 1021 93 16093 1.97 120.725 10:20 22.09.2019
1511 Rain 9 1020 87 16093 2.1 280 09:57 22.09.2019
1512 Rain 9 1021 93 16093 1.97 120.725 09:37 22.09.2019
1513 Rain 9 1021 93 16093 0.26 53.531 09:19 22.09.2019
1514 Rain 10 1020 81 16093 1.5 340 08:43 22.09.2019
1515 Rain 10 1020 87 14484 0.11 10.162 08:23 22.09.2019
1516 Rain 10 1021 87 16093 3.6 310 07:49 22.09.2019
1517 Rain 11 1021 76 16093 0.11 10.162 07:31 22.09.2019
1518 Rain 11 1021 66 16093 3.1 10 06:59 22.09.2019
1519 Rain 12 1021 62 16093 3.1 330 06:38 22.09.2019
1520 Rain 14 1020 54 16093 7.2 60 05:19 22.09.2019
1521 Clouds 20 1017 24 16093 4.1 10 02:45 22.09.2019
1522 Clear 20 1016 21 16093 5.1 30 02:25 22.09.2019
1523 Clear 21 1016 19 16093 7.7 30 01:45 22.09.2019
1524 Clouds 23 1015 16 16093 6.7 30 00:55 22.09.2019
1525 Clouds 23 1015 16 16093 6.7 30 00:32 22.09.2019
1526 Clouds 24 1015 13 16093 5.1 40 23:56 21.09.2019
1527 Clouds 24 1015 13 16093 6.2 40 23:38 21.09.2019
1528 Clouds 24 1016 14 16093 6.7 30 22:57 21.09.2019
1529 Clouds 25 1016 13 16093 4.6 40 22:36 21.09.2019
1530 Clouds 25 1016 13 16093 4.6 40 22:18 21.09.2019
1531 Clear 25 1016 9 16093 3.78 327.839 21:41 21.09.2019
1532 Clear 25 1016 9 16093 1.82 156.002 21:19 21.09.2019
1533 Clear 24 1017 13 16093 2.6 140 20:56 21.09.2019
1534 Clear 24 1018 13 16093 3.1 120 20:37 21.09.2019
1535 Clear 24 1018 13 16093 3.1 120 20:18 21.09.2019
1536 Clear 24 1018 13 16093 3.1 120 20:18 21.09.2019
1537 Clear 24 1018 13 16093 3.1 120 20:18 21.09.2019
1538 Clear 22 1018 17 16093 3.1 160 19:45 21.09.2019
1539 Clouds 21 1017 18 16093 3.6 130 19:21 21.09.2019
1540 Clear 20 1019 24 16093 2.6 160 18:41 21.09.2019
1541 Clear 19 1019 24 16093 2.6 160 18:22 21.09.2019
1542 Clear 17 1019 27 16093 3.1 150 17:43 21.09.2019
1543 Clear 16 1019 27 16093 3.1 150 17:24 21.09.2019
1544 Clear 15 1019 33 16093 3.89 149.502 16:58 21.09.2019
1545 Clear 15 1019 43 16093 3.89 149.502 16:39 21.09.2019
1546 Clear 13 1019 43 16093 3.89 149.502 16:20 21.09.2019
1547 Clear 10 1018 61 16093 1.5 200 15:45 21.09.2019
1548 Clear 9 1018 61 16093 1.5 200 15:23 21.09.2019
1549 Clear 9 1018 65 16093 2.52 132.748 14:49 21.09.2019
1550 Clear 9 1018 61 16093 2.52 132.748 14:31 21.09.2019
1551 Clear 10 1018 51 16093 2.52 132.748 13:55 21.09.2019
1552 Clear 11 1016 37 16093 2.52 132.748 13:36 21.09.2019
1553 Clear 11 1016 37 16093 1.53 149.741 13:18 21.09.2019
1554 Clear 12 1016 33 16093 1.5 240 12:42 21.09.2019
1555 Clear 11 1016 28 16093 1.5 240 12:22 21.09.2019
1556 Clear 12 1015 28 16093 1.5 210 11:59 21.09.2019
1557 Clear 12 1016 28 16093 2.1 170 11:41 21.09.2019
1558 Clear 13 1016 28 16093 2.1 170 11:22 21.09.2019
1559 Clear 14 1015 35 16093 4.1 100 10:43 21.09.2019
1560 Clear 14 1015 35 16093 4.1 100 10:24 21.09.2019
1561 Clear 15 1015 20 16093 4.6 300 09:58 21.09.2019
1562 Clear 15 1015 18 16093 2.6 220 09:39 21.09.2019
1563 Clear 16 1015 19 16093 4.6 120 09:20 21.09.2019
1564 Clear 16 1015 19 16093 4.6 120 09:20 21.09.2019
1565 Clear 16 1014 20 16093 1.5 140 08:52 21.09.2019
1566 Clear 17 1014 14 16093 3.1 10 08:27 21.09.2019
1567 Clear 18 1013 19 16093 1.5 140 07:41 21.09.2019
1568 Clear 18 1013 18 16093 1.5 220 07:23 21.09.2019
1569 Clear 19 1012 18 16093 3.1 210 06:51 21.09.2019
1570 Clear 19 1011 16 16093 8.7 280 06:31 21.09.2019
1571 Clouds 23 1009 13 16093 6.7 200 04:53 21.09.2019
1572 Clouds 23 1009 13 16093 6.7 200 04:53 21.09.2019
1573 Clouds 24 1009 13 16093 6.7 200 04:34 21.09.2019
1574 Smoke 27 1008 10 16093 8.2 210 02:31 21.09.2019
1575 Smoke 28 1008 9 16093 7.7 210 01:54 21.09.2019
1576 Smoke 29 1008 9 16093 7.7 210 01:36 21.09.2019
1577 Smoke 29 1008 9 16093 9.3 220 00:43 21.09.2019
1578 Smoke 29 1008 9 16093 9.3 220 00:19 21.09.2019
1579 Clouds 29 1008 11 16093 8.7 200 23:42 20.09.2019
1580 Clouds 29 1008 11 16093 8.7 200 23:23 20.09.2019
1581 Clouds 29 1009 12 16093 8.2 200 22:41 20.09.2019
1582 Clouds 29 1009 12 16093 8.2 200 22:23 20.09.2019
1583 Clouds 29 1010 13 16093 7.7 200 21:57 20.09.2019
1584 Clouds 29 1010 13 16093 7.7 200 21:37 20.09.2019
1585 Clouds 29 1010 13 16093 7.7 200 21:18 20.09.2019
1586 Clouds 28 1011 15 16093 7.7 190 20:55 20.09.2019
1587 Clouds 28 1011 15 16093 9.3 210 20:36 20.09.2019
1588 Clouds 27 1012 15 16093 8.7 200 20:18 20.09.2019
1589 Clouds 27 1012 15 16093 8.7 200 19:42 20.09.2019
1590 Clouds 26 1012 15 16093 8.7 200 19:21 20.09.2019
1591 Clouds 25 1011 15 32767 4.1 150 18:57 20.09.2019
1592 Clouds 25 1012 25 16093 8.7 220 18:37 20.09.2019
1593 Clouds 24 1012 25 16093 8.7 220 18:18 20.09.2019
1594 Clouds 23 1013 40 16093 6.2 180 17:44 20.09.2019
1595 Clouds 21 1013 40 16093 6.2 180 17:25 20.09.2019
1596 Clouds 19 1012 45 16093 7.2 180 16:43 20.09.2019
1597 Clouds 18 1012 45 16093 7.2 180 16:21 20.09.2019
1598 Clouds 18 1012 45 16093 7.2 180 16:21 20.09.2019
1599 Clouds 17 1012 59 16093 7.7 190 15:58 20.09.2019
1600 Clouds 16 1011 48 16093 8.7 180 15:40 20.09.2019
1601 Clouds 15 1012 71 32767 3.1 280 15:22 20.09.2019
1602 Clouds 15 1012 67 16093 7.2 180 14:43 20.09.2019
1603 Clouds 15 1013 59 16093 4.1 160 14:19 20.09.2019
1604 Clear 15 1012 62 16093 2.6 300 13:48 20.09.2019
1605 Clear 16 1012 59 16093 5.1 320 13:28 20.09.2019
1606 Clear 16 1012 59 16093 5.1 320 12:58 20.09.2019
1607 Clear 16 1011 59 16093 2.1 160 12:37 20.09.2019
1608 Clear 16 1011 59 16093 2.1 160 12:19 20.09.2019
1609 Clear 16 1011 59 16093 2.1 160 12:19 20.09.2019
1610 Clear 16 1011 59 16093 2.1 160 12:19 20.09.2019
1611 Clear 17 1011 51 16093 2.6 190 11:50 20.09.2019
1612 Clouds 17 1012 67 16093 9.8 190 11:22 20.09.2019
1613 Clear 17 1012 55 16093 3.1 190 10:57 20.09.2019
1614 Clear 17 1012 55 16093 3.1 190 10:57 20.09.2019
1615 Clouds 17 1012 63 16093 9.3 190 10:39 20.09.2019
1616 Clouds 17 1012 63 16093 9.3 190 10:19 20.09.2019
1617 Clear 18 1014 68 16093 9.3 160 09:38 20.09.2019
1618 Clear 18 1014 68 16093 9.3 160 09:18 20.09.2019
1619 Clear 18 1013 56 16093 1.5 190 08:43 20.09.2019
1620 Clear 19 1013 63 16093 12.3 170 08:25 20.09.2019
1621 Clear 19 1013 63 16093 12.3 170 08:25 20.09.2019
1622 Clear 19 1013 56 16093 3.1 190 07:48 20.09.2019
1623 Clear 20 1013 49 16093 4.6 170 07:28 20.09.2019
1624 Clear 20 1013 46 16093 6.7 170 06:45 20.09.2019
1625 Clear 20 1013 46 16093 6.7 170 06:45 20.09.2019
1626 Clear 21 1013 40 16093 5.7 160 06:27 20.09.2019
1627 Clear 21 1013 39 16093 4.8 311.976 05:57 20.09.2019
1628 Clear 22 1013 32 16093 1.5 340 03:46 20.09.2019
1629 Clear 24 1013 32 16093 2.1 330 03:21 20.09.2019
1630 Clear 28 1013 20 16093 2.93 75.84 01:45 20.09.2019
1631 Clear 28 1013 20 16093 2.93 75.84 01:45 20.09.2019
1632 Clouds 28 1012 15 16093 1.5 180 01:24 20.09.2019
1633 Clear 28 1013 19 16093 1.69 72.725 01:24 20.09.2019
1634 Clear 30 1014 13 16093 3.1 100 00:31 20.09.2019
1635 Clear 29 1015 12 16093 2.1 50 23:45 19.09.2019
1636 Clear 29 1015 12 16093 2.1 50 23:23 19.09.2019
1637 Clear 29 1015 14 16093 2.6 60 22:57 19.09.2019
1638 Clear 29 1016 13 16093 1.5 90 22:38 19.09.2019
1639 Clear 29 1016 13 16093 1.5 90 22:19 19.09.2019
1640 Clear 28 1016 16 16093 4.1 60 21:56 19.09.2019
1641 Clear 28 1017 17 16093 2.1 100 21:37 19.09.2019
1642 Clear 27 1018 23 16093 2.14 113.336 21:18 19.09.2019
1643 Clear 26 1018 23 16093 1.5 350 20:43 19.09.2019
1644 Clear 25 1018 23 16093 1.5 350 20:22 19.09.2019
1645 Clear 24 1018 27 16093 2.18 121.813 19:56 19.09.2019
1646 Clear 24 1019 27 16093 1.5 100 19:38 19.09.2019
1647 Clouds 23 1018 33 16093 1.5 0 19:19 19.09.2019
1648 Clouds 23 1018 29 16093 2.6 330 19:19 19.09.2019
1649 Clouds 23 1018 29 16093 2.18 121.813 19:19 19.09.2019
1650 Clouds 23 1018 29 16093 2.6 330 19:19 19.09.2019
1651 Clear 22 1019 32 16093 2.18 121.813 18:43 19.09.2019
1652 Clouds 21 1018 40 16093 1.56 342.182 18:24 19.09.2019
1653 Clear 20 1019 32 16093 1.56 342.182 17:57 19.09.2019
1654 Clear 19 1019 39 16093 1.56 342.182 17:39 19.09.2019
1655 Clear 18 1019 39 16093 1.56 342.182 17:21 19.09.2019
1656 Clear 17 1020 54 16093 1.56 342.182 16:57 19.09.2019
1657 Clear 16 1019 62 16093 1.56 342.182 16:38 19.09.2019
1658 Clear 14 1019 62 16093 1.56 342.182 16:18 19.09.2019
1659 Clouds 12 1018 76 16093 3.1 220 15:38 19.09.2019
1660 Clear 10 1019 81 11265 2.34 331.881 15:18 19.09.2019
1661 Clear 10 1019 81 16093 2.34 331.881 14:42 19.09.2019
1662 Clear 10 1019 81 16093 2.34 331.881 14:23 19.09.2019
1663 Clear 10 1019 81 16093 2.34 331.881 14:23 19.09.2019
1664 Clear 10 1018 54 16093 2.34 331.881 13:58 19.09.2019
1665 Clear 11 1018 58 16093 2.34 331.881 13:39 19.09.2019
1666 Clear 11 1018 58 16093 2.19 334.218 13:19 19.09.2019
1667 Clear 11 1018 50 16093 2.19 334.218 12:38 19.09.2019
1668 Clear 12 1019 76 16093 2.62 336.053 12:19 19.09.2019
1669 -273 0 0 0 0 0 11:56 19.09.2019
1670 Clear 12 1019 76 16093 2.62 336.053 11:38 19.09.2019
1671 Clear 12 1019 76 16093 2.62 336.053 11:19 19.09.2019
1672 Clear 12 1019 71 16093 2.62 336.053 10:40 19.09.2019
1673 Clear 13 1019 71 16093 2.62 336.053 10:22 19.09.2019
1674 Clear 13 1019 66 16093 2.62 336.053 09:58 19.09.2019
1675 Clear 13 1019 66 16093 2.62 336.053 09:40 19.09.2019
1676 Clear 13 1019 66 16093 1.54 315.579 09:20 19.09.2019
1677 Clear 14 1019 38 16093 1.54 315.579 08:52 19.09.2019
1678 Clear 14 1020 50 16093 0.77 110.521 08:27 19.09.2019
1679 Clear 15 1019 36 16093 0.77 110.521 07:46 19.09.2019
1680 Clear 15 1019 36 16093 1.5 280 07:24 19.09.2019
1681 Clear 16 1019 41 16093 2.1 270 06:59 19.09.2019
1682 Clear 16 1019 41 16093 2.1 270 06:59 19.09.2019
1683 Clear 16 1019 48 16093 1.5 290 06:40 19.09.2019
1684 Clear 17 1019 48 16093 1.5 290 06:21 19.09.2019
1685 Clear 17 1019 48 16093 1.5 290 06:21 19.09.2019
1686 Rain 18 1019 42 16093 2.18 331.954 05:49 19.09.2019
1687 Drizzle 20 1019 30 16093 1.5 330 04:20 19.09.2019
1688 Thunderstorm 22 1018 24 16093 4.1 290 03:20 19.09.2019
1689 Clear 25 1018 20 16093 3.1 350 01:40 19.09.2019
1690 Clear 25 1018 20 16093 3.1 350 01:19 19.09.2019
1691 Clear 25 1018 37 16093 2.6 350 00:43 19.09.2019
1692 Rain 26 1017 21 16093 7.2 290 00:19 19.09.2019
1693 Rain 25 1020 19 16093 3.6 350 23:38 18.09.2019
1694 Rain 26 1020 19 16093 3.6 350 23:19 18.09.2019
1695 Rain 26 1019 19 32767 3.6 360 22:39 18.09.2019
1696 Rain 26 1019 19 32767 3.6 360 22:19 18.09.2019
1697 Clouds 26 1020 24 16093 8.7 120 21:57 18.09.2019
1698 Clouds 26 1019 22 16093 6.2 120 21:39 18.09.2019
1699 Clouds 25 1019 22 16093 6.2 120 21:18 18.09.2019
1700 Clear 25 1021 15 16093 5.1 140 20:57 18.09.2019
1701 Clear 24 1021 16 16093 5.1 100 20:39 18.09.2019
1702 Clear 24 1021 16 16093 5.1 100 20:39 18.09.2019
1703 Clouds 24 1020 22 16093 7.2 110 20:20 18.09.2019
1704 Clear 23 1022 16 16093 5.7 120 19:56 18.09.2019
1705 Clear 23 1022 17 16093 4.1 120 19:37 18.09.2019
1706 Clouds 22 1021 25 16093 6.2 120 19:18 18.09.2019
1707 Clouds 22 1021 25 16093 6.2 120 19:18 18.09.2019
1708 Clouds 22 1021 25 16093 6.2 120 19:18 18.09.2019
1709 Clear 21 1022 26 16093 4.54 103.228 18:54 18.09.2019
1710 Clear 20 1022 21 16093 2.1 90 18:36 18.09.2019
1711 Clear 20 1022 21 16093 2.1 90 18:18 18.09.2019
1712 Clear 19 1022 31 16093 5.77 131.305 17:54 18.09.2019
1713 Clear 18 1022 42 16093 5.77 131.305 17:36 18.09.2019
1714 Clouds 17 1021 45 32767 1.5 310 17:18 18.09.2019
1715 Clear 16 1022 44 16093 5.77 131.305 16:42 18.09.2019
1716 Clear 15 1022 44 16093 5.77 131.305 16:22 18.09.2019
1717 Clouds 13 1021 58 32767 5.77 131.305 15:59 18.09.2019
1718 Clear 12 1021 50 16093 5.77 131.305 15:40 18.09.2019
1719 Clear 11 1020 54 16093 4.1 170 15:20 18.09.2019
1720 Clear 11 1020 35 16093 3.1 130 14:58 18.09.2019
1721 Clear 11 1020 47 16093 2.1 140 14:40 18.09.2019
1722 Clear 11 1020 47 16093 2.1 140 14:22 18.09.2019
1723 Clear 11 1019 58 16093 3.1 160 13:58 18.09.2019
1724 Clear 11 1019 62 16093 3.1 150 13:38 18.09.2019
1725 Clear 11 1019 62 16093 3.1 150 13:18 18.09.2019
1726 Clear 12 1019 58 16093 3.1 190 12:44 18.09.2019
1727 Clear 12 1019 58 16093 3.1 190 12:26 18.09.2019
1728 Clear 12 1020 62 16093 3.6 140 11:40 18.09.2019
1729 Clear 13 1020 62 16093 3.6 140 11:20 18.09.2019
1730 Clear 13 1019 51 16093 2.6 130 10:58 18.09.2019
1731 Clear 14 1020 62 16093 1.61 129.472 10:40 18.09.2019
1732 Clear 14 1020 62 16093 1.61 129.472 10:20 18.09.2019
1733 Clear 14 1020 62 16093 1.61 129.472 10:20 18.09.2019
1734 Clear 15 1019 51 16093 1.61 129.472 09:57 18.09.2019
1735 Clear 15 1019 51 16093 1.61 129.472 09:37 18.09.2019
1736 Clear 15 1019 51 16093 1.61 129.472 09:37 18.09.2019
1737 Clear 16 1019 51 16093 3.92 279.215 09:19 18.09.2019
1738 Clear 16 1018 45 16093 4.6 80 08:41 18.09.2019
1739 Clear 16 1018 45 16093 4.6 80 08:23 18.09.2019
1740 Clear 17 1017 39 16093 2.6 210 07:45 18.09.2019
1741 Clear 18 1017 39 16093 2.6 210 07:26 18.09.2019
1742 Clear 18 1016 26 16093 7.7 300 06:55 18.09.2019
1743 Clear 18 1016 26 16093 7.7 300 06:55 18.09.2019
1744 Clear 19 1016 25 16093 9.3 290 06:29 18.09.2019
1745 Clouds 19 1016 26 16093 6.62 293.326 05:40 18.09.2019
1746 Clear 22 1015 24 16093 3.1 270 04:20 18.09.2019
1747 Clouds 27 1014 20 32767 8.2 270 02:41 18.09.2019
1748 Clouds 28 1013 13 16093 1.5 20 01:50 18.09.2019
1749 Clear 29 1013 12 16093 1.5 110 00:58 18.09.2019
1750 Clear 29 1013 12 16093 6.04 251.148 00:34 18.09.2019
1751 Clear 29 1013 12 16093 3.6 110 23:59 17.09.2019
1752 Clear 29 1013 12 16093 4.6 130 23:40 17.09.2019
1753 Clear 29 1013 12 16093 4.6 130 23:21 17.09.2019
1754 Clouds 29 1014 17 16093 4.6 210 22:42 17.09.2019
1755 Clouds 29 1014 17 16093 4.6 210 22:23 17.09.2019
1756 Clouds 29 1014 13 16093 3.1 130 21:54 17.09.2019
1757 Clear 29 1014 13 16093 1.5 110 21:36 17.09.2019
1758 Clear 28 1014 13 16093 1.5 110 21:18 17.09.2019
1759 Clouds 28 1015 20 16093 3.6 210 21:18 17.09.2019
1760 Clear 28 1014 13 16093 1.5 110 21:18 17.09.2019
1761 Clear 28 1015 13 16093 4.6 220 20:57 17.09.2019
1762 Clear 27 1015 13 16093 5.7 240 20:38 17.09.2019
1763 Clear 27 1015 13 16093 5.7 240 20:20 17.09.2019
1764 Clear 27 1015 13 16093 5.7 240 20:20 17.09.2019
1765 Clouds 26 1016 27 16093 6.7 210 19:57 17.09.2019
1766 Clouds 25 1017 27 16093 5.7 220 19:38 17.09.2019
1767 Clouds 25 1017 27 16093 5.7 220 19:18 17.09.2019
1768 Clear 23 1016 30 16093 3.86 141.472 18:43 17.09.2019
1769 Clear 22 1016 30 16093 2.28 234.398 18:22 17.09.2019
1770 Clear 21 1016 42 16093 2.28 234.398 17:56 17.09.2019
1771 Clear 20 1016 42 16093 2.28 234.398 17:38 17.09.2019
1772 Clear 20 1016 42 16093 2.28 234.398 17:19 17.09.2019
1773 Clear 18 1016 58 16093 2.28 234.398 16:42 17.09.2019
1774 Clouds 17 1016 37 16093 5.1 210 16:22 17.09.2019
1775 Clear 17 1016 58 16093 2.28 234.398 15:59 17.09.2019
1776 Clear 17 1016 51 16093 2.28 234.398 15:38 17.09.2019
1777 Clear 16 1016 51 16093 1.64 271.051 15:19 17.09.2019
1778 Clear 15 1015 48 16093 1.5 220 14:56 17.09.2019
1779 Clear 15 1015 54 16093 2.1 170 14:37 17.09.2019
1780 Clear 15 1015 54 16093 2.1 170 14:19 17.09.2019
1781 Clear 16 1015 42 16093 1.64 271.051 13:42 17.09.2019
1782 Clear 16 1015 45 16093 2.62 259.171 13:23 17.09.2019
1783 Clouds 16 1015 48 16093 4.6 200 12:56 17.09.2019
1784 Clear 16 1015 58 16093 2.62 259.171 12:37 17.09.2019
1785 Clouds 15 1015 48 16093 4.6 200 12:18 17.09.2019
1786 Clear 16 1015 58 16093 1.5 190 11:42 17.09.2019
1787 Clear 16 1015 58 16093 1.5 190 11:24 17.09.2019
1788 Clear 16 1015 58 16093 1.5 190 11:24 17.09.2019
1789 Clear 16 1015 58 16093 1.5 190 11:24 17.09.2019
1790 Clear 16 1015 34 16093 2.3 273.746 10:43 17.09.2019
1791 Clear 16 1015 34 16093 2.3 273.746 10:24 17.09.2019
1792 Clear 16 1015 31 16093 2.3 273.746 09:59 17.09.2019
1793 Clear 16 1015 58 16093 2.3 273.746 09:41 17.09.2019
1794 Clear 16 1015 58 16093 3.32 317.307 09:21 17.09.2019
1795 Clear 17 1015 51 16093 3.32 317.307 08:46 17.09.2019
1796 Clear 17 1015 58 16093 2.65 310.893 08:26 17.09.2019
1797 Clear 18 1015 34 16093 2.65 310.893 07:58 17.09.2019
1798 Clear 18 1015 36 16093 2.6 260 07:39 17.09.2019
1799 Clear 18 1015 36 16093 2.6 260 07:19 17.09.2019
1800 Clear 19 1016 40 16093 1.5 230 06:45 17.09.2019
1801 Clear 19 1016 40 16093 1.5 230 06:45 17.09.2019
1802 Clear 19 1016 42 16093 2.6 220 06:19 17.09.2019
1803 Clear 20 1016 33 16093 2.1 180 05:38 17.09.2019
1804 Clouds 22 1015 30 16093 2.6 180 04:27 17.09.2019
1805 Clear 25 1015 14 16093 2.1 100 02:55 17.09.2019
1806 Clear 26 1015 12 16093 2.1 100 02:35 17.09.2019
1807 Clear 28 1015 10 16093 3.1 90 01:24 17.09.2019
1808 Clouds 29 1015 24 16093 3.1 60 00:32 17.09.2019
1809 Clear 29 1015 9 16093 2.1 160 23:38 16.09.2019
1810 Clear 30 1015 9 16093 2.1 160 23:18 16.09.2019
1811 Clear 30 1016 10 16093 3.6 160 22:42 16.09.2019
1812 Clear 30 1016 10 16093 3.6 160 22:24 16.09.2019
1813 Clear 30 1016 9 16093 4.17 119.52 21:59 16.09.2019
1814 Clear 29 1016 10 16093 2.6 100 21:40 16.09.2019
1815 Clouds 29 1016 14 16093 2.9 170.616 21:21 16.09.2019
1816 Clear 29 1016 10 16093 2.6 140 20:58 16.09.2019
1817 Clear 29 1017 10 16093 2.6 140 20:39 16.09.2019
1818 Clear 28 1017 10 16093 2.6 140 20:19 16.09.2019
1819 Clear 28 1017 13 16093 2.6 130 19:56 16.09.2019
1820 Clear 28 1017 14 16093 2.6 120 19:37 16.09.2019
1821 Clouds 27 1018 15 16093 2.44 156.977 19:18 16.09.2019
1822 Clear 26 1018 19 16093 2.6 190 18:43 16.09.2019
1823 Clear 24 1018 19 16093 2.6 190 18:25 16.09.2019
1824 Clear 23 1018 28 16093 1.4 185.633 17:54 16.09.2019
1825 Clear 22 1018 34 16093 1.4 185.633 17:36 16.09.2019
1826 Clear 21 1018 34 16093 1.4 185.633 17:18 16.09.2019
1827 Clear 21 1018 34 16093 1.4 185.633 17:18 16.09.2019
1828 Clear 18 1018 58 16093 1.5 210 16:42 16.09.2019
1829 Clear 17 1018 58 16093 1.5 210 16:21 16.09.2019
1830 Clear 16 1018 54 16093 1.4 185.633 15:57 16.09.2019
1831 Clear 16 1018 66 11265 1.5 210 15:38 16.09.2019
1832 Clear 16 1018 66 11265 1.5 210 15:38 16.09.2019
1833 Clear 15 1018 66 11265 1.5 210 15:20 16.09.2019
1834 Clear 15 1018 54 16093 1.49 309.049 14:57 16.09.2019
1835 Clear 15 1017 62 16093 1.49 309.049 14:39 16.09.2019
1836 Clear 15 1017 62 16093 1.49 309.049 14:20 16.09.2019
1837 Clear 15 1017 26 16093 1.49 309.049 13:41 16.09.2019
1838 Clear 15 1017 31 16093 1.86 319.67 13:22 16.09.2019
1839 Clear 15 1017 31 16093 1.5 160 12:55 16.09.2019
1840 -273 0 0 0 0 0 12:55 16.09.2019
1841 Clear 16 1017 31 16093 2.1 290 12:36 16.09.2019
1842 Clear 15 1017 31 16093 2.1 290 12:18 16.09.2019
1843 Clear 16 1018 54 16093 1.5 210 11:44 16.09.2019
1844 Clouds 16 1017 48 16093 3.6 210 11:22 16.09.2019
1845 Clear 16 1018 54 16093 1.5 200 10:40 16.09.2019
1846 Clouds 17 1017 45 16093 4.6 190 10:21 16.09.2019
1847 Clear 17 1017 28 16093 2.72 325.61 09:59 16.09.2019
1848 Clouds 17 1017 42 16093 5.1 180 09:41 16.09.2019
1849 Clouds 18 1017 42 16093 5.1 180 09:20 16.09.2019
1850 Clear 18 1017 28 16093 2.83 285.89 08:48 16.09.2019
1851 Clouds 18 1017 40 16093 5.1 190 08:29 16.09.2019
1852 Clear 19 1017 33 16093 2.34 274.542 07:57 16.09.2019
1853 Clear 19 1017 33 16093 2.6 290 07:39 16.09.2019
1854 Clear 19 1017 33 16093 2.6 290 07:39 16.09.2019
1855 Clear 19 1017 33 16093 2.6 290 07:20 16.09.2019
1856 Clear 19 1018 33 16093 3.1 260 06:48 16.09.2019
1857 Clear 19 1018 33 16093 2.34 274.542 06:30 16.09.2019
1858 Clouds 21 1018 28 16093 4.1 170 05:54 16.09.2019
1859 Clear 21 1018 42 16093 4.24 162.867 05:35 16.09.2019
1860 Clear 22 1018 37 16093 4.24 162.867 04:55 16.09.2019
1861 Clear 25 1018 22 16093 2.1 240 03:31 16.09.2019
1862 Clear 29 1019 12 16093 3.6 360 00:44 16.09.2019
1863 Clear 30 1019 12 16093 3.6 360 00:26 16.09.2019
1864 Clear 31 1019 11 16093 1.91 78.366 23:45 15.09.2019
1865 Clear 31 1019 11 16093 1.91 78.366 23:22 15.09.2019
1866 Clear 30 1020 10 16093 1.5 130 22:59 15.09.2019
1867 Clear 30 1020 11 16093 2.1 120 22:37 15.09.2019
1868 Clear 30 1020 11 16093 2.1 120 22:18 15.09.2019
1869 Clear 30 1021 11 16093 2.6 80 21:55 15.09.2019
1870 Clear 30 1021 11 16093 2.1 160 21:37 15.09.2019
1871 Clear 29 1022 13 16093 1.9 83.733 21:18 15.09.2019
1872 Clear 28 1022 13 16093 2.48 120.523 20:44 15.09.2019
1873 Clear 28 1022 13 16093 2.48 120.523 20:25 15.09.2019
1874 Clear 27 1023 13 16093 2.48 120.523 19:47 15.09.2019
1875 Clear 26 1023 14 16093 1.5 30 19:27 15.09.2019
1876 Clear 25 1023 17 16093 2.48 120.523 18:55 15.09.2019
1877 Clear 24 1023 17 16093 2.48 120.523 18:36 15.09.2019
1878 Clouds 23 1023 24 16093 2.6 240 18:18 15.09.2019
1879 Clear 21 1024 28 16093 0.31 160.508 17:41 15.09.2019
1880 Clear 20 1024 28 16093 0.31 160.508 17:21 15.09.2019
1881 Clear 18 1024 41 16093 0.31 160.508 16:56 15.09.2019
1882 Clouds 17 1023 47 16093 3.1 210 16:38 15.09.2019
1883 Clouds 16 1023 47 16093 3.1 210 16:20 15.09.2019
1884 Clouds 13 1023 58 16093 3.1 200 15:41 15.09.2019
1885 Clear 11 1024 70 16093 1.5 220 15:21 15.09.2019
1886 Clear 11 1023 66 16093 1.13 289.763 14:59 15.09.2019
1887 Clear 11 1023 75 16093 1.5 240 14:40 15.09.2019
1888 Clear 11 1023 75 16093 1.5 240 14:22 15.09.2019
1889 Clear 12 1023 30 16093 1.13 289.763 13:47 15.09.2019
1890 Clear 12 1023 33 16093 2.1 290 13:25 15.09.2019
1891 Clear 13 1023 33 16093 1.5 290 12:58 15.09.2019
1892 Clear 13 1023 33 16093 2.6 320 12:39 15.09.2019
1893 Clear 13 1023 33 16093 2.6 320 12:19 15.09.2019
1894 Clear 13 1024 66 16093 2.02 333.815 11:42 15.09.2019
1895 Clear 14 1024 66 16093 2.02 333.815 11:23 15.09.2019
1896 Clear 14 1023 27 16093 2.02 333.815 10:59 15.09.2019
1897 Clear 14 1024 57 16093 2.02 333.815 10:40 15.09.2019
1898 Clear 14 1024 57 16093 2.02 333.815 10:21 15.09.2019
1899 Clear 15 1024 50 16093 2.02 333.815 09:43 15.09.2019
1900 Clear 15 1024 50 16093 1.86 290.448 09:21 15.09.2019
1901 Clear 15 1024 47 16093 1.86 290.448 08:58 15.09.2019
1902 Clear 15 1024 47 16093 1.86 290.448 08:58 15.09.2019
1903 Clear 15 1024 41 16093 1.86 290.448 08:39 15.09.2019
1904 Clear 15 1024 41 16093 1.08 279.244 08:18 15.09.2019
1905 Clear 15 1024 41 16093 1.08 279.244 08:18 15.09.2019
1906 Clear 16 1024 24 16093 1.08 279.244 07:41 15.09.2019
1907 Clear 17 1024 33 16093 1.08 279.244 06:44 15.09.2019
1908 Clear 19 1024 23 16093 1.5 250 05:35 15.09.2019
1909 Clear 25 1023 15 16093 3.1 100 03:19 15.09.2019
1910 Clear 28 1022 10 16093 3.6 70 02:18 15.09.2019
1911 Clear 30 1022 9 16093 4.1 80 01:36 15.09.2019
1912 Clear 30 1022 9 16093 4.1 80 01:36 15.09.2019
1913 Clouds 30 1022 11 32767 2.6 30 00:56 15.09.2019
1914 Clear 30 1022 9 16093 4.6 110 00:36 15.09.2019
1915 Clouds 30 1022 8 16093 2.1 360 00:18 15.09.2019
1916 Clear 30 1022 9 16093 1.5 120 23:55 14.09.2019
1917 Clear 30 1022 9 16093 1.5 120 23:37 14.09.2019
1918 Clear 30 1022 9 16093 1.5 120 23:18 14.09.2019
1919 -273 0 0 0 0 0 22:55 14.09.2019
1920 Clear 30 1023 9 16093 0.39 212.067 22:37 14.09.2019
1921 Clear 30 1023 9 16093 0.39 212.067 22:18 14.09.2019
1922 Clear 29 1024 10 16093 2.6 110 21:40 14.09.2019
1923 Clear 29 1024 10 16093 2.6 110 21:20 14.09.2019
1924 Clear 28 1024 11 16093 3.6 90 20:57 14.09.2019
1925 Clear 28 1024 12 16093 2.6 40 20:38 14.09.2019
1926 Clear 28 1024 12 16093 2.6 40 20:20 14.09.2019
1927 Clear 27 1025 14 16093 2.6 40 19:46 14.09.2019
1928 Clouds 26 1025 15 16093 2.6 230 19:22 14.09.2019
1929 Clouds 25 1025 15 32186 3.1 160 18:57 14.09.2019
1930 Clear 24 1025 15 16093 1.5 30 18:38 14.09.2019
1931 Clear 24 1025 15 16093 1.5 30 18:38 14.09.2019
1932 Clouds 23 1025 22 16093 1.5 210 18:19 14.09.2019
1933 Clear 21 1025 32 16093 0.95 326.494 17:44 14.09.2019
1934 Clear 19 1025 32 16093 0.95 326.494 17:23 14.09.2019
1935 Clear 17 1025 51 16093 0.95 326.494 16:50 14.09.2019
1936 Clear 15 1025 58 16093 0.95 326.494 16:29 14.09.2019
1937 Clouds 14 1024 46 16093 4.1 170 15:59 14.09.2019
1938 Clouds 13 1024 46 16093 4.1 170 15:40 14.09.2019
1939 Clear 10 1025 81 16093 2.04 282.919 15:21 14.09.2019
1940 Clear 10 1025 87 16093 2.1 220 14:44 14.09.2019
1941 Clouds 11 1024 50 16093 3.6 190 14:19 14.09.2019
1942 Clear 10 1024 81 16093 2.04 282.919 13:55 14.09.2019
1943 Clear 10 1025 81 16093 1.5 120 13:37 14.09.2019
1944 Clear 11 1024 81 16093 2.02 297.097 13:18 14.09.2019
1945 Clear 11 1024 81 16093 2.1 190 12:40 14.09.2019
1946 Clear 11 1024 81 16093 2.1 190 12:18 14.09.2019
1947 Clear 11 1025 75 16093 2.1 360 11:40 14.09.2019
1948 Clear 11 1025 75 16093 2.1 360 11:20 14.09.2019
1949 Clear 12 1025 66 16093 2.1 190 10:40 14.09.2019
1950 Clear 12 1025 66 16093 2.1 190 10:21 14.09.2019
1951 Clear 13 1024 50 16093 3.1 180 09:58 14.09.2019
1952 Clear 13 1025 71 16093 1.92 293.191 09:39 14.09.2019
1953 Clear 13 1025 71 16093 2.42 283.755 09:20 14.09.2019
1954 Clear 13 1025 62 16093 1.5 170 08:47 14.09.2019
1955 Clear 13 1025 62 16093 1.5 170 08:25 14.09.2019
1956 Clear 14 1025 66 16093 1.5 220 07:48 14.09.2019
1957 Clear 14 1025 62 16093 2.35 290.994 07:29 14.09.2019
1958 Clear 15 1025 58 16093 2.35 290.994 06:53 14.09.2019
1959 Clear 15 1025 58 16093 1.5 210 06:31 14.09.2019
1960 Clear 16 1025 47 16093 1.03 292.286 05:27 14.09.2019
1961 Clear 20 1024 30 16093 1.03 292.286 03:47 14.09.2019
1962 Clear 24 1024 15 16093 2.01 88.151 02:55 14.09.2019
1963 Clear 25 1024 13 16093 2.01 88.151 01:59 14.09.2019
1964 Clear 26 1024 14 16093 2.79 107.501 01:39 14.09.2019
1965 Clouds 26 1023 14 16093 4.1 90 01:18 14.09.2019
1966 Clear 26 1024 13 16093 2.1 200 00:39 14.09.2019
1967 Clear 26 1024 13 16093 2.1 200 00:21 14.09.2019
1968 Clear 26 1024 13 16093 2.1 200 00:21 14.09.2019
1969 Clear 26 1024 13 16093 2.1 200 00:21 14.09.2019
1970 Clouds 26 1023 14 16093 3.1 40 00:21 14.09.2019
1971 Clear 26 1024 13 16093 2.1 200 00:21 14.09.2019
1972 Clear 25 1025 16 16093 2.1 60 23:38 13.09.2019
1973 Clear 25 1025 16 16093 2.1 60 23:38 13.09.2019
1974 Clear 25 1025 16 16093 2.1 60 23:19 13.09.2019
1975 Clear 25 1025 16 16093 2.6 120 22:59 13.09.2019
1976 Clear 24 1025 17 16093 1.77 96.44 22:39 13.09.2019
1977 Clear 24 1025 17 16093 1.77 96.44 22:20 13.09.2019
1978 Clear 23 1025 17 16093 2.1 160 21:55 13.09.2019
1979 Clear 23 1026 23 16093 1.77 96.44 21:37 13.09.2019
1980 Clear 22 1026 23 16093 1.45 43.04 21:18 13.09.2019
1981 Clear 21 1027 26 16093 1.45 43.04 20:55 13.09.2019
1982 Clear 21 1027 30 16093 1.66 27.663 20:36 13.09.2019
1983 Clear 21 1027 30 16093 1.66 27.663 20:18 13.09.2019
1984 Clear 20 1028 32 16093 3.1 50 19:42 13.09.2019
1985 Clouds 19 1027 32 16093 3.1 320 19:20 13.09.2019
1986 Clear 18 1027 34 32767 4.1 350 18:57 13.09.2019
1987 Clear 17 1028 39 16093 2.6 360 18:37 13.09.2019
1988 Clouds 17 1027 34 16093 3.6 240 18:18 13.09.2019
1989 Clear 16 1029 47 16093 2.6 10 17:41 13.09.2019
1990 Clouds 15 1027 41 16093 2.6 220 17:19 13.09.2019
1991 Clouds 15 1027 50 16093 2.6 280 16:54 13.09.2019
1992 Clouds 14 1027 50 16093 2.6 280 16:36 13.09.2019
1993 Clouds 13 1027 50 16093 2.6 280 16:18 13.09.2019
1994 Clouds 11 1026 50 16093 4.1 140 15:40 13.09.2019
1995 Clear 9 1028 87 16093 0.72 143.242 15:20 13.09.2019
1996 Clouds 9 1027 43 32767 4.6 320 14:44 13.09.2019
1997 Clear 9 1028 81 16093 0.72 143.242 14:23 13.09.2019
1998 Clear 10 1027 50 16093 0.72 143.242 13:56 13.09.2019
1999 Clear 9 1027 50 16093 0.72 143.242 13:56 13.09.2019
2000 Clear 10 1027 50 16093 0.72 143.242 13:38 13.09.2019
2001 Clear 10 1027 50 16093 3.42 317.823 13:19 13.09.2019
2002 Clear 10 1027 53 16093 2.1 210 12:44 13.09.2019
2003 Clear 10 1027 53 16093 2.1 210 12:23 13.09.2019
2004 Clear 10 1028 53 16093 1.5 180 11:56 13.09.2019
2005 Clear 11 1028 42 16093 3.6 170 11:20 13.09.2019
2006 Clear 11 1029 50 16093 1.5 200 10:41 13.09.2019
2007 Clear 11 1029 50 16093 1.5 200 10:20 13.09.2019
2008 Clear 12 1028 47 16093 2.6 210 09:47 13.09.2019
2009 Clear 12 1028 54 16093 2.1 180 09:26 13.09.2019
2010 Clear 12 1028 47 16093 2.6 210 08:59 13.09.2019
2011 Clear 12 1028 47 16093 2.6 210 08:41 13.09.2019
2012 Clear 12 1028 47 16093 2.6 210 08:41 13.09.2019
2013 Clear 13 1028 54 16093 1.5 190 08:21 13.09.2019
2014 Clear 13 1028 54 16093 1.5 220 07:56 13.09.2019
2015 Clear 13 1028 44 16093 2.1 220 07:38 13.09.2019
2016 Clear 13 1028 38 16093 1.04 212.897 06:49 13.09.2019
2017 Clear 16 1028 41 16093 2.1 210 05:50 13.09.2019
2018 Clear 16 1028 41 16093 2.1 210 05:19 13.09.2019
2019 Clear 19 1026 33 16093 3.1 90 03:41 13.09.2019
2020 Clear 21 1026 21 16093 3.1 80 02:48 13.09.2019
2021 Clouds 22 1025 21 16093 5.1 50 02:18 13.09.2019
2022 Clear 22 1025 17 16093 4.6 60 02:18 13.09.2019
2023 Clear 23 1025 17 16093 3.6 50 01:35 13.09.2019
2024 Clear 23 1025 15 16093 4.6 70 00:58 13.09.2019
2025 Clear 24 1025 15 16093 4.1 90 00:31 13.09.2019
2026 Clear 24 1025 12 16093 2.1 360 23:40 12.09.2019
2027 Clear 23 1025 12 16093 2.1 360 23:22 12.09.2019
2028 Clouds 23 1025 14 16093 3.67 41.821 22:43 12.09.2019
2029 Clouds 23 1025 14 16093 3.67 41.821 22:24 12.09.2019
2030 Clear 23 1025 15 16093 3.67 41.821 21:58 12.09.2019
2031 Clear 23 1025 15 16093 3.67 41.821 21:39 12.09.2019
2032 Clear 22 1025 15 16093 3.75 304.148 21:20 12.09.2019
2033 Clear 22 1025 15 16093 3.1 290 20:57 12.09.2019
2034 Clear 21 1025 18 16093 3.1 240 20:39 12.09.2019
2035 Clear 21 1025 18 16093 3.1 240 20:20 12.09.2019
2036 Clear 21 1025 22 16093 1.5 200 19:56 12.09.2019
2037 Clear 20 1026 19 16093 3.83 304.308 19:36 12.09.2019
2038 Clouds 20 1025 19 16093 5.1 280 19:18 12.09.2019
2039 Clear 19 1026 36 16093 3.83 304.308 18:38 12.09.2019
2040 Clouds 18 1025 31 16093 2.6 360 18:20 12.09.2019
2041 Clear 17 1026 42 16093 2.6 20 17:57 12.09.2019
2042 Clear 17 1026 42 16093 3.1 360 17:38 12.09.2019
2043 Clear 16 1026 42 16093 3.1 360 17:19 12.09.2019
2044 Clear 15 1025 54 16093 4.9 278.903 16:42 12.09.2019
2045 Clear 14 1025 54 16093 4.9 278.903 16:22 12.09.2019
2046 Clear 12 1025 62 16093 4.9 278.903 15:55 12.09.2019
2047 Clear 11 1025 70 16093 4.9 278.903 15:36 12.09.2019
2048 Rain 10 1024 70 16093 2.1 190 15:18 12.09.2019
2049 Rain 10 1024 76 16093 4.07 278.584 14:41 12.09.2019
2050 Clear 10 1024 76 16093 4.07 278.584 14:21 12.09.2019
2051 Clear 10 1024 57 16093 1.5 360 13:40 12.09.2019
2052 Clear 10 1024 57 16093 1.5 360 13:21 12.09.2019
2053 Clear 11 1023 47 16093 2.1 230 12:49 12.09.2019
2054 Clear 11 1023 47 16093 2.1 230 12:49 12.09.2019
2055 Rain 11 1023 71 16093 4.1 130 12:20 12.09.2019
2056 Rain 11 1023 71 16093 4.1 130 12:20 12.09.2019
2057 Rain 11 1023 71 16093 4.1 130 12:20 12.09.2019
2058 Rain 12 1022 66 16093 4.1 140 11:59 12.09.2019
2059 Clouds 12 1022 66 16093 4.1 140 11:40 12.09.2019
2060 Clouds 12 1022 66 16093 4.1 140 11:21 12.09.2019
2061 Clouds 13 1022 66 16093 3.1 180 10:56 12.09.2019
2062 Clouds 13 1022 66 16093 3.1 180 10:37 12.09.2019
2063 Clouds 13 1022 66 16093 3.1 180 10:18 12.09.2019
2064 Clouds 13 1021 76 16093 4.6 140 09:42 12.09.2019
2065 Clouds 13 1021 76 16093 4.6 140 09:20 12.09.2019
2066 Rain 14 1020 71 16093 2.6 140 08:45 12.09.2019
2067 Rain 14 1020 71 16093 2.6 140 08:25 12.09.2019
2068 Rain 14 1019 71 16093 1.5 150 07:55 12.09.2019
2069 Rain 14 1020 82 16093 1.5 310 07:36 12.09.2019
2070 Rain 14 1019 67 16093 2.1 140 07:18 12.09.2019
2071 Rain 15 1019 72 16093 2.1 160 06:45 12.09.2019
2072 Rain 15 1019 72 16093 1.5 190 05:59 12.09.2019
2073 Rain 15 1019 72 16093 1.69 316.775 05:39 12.09.2019
2074 Rain 15 1019 72 16093 1.69 316.775 05:19 12.09.2019
2075 Clear 16 1017 77 16093 1.69 316.775 03:46 12.09.2019
2076 Clouds 22 1016 56 16093 4.6 350 01:43 12.09.2019
2077 Clouds 22 1016 56 16093 4.6 350 01:24 12.09.2019
2078 Clouds 24 1014 47 16093 9.3 350 00:50 12.09.2019
2079 Clear 24 1015 49 16093 3.1 30 00:29 12.09.2019
2080 Clear 25 1015 44 16093 4.6 360 23:44 11.09.2019
2081 Clear 26 1015 44 16093 4.6 360 23:25 11.09.2019
2082 Clear 26 1015 44 16093 1.51 336.507 22:58 11.09.2019
2083 Clear 26 1016 47 16093 2.6 10 22:38 11.09.2019
2084 Clear 25 1016 47 16093 2.6 10 22:20 11.09.2019
2085 Clear 25 1016 47 16093 2.6 50 21:58 11.09.2019
2086 Clear 25 1016 49 16093 4.6 50 21:40 11.09.2019
2087 Clear 25 1016 49 16093 4.6 50 21:22 11.09.2019
2088 Clouds 25 1017 56 16093 4.1 30 20:55 11.09.2019
2089 Clouds 24 1017 56 16093 4.1 30 20:37 11.09.2019
2090 Clouds 24 1016 34 16093 3.1 60 20:18 11.09.2019
2091 Clear 23 1018 56 16093 3.6 10 19:55 11.09.2019
2092 Clear 23 1018 53 16093 1.5 40 19:37 11.09.2019
2093 Clear 23 1018 53 16093 1.5 40 19:37 11.09.2019
2094 Clear 22 1018 53 16093 1.5 40 19:18 11.09.2019
2095 Clouds 21 1017 56 16093 4.23 121.577 18:42 11.09.2019
2096 Clear 20 1018 63 16093 2.09 156.888 18:23 11.09.2019
2097 Clear 20 1018 68 16093 2.09 156.888 17:58 11.09.2019
2098 Clear 19 1019 72 16093 2.09 156.888 17:39 11.09.2019
2099 Clear 18 1019 72 16093 2.09 156.888 17:20 11.09.2019
2100 Clouds 17 1018 72 32186 1.5 350 16:54 11.09.2019
2101 Clouds 17 1018 72 32186 1.5 350 16:54 11.09.2019
2102 Clear 17 1019 72 16093 2.09 156.888 16:36 11.09.2019
2103 Clouds 15 1017 82 16093 2.6 130 16:18 11.09.2019
2104 Clear 13 1019 87 16093 1.5 300 15:45 11.09.2019
2105 Clear 12 1019 87 16093 1.5 300 15:22 11.09.2019
2106 Clear 12 1018 87 16093 1.5 210.419 14:57 11.09.2019
2107 Clear 12 1018 87 16093 1.5 210.419 14:37 11.09.2019
2108 Clear 13 1018 82 16093 1.5 210.419 14:18 11.09.2019
2109 Clear 13 1018 82 16093 1.5 210.419 13:54 11.09.2019
2110 Clear 13 1017 58 16093 1.5 290 13:36 11.09.2019
2111 Clear 13 1017 58 16093 1.5 290 13:18 11.09.2019
2112 Clear 14 1017 87 16093 1.3 325.92 12:40 11.09.2019
2113 Clouds 14 1017 67 16093 1.61 325.727 12:20 11.09.2019
2114 Clear 14 1017 87 16093 1.61 325.727 11:41 11.09.2019
2115 Clear 15 1017 87 16093 1.61 325.727 11:22 11.09.2019
2116 Clear 15 1017 55 16093 1.5 300 10:59 11.09.2019
2117 Clear 15 1016 55 16093 1.61 325.727 10:40 11.09.2019
2118 Clear 16 1016 55 16093 1.61 325.727 10:20 11.09.2019
2119 Clouds 16 1017 59 16093 2.6 260 09:40 11.09.2019
2120 Clouds 16 1017 59 16093 2.6 260 09:20 11.09.2019
2121 Clear 17 1017 48 16093 2.98 238.931 08:57 11.09.2019
2122 Clear 17 1017 48 16093 2.98 238.931 08:57 11.09.2019
2123 Clear 17 1017 72 16093 2.44 277.433 08:38 11.09.2019
2124 Clear 18 1017 72 16093 2.44 277.433 08:20 11.09.2019
2125 Clear 18 1016 52 16093 3.6 360 07:41 11.09.2019
2126 Clear 19 1016 52 16093 3.6 360 07:22 11.09.2019
2127 Clear 19 1016 52 16093 3.1 350 06:48 11.09.2019
2128 Clear 20 1016 52 16093 3.1 10 06:30 11.09.2019
2129 Clear 20 1016 63 16093 2.84 296.475 05:37 11.09.2019
2130 Clear 20 1016 63 16093 2.84 296.475 05:19 11.09.2019
2131 Clear 20 1016 63 16093 2.84 296.475 05:19 11.09.2019
2132 Clear 21 1015 56 16093 2.84 296.475 04:39 11.09.2019
2133 Clear 23 1014 46 16093 3.1 350 03:32 11.09.2019
2134 Clear 25 1013 39 16093 8.2 360 02:42 11.09.2019
2135 Thunderstorm 27 1013 32 32186 5.7 340 01:53 11.09.2019
2136 Clear 30 1014 26 16093 5.7 10 00:50 11.09.2019
2137 Clear 30 1014 26 16093 5.7 10 00:20 11.09.2019
2138 Clear 30 1014 28 16093 2.32 62.397 23:41 10.09.2019
2139 Clear 29 1014 28 16093 2.32 62.397 23:22 10.09.2019
2140 Clear 29 1015 26 16093 1.5 200 22:59 10.09.2019
2141 Clear 29 1015 25 16093 3.6 190 22:41 10.09.2019
2142 Clear 28 1016 30 16093 2.32 62.397 22:19 10.09.2019
2143 Clear 28 1016 30 16093 2.32 62.397 22:19 10.09.2019
2144 Clear 27 1016 30 16093 2.32 62.397 21:55 10.09.2019
2145 Clear 27 1016 31 16093 2.32 62.397 21:37 10.09.2019
2146 Clear 26 1016 31 16093 1.31 52.57 21:18 10.09.2019
2147 Clear 25 1017 33 16093 1.31 52.57 20:57 10.09.2019
2148 Clear 25 1017 33 16093 1.5 30 20:38 10.09.2019
2149 Clear 25 1017 33 16093 1.5 30 20:19 10.09.2019
2150 Clear 24 1018 36 16093 1.5 170 19:55 10.09.2019
2151 Clear 24 1018 36 16093 1.5 240 19:37 10.09.2019
2152 Clear 24 1018 36 16093 1.5 240 19:37 10.09.2019
2153 Clouds 23 1018 49 16093 1.5 210 19:18 10.09.2019
2154 Clear 22 1019 40 16093 1.5 100 18:46 10.09.2019
2155 Clear 21 1019 40 16093 1.5 100 18:23 10.09.2019
2156 Clear 20 1019 52 16093 2.19 18.831 17:59 10.09.2019
2157 Clear 20 1019 52 16093 2.19 18.831 17:59 10.09.2019
2158 Clouds 19 1019 40 16093 2.1 190 17:41 10.09.2019
2159 Clouds 18 1019 40 16093 2.1 190 17:21 10.09.2019
2160 Clear 18 1019 68 16093 2.19 18.831 16:57 10.09.2019
2161 Clouds 17 1019 68 16093 2.19 18.831 16:38 10.09.2019
2162 Clouds 16 1019 68 16093 2.19 18.831 16:19 10.09.2019
2163 Clouds 15 1020 87 16093 2.19 18.831 15:44 10.09.2019
2164 Clouds 15 1020 87 16093 2.07 297.939 15:23 10.09.2019
2165 Clouds 15 1019 87 16093 2.07 297.939 14:58 10.09.2019
2166 Clouds 14 1019 82 16093 2.07 297.939 14:39 10.09.2019
2167 Clouds 15 1019 82 16093 2.07 297.939 14:21 10.09.2019
2168 Clouds 15 1018 82 16093 3.6 290 13:48 10.09.2019
2169 Clouds 15 1018 93 16093 2.52 292.751 13:24 10.09.2019
2170 Clouds 15 1017 87 16093 1.5 350 12:55 10.09.2019
2171 Clouds 15 1017 87 16093 1.5 350 12:55 10.09.2019
2172 Clouds 15 1018 72 16093 4.6 350 12:36 10.09.2019
2173 Clear 15 1018 63 16093 5.1 330 12:18 10.09.2019
2174 Clouds 15 1017 63 16093 5.1 340 11:42 10.09.2019
2175 Clouds 15 1017 63 16093 5.1 340 11:22 10.09.2019
2176 Clear 15 1018 63 16093 6.2 340 10:57 10.09.2019
2177 Clear 15 1018 63 16093 5.7 350 10:36 10.09.2019
2178 Clear 16 1018 63 16093 5.7 350 10:18 10.09.2019
2179 Clouds 16 1019 55 16093 3.1 360 09:44 10.09.2019
2180 Clouds 17 1018 56 16093 1.5 130 09:20 10.09.2019
2181 Clouds 17 1018 56 16093 1.5 130 08:49 10.09.2019
2182 Clouds 17 1018 56 16093 3.1 140 08:29 10.09.2019
2183 Clouds 17 1018 52 16093 3.1 130 07:59 10.09.2019
2184 Clouds 17 1018 59 16093 3.37 299.426 07:41 10.09.2019
2185 Clouds 18 1018 49 16093 5.1 130 07:23 10.09.2019
2186 Clear 18 1017 37 16093 4.1 130 06:42 10.09.2019
2187 Clear 19 1017 37 16093 4.1 130 06:21 10.09.2019
2188 Clouds 22 1015 56 16093 3.6 80 04:25 10.09.2019
2189 Clouds 25 1014 31 16093 5.1 70 02:41 10.09.2019
2190 Clear 26 1004 33 0 0.45 78 02:21 10.09.2019
2191 Clear 26 1004 33 0 0.45 78 02:21 10.09.2019
2192 Clouds 26 1014 31 16093 5.1 70 02:21 10.09.2019
2193 Clouds 26 1014 31 16093 5.1 70 02:21 10.09.2019
2194 Clouds 27 1014 26 16093 4.6 60 01:50 10.09.2019
2195 Clouds 27 1014 26 16093 4.6 60 01:23 10.09.2019
2196 Clouds 27 1014 23 16093 3.1 40 00:42 10.09.2019
2197 Clouds 28 1014 23 16093 3.1 40 00:22 10.09.2019
2198 Clouds 28 1014 23 16093 4.6 50 23:40 09.09.2019
2199 Clouds 28 1015 18 16093 3.1 90 23:19 09.09.2019
2200 Clouds 27 1015 21 32767 2.6 50 22:55 09.09.2019
2201 -273 0 0 0 0 0 22:37 09.09.2019
2202 Clouds 27 1015 22 16093 2.1 90 22:19 09.09.2019
2203 Clouds 26 1016 31 16093 2.6 40 21:55 09.09.2019
2204 Clouds 26 1016 31 16093 1.5 120 21:37 09.09.2019
2205 Clouds 26 1016 29 16093 4.1 80 21:18 09.09.2019
2206 Clouds 26 1016 29 16093 4.1 80 21:18 09.09.2019
2207 Clear 25 1016 44 16093 1.5 110 20:55 09.09.2019
2208 Clear 24 1016 46 16093 2.1 150 20:36 09.09.2019
2209 Clouds 24 1016 41 16093 1.5 10 20:18 09.09.2019
2210 Clear 23 1017 60 16093 2.28 101.704 19:56 09.09.2019
2211 Clear 22 1017 64 16093 2.28 101.704 19:37 09.09.2019
2212 Clear 21 1017 68 16093 2.28 101.704 19:19 09.09.2019
2213 Clear 21 1017 68 16093 2.28 101.704 19:19 09.09.2019
2214 Clouds 21 1016 64 16093 1.5 270 18:55 09.09.2019
2215 Clear 20 1017 72 16093 2.28 101.704 18:36 09.09.2019
2216 Clouds 19 1016 82 16093 0.62 18.229 18:18 09.09.2019
2217 Clouds 18 1016 82 16093 0.62 18.229 17:56 09.09.2019
2218 Haze 16 1017 93 8047 0.62 18.229 17:37 09.09.2019
2219 Mist 16 1016 72 16093 0.62 18.229 17:19 09.09.2019
2220 Mist 14 1017 93 805 0.62 18.229 16:40 09.09.2019
2221 Mist 14 1017 93 805 0.62 18.229 16:21 09.09.2019
2222 Mist 13 1016 100 3219 3.1 200 15:56 09.09.2019
2223 Mist 12 1016 100 6437 3.1 180 15:38 09.09.2019
2224 Mist 12 1016 100 6437 3.1 180 15:19 09.09.2019
2225 Fog 12 1016 100 11265 2.1 90 14:57 09.09.2019
2226 Fog 12 1016 100 11265 2.1 90 14:38 09.09.2019
2227 Rain 12 1016 100 11265 2.1 90 14:20 09.09.2019
2228 Rain 12 1016 100 0 1.26 348.896 13:45 09.09.2019
2229 Mist 12 1016 100 0 1.39 7.212 13:21 09.09.2019
2230 Rain 12 1016 93 4023 2.1 350 12:58 09.09.2019
2231 Rain 12 1016 93 4828 2.6 350 12:40 09.09.2019
2232 Rain 12 1016 93 4828 2.6 350 12:40 09.09.2019
2233 Rain 12 1015 93 16093 1.5 90 12:21 09.09.2019
2234 -273 0 0 0 0 0 11:55 09.09.2019
2235 Rain 13 1015 93 16093 2.6 10 11:36 09.09.2019
2236 Rain 13 1015 87 16093 0.42 199.608 11:18 09.09.2019
2237 Rain 13 1015 87 16093 0.42 199.608 10:41 09.09.2019
2238 Rain 13 1015 87 16093 0.42 199.608 10:21 09.09.2019
2239 Rain 13 1014 93 16093 4.1 140 09:57 09.09.2019
2240 Rain 13 1015 93 16093 0.42 199.608 09:38 09.09.2019
2241 Rain 14 1015 93 16093 0.81 125.933 09:20 09.09.2019
2242 Rain 14 1016 93 6437 3.6 290 08:39 09.09.2019
2243 Rain 14 1017 87 16093 2.1 10 08:20 09.09.2019
2244 Rain 14 1017 87 16093 5.1 290 07:47 09.09.2019
2245 Thunderstorm 14 1017 87 16093 2.6 300 07:23 09.09.2019
2246 Clear 14 1016 87 16093 3.6 330 06:58 09.09.2019
2247 Clear 14 1016 87 16093 3.6 330 06:36 09.09.2019
2248 Rain 15 1016 87 16093 1.97 34.005 04:56 09.09.2019
2249 Rain 16 1015 82 16093 3.1 340 02:59 09.09.2019
2250 Rain 16 1013 88 6437 7.2 290 02:38 09.09.2019
2251 Rain 21 1015 49 16093 5.7 260 00:43 09.09.2019
2252 Thunderstorm 22 1015 49 16093 5.7 260 00:22 09.09.2019
2253 Clear 23 1016 36 16093 2.1 40 23:45 08.09.2019
2254 Clear 23 1016 36 16093 2.1 40 23:24 08.09.2019
2255 Thunderstorm 23 1014 39 16093 8.7 130 23:24 08.09.2019
2256 Thunderstorm 24 1016 31 16093 1.5 170 22:56 08.09.2019
2257 Clear 24 1016 33 16093 2.1 60 22:38 08.09.2019
2258 Clouds 24 1015 36 16093 3.6 70 22:19 08.09.2019
2259 Clear 23 1018 35 16093 3.1 90 21:42 08.09.2019
2260 Clouds 23 1017 43 16093 4.1 70 21:23 08.09.2019
2261 Clouds 22 1018 40 32767 3.6 10 20:58 08.09.2019
2262 Clear 22 1019 40 16093 3.36 111.687 20:39 08.09.2019
2263 Clear 21 1019 40 16093 3.36 111.687 20:20 08.09.2019
2264 Clouds 20 1019 48 16093 4.1 80 19:59 08.09.2019
2265 Clear 20 1021 45 16093 3.36 111.687 19:38 08.09.2019
2266 Clouds 19 1020 52 16093 3.36 111.687 19:19 08.09.2019
2267 Clouds 19 1020 52 16093 3.36 111.687 19:19 08.09.2019
2268 Clear 19 1021 45 16093 3.36 111.687 18:57 08.09.2019
2269 Clouds 18 1020 51 32186 2.1 80 18:38 08.09.2019
2270 Clear 17 1021 51 16093 2.16 109.634 18:18 08.09.2019
2271 Clear 17 1021 51 16093 2.16 109.634 17:54 08.09.2019
2272 Clear 16 1021 55 16093 2.16 109.634 17:36 08.09.2019
2273 Clouds 16 1020 62 16093 2.16 109.634 17:18 08.09.2019
2274 Clouds 16 1020 62 16093 2.16 109.634 17:18 08.09.2019
2275 Clear 15 1022 62 16093 2.1 20 16:43 08.09.2019
2276 Clouds 14 1021 71 16093 1.5 90 16:22 08.09.2019
2277 Clouds 13 1021 62 16093 2.6 340 15:58 08.09.2019
2278 Clear 13 1022 76 16093 2.16 109.634 15:40 08.09.2019
2279 Clear 12 1022 76 16093 2.47 73.445 15:21 08.09.2019
2280 Clouds 11 1021 66 16093 2.1 10 14:55 08.09.2019
2281 Clear 11 1022 71 16093 2.47 73.445 14:36 08.09.2019
2282 Clouds 12 1021 71 16093 2.47 73.445 14:18 08.09.2019
2283 Clear 12 1020 71 16093 2.47 73.445 13:55 08.09.2019
2284 Clear 12 1020 67 16093 1.5 20 13:36 08.09.2019
2285 Clear 13 1021 71 16093 1.5 20 13:18 08.09.2019
2286 Clear 13 1021 71 16093 2.6 30 12:41 08.09.2019
2287 Clear 13 1021 71 16093 2.6 30 12:23 08.09.2019
2288 Clear 14 1021 67 16093 3.6 350 11:58 08.09.2019
2289 Clear 14 1022 67 16093 3.1 330 11:38 08.09.2019
2290 Clear 14 1022 67 16093 3.1 330 11:38 08.09.2019
2291 Clear 14 1022 67 16093 3.1 330 11:19 08.09.2019
2292 Clear 15 1022 63 16093 3.6 320 10:55 08.09.2019
2293 Clear 15 1022 63 16093 4.1 340 10:37 08.09.2019
2294 Clouds 16 1022 59 16093 5.7 340 10:18 08.09.2019
2295 Clouds 17 1022 59 16093 7.2 350 09:38 08.09.2019
2296 Clouds 17 1022 59 16093 7.2 350 09:19 08.09.2019
2297 Rain 18 1021 48 16093 9.3 340 08:56 08.09.2019
2298 Rain 19 1021 39 16093 9.8 330 08:36 08.09.2019
2299 Rain 19 1021 39 16093 9.8 330 08:18 08.09.2019
2300 Rain 20 1020 33 16093 4.1 340 07:38 08.09.2019
2301 Rain 20 1020 33 16093 4.1 340 07:38 08.09.2019
2302 Rain 20 1020 33 16093 4.1 340 07:20 08.09.2019
2303 Clear 20 1021 45 16093 7.52 352.241 06:45 08.09.2019
2304 Clear 22 1020 40 16093 2.1 230 05:48 08.09.2019
2305 Clear 23 1020 40 16093 2.1 230 05:29 08.09.2019
2306 Clear 26 1019 22 16093 2.1 320 03:39 08.09.2019
2307 Clouds 28 1018 16 32767 4.1 300 02:53 08.09.2019
2308 Clouds 29 1018 15 32767 7.7 280 01:57 08.09.2019
2309 Clear 29 1018 22 16093 3.6 280 01:34 08.09.2019
2310 Clear 29 1018 22 16093 3.6 280 01:34 08.09.2019
2311 Clouds 30 1018 16 32767 7.7 290 00:53 08.09.2019
2312 Clear 30 1019 14 16093 2.1 260 00:34 08.09.2019
2313 Clouds 30 1018 15 32767 11.3 280 23:59 07.09.2019
2314 Clear 30 1019 15 16093 4.6 300 23:38 07.09.2019
2315 Clouds 30 1019 23 16093 3.1 40 23:19 07.09.2019
2316 Clouds 30 1019 18 32767 7.7 260 22:56 07.09.2019
2317 Clouds 30 1019 20 32767 7.7 280 22:37 07.09.2019
2318 Clouds 29 1019 20 32767 7.7 280 22:18 07.09.2019
2319 Clear 29 1020 16 16093 6.2 280 21:40 07.09.2019
2320 Clear 29 1020 16 16093 6.2 280 21:40 07.09.2019
2321 Clear 28 1021 20 16093 2.6 310 21:22 07.09.2019
2322 Clear 28 1020 16 16093 6.2 280 21:22 07.09.2019
2323 Clouds 28 1021 23 16093 3.1 300 20:42 07.09.2019
2324 Clouds 27 1021 36 16093 3.6 300 20:22 07.09.2019
2325 Clear 27 1022 26 16093 1.5 130 19:58 07.09.2019
2326 Clouds 27 1022 28 16093 3.33 78.525 19:39 07.09.2019
2327 Clouds 26 1022 41 16093 1.5 300 19:21 07.09.2019
2328 Clouds 25 1022 28 32186 8.2 290 18:59 07.09.2019
2329 Clear 25 1022 36 16093 1.5 290 18:40 07.09.2019
2330 Rain 24 1022 49 16093 1.5 230 18:22 07.09.2019
2331 Rain 22 1022 43 16093 1.5 60 17:59 07.09.2019
2332 Clear 21 1023 60 16093 0.47 12.301 17:39 07.09.2019
2333 Clear 21 1023 60 16093 0.47 12.301 17:39 07.09.2019
2334 Clouds 20 1022 63 16093 2.1 210 17:19 07.09.2019
2335 Clouds 19 1022 55 32186 3.1 120 16:58 07.09.2019
2336 Clouds 19 1022 55 32186 3.1 120 16:58 07.09.2019
2337 Clouds 19 1022 55 32186 3.1 120 16:58 07.09.2019
2338 Clear 18 1023 77 16093 1.5 200 16:40 07.09.2019
2339 Rain 17 1022 72 16093 1.5 200 16:19 07.09.2019
2340 Rain 17 1023 87 16093 0.47 12.301 15:46 07.09.2019
2341 Rain 16 1023 87 16093 2.47 339.139 15:26 07.09.2019
2342 Clear 16 1022 82 16093 2.47 339.139 14:57 07.09.2019
2343 Clear 16 1022 87 16093 2.47 339.139 14:37 07.09.2019
2344 Clouds 16 1022 77 16093 3.1 200 14:18 07.09.2019
2345 Clear 16 1022 63 16093 4.6 310 13:56 07.09.2019
2346 Clear 16 1022 63 16093 4.6 310 13:56 07.09.2019
2347 Clear 16 1022 63 16093 4.6 310 13:38 07.09.2019
2348 Clear 16 1022 63 16093 4.6 310 13:20 07.09.2019
2349 Clear 17 1022 59 16093 3.6 280 12:44 07.09.2019
2350 Clear 17 1022 59 16093 3.6 280 12:24 07.09.2019
2351 Rain 17 1023 55 16093 2.6 200 11:42 07.09.2019
2352 Rain 17 1023 55 16093 2.6 200 11:22 07.09.2019
2353 Rain 17 1023 49 16093 5.7 210 10:59 07.09.2019
2354 Rain 17 1024 72 16093 4.1 220 10:38 07.09.2019
2355 Rain 17 1024 72 16093 4.1 220 10:19 07.09.2019
2356 Rain 18 1025 72 16093 5.7 170 09:43 07.09.2019
2357 Rain 18 1025 72 16093 5.7 170 09:24 07.09.2019
2358 Rain 18 1024 77 16093 5.7 230 08:57 07.09.2019
2359 Rain 18 1024 77 16093 5.7 230 08:57 07.09.2019
2360 Rain 18 1025 82 16093 4.1 230 08:37 07.09.2019
2361 Rain 18 1025 63 16093 3.6 250 08:19 07.09.2019
2362 Rain 18 1025 52 16093 7.7 210 07:44 07.09.2019
2363 Rain 19 1025 52 16093 7.7 210 07:24 07.09.2019
2364 Rain 18 1024 68 16093 5.7 190 06:43 07.09.2019
2365 Rain 18 1024 68 16093 5.7 190 06:19 07.09.2019
2366 Rain 18 1025 64 16093 7.2 180 04:33 07.09.2019
2367 Rain 19 1026 77 16093 2.6 200 03:44 07.09.2019
2368 Rain 19 1025 64 16093 4.6 190 02:31 07.09.2019
2369 Rain 19 1025 59 16093 2.6 160 01:44 07.09.2019
2370 Rain 20 1024 41 16093 9.17 184.28 00:55 07.09.2019
2371 Rain 20 1023 41 16093 9.17 184.28 00:36 07.09.2019
2372 Rain 21 1023 46 16093 2.6 360 00:18 07.09.2019
2373 Thunderstorm 24 1024 49 16093 4.1 80 23:38 06.09.2019
2374 Thunderstorm 24 1024 49 16093 4.1 80 23:38 06.09.2019
2375 Thunderstorm 24 1024 49 16093 4.1 80 23:38 06.09.2019
2376 Thunderstorm 26 1025 49 16093 5.1 310 23:20 06.09.2019
2377 Thunderstorm 27 1025 49 16093 5.1 310 22:57 06.09.2019
2378 Thunderstorm 28 1025 53 16093 3.6 350 22:37 06.09.2019
2379 Clouds 28 1026 50 16093 7.66 165.066 22:18 06.09.2019
2380 Clouds 27 1026 50 16093 7.66 165.066 21:56 06.09.2019
2381 Clouds 28 1027 54 16093 2.1 10 21:37 06.09.2019
2382 Clouds 27 1026 44 16093 2.6 0 21:18 06.09.2019
2383 Clear 26 1028 54 16093 3.1 100 20:42 06.09.2019
2384 Clear 26 1028 54 16093 3.1 100 20:42 06.09.2019
2385 Clear 26 1028 54 16093 3.1 100 20:24 06.09.2019
2386 Clouds 25 1027 60 16093 3.1 40 19:59 06.09.2019
2387 Clouds 25 1028 69 16093 3.6 70 19:41 06.09.2019
2388 Clouds 25 1028 69 16093 3.6 70 19:41 06.09.2019
2389 Clouds 24 1028 69 16093 3.6 70 19:21 06.09.2019
2390 -273 0 0 0 0 0 18:56 06.09.2019
2391 Rain 23 1028 77 14484 5.7 120 18:37 06.09.2019
2392 Clouds 21 1029 68 16093 1.5 10 18:19 06.09.2019
2393 Clouds 21 1029 73 16093 1.81 127.584 17:40 06.09.2019
2394 Clouds 20 1029 73 16093 1.81 127.584 17:20 06.09.2019
2395 Clouds 20 1029 77 16093 1.81 127.584 16:43 06.09.2019
2396 Clouds 19 1028 82 16093 3.6 120 16:20 06.09.2019
2397 Clouds 18 1028 72 16093 1.81 127.584 15:59 06.09.2019
2398 Clear 18 1028 87 16093 1.81 127.584 15:41 06.09.2019
2399 Clouds 17 1028 88 16093 3.6 110 15:22 06.09.2019
2400 Clear 17 1028 77 11265 2.98 357.444 14:47 06.09.2019
2401 Clouds 17 1028 77 16093 1.5 140 14:19 06.09.2019
2402 Clouds 17 1027 77 16093 2.1 90 13:44 06.09.2019
2403 Clouds 18 1027 77 16093 2.1 90 13:23 06.09.2019
2404 Clouds 18 1027 72 16093 5.11 323.105 12:57 06.09.2019
2405 Clear 18 1028 63 16093 2.1 340 12:37 06.09.2019
2406 Clouds 19 1028 56 16093 2.1 320 12:18 06.09.2019
2407 Clear 19 1028 60 16093 4.1 330 11:41 06.09.2019
2408 Clear 19 1028 60 16093 4.1 330 11:23 06.09.2019
2409 Clear 20 1028 56 16093 5.1 320 10:57 06.09.2019
2410 Clear 20 1028 52 16093 5.1 320 10:39 06.09.2019
2411 Clear 20 1028 52 16093 5.1 320 10:18 06.09.2019
2412 Rain 21 1028 37 16093 5.7 360 09:38 06.09.2019
2413 Rain 21 1028 37 16093 5.7 360 09:20 06.09.2019
2414 Clear 21 1028 55 16093 2.2 278.724 08:56 06.09.2019
2415 Clear 21 1027 33 16093 2.2 278.724 08:37 06.09.2019
2416 Clear 21 1027 33 16093 2.2 278.724 08:19 06.09.2019
2417 Clear 21 1027 37 16093 1.5 270 07:44 06.09.2019
2418 Clear 21 1027 37 16093 1.5 270 07:25 06.09.2019
2419 Clear 21 1027 37 16093 1.5 270 07:25 06.09.2019
2420 Clear 22 1027 43 16093 2.1 250 06:53 06.09.2019
2421 Clouds 24 1027 29 16093 4.1 40 05:58 06.09.2019
2422 Rain 26 1027 24 16093 7.2 60 04:58 06.09.2019
2423 Rain 27 1026 28 16093 3.1 240 04:33 06.09.2019
2424 Rain 27 1025 26 16093 1.5 260 03:39 06.09.2019
2425 Rain 29 1023 20 11265 11.3 300 01:49 06.09.2019
2426 Clouds 32 1025 17 16093 2.6 50 00:23 06.09.2019
2427 Clear 33 1024 11 16093 2.1 30 23:44 05.09.2019
2428 Clear 34 1024 11 16093 2.1 30 23:24 05.09.2019
2429 Clouds 34 1024 13 16093 2.1 150 22:47 05.09.2019
2430 Clear 34 1024 15 16093 2.1 80 22:28 05.09.2019
2431 Clear 34 1025 11 16093 3.1 340 21:58 05.09.2019
2432 Clear 34 1025 11 16093 3.1 20 21:40 05.09.2019
2433 Clear 34 1025 11 16093 3.1 20 21:40 05.09.2019
2434 Clear 34 1025 11 16093 3.1 20 21:21 05.09.2019
2435 Clear 34 1025 15 16093 2.6 50 20:58 05.09.2019
2436 Clear 33 1025 11 16093 2.56 64.698 20:40 05.09.2019
2437 Clouds 33 1025 15 16093 2.1 30 20:22 05.09.2019
2438 Clear 33 1025 12 16093 2.6 90 20:00 05.09.2019
2439 Clear 33 1025 14 16093 2.1 90 19:41 05.09.2019
2440 Clouds 32 1025 18 16093 4.6 350 19:22 05.09.2019
2441 Clear 31 1025 14 16093 1.5 10 18:56 05.09.2019
2442 Clear 30 1025 15 16093 2.56 64.698 18:38 05.09.2019
2443 Clear 29 1025 16 16093 1.91 245.181 18:18 05.09.2019
2444 Clear 27 1025 21 16093 1.91 245.181 17:40 05.09.2019
2445 Clear 27 1025 21 16093 1.91 245.181 17:40 05.09.2019
2446 Clouds 26 1025 33 16093 3.6 220 17:22 05.09.2019
2447 Clear 24 1025 33 16093 1.91 245.181 16:58 05.09.2019
2448 Clear 23 1025 40 16093 1.91 245.181 16:40 05.09.2019
2449 Clear 22 1025 40 16093 1.91 245.181 16:19 05.09.2019
2450 Clouds 20 1025 48 16093 3.6 190 15:41 05.09.2019
2451 Clear 17 1025 62 16093 2.26 232.112 15:19 05.09.2019
2452 Clear 17 1025 62 16093 2.26 232.112 14:59 05.09.2019
2453 Clouds 17 1024 45 16093 3.6 200 14:40 05.09.2019
2454 Clouds 17 1024 45 16093 3.6 200 14:20 05.09.2019
2455 Clear 17 1024 67 16093 2.26 232.112 13:43 05.09.2019
2456 Clear 17 1024 67 16093 2.84 256.374 13:23 05.09.2019
2457 Clear 18 1023 35 16093 2.84 256.374 12:54 05.09.2019
2458 Clear 18 1023 42 16093 1.5 270 12:36 05.09.2019
2459 Clear 18 1023 42 16093 1.72 244.327 12:18 05.09.2019
2460 Clear 19 1023 42 16093 1.5 210 11:43 05.09.2019
2461 Clear 19 1023 42 16093 1.5 210 11:19 05.09.2019
2462 Clear 19 1023 51 16093 1.72 244.327 10:42 05.09.2019
2463 Clear 19 1023 35 16093 1.72 244.327 10:23 05.09.2019
2464 Clear 20 1023 35 16093 1.72 244.327 09:58 05.09.2019
2465 Clear 20 1023 35 16093 0.65 138.565 09:40 05.09.2019
2466 Clear 20 1023 40 16093 2.1 140 09:18 05.09.2019
2467 Clear 21 1023 37 16093 1.5 160 08:46 05.09.2019
2468 Clear 21 1023 37 16093 1.5 160 08:26 05.09.2019
2469 Clear 21 1023 35 16093 2.93 218.733 07:46 05.09.2019
2470 Clear 21 1023 35 16093 2.93 218.733 07:28 05.09.2019
2471 Clear 22 1023 33 16093 1.5 220 06:58 05.09.2019
2472 Clear 22 1023 31 16093 1.5 190 06:31 05.09.2019
2473 Clear 22 1023 29 16093 4.6 170 05:51 05.09.2019
2474 Clear 23 1023 29 16093 4.6 170 05:32 05.09.2019
2475 Clouds 24 1023 31 16093 3.1 160 04:53 05.09.2019
2476 Clear 24 1023 27 16093 4.1 180 04:28 05.09.2019
2477 Clouds 25 1023 36 16093 9.3 190 03:40 05.09.2019
2478 Drizzle 24 1024 31 16093 8.2 200 02:53 05.09.2019
2479 Drizzle 25 1024 31 16093 8.2 200 02:27 05.09.2019
2480 Clouds 26 1024 28 16093 6.7 220 01:37 05.09.2019
2481 Rain 26 1023 32 16093 1.5 330 00:46 05.09.2019
2482 Rain 27 1024 30 16093 7.2 230 00:21 05.09.2019
2483 Thunderstorm 28 1023 25 16093 8.2 330 23:56 04.09.2019
2484 Thunderstorm 28 1023 25 16093 8.2 330 23:37 04.09.2019
2485 Rain 28 1023 25 16093 8.2 330 23:18 04.09.2019
2486 Rain 27 1023 30 16093 9.35 175.717 22:42 04.09.2019
2487 Clouds 27 1023 28 16093 5.7 330 22:19 04.09.2019
2488 Clear 28 1024 28 16093 1.5 140 21:40 04.09.2019
2489 Clear 28 1024 28 16093 1.5 140 21:20 04.09.2019
2490 Clear 28 1024 28 16093 1.5 140 21:20 04.09.2019
2491 Clear 28 1024 28 16093 1.5 140 21:20 04.09.2019
2492 Clear 28 1024 34 16093 0.63 111.43 20:57 04.09.2019
2493 Clear 28 1024 34 16093 0.63 111.43 20:57 04.09.2019
2494 Clear 28 1024 34 16093 0.63 111.43 20:39 04.09.2019
2495 Clouds 27 1024 37 16093 2.1 350 20:19 04.09.2019
2496 Clear 27 1025 41 16093 1.5 60 19:57 04.09.2019
2497 Clear 27 1025 47 16093 2.6 50 19:38 04.09.2019
2498 Clouds 26 1025 44 16093 2.6 0 19:19 04.09.2019
2499 Clear 25 1025 53 16093 2.6 320 18:39 04.09.2019
2500 Clear 25 1025 53 16093 2.6 320 18:39 04.09.2019
2501 Clear 23 1025 53 16093 3.1 360 18:20 04.09.2019
2502 Clear 23 1025 53 16093 3.1 360 17:54 04.09.2019
2503 Clear 22 1025 60 16093 2.47 346.621 17:36 04.09.2019
2504 Clear 22 1025 60 16093 2.47 346.621 17:36 04.09.2019
2505 Clouds 21 1025 63 16093 3.6 340 17:18 04.09.2019
2506 Clear 20 1026 72 16093 2.1 30 16:42 04.09.2019
2507 Clear 19 1026 72 16093 2.1 30 16:24 04.09.2019
2508 Clouds 18 1025 63 16093 2.47 346.621 15:56 04.09.2019
2509 Clear 17 1026 82 16093 2.47 346.621 15:38 04.09.2019
2510 Clear 16 1025 82 16093 2.32 340.511 15:20 04.09.2019
2511 Clear 16 1025 82 16093 2.32 340.511 14:55 04.09.2019
2512 Clear 16 1025 82 16093 2.32 340.511 14:36 04.09.2019
2513 Clouds 16 1024 63 16093 5.7 200 14:18 04.09.2019
2514 Clear 16 1025 63 16093 2.6 320 13:40 04.09.2019
2515 Clear 16 1026 82 16093 3.13 333.23 13:21 04.09.2019
2516 Clear 16 1026 82 16093 3.13 333.23 12:56 04.09.2019
2517 Clear 17 1025 63 16093 3.13 333.23 12:37 04.09.2019
2518 Clear 17 1025 63 16093 3.13 333.23 12:37 04.09.2019
2519 Clear 17 1026 82 16093 1.5 220 12:18 04.09.2019
2520 Clear 17 1026 67 16093 2.1 270 11:41 04.09.2019
2521 Clear 17 1026 67 16093 2.6 120 11:21 04.09.2019
2522 Clear 18 1026 67 16093 2.6 120 10:59 04.09.2019
2523 Clear 18 1026 63 16093 0.94 285.373 10:40 04.09.2019
2524 Clear 18 1026 63 16093 0.94 285.373 10:21 04.09.2019
2525 Clear 19 1027 63 16093 4.1 310 09:46 04.09.2019
2526 Clear 19 1027 63 16093 4.1 310 09:22 04.09.2019
2527 Clear 20 1027 56 16093 2.6 320 08:58 04.09.2019
2528 Clear 20 1027 52 16093 2.6 360 08:39 04.09.2019
2529 Clouds 21 1027 49 16093 4.48 151.723 08:19 04.09.2019
2530 Clouds 21 1027 49 16093 2.1 130 07:43 04.09.2019
2531 Clouds 22 1027 49 16093 2.1 130 07:24 04.09.2019
2532 Clouds 22 1027 43 16093 3.6 120 06:39 04.09.2019
2533 Clear 23 1026 47 16093 4.1 60 04:56 04.09.2019
2534 Clouds 24 1026 44 16093 3.1 120 04:25 04.09.2019
2535 Clear 25 1026 36 16093 2.1 110 03:39 04.09.2019
2536 Clouds 27 1025 42 16093 3.1 30 01:21 04.09.2019
2537 Clear 27 1025 32 16093 4.81 121.274 00:46 04.09.2019
2538 Clear 27 1025 32 16093 4.81 121.274 00:27 04.09.2019
2539 Clouds 27 1026 34 16093 2.1 100 23:53 03.09.2019
2540 Clouds 28 1026 34 16093 2.1 100 23:27 03.09.2019
2541 Clear 28 1026 39 16093 4.1 90 22:57 03.09.2019
2542 Clear 28 1026 39 16093 4.1 90 22:57 03.09.2019
2543 Clouds 27 1026 42 16093 3.6 130 22:38 03.09.2019
2544 Clouds 27 1026 47 16093 3.6 50 22:20 03.09.2019
2545 Clouds 27 1026 42 16093 3.6 60 21:55 03.09.2019
2546 Clouds 27 1026 42 16093 3.6 60 21:55 03.09.2019
2547 Clouds 26 1027 42 16093 2.6 50 21:36 03.09.2019
2548 Clouds 26 1027 42 16093 2.6 50 21:36 03.09.2019
2549 Clouds 26 1027 44 16093 3.1 40 21:18 03.09.2019
2550 Clear 25 1028 47 16093 3.1 70 20:41 03.09.2019
2551 Clouds 25 1027 41 16093 4.1 10 20:21 03.09.2019
2552 Clouds 25 1027 41 16093 4.1 10 19:55 03.09.2019
2553 Clear 25 1028 41 16093 3.03 65.303 19:37 03.09.2019
2554 Clouds 24 1027 64 16093 3.1 10 19:18 03.09.2019
2555 Clouds 24 1028 38 16093 5.1 40 18:44 03.09.2019
2556 Clouds 24 1028 38 16093 5.1 40 18:44 03.09.2019
2557 Clouds 23 1027 56 16093 5.7 10 18:25 03.09.2019
2558 Clouds 23 1028 36 16093 3.1 10 17:58 03.09.2019
2559 Clouds 22 1027 46 16093 4.1 330 17:39 03.09.2019
2560 Clouds 22 1027 46 16093 4.1 330 17:19 03.09.2019
2561 Clouds 21 1027 42 16093 4.6 310 16:54 03.09.2019
2562 Clear 20 1027 37 16093 3.6 290 16:36 03.09.2019
2563 Clear 20 1025 45 16093 3.6 350 16:18 03.09.2019
2564 Clear 19 1025 42 16093 5.1 10 15:39 03.09.2019
2565 Clouds 18 1024 32 16093 7.7 10 15:21 03.09.2019
2566 Clouds 17 1022 38 16093 3.1 210 14:58 03.09.2019
2567 Clouds 17 1022 38 16093 3.1 210 14:40 03.09.2019
2568 Clouds 17 1022 38 16093 3.1 210 14:20 03.09.2019
2569 Clear 16 1022 41 16093 4.04 345.307 13:56 03.09.2019
2570 Clear 17 1022 50 16093 2.99 357.547 13:37 03.09.2019
2571 Clouds 17 1020 32 16093 4.6 240 13:19 03.09.2019
2572 Clear 17 1021 29 16093 2.1 260 12:48 03.09.2019
2573 Clear 18 1021 29 16093 2.1 260 12:29 03.09.2019
2574 Clear 18 1021 50 16093 1.5 200 11:57 03.09.2019
2575 Clear 18 1020 28 16093 3.6 200 11:38 03.09.2019
2576 Clear 18 1020 28 16093 3.6 200 11:18 03.09.2019
2577 Clear 19 1020 18 16093 0.52 288.574 10:41 03.09.2019
2578 Clear 19 1020 18 16093 0.52 288.574 10:22 03.09.2019
2579 Clear 20 1020 16 16093 0.52 288.574 09:53 03.09.2019
2580 Clear 20 1020 30 16093 2.6 200 09:34 03.09.2019
2581 Clear 20 1020 39 16093 2.91 335.261 08:59 03.09.2019
2582 Clear 20 1020 39 16093 2.91 335.261 08:39 03.09.2019
2583 Clear 20 1020 28 16093 1.5 190 08:20 03.09.2019
2584 Clear 21 1020 16 16093 3.6 310 07:43 03.09.2019
2585 Clear 21 1020 16 16093 3.6 310 07:43 03.09.2019
2586 Clear 22 1020 37 16093 2.91 335.261 07:24 03.09.2019
2587 -273 0 0 0 0 0 06:55 03.09.2019
2588 Clear 22 1021 32 16093 2.91 335.261 06:37 03.09.2019
2589 Clear 29 1019 11 16093 2.79 54.929 03:44 03.09.2019
2590 Clear 32 1019 7 16093 2.1 100 02:52 03.09.2019
2591 Clear 33 1019 7 16093 2.1 100 02:32 03.09.2019
2592 Clouds 34 1019 8 16093 1.5 0 01:59 03.09.2019
2593 Clear 34 1019 6 16093 4.1 100 01:41 03.09.2019
2594 Clouds 35 1019 5 16093 3.6 20 01:22 03.09.2019
2595 Clear 36 1019 5 16093 4.6 140 00:31 03.09.2019
2596 Clear 36 1019 5 16093 4.28 280.191 23:56 02.09.2019
2597 Clear 36 1020 6 16093 4.1 20 23:36 02.09.2019
2598 Clouds 36 1020 6 16093 3.1 30 23:18 02.09.2019
2599 Clouds 36 1020 8 16093 4.1 30 22:55 02.09.2019
2600 Clouds 36 1020 8 16093 3.6 20 22:36 02.09.2019
2601 Clouds 36 1021 6 16093 2.6 190 22:18 02.09.2019
2602 Clear 36 1021 6 16093 5.7 340 21:55 02.09.2019
2603 Clear 35 1021 6 16093 5.7 340 21:36 02.09.2019
2604 Clouds 35 1021 8 16093 3.72 296.352 21:18 02.09.2019
2605 Clear 35 1021 6 16093 2.1 100 20:41 02.09.2019
2606 Clouds 35 1022 9 16093 3.6 310 20:23 02.09.2019
2607 Clear 34 1022 6 16093 2.6 100 19:58 02.09.2019
2608 Clear 34 1022 9 16093 1.5 30 19:40 02.09.2019
2609 Clear 33 1022 10 16093 3.72 296.352 19:21 02.09.2019
2610 Clouds 32 1022 14 16093 2.1 150 18:56 02.09.2019
2611 Clear 31 1022 11 16093 3.72 296.352 18:36 02.09.2019
2612 Clear 30 1022 11 16093 1.5 160 18:18 02.09.2019
2613 Clear 27 1023 19 16093 1.5 170 17:40 02.09.2019
2614 Clear 26 1023 19 16093 1.5 170 17:21 02.09.2019
2615 Clouds 25 1023 21 16093 1.77 247.056 16:59 02.09.2019
2616 Clouds 24 1023 35 16093 4.1 210 16:39 02.09.2019
2617 Clear 22 1023 35 16093 1.77 247.056 16:20 02.09.2019
2618 Clouds 22 1023 35 16093 4.1 210 16:20 02.09.2019
2619 Clear 20 1022 48 16093 1.77 247.056 15:46 02.09.2019
2620 Clear 18 1022 48 16093 1.87 237.842 15:27 02.09.2019
2621 Clear 18 1022 47 11265 1.87 237.842 14:58 02.09.2019
2622 Clear 18 1022 47 16093 2.1 200 14:39 02.09.2019
2623 Clouds 18 1022 39 16093 4.1 190 14:21 02.09.2019
2624 Clear 18 1022 51 16093 2.1 190 13:56 02.09.2019
2625 Clear 18 1022 28 16093 2.1 240 13:37 02.09.2019
2626 Clear 19 1022 33 16093 2.1 240 13:18 02.09.2019
2627 Clear 19 1022 33 16093 1.5 200 12:45 02.09.2019
2628 Clear 19 1022 31 16093 1.5 200 12:25 02.09.2019
2629 Clear 19 1022 28 16093 2.1 280 11:58 02.09.2019
2630 Clear 19 1022 31 16093 1.16 299.849 11:39 02.09.2019
2631 Clear 19 1022 30 16093 2.6 260 11:20 02.09.2019
2632 Clear 19 1022 30 16093 2.6 260 10:57 02.09.2019
2633 Clear 19 1022 30 16093 2.1 230 10:38 02.09.2019
2634 Clear 20 1022 30 16093 2.1 230 10:19 02.09.2019
2635 Clear 20 1022 28 16093 1.16 299.849 09:45 02.09.2019
2636 Clear 21 1022 28 16093 4.23 278.602 09:22 02.09.2019
2637 Clear 21 1022 28 16093 4.23 278.602 09:22 02.09.2019
2638 Clear 22 1022 34 16093 4.23 278.602 08:45 02.09.2019
2639 Clouds 22 1022 33 16093 5.1 210 08:23 02.09.2019
2640 Clear 22 1022 20 16093 5.7 310 07:59 02.09.2019
2641 Clear 22 1022 22 16093 6.2 310 07:40 02.09.2019
2642 Clear 23 1022 22 16093 6.2 310 07:21 02.09.2019
2643 Clear 24 1022 33 16093 4.23 278.602 06:44 02.09.2019
2644 Clear 24 1022 19 16093 4.1 340 06:22 02.09.2019
2645 Clear 25 1021 33 16093 2.6 200 05:44 02.09.2019
2646 Clouds 26 1021 21 16093 1.5 260 05:18 02.09.2019
2647 Clear 32 1020 10 16093 3.6 50 02:46 02.09.2019
2648 Clear 33 1020 8 16093 3.6 60 01:43 02.09.2019
2649 Clouds 35 1021 11 16093 4.1 50 00:47 02.09.2019
2650 Clouds 35 1021 11 16093 4.1 50 00:28 02.09.2019
2651 Clear 35 1020 8 16093 1.5 40 23:41 01.09.2019
2652 Clear 35 1020 8 16093 1.5 40 23:21 01.09.2019
2653 Clouds 35 1021 12 16093 4.1 350 22:57 01.09.2019
2654 Clouds 35 1021 12 16093 4.1 350 22:39 01.09.2019
2655 Clouds 35 1022 12 16093 1.5 260 22:19 01.09.2019
2656 Clouds 35 1022 12 16093 1.5 310 21:55 01.09.2019
2657 Clear 34 1021 7 16093 4.74 300.576 21:37 01.09.2019
2658 Clouds 34 1022 14 16093 2.1 100 21:18 01.09.2019
2659 Clouds 34 1022 14 16093 2.1 100 20:55 01.09.2019
2660 Clear 33 1022 12 16093 2.6 120 20:36 01.09.2019
2661 Clouds 33 1023 16 16093 3.1 50 20:18 01.09.2019
2662 Clouds 33 1023 16 16093 3.1 50 20:18 01.09.2019
2663 Clear 31 1023 22 16093 1.5 90 19:41 01.09.2019
2664 Clouds 30 1022 20 16093 2.1 0 19:21 01.09.2019
2665 Clouds 29 1022 20 16093 2.1 0 18:57 01.09.2019
2666 Clouds 29 1022 20 16093 2.1 0 18:57 01.09.2019
2667 Clear 29 1023 34 16093 2.72 162.938 18:38 01.09.2019
2668 Clouds 28 1024 25 16093 4.1 270 18:20 01.09.2019
2669 Clouds 27 1023 34 16093 4.6 240 17:54 01.09.2019
2670 Clouds 26 1023 34 16093 4.6 240 17:36 01.09.2019
2671 Clouds 24 1023 34 16093 4.6 240 17:18 01.09.2019
2672 Clouds 23 1023 40 16093 4.6 210 16:39 01.09.2019
2673 Clear 21 1023 36 16093 2.1 190 16:18 01.09.2019
2674 Clouds 20 1022 55 16093 4.6 190 15:45 01.09.2019
2675 Clear 16 1023 82 16093 0.93 318.918 15:26 01.09.2019
2676 Clouds 16 1022 77 16093 1.5 10 14:55 01.09.2019
2677 Clear 16 1023 76 16093 0.93 318.918 14:37 01.09.2019
2678 Clear 16 1022 63 16093 4.6 200 14:18 01.09.2019
2679 Clear 17 1022 52 16093 0.93 318.918 13:41 01.09.2019
2680 Clear 17 1022 52 16093 0.95 294.109 13:23 01.09.2019
2681 -273 0 0 0 0 0 12:55 01.09.2019
2682 Clear 17 1022 55 16093 1.5 10 12:55 01.09.2019
2683 Clear 17 1022 55 16093 2.6 350 12:36 01.09.2019
2684 Clear 17 1022 55 16093 2.6 350 12:18 01.09.2019
2685 Clear 18 1022 42 16093 1.5 310 11:39 01.09.2019
2686 Clear 18 1022 42 16093 1.5 310 11:19 01.09.2019
2687 Clear 18 1022 52 16093 1.4 249.213 10:46 01.09.2019
2688 Clear 18 1023 52 16093 1.4 249.213 10:46 01.09.2019
2689 Clear 18 1023 43 16093 1.5 270 10:24 01.09.2019
2690 Clear 19 1023 43 16093 1.5 270 09:59 01.09.2019
2691 Clear 19 1023 45 16093 2.1 280 09:41 01.09.2019
2692 Clear 20 1023 49 16093 1.5 260 09:22 01.09.2019
2693 Clear 20 1023 46 16093 1.72 331.191 08:43 01.09.2019
2694 Clear 20 1023 46 16093 1.72 331.191 08:21 01.09.2019
2695 Clear 21 1023 43 16093 1.72 331.191 07:46 01.09.2019
2696 Clear 21 1024 46 16093 4.6 170 07:21 01.09.2019
2697 Clear 22 1023 41 16093 4.6 330 06:39 01.09.2019
2698 Clear 23 1023 49 16093 3.04 129.037 05:59 01.09.2019
2699 Clear 23 1023 49 16093 3.04 129.037 05:59 01.09.2019
2700 Clear 23 1023 49 16093 3.04 129.037 05:59 01.09.2019
2701 Clear 24 1023 46 16093 3.04 129.037 05:27 01.09.2019
2702 Clouds 26 1022 44 16093 4.1 130 04:19 01.09.2019
2703 Clear 28 1022 26 16093 4.1 80 03:37 01.09.2019
2704 Clear 29 1021 19 16093 2.6 60 02:40 01.09.2019
2705 Clear 30 1021 19 16093 2.6 60 02:22 01.09.2019
2706 Clear 31 1022 19 16093 5.1 50 01:30 01.09.2019
2707 Clouds 32 1021 19 16093 3.1 80 00:59 01.09.2019
2708 Clouds 32 1022 18 16093 4.1 40 00:40 01.09.2019
2709 Clear 32 1022 17 16093 3.6 40 00:20 01.09.2019
2710 Clear 32 1022 16 16093 2.6 10 23:43 31.08.2019
2711 Clouds 32 1022 22 16093 1.5 130 23:21 31.08.2019
2712 Clouds 32 1022 22 16093 1.5 130 22:55 31.08.2019
2713 Clear 32 1023 18 11265 3.6 40 22:37 31.08.2019
2714 Clouds 31 1023 18 16093 1.5 0 22:19 31.08.2019
2715 Clear 31 1023 25 16093 3.6 150 21:44 31.08.2019
2716 Clear 30 1023 25 16093 3.6 150 21:22 31.08.2019
2717 Clear 30 1024 30 16093 1.89 123.226 20:59 31.08.2019
2718 Clear 29 1024 32 16093 2.1 160 20:41 31.08.2019
2719 Clouds 28 1024 28 16093 2.6 70 20:22 31.08.2019
2720 Clear 26 1025 47 16093 1.89 123.226 19:41 31.08.2019
2721 Clouds 26 1024 44 16093 1.5 40 19:22 31.08.2019
2722 Clouds 25 1024 47 16093 1.5 30 18:56 31.08.2019
2723 Clear 25 1025 64 16093 1.89 123.226 18:37 31.08.2019
2724 Clear 24 1025 64 16093 1.43 157.998 18:19 31.08.2019
2725 Clear 22 1025 64 16093 1.43 157.998 17:54 31.08.2019
2726 Clear 21 1025 72 16093 1.43 157.998 17:36 31.08.2019
2727 Clear 21 1025 72 16093 1.43 157.998 17:36 31.08.2019
2728 Clouds 20 1024 77 16093 3.1 230 17:18 31.08.2019
2729 Clouds 19 1023 82 11265 3.6 250 16:42 31.08.2019
2730 Clouds 18 1023 82 11265 3.6 250 16:23 31.08.2019
2731 Mist 16 1025 93 11265 1.43 157.998 15:59 31.08.2019
2732 Mist 15 1023 93 8047 3.1 260 15:40 31.08.2019
2733 Mist 15 1024 87 9656 1.55 354.672 15:18 31.08.2019
2734 Mist 15 1024 100 11265 2.6 260 14:42 31.08.2019
2735 Mist 15 1024 100 11265 2.6 260 14:24 31.08.2019
2736 Mist 15 1023 93 8047 4.6 260 13:57 31.08.2019
2737 Mist 15 1023 93 8047 4.6 260 13:57 31.08.2019
2738 Mist 15 1023 93 8047 1.55 354.672 13:37 31.08.2019
2739 Mist 15 1023 93 11265 2.1 330 13:18 31.08.2019
2740 Mist 15 1024 82 12874 3.1 290 12:42 31.08.2019
2741 Mist 15 1024 82 12874 3.1 290 12:21 31.08.2019
2742 Mist 15 1023 100 8047 4.6 260 11:59 31.08.2019
2743 Mist 16 1024 93 11265 2.1 310 11:41 31.08.2019
2744 Mist 16 1024 93 11265 2.1 310 11:23 31.08.2019
2745 Clouds 16 1024 93 16093 2.6 340 10:55 31.08.2019
2746 Clear 16 1024 88 16093 4.1 340 10:36 31.08.2019
2747 Clear 17 1024 88 16093 4.1 340 10:18 31.08.2019
2748 Clear 17 1023 68 16093 8.2 340 09:40 31.08.2019
2749 Clear 18 1023 68 16093 8.2 340 09:21 31.08.2019
2750 Clear 18 1023 40 16093 6.7 320 08:45 31.08.2019
2751 Clear 19 1023 40 16093 6.7 320 08:27 31.08.2019
2752 Rain 19 1023 46 16093 4.1 340 07:58 31.08.2019
2753 Rain 19 1023 46 16093 3.6 360 07:37 31.08.2019
2754 Rain 20 1023 56 16093 2.6 110 07:18 31.08.2019
2755 Clear 21 1023 31 16093 3.1 360 06:26 31.08.2019
2756 Clouds 22 1022 60 16093 5.1 190 05:50 31.08.2019
2757 Clouds 22 1022 60 16093 5.1 190 05:27 31.08.2019
2758 Rain 24 1022 44 16093 9.79 153.629 04:28 31.08.2019
2759 Rain 26 1021 24 24140 4.1 270 03:42 31.08.2019
2760 Rain 28 1020 28 16093 2.1 210 02:22 31.08.2019
2761 Rain 29 1021 32 24140 1.5 210 01:47 31.08.2019
2762 Clear 29 1020 27 16093 1.5 60 01:28 31.08.2019
2763 Clear 29 1021 27 16093 5.68 171.245 00:46 31.08.2019
2764 Clouds 29 1021 23 16093 4.1 330 00:27 31.08.2019
2765 Rain 27 1021 28 16093 2.6 200 23:49 30.08.2019
2766 Rain 27 1022 28 16093 2.1 0 23:19 30.08.2019
2767 Rain 27 1022 28 16093 2.1 0 23:19 30.08.2019
2768 Rain 27 1022 34 22530 4.19 167.225 22:58 30.08.2019
2769 Clear 27 1022 34 16093 2.6 80 22:38 30.08.2019
2770 Clear 26 1023 34 16093 4.19 167.225 22:19 30.08.2019
2771 Clear 26 1023 44 16093 2.1 80 21:56 30.08.2019
2772 Clear 25 1023 44 16093 2.1 80 21:36 30.08.2019
2773 Clouds 25 1023 41 16093 4.1 340 21:18 30.08.2019
2774 Clouds 25 1023 41 16093 4.1 340 21:18 30.08.2019
2775 -273 0 0 0 0 0 20:55 30.08.2019
2776 Clear 24 1024 49 16093 1.14 130.357 20:37 30.08.2019
2777 Clear 24 1025 60 16093 1.14 130.357 20:18 30.08.2019
2778 Clear 23 1025 60 16093 1.5 350 19:41 30.08.2019
2779 Clouds 23 1023 53 16093 1.14 130.357 19:22 30.08.2019
2780 Clouds 22 1024 64 24140 2.6 30 18:59 30.08.2019
2781 Clouds 22 1024 60 16093 1.5 200 18:41 30.08.2019
2782 Clouds 21 1024 60 16093 1.5 200 18:22 30.08.2019
2783 Clouds 20 1025 68 24140 3.1 330 17:56 30.08.2019
2784 Clear 19 1025 72 16093 1.55 21.582 17:38 30.08.2019
2785 Clouds 18 1024 72 16093 1.55 21.582 17:18 30.08.2019
2786 Clear 17 1025 82 16093 2.1 10 16:44 30.08.2019
2787 Clear 16 1025 82 16093 2.1 10 16:25 30.08.2019
2788 Clear 15 1025 87 16093 1.55 21.582 15:55 30.08.2019
2789 Clear 15 1025 87 16093 1.55 21.582 15:36 30.08.2019
2790 Clouds 14 1024 87 16093 1.5 230 15:18 30.08.2019
2791 Clear 14 1025 87 16093 2.09 2.249 14:42 30.08.2019
2792 Clear 14 1025 87 16093 2.09 2.249 14:23 30.08.2019
2793 Clear 14 1024 87 16093 2.09 2.249 13:45 30.08.2019
2794 Clear 15 1024 87 16093 1.49 9.797 13:23 30.08.2019
2795 Clear 15 1024 77 16093 1.49 9.797 12:59 30.08.2019
2796 Clear 15 1024 77 16093 4.1 330 12:41 30.08.2019
2797 Clear 16 1024 77 16093 4.1 330 12:22 30.08.2019
2798 Clear 16 1024 63 16093 4.1 350 11:43 30.08.2019
2799 Clear 17 1024 63 16093 4.1 350 11:25 30.08.2019
2800 Clear 17 1024 67 16093 4.1 310 10:57 30.08.2019
2801 Clear 17 1024 63 16093 3.1 320 10:36 30.08.2019
2802 Clouds 17 1024 63 16093 2.1 160 10:18 30.08.2019
2803 Clear 17 1024 63 16093 2.6 10 09:42 30.08.2019
2804 Clear 17 1024 63 16093 2.6 10 09:20 30.08.2019
2805 Clear 18 1024 55 16093 2.6 360 08:57 30.08.2019
2806 Clear 18 1024 59 16093 2.1 330 08:38 30.08.2019
2807 Clear 18 1024 56 16093 1.97 114.962 08:20 30.08.2019
2808 Clear 19 1024 52 16093 1.97 114.962 07:42 30.08.2019
2809 Clear 19 1024 52 16093 1.97 114.962 07:23 30.08.2019
2810 Clear 20 1024 43 16093 1.5 60 06:47 30.08.2019
2811 Clear 20 1024 43 16093 1.5 60 06:29 30.08.2019
2812 Clear 21 1025 40 16093 1.5 100 05:54 30.08.2019
2813 Clear 23 1024 33 16093 2.1 100 04:20 30.08.2019
2814 Clear 23 1024 33 16093 2.1 100 04:20 30.08.2019
2815 Clear 25 1023 27 16093 2.1 90 03:38 30.08.2019
2816 Clear 25 1023 27 16093 2.1 90 03:38 30.08.2019
2817 Clouds 25 1022 31 16093 4.1 60 03:18 30.08.2019
2818 Clouds 25 1022 31 16093 4.1 60 03:18 30.08.2019
2819 Clouds 26 1022 30 16093 7.2 60 02:29 30.08.2019
2820 Clouds 28 1021 21 16093 6.7 50 01:30 30.08.2019
2821 Clear 29 1022 17 16093 7.2 50 00:45 30.08.2019
2822 Clouds 29 1021 16 32767 5.7 60 00:18 30.08.2019
2823 Clear 29 1021 11 16093 4.1 70 23:41 29.08.2019
2824 Clear 30 1021 11 16093 4.1 70 23:21 29.08.2019
2825 Clear 30 1021 7 16093 8.44 73.345 23:21 29.08.2019
2826 Clear 30 1021 7 16093 2.6 160 22:44 29.08.2019
2827 Clear 30 1021 7 16093 2.6 160 22:26 29.08.2019
2828 Clouds 30 1022 11 32767 4.6 260 21:57 29.08.2019
2829 Clear 30 1022 9 16093 3.6 290 21:38 29.08.2019
2830 Clouds 30 1022 9 16093 4.6 30 21:20 29.08.2019
2831 Clear 31 1022 8 16093 5.1 280 20:54 29.08.2019
2832 Clouds 31 1022 9 16093 5.1 330 20:36 29.08.2019
2833 Clouds 31 1022 9 16093 5.1 330 20:18 29.08.2019
2834 Clear 31 1022 8 16093 3.1 300 19:46 29.08.2019
2835 Clouds 31 1021 9 16093 5.1 340 19:25 29.08.2019
2836 Clear 30 1022 10 16093 2.6 320 18:45 29.08.2019
2837 Clouds 29 1021 15 16093 3.6 260 18:21 29.08.2019
2838 Clouds 28 1022 14 16093 5.1 250 17:58 29.08.2019
2839 Clouds 27 1021 17 16093 4.6 240 17:39 29.08.2019
2840 Clouds 24 1021 17 16093 4.6 240 17:20 29.08.2019
2841 Clouds 24 1021 17 16093 4.6 240 17:20 29.08.2019
2842 Clouds 24 1022 16 16093 6.2 250 16:59 29.08.2019
2843 Clouds 24 1021 10 16093 4.1 250 16:40 29.08.2019
2844 Clouds 22 1020 29 16093 3.1 240 16:22 29.08.2019
2845 Clouds 22 1020 29 16093 3.1 240 16:22 29.08.2019
2846 Clouds 21 1020 29 16093 3.1 240 15:40 29.08.2019
2847 Clouds 17 1020 29 16093 3.1 240 15:21 29.08.2019
2848 Clear 17 1021 50 16093 2.38 255.49 14:57 29.08.2019
2849 Clouds 17 1020 29 16093 4.6 230 14:37 29.08.2019
2850 Clouds 17 1020 29 16093 4.6 230 14:19 29.08.2019
2851 Clear 17 1020 16 16093 3.1 250 13:55 29.08.2019
2852 Clear 17 1020 16 16093 3.6 260 13:37 29.08.2019
2853 Clear 17 1020 16 16093 3.6 260 13:18 29.08.2019
2854 Clear 17 1020 18 16093 5.1 260 12:55 29.08.2019
2855 Clear 17 1020 18 16093 5.1 260 12:36 29.08.2019
2856 Clear 18 1020 19 16093 2.6 230 12:18 29.08.2019
2857 Clear 18 1020 22 16093 3.1 220 11:41 29.08.2019
2858 Clear 19 1020 17 16093 2.1 200 11:20 29.08.2019
2859 Clear 19 1020 17 16093 2.1 200 10:56 29.08.2019
2860 Clear 18 1020 24 16093 2.1 180 10:38 29.08.2019
2861 Clear 18 1020 24 16093 2.1 180 10:19 29.08.2019
2862 Clear 19 1020 14 16093 2.6 250 09:41 29.08.2019
2863 Clear 19 1020 14 16093 2.6 250 09:18 29.08.2019
2864 Clear 19 1020 20 16093 3.6 240 08:45 29.08.2019
2865 Clear 19 1020 20 16093 3.6 240 08:25 29.08.2019
2866 Clear 19 1020 20 16093 3.6 240 07:54 29.08.2019
2867 Clear 19 1020 15 16093 1.61 236.528 07:34 29.08.2019
2868 Clear 19 1020 15 16093 1.61 236.528 07:34 29.08.2019
2869 Clear 20 1020 15 16093 3.6 280 06:57 29.08.2019
2870 Clear 20 1020 18 16093 3.1 280 06:37 29.08.2019
2871 Clear 21 1021 14 16093 2.03 144.074 05:52 29.08.2019
2872 Clear 21 1021 29 16093 2.03 144.074 05:21 29.08.2019
2873 Clear 23 1020 15 16093 2.03 144.074 04:47 29.08.2019
2874 Clear 24 1020 15 16093 2.03 144.074 04:26 29.08.2019
2875 Clear 32 1020 7 16093 2.83 80.584 01:54 29.08.2019
2876 Clear 32 1020 7 16093 5.46 130.87 01:35 29.08.2019
2877 Clear 32 1020 6 16093 5.1 50 00:47 29.08.2019
2878 Clouds 32 1020 7 16093 2.6 350 00:23 29.08.2019
2879 Clear 32 1020 9 32767 3.1 100 23:57 28.08.2019
2880 Clear 32 1020 6 16093 2.6 110 23:38 28.08.2019
2881 Clouds 32 1020 7 16093 2.6 320 23:19 28.08.2019
2882 Clear 32 1021 7 16093 1.5 210 22:40 28.08.2019
2883 Clouds 32 1021 8 16093 1.5 210 22:19 28.08.2019
2884 Clear 31 1021 7 16093 2.1 190 21:59 28.08.2019
2885 Clear 31 1022 7 16093 1.5 150 21:41 28.08.2019
2886 Clouds 30 1022 9 16093 4.1 80 21:22 28.08.2019
2887 Clear 30 1022 10 16093 3.6 140 20:56 28.08.2019
2888 Clear 30 1022 8 16093 1.5 100 20:38 28.08.2019
2889 Clouds 29 1022 9 16093 2.31 137.599 20:19 28.08.2019
2890 Clear 29 1023 13 16093 2.1 90 19:42 28.08.2019
2891 Clouds 28 1023 18 16093 1.5 290 19:21 28.08.2019
2892 Clouds 27 1022 17 16093 2.1 0 18:57 28.08.2019
2893 Clear 26 1023 25 16093 2.31 137.599 18:37 28.08.2019
2894 Clear 25 1022 23 16093 4.1 250 18:18 28.08.2019
2895 Clear 22 1023 37 16093 0.9 218.211 17:38 28.08.2019
2896 Clouds 21 1023 46 16093 4.6 220 17:19 28.08.2019
2897 Clouds 19 1023 67 16093 3.6 220 16:44 28.08.2019
2898 Clouds 17 1023 67 16093 3.6 220 16:23 28.08.2019
2899 Clear 15 1023 67 32186 0.9 218.211 15:59 28.08.2019
2900 Clear 13 1024 87 11265 0.9 218.211 15:37 28.08.2019
2901 Clear 12 1024 87 11265 0.68 288.355 15:19 28.08.2019
2902 Clear 11 1023 66 32186 0.68 288.355 14:57 28.08.2019
2903 Clear 11 1024 87 16093 1.5 220 14:38 28.08.2019
2904 Clear 11 1024 87 16093 1.5 220 14:20 28.08.2019
2905 Clear 11 1023 81 32186 0.68 288.355 13:58 28.08.2019
2906 Clear 12 1023 81 16093 2.6 270 13:37 28.08.2019
2907 Clear 12 1023 87 16093 3.1 240 13:19 28.08.2019
2908 Clear 12 1023 71 16093 1 304.023 12:42 28.08.2019
2909 Clear 12 1023 71 16093 0.18 337.778 12:23 28.08.2019
2910 Clear 13 1024 71 16093 0.18 337.778 11:55 28.08.2019
2911 Clear 13 1024 66 16093 1.5 260 11:36 28.08.2019
2912 Clear 13 1024 71 16093 2.1 290 11:18 28.08.2019
2913 Clear 13 1025 71 16093 2.1 280 10:41 28.08.2019
2914 Clear 14 1025 71 16093 2.1 280 10:21 28.08.2019
2915 Clear 14 1025 62 16093 3.6 310 09:58 28.08.2019
2916 Clear 14 1025 62 16093 3.6 310 09:58 28.08.2019
2917 Clear 14 1025 62 16093 3.6 320 09:40 28.08.2019
2918 Clear 14 1025 62 16093 3.6 320 09:19 28.08.2019
2919 Clear 15 1025 67 16093 2.6 360 08:39 28.08.2019
2920 Clear 15 1025 67 16093 2.6 360 08:20 28.08.2019
2921 Clear 16 1025 63 16093 1.55 140.721 07:42 28.08.2019
2922 Clear 16 1025 63 16093 1.55 140.721 07:24 28.08.2019
2923 Clear 17 1025 63 16093 3.1 100 06:51 28.08.2019
2924 Clear 17 1025 63 16093 4.1 120 06:32 28.08.2019
2925 Clear 18 1025 48 16093 3.1 110 05:42 28.08.2019
2926 Clear 23 1024 29 16093 4.1 350 02:50 28.08.2019
2927 Clear 24 1024 29 16093 5.7 360 01:32 28.08.2019
2928 Clouds 24 1023 33 24140 3.1 110 00:59 28.08.2019
2929 Clear 25 1024 31 16093 2.6 50 00:40 28.08.2019
2930 Clouds 24 1024 31 24140 2.6 100 23:59 27.08.2019
2931 Clear 24 1024 31 16093 3.6 10 23:39 27.08.2019
2932 Clouds 24 1023 38 16093 2.1 20 23:21 27.08.2019
2933 Clouds 24 1025 33 16093 6.93 62.892 22:43 27.08.2019
2934 Clouds 24 1025 33 16093 6.93 62.892 22:23 27.08.2019
2935 Clouds 23 1025 37 16093 3.1 340 21:58 27.08.2019
2936 Clouds 23 1025 37 16093 3.1 340 21:58 27.08.2019
2937 Clouds 23 1025 37 16093 5.1 20 21:39 27.08.2019
2938 Clouds 22 1024 44 16093 3.6 320 21:21 27.08.2019
2939 Clear 22 1026 37 16093 3.1 40 20:59 27.08.2019
2940 Clear 21 1026 40 16093 5.1 50 20:40 27.08.2019
2941 Clouds 21 1025 49 16093 5.1 350 20:20 27.08.2019
2942 Clouds 21 1025 45 22530 4.1 360 19:56 27.08.2019
2943 Clear 20 1026 42 16093 4.6 360 19:38 27.08.2019
2944 Clouds 20 1025 52 16093 3.1 320 19:20 27.08.2019
2945 Clouds 19 1026 48 16093 5.7 10 18:42 27.08.2019
2946 Clouds 18 1025 55 16093 4.1 350 18:19 27.08.2019
2947 Clouds 18 1026 45 16093 4.6 360 17:56 27.08.2019
2948 Clear 17 1026 52 16093 5.7 350 17:38 27.08.2019
2949 Clouds 17 1025 51 32186 5.1 340 17:18 27.08.2019
2950 Clear 16 1025 59 16093 3.6 350 16:46 27.08.2019
2951 Clouds 15 1024 62 32186 4.6 340 16:27 27.08.2019
2952 Clouds 14 1024 62 32186 4.6 340 15:57 27.08.2019
2953 Clouds 15 1024 62 32186 4.6 340 15:57 27.08.2019
2954 Clear 14 1025 71 16093 1.5 330 15:39 27.08.2019
2955 Clouds 13 1023 82 16093 2.1 270 15:20 27.08.2019
2956 Clear 12 1024 76 16093 3.88 345.387 14:43 27.08.2019
2957 Clear 13 1024 76 16093 3.88 345.387 14:24 27.08.2019
2958 Clouds 13 1023 71 32767 4.1 330 13:59 27.08.2019
2959 Clear 13 1024 81 16093 1.5 320 13:41 27.08.2019
2960 Clear 13 1024 81 16093 2.1 330 13:20 27.08.2019
2961 Clear 14 1022 67 16093 4.6 340 12:42 27.08.2019
2962 Clear 14 1022 62 16093 3.6 340 12:20 27.08.2019
2963 Clear 15 1022 62 16093 3.6 340 11:57 27.08.2019
2964 Clear 15 1022 62 16093 3.1 340 11:37 27.08.2019
2965 Clear 15 1023 59 16093 3.1 330 11:18 27.08.2019
2966 Clear 15 1023 59 16093 3.1 330 11:18 27.08.2019
2967 Clear 16 1023 59 16093 4.1 330 10:41 27.08.2019
2968 Clear 16 1023 59 16093 4.1 330 10:19 27.08.2019
2969 Clear 16 1023 59 16093 4.1 330 10:19 27.08.2019
2970 Clouds 17 1023 51 16093 4.1 330 09:55 27.08.2019
2971 Clear 17 1023 51 16093 3.6 330 09:36 27.08.2019
2972 Clear 17 1023 51 16093 3.6 330 09:18 27.08.2019
2973 Clouds 18 1023 51 16093 2.6 360 08:42 27.08.2019
2974 Clouds 18 1023 51 16093 2.6 360 08:23 27.08.2019
2975 Clouds 18 1024 48 16093 3.1 90 07:42 27.08.2019
2976 Clouds 18 1024 48 16093 3.1 90 07:20 27.08.2019
2977 Clouds 18 1024 48 16093 3.1 90 07:20 27.08.2019
2978 Clouds 19 1024 48 16093 1.5 280 06:58 27.08.2019
2979 Clear 19 1023 45 16093 2.1 120 06:37 27.08.2019
2980 Clear 19 1023 45 16093 2.6 90 06:18 27.08.2019
2981 Clear 20 1023 37 16093 2.1 80 05:24 27.08.2019
2982 Clear 23 1021 31 16093 4.1 40 03:42 27.08.2019
2983 Smoke 25 1020 29 16093 3.6 50 02:26 27.08.2019
2984 Smoke 25 1020 29 16093 6.83 64.853 01:45 27.08.2019
2985 Smoke 25 1019 33 16093 3.1 80 01:23 27.08.2019
2986 Clear 25 1020 29 16093 2.1 360 00:46 27.08.2019
2987 Clear 25 1020 29 16093 2.1 360 00:25 27.08.2019
2988 Clear 25 1020 29 16093 1.5 170 23:40 26.08.2019
2989 Clouds 25 1020 36 16093 3.1 80 23:21 26.08.2019
2990 Clouds 25 1020 36 16093 3.1 80 22:54 26.08.2019
2991 Clouds 24 1020 31 16093 2.6 70 22:36 26.08.2019
2992 Clouds 24 1020 36 16093 2.1 10 22:18 26.08.2019
2993 Clouds 24 1020 36 16093 2.1 10 22:18 26.08.2019
2994 Clouds 23 1020 38 16093 4.1 20 21:38 26.08.2019
2995 Clouds 23 1020 38 16093 4.1 70 21:20 26.08.2019
2996 Clouds 22 1021 37 16093 3.89 64.745 20:57 26.08.2019
2997 Clouds 22 1020 40 16093 4.6 50 20:38 26.08.2019
2998 Clouds 22 1020 40 16093 4.6 50 20:19 26.08.2019
2999 Clouds 22 1021 45 16093 2.6 40 19:44 26.08.2019
3000 Clouds 21 1021 45 16093 2.6 40 19:20 26.08.2019
3001 Clouds 21 1021 42 16093 1.5 40 18:59 26.08.2019
3002 Clouds 20 1021 52 16093 5.1 10 18:38 26.08.2019
3003 Clouds 20 1021 52 16093 5.1 10 18:38 26.08.2019
3004 Clouds 19 1021 52 16093 5.1 10 18:19 26.08.2019
3005 Clouds 19 1021 52 16093 5.1 10 18:19 26.08.2019
3006 Clear 18 1022 45 16093 2.6 80 17:44 26.08.2019
3007 Clouds 18 1021 59 16093 1.5 250 17:20 26.08.2019
3008 Clear 18 1022 52 16093 2.1 160 16:58 26.08.2019
3009 Clear 17 1022 52 16093 2.1 160 16:40 26.08.2019
3010 Clouds 17 1021 72 16093 1.5 280 16:19 26.08.2019
3011 Clouds 17 1021 72 16093 1.5 280 16:19 26.08.2019
3012 Clouds 16 1021 55 16093 2.6 340 15:59 26.08.2019
3013 Clear 15 1022 63 16093 2.37 349.232 15:41 26.08.2019
3014 Clouds 15 1021 76 16093 4.1 350 15:21 26.08.2019
3015 Clouds 14 1020 72 16093 4.6 340 14:44 26.08.2019
3016 Clouds 14 1019 82 16093 3.1 350 14:23 26.08.2019
3017 Clear 15 1021 71 16093 3.92 18.703 13:57 26.08.2019
3018 Clear 15 1020 62 16093 4.1 360 13:38 26.08.2019
3019 Clouds 15 1019 76 16093 5.1 350 13:19 26.08.2019
3020 Clear 17 1019 59 16093 4.6 360 12:43 26.08.2019
3021 Clouds 17 1017 59 16093 8.2 20 12:23 26.08.2019
3022 Clouds 18 1017 59 16093 8.2 20 12:23 26.08.2019
3023 Clear 19 1018 55 16093 6.7 10 11:46 26.08.2019
3024 Clouds 21 1015 24 16093 2.1 30 11:27 26.08.2019
3025 Clouds 21 1015 24 16093 2.1 30 10:59 26.08.2019
3026 Clear 23 1015 27 16093 2.6 20 10:41 26.08.2019
3027 Clouds 23 1015 27 16093 4.1 290 10:20 26.08.2019
3028 Clouds 25 1014 20 16093 7.2 280 09:47 26.08.2019
3029 Clouds 25 1014 20 16093 7.2 280 09:47 26.08.2019
3030 Clouds 24 1014 20 16093 7.2 280 09:26 26.08.2019
3031 Clouds 23 1015 21 16093 6.7 300 08:59 26.08.2019
3032 Clear 22 1014 24 16093 2.6 60 08:41 26.08.2019
3033 Clouds 22 1014 28 16093 2.6 230 08:22 26.08.2019
3034 Clear 22 1014 28 16093 1.5 300 07:46 26.08.2019
3035 Clouds 23 1014 28 16093 3.6 220 07:25 26.08.2019
3036 Clear 23 1014 22 16093 3.1 200 06:59 26.08.2019
3037 Clouds 24 1014 25 16093 3.6 190 06:39 26.08.2019
3038 Clouds 24 1014 25 16093 3.6 190 06:20 26.08.2019
3039 Clear 25 1014 20 16093 3.1 200 05:48 26.08.2019
3040 Clouds 28 1014 18 16093 2.1 30 04:22 26.08.2019
3041 Clear 33 1013 9 16093 2.6 300 02:42 26.08.2019
3042 Clouds 34 1013 12 16093 5.1 360 01:25 26.08.2019
3043 Clear 34 1013 10 16093 6.2 290 00:45 26.08.2019
3044 Clouds 34 1014 11 16093 6.7 330 00:27 26.08.2019
3045 Clear 34 1014 9 16093 6.7 310 23:46 25.08.2019
3046 Clouds 34 1014 9 16093 10.3 320 23:21 25.08.2019
3047 Clouds 34 1015 13 16093 6.2 320 22:59 25.08.2019
3048 Clouds 34 1015 9 16093 10.8 300 22:40 25.08.2019
3049 Clouds 34 1015 9 16093 10.8 300 22:21 25.08.2019
3050 Clouds 34 1016 13 16093 7.2 350 21:58 25.08.2019
3051 Clouds 34 1016 10 16093 9.3 320 21:40 25.08.2019
3052 Clouds 33 1016 12 16093 9.3 320 21:19 25.08.2019
3053 Clouds 33 1017 13 16093 3.6 340 20:56 25.08.2019
3054 Clouds 32 1017 13 16093 3.6 340 20:38 25.08.2019
3055 Clouds 32 1017 13 16093 3.6 340 20:19 25.08.2019
3056 Clear 32 1017 10 16093 5.1 280 19:42 25.08.2019
3057 Clouds 31 1017 14 16093 2.6 340 19:23 25.08.2019
3058 Clouds 31 1018 14 16093 1.5 0 18:59 25.08.2019
3059 Clouds 30 1018 18 16093 3.6 250 18:40 25.08.2019
3060 Clouds 30 1018 18 16093 3.6 250 18:22 25.08.2019
3061 Clouds 29 1018 17 16093 1.5 0 17:59 25.08.2019
3062 Clouds 27 1018 22 0 5.1 220 17:40 25.08.2019
3063 Clouds 25 1018 22 0 5.1 220 17:20 25.08.2019
3064 Clouds 23 1017 35 16093 4.6 220 16:41 25.08.2019
3065 Clouds 22 1017 35 16093 4.6 220 16:23 25.08.2019
3066 Clear 21 1017 52 16093 2.6 260 15:48 25.08.2019
3067 Clouds 19 1017 45 16093 4.1 200 15:27 25.08.2019
3068 Clouds 17 1017 48 16093 2.1 200 14:59 25.08.2019
3069 Clouds 17 1017 48 16093 2.1 200 14:39 25.08.2019
3070 Clouds 16 1017 48 16093 2.1 200 14:20 25.08.2019
3071 Clear 17 1017 45 16093 1.5 220 13:45 25.08.2019
3072 Clear 16 1016 48 16093 1.5 200 13:21 25.08.2019
3073 Clear 16 1016 48 16093 1.5 200 13:21 25.08.2019
3074 Clear 16 1017 45 16093 3.08 257.32 12:56 25.08.2019
3075 Clear 16 1017 45 16093 3.08 257.32 12:37 25.08.2019
3076 Clear 16 1017 45 16093 3.08 257.32 12:37 25.08.2019
3077 Clouds 16 1016 52 16093 3.6 200 12:19 25.08.2019
3078 Clear 17 1016 27 16093 3.1 350 11:54 25.08.2019
3079 Clear 17 1016 27 16093 3.1 350 11:36 25.08.2019
3080 Clouds 17 1016 52 16093 5.7 200 11:18 25.08.2019
3081 Clear 17 1016 28 16093 2.1 190 10:40 25.08.2019
3082 Clear 17 1017 48 16093 4.1 180 10:21 25.08.2019
3083 Clear 17 1017 31 16093 1.5 190 09:56 25.08.2019
3084 Clear 17 1017 31 16093 1.5 190 09:38 25.08.2019
3085 Clear 18 1017 45 16093 5.7 190 09:20 25.08.2019
3086 Clear 18 1018 26 16093 1.34 250.998 08:42 25.08.2019
3087 Clear 18 1018 45 16093 5.1 200 08:22 25.08.2019
3088 Clear 19 1018 42 16093 5.1 190 07:38 25.08.2019
3089 Clear 19 1018 42 16093 5.1 190 07:19 25.08.2019
3090 Clouds 20 1018 35 16093 4.6 190 06:22 25.08.2019
3091 Clear 22 1018 37 16093 2.1 250 04:41 25.08.2019
3092 Clouds 25 1018 26 32767 3.1 230 03:36 25.08.2019
3093 Clouds 27 1017 20 16093 2.1 150 02:39 25.08.2019
3094 Clouds 29 1017 17 16093 3.1 60 01:28 25.08.2019
3095 Clouds 29 1017 16 16093 2.1 50 00:40 25.08.2019
3096 Clouds 29 1017 16 16093 3.54 75.065 00:20 25.08.2019
3097 Clear 29 1017 12 16093 4.1 40 23:51 24.08.2019
3098 Clouds 29 1018 18 16093 2.1 340 23:22 24.08.2019
3099 Clear 28 1018 12 16093 3.1 30 22:55 24.08.2019
3100 Clouds 28 1018 19 16093 3.6 350 22:37 24.08.2019
3101 Clouds 28 1018 19 16093 3.6 350 22:19 24.08.2019
3102 Clear 28 1018 20 16093 1.5 50 21:55 24.08.2019
3103 Clouds 27 1018 24 16093 3.1 330 21:37 24.08.2019
3104 Clouds 27 1018 24 16093 3.1 330 21:37 24.08.2019
3105 Clouds 27 1018 24 16093 3.1 330 21:18 24.08.2019
3106 Clear 26 1019 24 16093 2.1 160 20:54 24.08.2019
3107 Clouds 25 1018 29 16093 4.1 360 20:36 24.08.2019
3108 Clouds 25 1018 29 16093 4.1 360 20:18 24.08.2019
3109 Clouds 24 1018 36 16093 3.1 10 19:41 24.08.2019
3110 Clouds 24 1018 36 16093 3.1 10 19:22 24.08.2019
3111 Clouds 23 1018 31 16093 3.1 320 18:59 24.08.2019
3112 Clouds 22 1018 49 16093 4.93 319.129 18:39 24.08.2019
3113 Clouds 21 1018 49 16093 1.53 315.239 18:20 24.08.2019
3114 Clear 20 1019 63 16093 1.53 315.239 17:43 24.08.2019
3115 Clouds 19 1018 68 16093 2.1 300 17:24 24.08.2019
3116 Clear 17 1019 77 16093 1.53 315.239 16:48 24.08.2019
3117 Clouds 16 1018 82 16093 3.6 280 16:20 24.08.2019
3118 Clear 14 1019 93 16093 1.53 315.239 15:58 24.08.2019
3119 Clear 13 1019 93 16093 1.53 315.239 15:40 24.08.2019
3120 Clouds 13 1018 87 16093 3.1 240 15:21 24.08.2019
3121 Clear 13 1019 93 16093 3.61 318.958 14:42 24.08.2019
3122 Clouds 13 1018 87 16093 2.6 240 14:22 24.08.2019
3123 Clear 14 1019 93 16093 2.1 340 13:56 24.08.2019
3124 Clear 14 1018 93 16093 3.6 320 13:37 24.08.2019
3125 Clouds 14 1018 77 16093 4.1 230 13:18 24.08.2019
3126 Clouds 15 1020 87 16093 3.1 350 12:42 24.08.2019
3127 Clouds 15 1018 67 16093 4.6 180 12:24 24.08.2019
3128 Clouds 15 1019 72 16093 4.6 160 11:57 24.08.2019
3129 Clear 15 1019 82 16093 5.7 330 11:38 24.08.2019
3130 Clouds 16 1018 67 16093 7.2 180 11:19 24.08.2019
3131 Clear 16 1020 59 16093 4.1 90 10:43 24.08.2019
3132 Clear 16 1020 59 16093 4.1 90 10:43 24.08.2019
3133 Clouds 17 1018 55 16093 11.8 180 10:22 24.08.2019
3134 Clear 17 1020 63 16093 3.6 10 09:44 24.08.2019
3135 Clouds 18 1018 52 16093 9.8 190 09:20 24.08.2019
3136 Clear 18 1019 48 16093 2.59 96.145 08:56 24.08.2019
3137 Clear 18 1019 40 16093 3.6 180 08:36 24.08.2019
3138 Clouds 18 1019 55 16093 9.8 190 08:18 24.08.2019
3139 Clear 19 1019 40 16093 1.5 100 07:41 24.08.2019
3140 Clouds 19 1018 52 16093 10.8 170 07:22 24.08.2019
3141 Rain 21 1018 40 16093 7.2 130 06:24 24.08.2019
3142 Rain 21 1019 33 16093 1.5 30 05:40 24.08.2019
3143 Clear 24 1018 22 16093 3.6 120 03:54 24.08.2019
3144 Clouds 24 1016 27 16093 6.7 140 03:34 24.08.2019
3145 Rain 26 1017 29 16093 8.2 140 02:24 24.08.2019
3146 Clouds 26 1017 24 16093 10.3 120 01:30 24.08.2019
3147 Clear 27 1017 19 16093 9.17 309.619 00:49 24.08.2019
3148 Clouds 29 1017 28 16093 8.7 120 00:24 24.08.2019
3149 Clear 31 1017 22 16093 2.6 40 23:50 23.08.2019
3150 Clouds 31 1017 18 16093 5.1 360 23:24 23.08.2019
3151 Clouds 30 1017 18 16093 5.1 360 22:59 23.08.2019
3152 Clouds 29 1017 23 16093 6.7 330 22:41 23.08.2019
3153 Clouds 29 1018 32 32186 5.7 350 22:20 23.08.2019
3154 Clear 28 1018 28 16093 8.56 259.437 21:38 23.08.2019
3155 Clouds 28 1018 22 16093 3.6 340 21:20 23.08.2019
3156 Clear 28 1018 32 16093 2.1 50 20:54 23.08.2019
3157 Clouds 27 1018 22 16093 2.6 10 20:36 23.08.2019
3158 Clear 27 1018 41 16093 2.6 10 19:58 23.08.2019
3159 Clouds 27 1018 15 16093 3.1 330 19:40 23.08.2019
3160 Clouds 26 1018 15 16093 3.1 330 19:18 23.08.2019
3161 Clouds 26 1018 15 16093 3.1 330 19:18 23.08.2019
3162 Clouds 26 1018 41 16093 2.6 20 18:43 23.08.2019
3163 Clouds 25 1017 31 16093 2.6 270 18:24 23.08.2019
3164 Clouds 24 1017 33 16093 6.7 210 17:46 23.08.2019
3165 Clouds 23 1017 33 16093 6.7 210 17:28 23.08.2019
3166 Clouds 22 1018 27 16093 3.6 260 16:59 23.08.2019
3167 Clouds 21 1017 40 16093 5.7 200 16:40 23.08.2019
3168 Clouds 20 1017 40 16093 5.7 200 16:22 23.08.2019
3169 Clouds 19 1017 45 16093 4.1 190 15:41 23.08.2019
3170 Clouds 19 1017 45 16093 4.1 190 15:22 23.08.2019
3171 Clouds 18 1017 55 16093 2.04 260.671 14:58 23.08.2019
3172 Clouds 18 1016 40 16093 7.7 200 14:40 23.08.2019
3173 Clouds 19 1016 40 16093 7.7 200 14:20 23.08.2019
3174 Clouds 19 1017 45 16093 2.1 160 13:56 23.08.2019
3175 Clear 19 1016 45 16093 2.1 250 13:38 23.08.2019
3176 Clouds 19 1016 40 16093 7.2 200 13:19 23.08.2019
3177 Clouds 19 1016 48 16093 2.74 345.223 12:44 23.08.2019
3178 -273 0 0 0 0 0 12:25 23.08.2019
3179 Clouds 19 1017 45 16093 4.1 190 11:59 23.08.2019
3180 Clouds 18 1016 55 16093 2.6 200 11:41 23.08.2019
3181 Clear 18 1016 48 16093 2.97 243.116 11:41 23.08.2019
3182 Clouds 18 1016 55 16093 5.7 200 11:20 23.08.2019
3183 Clouds 18 1017 48 16093 5.7 200 10:58 23.08.2019
3184 Clouds 18 1017 48 16093 5.7 200 10:58 23.08.2019
3185 Clouds 18 1016 55 16093 2.1 200 10:40 23.08.2019
3186 Clouds 18 1016 55 16093 3.6 220 10:21 23.08.2019
3187 Clouds 18 1017 59 16093 2.13 249.412 09:45 23.08.2019
3188 Clouds 18 1017 59 16093 2.13 249.412 09:45 23.08.2019
3189 Clouds 18 1018 48 16093 2.1 190 09:26 23.08.2019
3190 Clouds 19 1016 52 16093 5.1 220 08:57 23.08.2019
3191 Clouds 19 1016 52 16093 5.1 220 08:38 23.08.2019
3192 Clouds 19 1018 59 16093 6.7 190 08:18 23.08.2019
3193 Clear 20 1019 45 16093 3.1 310 07:41 23.08.2019
3194 Clouds 20 1018 55 16093 9.3 110 07:23 23.08.2019
3195 Clear 21 1019 43 16093 2.6 260 06:43 23.08.2019
3196 Clouds 21 1018 55 16093 5.1 60 06:23 23.08.2019
3197 Rain 22 1019 35 16093 5.1 100 05:46 23.08.2019
3198 Rain 23 1018 33 16093 3.6 340 05:26 23.08.2019
3199 Thunderstorm 25 1016 29 16093 7.2 180 04:19 23.08.2019
3200 Rain 26 1015 17 16093 2.6 160 02:41 23.08.2019
3201 Clouds 27 1015 17 16093 8.2 200 02:21 23.08.2019
3202 -273 0 0 0 0 0 01:36 23.08.2019
3203 Clouds 28 1015 17 16093 5.7 210 00:43 23.08.2019
3204 Clouds 29 1015 18 16093 8.2 180 00:18 23.08.2019
3205 Clouds 29 1015 30 16093 4.1 360 23:43 22.08.2019
3206 Clouds 29 1016 21 16093 7.2 190 23:22 22.08.2019
3207 Thunderstorm 29 1016 18 16093 4.6 250 22:43 22.08.2019
3208 Thunderstorm 29 1016 19 16093 5.1 260 22:24 22.08.2019
3209 Thunderstorm 30 1016 19 16093 5.1 260 21:59 22.08.2019
3210 Rain 29 1016 25 16093 3.1 140 21:41 22.08.2019
3211 Rain 28 1016 18 16093 1.5 0 21:23 22.08.2019
3212 Clouds 27 1017 34 16093 2.1 90 20:58 22.08.2019
3213 Clouds 27 1017 34 16093 2.1 90 20:40 22.08.2019
3214 Clouds 27 1016 28 16093 2.6 210 20:20 22.08.2019
3215 Clouds 27 1018 31 16093 1.5 150 19:57 22.08.2019
3216 Clouds 27 1017 41 16093 1.5 260 19:38 22.08.2019
3217 Clouds 27 1017 41 16093 1.5 260 19:38 22.08.2019
3218 Clouds 26 1017 41 16093 1.5 260 19:20 22.08.2019
3219 Clouds 25 1018 44 16093 2.6 110 18:57 22.08.2019
3220 Clouds 24 1018 56 16093 2.6 120 18:39 22.08.2019
3221 Clouds 23 1018 56 16093 2.6 120 18:19 22.08.2019
3222 Clouds 22 1019 68 16093 2.23 354.694 17:56 22.08.2019
3223 Clouds 21 1019 68 16093 2.23 354.694 17:38 22.08.2019
3224 Clouds 20 1019 72 16093 2.23 354.694 17:19 22.08.2019
3225 Clouds 20 1020 72 16093 1.5 300 16:56 22.08.2019
3226 Clouds 19 1018 77 12874 2.6 250 16:37 22.08.2019
3227 Clouds 18 1019 82 16093 2.23 354.694 16:18 22.08.2019
3228 Clouds 18 1019 82 16093 2.23 354.694 16:18 22.08.2019
3229 Clouds 18 1019 82 16093 2.23 354.694 16:18 22.08.2019
3230 Clouds 18 1019 82 16093 2.23 354.694 16:18 22.08.2019
3231 Clouds 18 1019 82 16093 2.23 354.694 16:18 22.08.2019
3232 Clouds 16 1020 82 16093 2.23 354.694 15:41 22.08.2019
3233 Clouds 16 1020 82 16093 2.23 354.694 15:41 22.08.2019
3234 Clouds 16 1020 82 16093 2.23 354.694 15:41 22.08.2019
3235 Clouds 14 1020 100 16093 3.6 160 15:22 22.08.2019
3236 Clouds 14 1020 87 16093 3.1 180 14:57 22.08.2019
3237 Mist 14 1020 93 16093 3.1 190 14:39 22.08.2019
3238 Mist 14 1020 93 16093 3.6 180 14:20 22.08.2019
3239 Mist 14 1020 93 16093 3.6 180 14:20 22.08.2019
3240 Clouds 14 1020 87 16093 4.1 260 13:56 22.08.2019
3241 Clouds 14 1020 87 16093 4.1 260 13:38 22.08.2019
3242 Clouds 14 1020 87 16093 3.1 230 13:18 22.08.2019
3243 Clear 15 1020 93 16093 3.6 340 12:40 22.08.2019
3244 Clouds 15 1020 87 16093 3.1 200 12:22 22.08.2019
3245 Clouds 15 1021 93 16093 1.5 290 11:58 22.08.2019
3246 Clear 15 1021 88 16093 5.7 340 11:39 22.08.2019
3247 Clouds 16 1021 77 16093 2.1 260 11:19 22.08.2019
3248 Clear 16 1021 77 16093 1.9 257.753 10:57 22.08.2019
3249 Clear 16 1021 63 16093 6.2 330 10:37 22.08.2019
3250 Clouds 16 1021 72 16093 3.1 180 10:19 22.08.2019
3251 Clouds 16 1022 72 16093 2.72 314.464 09:54 22.08.2019
3252 Clear 16 1022 67 16093 1.5 280 09:36 22.08.2019
3253 Clear 16 1022 67 16093 1.5 280 09:36 22.08.2019
3254 Clouds 16 1022 72 16093 2.6 270 09:18 22.08.2019
3255 Clear 17 1021 63 16093 2.6 360 08:40 22.08.2019
3256 Clear 17 1021 63 16093 2.6 360 08:21 22.08.2019
3257 Clouds 17 1021 72 16093 5.1 310 07:43 22.08.2019
3258 Clouds 18 1021 72 16093 5.1 310 07:24 22.08.2019
3259 Clouds 18 1021 59 16093 3.1 290 06:59 22.08.2019
3260 Clouds 18 1021 59 16093 3.1 290 06:59 22.08.2019
3261 Rain 19 1022 52 16093 3.33 73.176 06:41 22.08.2019
3262 Rain 20 1022 49 16093 1.5 20 06:19 22.08.2019
3263 Rain 18 1025 56 16093 5.1 60 04:58 22.08.2019
3264 Rain 18 1022 77 16093 5.24 112.181 03:20 22.08.2019
3265 Rain 23 1021 41 16093 3.6 130 02:35 22.08.2019
3266 Rain 25 1021 39 16093 3.6 130 01:27 22.08.2019
3267 Rain 26 1022 41 16093 2.6 340 00:49 22.08.2019
3268 Rain 26 1022 36 16093 1.55 349.451 00:30 22.08.2019
3269 Clouds 26 1022 47 16093 2.1 330 23:58 21.08.2019
3270 Rain 26 1022 44 16093 3.6 140 23:39 21.08.2019
3271 Rain 26 1022 44 16093 3.6 140 23:20 21.08.2019
3272 Rain 26 1023 34 16093 1.55 349.451 22:56 21.08.2019
3273 Clouds 26 1022 44 16093 4.6 40 22:38 21.08.2019
3274 Clouds 26 1022 44 16093 4.6 40 22:19 21.08.2019
3275 Rain 26 1024 39 16093 1.55 349.451 21:55 21.08.2019
3276 Clouds 26 1023 44 16093 4.67 72.662 21:37 21.08.2019
3277 Clouds 26 1023 44 16093 4.28 44.83 21:18 21.08.2019
3278 Clear 26 1024 44 16093 5.1 30 20:43 21.08.2019
3279 Clear 26 1024 44 16093 5.1 30 20:43 21.08.2019
3280 Clouds 26 1024 50 16093 4.28 44.83 20:24 21.08.2019
3281 Clear 25 1025 53 16093 4.28 44.83 19:58 21.08.2019
3282 Clear 25 1025 53 16093 4.28 44.83 19:39 21.08.2019
3283 Clear 25 1025 53 16093 4.28 44.83 19:39 21.08.2019
3284 Clear 24 1025 53 16093 4.28 44.83 19:20 21.08.2019
3285 Clear 24 1026 56 16093 2.1 280 18:56 21.08.2019
3286 Clear 23 1026 56 16093 2.1 60 18:37 21.08.2019
3287 Clear 23 1026 56 16093 2.1 60 18:37 21.08.2019
3288 Clear 23 1026 56 16093 2.1 60 18:19 21.08.2019
3289 Clouds 21 1025 64 16093 4.1 120 17:42 21.08.2019
3290 Clouds 21 1025 64 16093 4.1 120 17:42 21.08.2019
3291 Clouds 21 1025 64 16093 4.1 120 17:20 21.08.2019
3292 Clear 20 1025 68 16093 2.18 75.664 16:55 21.08.2019
3293 Clouds 19 1024 82 16093 2.1 130 16:36 21.08.2019
3294 Clouds 18 1025 82 16093 2.18 75.664 16:18 21.08.2019
3295 Clear 18 1025 72 16093 2.18 75.664 15:42 21.08.2019
3296 Clouds 17 1025 82 16093 0.42 191.896 15:22 21.08.2019
3297 Clouds 17 1025 82 16093 0.42 191.896 14:59 21.08.2019
3298 Clouds 17 1025 82 16093 2.1 140 14:39 21.08.2019
3299 Clouds 17 1024 93 16093 1.5 200 14:21 21.08.2019
3300 Clear 17 1025 77 16093 3.6 100 13:58 21.08.2019
3301 Clear 17 1025 77 16093 3.6 100 13:40 21.08.2019
3302 Clouds 17 1024 87 16093 1.5 350 13:19 21.08.2019
3303 Clear 17 1024 77 16093 2.6 100 12:57 21.08.2019
3304 Clouds 18 1024 88 16093 4.1 60 12:38 21.08.2019
3305 Clouds 18 1023 100 16093 4.6 80 12:18 21.08.2019
3306 Clouds 18 1023 100 16093 4.6 80 12:18 21.08.2019
3307 Clear 19 1024 82 16093 1.5 360 11:43 21.08.2019
3308 Clouds 19 1023 82 16093 3.6 30 11:22 21.08.2019
3309 Clouds 19 1022 93 12874 5.1 40 10:58 21.08.2019
3310 Clouds 19 1022 93 12874 5.1 40 10:38 21.08.2019
3311 Clear 20 1022 68 16093 3.1 280 10:20 21.08.2019
3312 Clear 20 1023 68 16093 3.1 10 09:57 21.08.2019
3313 Clear 20 1022 56 16093 2.1 270 09:37 21.08.2019
3314 Clouds 20 1022 63 16093 3.1 120 09:19 21.08.2019
3315 Rain 21 1023 63 16093 1.5 210 08:46 21.08.2019
3316 Clouds 21 1023 60 16093 2.1 150 08:24 21.08.2019
3317 Rain 22 1023 53 16093 2.76 157.361 07:44 21.08.2019
3318 Clouds 23 1023 53 16093 4.1 210 07:24 21.08.2019
3319 Thunderstorm 23 1023 49 16093 2.1 270 06:50 21.08.2019
3320 Thunderstorm 23 1022 38 16093 1.5 350 06:32 21.08.2019
3321 Rain 22 1024 46 16093 1.5 210 05:56 21.08.2019
3322 Rain 23 1023 60 16093 8.7 140 05:28 21.08.2019
3323 Clouds 26 1021 41 16093 6.7 90 04:26 21.08.2019
3324 Dust 33 1019 22 12874 17 10 01:55 21.08.2019
3325 Clouds 35 1019 11 16093 3.1 320 01:23 21.08.2019
3326 Clouds 35 1020 12 16093 2.6 320 00:38 21.08.2019
3327 Clouds 35 1020 12 16093 2.6 320 00:18 21.08.2019
3328 Clouds 35 1020 8 16093 3.1 80 23:44 20.08.2019
3329 Clouds 35 1021 11 16093 5.1 50 23:19 20.08.2019
3330 Clouds 35 1021 11 16093 2.1 0 22:58 20.08.2019
3331 Clouds 35 1021 11 16093 2.1 0 22:58 20.08.2019
3332 Clouds 35 1021 11 16093 5.1 80 22:40 20.08.2019
3333 Clouds 35 1021 11 16093 5.1 80 22:21 20.08.2019
3334 Clouds 35 1021 7 16093 6.7 80 21:57 20.08.2019
3335 Clouds 35 1022 12 16093 3.1 70 21:38 20.08.2019
3336 Clouds 34 1022 12 16093 3.1 70 21:19 20.08.2019
3337 Clouds 34 1022 12 16093 3.1 70 21:19 20.08.2019
3338 Clouds 34 1022 9 16093 4.6 50 20:56 20.08.2019
3339 Clouds 34 1022 12 16093 3.1 20 20:36 20.08.2019
3340 Clouds 34 1022 12 16093 3.1 20 20:36 20.08.2019
3341 Clouds 33 1022 12 16093 3.1 20 20:18 20.08.2019
3342 Clouds 32 1023 13 16093 3.1 40 19:39 20.08.2019
3343 Clouds 32 1023 13 16093 3.1 40 19:21 20.08.2019
3344 Clouds 31 1023 14 16093 1.5 150 18:56 20.08.2019
3345 Clouds 30 1023 17 16093 1.5 240 18:38 20.08.2019
3346 Clouds 29 1023 20 16093 1.5 150 18:19 20.08.2019
3347 Clouds 28 1023 20 16093 1.5 150 17:55 20.08.2019
3348 Clouds 27 1022 26 16093 0.94 240.014 17:37 20.08.2019
3349 Clouds 26 1022 21 32767 2.1 140 17:18 20.08.2019
3350 Clouds 24 1023 37 16093 1.5 200 16:41 20.08.2019
3351 Clouds 22 1023 37 16093 1.5 200 16:23 20.08.2019
3352 Clouds 20 1022 34 16093 2.6 210 15:42 20.08.2019
3353 Clouds 17 1022 42 16093 2.01 336.58 15:19 20.08.2019
3354 Clouds 17 1022 29 32767 2.6 270 14:56 20.08.2019
3355 Clouds 16 1022 51 16093 2.01 336.58 14:38 20.08.2019
3356 Clouds 16 1022 51 16093 2.01 336.58 14:20 20.08.2019
3357 Clouds 16 1022 51 16093 2.01 336.58 13:55 20.08.2019
3358 Clouds 17 1022 51 16093 2.01 336.58 13:37 20.08.2019
3359 Clouds 17 1021 45 16093 2.6 220 13:18 20.08.2019
3360 Clear 17 1022 28 16093 2.6 290 12:48 20.08.2019
3361 Clear 18 1022 62 16093 0.89 307.502 12:24 20.08.2019
3362 Clear 18 1022 62 16093 0.89 307.502 11:56 20.08.2019
3363 Clear 18 1021 59 16093 0.89 307.502 11:38 20.08.2019
3364 Clear 18 1021 55 16093 0.89 307.502 11:18 20.08.2019
3365 Clear 18 1021 59 16093 0.89 307.502 10:56 20.08.2019
3366 Clear 19 1021 26 16093 0.89 307.502 10:37 20.08.2019
3367 Clear 19 1021 26 16093 0.89 307.502 10:18 20.08.2019
3368 Clear 20 1021 45 16093 0.89 307.502 09:41 20.08.2019
3369 Clouds 20 1021 45 16093 1.44 309.678 09:22 20.08.2019
3370 Clouds 22 1021 35 16093 2.6 360 08:43 20.08.2019
3371 Clouds 22 1021 35 16093 2.6 360 08:43 20.08.2019
3372 Clouds 22 1021 35 16093 2.6 360 08:24 20.08.2019
3373 Clouds 22 1021 33 16093 1.44 309.678 07:58 20.08.2019
3374 Clouds 22 1021 33 16093 1.44 309.678 07:40 20.08.2019
3375 Clouds 23 1021 33 16093 1.44 309.678 07:22 20.08.2019
3376 Clouds 23 1020 25 16093 4.6 130 06:48 20.08.2019
3377 Clouds 24 1020 25 16093 4.6 130 06:22 20.08.2019
3378 Clouds 25 1020 27 16093 5.97 122.742 05:48 20.08.2019
3379 Clouds 26 1019 18 16093 2.6 100 04:45 20.08.2019
3380 Clouds 30 1019 11 16093 0.27 327.252 03:26 20.08.2019
3381 Clouds 33 1019 8 16093 2.1 90 02:24 20.08.2019
3382 Clouds 34 1019 8 16093 2.78 230.67 01:22 20.08.2019
3383 Clouds 34 1019 7 16093 4.6 120 00:45 20.08.2019
3384 Clouds 35 1019 7 16093 4.6 120 00:26 20.08.2019
3385 Clouds 35 1019 7 16093 4.59 251.19 23:52 19.08.2019
3386 Clouds 35 1019 7 16093 6.2 110 23:19 19.08.2019
3387 Clouds 35 1020 10 24140 2.6 50 22:59 19.08.2019
3388 Clouds 35 1020 10 24140 2.6 50 22:59 19.08.2019
3389 Clouds 35 1020 7 16093 4.1 100 22:41 19.08.2019
3390 Clouds 35 1020 9 16093 3.1 110 22:21 19.08.2019
3391 Clouds 35 1020 10 24140 4.6 60 21:58 19.08.2019
3392 Clouds 34 1020 7 16093 2.6 80 21:38 19.08.2019
3393 Clouds 34 1020 9 16093 3.6 120 21:20 19.08.2019
3394 Clouds 33 1021 9 16093 2.29 109.979 20:56 19.08.2019
3395 Clear 33 1021 8 16093 3.1 90 20:37 19.08.2019
3396 Clouds 33 1022 11 16093 2.29 109.979 20:19 19.08.2019
3397 Clear 33 1021 10 11265 2.1 100 19:55 19.08.2019
3398 Clear 32 1021 10 16093 2.1 110 19:36 19.08.2019
3399 Clouds 31 1021 11 16093 2.1 340 19:18 19.08.2019
3400 Clear 30 1021 10 16093 2.29 109.979 18:41 19.08.2019
3401 Clouds 29 1021 17 16093 1.5 220 18:22 19.08.2019
3402 Clear 27 1021 24 16093 2.39 167 17:57 19.08.2019
3403 Clear 26 1021 24 16093 2.39 167 17:38 19.08.2019
3404 Clouds 25 1021 29 16093 4.1 230 17:19 19.08.2019
3405 Clouds 24 1021 22 16093 1.5 160 16:54 19.08.2019
3406 Clouds 23 1021 25 16093 2.1 150 16:36 19.08.2019
3407 Clouds 22 1021 37 16093 4.1 220 16:18 19.08.2019
3408 Clear 20 1021 55 16093 2.39 167 15:44 19.08.2019
3409 Clouds 17 1021 39 16093 1.13 358.937 15:19 19.08.2019
3410 Clouds 16 1021 62 16093 1.13 358.937 14:44 19.08.2019
3411 Clouds 16 1020 48 16093 1.5 260 14:24 19.08.2019
3412 Clouds 16 1020 62 16093 1.13 358.937 13:59 19.08.2019
3413 Clouds 16 1019 51 16093 3.1 190 13:40 19.08.2019
3414 Clouds 17 1019 51 16093 3.1 190 13:21 19.08.2019
3415 Clear 18 1019 28 16093 1.5 290 12:58 19.08.2019
3416 Clear 18 1019 28 16093 1.5 290 12:40 19.08.2019
3417 Clouds 17 1019 52 16093 3.6 210 12:20 19.08.2019
3418 Clouds 18 1019 48 16093 4.1 220 11:42 19.08.2019
3419 Clouds 18 1019 48 16093 4.1 220 11:24 19.08.2019
3420 Clear 18 1019 45 16093 3.1 200 10:59 19.08.2019
3421 Clear 19 1018 52 16093 4.1 200 10:39 19.08.2019
3422 Clear 19 1018 52 16093 4.1 200 10:19 19.08.2019
3423 Clear 19 1019 28 16093 2.6 290 09:54 19.08.2019
3424 Clear 19 1019 46 16093 3.6 190 09:36 19.08.2019
3425 Clear 19 1019 46 16093 3.6 190 09:18 19.08.2019
3426 Clear 20 1019 31 16093 2.1 320 08:42 19.08.2019
3427 Clear 21 1019 46 16093 4.6 180 08:21 19.08.2019
3428 Clear 21 1019 68 16093 1.73 353.521 07:52 19.08.2019
3429 Clear 21 1019 40 16093 1.5 290 07:34 19.08.2019
3430 Clear 22 1019 68 16093 1.73 353.521 06:59 19.08.2019
3431 Clear 23 1019 43 16093 1.73 353.521 06:36 19.08.2019
3432 Clear 23 1019 43 16093 1.73 353.521 06:36 19.08.2019
3433 Clouds 24 1018 36 16093 4.6 140 05:26 19.08.2019
3434 Clouds 27 1017 26 16093 4.1 130 04:33 19.08.2019
3435 Clouds 30 1017 18 16093 3.6 70 03:25 19.08.2019
3436 Clouds 31 1016 14 16093 4.6 120 02:30 19.08.2019
3437 Clouds 32 1016 14 16093 2.1 60 01:37 19.08.2019
3438 Clear 33 1017 17 16093 4.27 99.687 00:47 19.08.2019
3439 Clouds 33 1017 15 16093 4.6 10 00:23 19.08.2019
3440 Clear 32 1017 23 16093 3.33 131.708 23:43 18.08.2019
3441 Clouds 31 1017 16 16093 2.6 50 23:22 18.08.2019
3442 Clear 31 1018 28 16093 1.5 180 22:59 18.08.2019
3443 Clouds 30 1018 27 16093 3.6 120 22:39 18.08.2019
3444 Clouds 29 1018 27 16093 3.6 120 22:21 18.08.2019
3445 Clear 26 1019 36 16093 1.5 130 21:56 18.08.2019
3446 Clouds 26 1018 32 16093 2.1 50 21:38 18.08.2019
3447 Clouds 25 1019 34 16093 3.6 350 21:20 18.08.2019
3448 Clouds 23 1019 43 16093 1.71 108.584 20:45 18.08.2019
3449 Clouds 23 1019 43 16093 1.71 108.584 20:26 18.08.2019
3450 Clear 20 1020 56 16093 1.71 108.584 19:59 18.08.2019
3451 Clouds 20 1019 56 16093 1.71 108.584 19:40 18.08.2019
3452 Clouds 20 1019 56 16093 1.71 108.584 19:40 18.08.2019
3453 Clouds 20 1019 56 16093 1.71 108.584 19:22 18.08.2019
3454 Clouds 18 1021 63 16093 1.71 108.584 18:54 18.08.2019
3455 Clouds 17 1020 72 16093 2.6 210 18:36 18.08.2019
3456 Clouds 17 1020 72 16093 2.6 210 18:36 18.08.2019
3457 Clouds 17 1020 72 16093 2.6 210 18:36 18.08.2019
3458 Clouds 16 1020 72 16093 2.6 210 18:18 18.08.2019
3459 Clouds 16 1020 77 16093 0.54 80.261 17:43 18.08.2019
3460 Clouds 16 1020 82 16093 1.5 40 17:19 18.08.2019
3461 Clouds 16 1020 82 16093 1.5 40 17:19 18.08.2019
3462 Clouds 16 1020 82 16093 1.5 0 16:59 18.08.2019
3463 Clouds 16 1020 82 16093 1.5 0 16:40 18.08.2019
3464 Clouds 15 1020 82 11265 2.6 10 16:20 18.08.2019
3465 Fog 15 1020 77 16093 2.6 110 15:58 18.08.2019
3466 Fog 14 1019 93 16093 2.6 90 15:38 18.08.2019
3467 Mist 14 1019 100 4828 2.1 20 15:20 18.08.2019
3468 Mist 14 1019 100 4828 2.1 20 15:20 18.08.2019
3469 Mist 14 1019 100 4828 2.1 20 15:20 18.08.2019
3470 Mist 13 1020 87 16093 1.5 50 14:56 18.08.2019
3471 Mist 13 1018 93 4828 4.1 100 14:37 18.08.2019
3472 Fog 14 1018 93 1207 5.1 80 14:18 18.08.2019
3473 Fog 14 1020 87 16093 1.64 10.123 13:43 18.08.2019
3474 Fog 15 1018 93 11265 5.7 70 13:24 18.08.2019
3475 Fog 15 1018 44 16093 1.64 10.123 12:58 18.08.2019
3476 Clear 16 1018 44 16093 6.2 360 12:39 18.08.2019
3477 Clear 16 1017 48 16093 3.6 190 12:21 18.08.2019
3478 Clear 17 1018 44 16093 4.6 10 11:44 18.08.2019
3479 Clouds 18 1016 45 16093 5.1 200 11:23 18.08.2019
3480 Clear 18 1016 39 16093 1.85 263.448 10:59 18.08.2019
3481 Clear 18 1016 39 16093 1.85 263.448 10:40 18.08.2019
3482 Clouds 18 1016 48 16093 4.1 170 10:19 18.08.2019
3483 Clear 18 1016 39 16093 1.85 263.448 09:43 18.08.2019
3484 Clear 19 1016 40 16093 5.1 210 09:20 18.08.2019
3485 Clear 19 1016 30 16093 3.19 241.163 08:44 18.08.2019
3486 Clear 20 1016 45 16093 4.1 200 08:25 18.08.2019
3487 Clear 20 1016 27 16093 2.1 180 07:58 18.08.2019
3488 Clear 20 1016 26 16093 3.6 240 07:30 18.08.2019
3489 Clear 21 1016 28 16093 3.19 241.163 06:47 18.08.2019
3490 Clear 22 1017 30 16093 3.1 300 05:43 18.08.2019
3491 Clouds 25 1015 31 16093 4.6 150 04:18 18.08.2019
3492 Rain 28 1012 17 16093 2.1 320 03:00 18.08.2019
3493 Rain 28 1013 12 32767 7.7 260 02:41 18.08.2019
3494 Haze 28 1014 16 16093 2.1 280 01:57 18.08.2019
3495 Thunderstorm 28 1014 23 16093 8.7 30 01:27 18.08.2019
3496 Rain 29 1014 18 16093 3.1 310 00:42 18.08.2019
3497 Rain 29 1013 15 16093 4.1 110 00:22 18.08.2019
3498 Rain 31 1014 20 16093 5.7 10 23:58 17.08.2019
3499 Rain 31 1013 11 16093 4.1 220 23:38 17.08.2019
3500 Rain 31 1013 11 16093 4.1 220 23:19 17.08.2019
3501 Rain 31 1014 14 16093 3.1 260 22:57 17.08.2019
3502 Rain 31 1014 15 16093 3.1 230 22:39 17.08.2019
3503 Rain 31 1014 15 16093 3.1 230 22:20 17.08.2019
3504 Rain 31 1014 15 16093 3.1 230 22:20 17.08.2019
3505 Clear 32 1014 11 16093 4.6 120 21:54 17.08.2019
3506 Clouds 31 1015 14 16093 3.6 280 21:36 17.08.2019
3507 Thunderstorm 31 1014 15 16093 6.7 190 21:18 17.08.2019
3508 Clouds 29 1015 19 16093 7.2 220 20:39 17.08.2019
3509 Clouds 29 1015 15 16093 3.1 50 20:19 17.08.2019
3510 Clouds 29 1015 17 16093 3.1 330 19:43 17.08.2019
3511 Clouds 29 1015 17 16093 3.1 330 19:24 17.08.2019
3512 Clear 28 1016 12 16093 2.37 202.349 18:59 17.08.2019
3513 Clouds 28 1015 24 16093 2.6 230 18:39 17.08.2019
3514 Clouds 27 1015 24 16093 2.6 230 18:18 17.08.2019
3515 Clear 26 1016 23 16093 0.56 179.382 17:55 17.08.2019
3516 Clouds 25 1015 31 16093 5.7 220 17:37 17.08.2019
3517 Clouds 23 1015 31 16093 5.7 220 17:18 17.08.2019
3518 Clear 22 1016 33 16093 0.56 179.382 16:41 17.08.2019
3519 Clouds 21 1015 43 16093 6.2 200 16:22 17.08.2019
3520 Clear 19 1016 48 16093 0.56 179.382 15:55 17.08.2019
3521 Clouds 19 1015 52 16093 6.2 200 15:37 17.08.2019
3522 Clouds 17 1015 52 16093 6.2 200 15:19 17.08.2019
3523 Clouds 16 1015 48 16093 7.2 190 14:40 17.08.2019
3524 Clouds 16 1015 48 16093 7.2 190 14:22 17.08.2019
3525 Clear 17 1016 58 16093 1.5 20 13:46 17.08.2019
3526 Clouds 17 1015 45 16093 8.7 190 13:21 17.08.2019
3527 Clear 17 1016 54 16093 0.92 346.446 12:46 17.08.2019
3528 Clouds 17 1016 48 16093 6.7 200 12:21 17.08.2019
3529 Clear 17 1016 44 16093 1.14 260.886 11:59 17.08.2019
3530 Clear 18 1015 34 16093 3.6 230 11:39 17.08.2019
3531 Clear 18 1015 48 16093 5.7 200 11:20 17.08.2019
3532 Clear 18 1016 42 16093 1.14 260.886 10:44 17.08.2019
3533 Clouds 18 1016 48 16093 5.7 210 10:25 17.08.2019
3534 Clouds 18 1016 48 16093 5.7 210 10:25 17.08.2019
3535 Clear 19 1016 37 16093 3.6 200 09:59 17.08.2019
3536 Clear 19 1016 35 16093 1.5 230 09:41 17.08.2019
3537 Clear 19 1016 35 16093 1.5 230 09:41 17.08.2019
3538 Clouds 20 1016 45 16093 7.2 200 09:23 17.08.2019
3539 Clear 20 1016 34 16093 2.1 220 08:52 17.08.2019
3540 Clouds 21 1017 43 16093 5.7 190 08:23 17.08.2019
3541 Clear 21 1017 46 16093 2.6 230 07:44 17.08.2019
3542 Clouds 21 1017 42 16093 3.1 170 07:20 17.08.2019
3543 Clouds 21 1017 42 16093 3.1 170 07:20 17.08.2019
3544 Clear 22 1017 43 16093 4.1 210 06:34 17.08.2019
3545 Clear 25 1017 23 16093 4.6 300 04:48 17.08.2019
3546 Clouds 25 1016 31 16093 6.2 30 04:23 17.08.2019
3547 Clear 29 1015 36 16093 8.2 20 02:45 17.08.2019
3548 Clouds 30 1015 19 16093 5.1 30 01:40 17.08.2019
3549 Clouds 29 1015 19 16093 5.1 30 01:20 17.08.2019
3550 Clear 29 1015 25 16093 5.42 135.8 00:47 17.08.2019
3551 Clouds 30 1015 27 16093 3.6 360 00:24 17.08.2019
3552 Rain 29 1016 31 16093 2.1 90 23:46 16.08.2019
3553 Rain 29 1016 30 16093 3.1 0 23:25 16.08.2019
3554 Clear 27 1017 39 16093 3.1 90 22:44 16.08.2019
3555 Clouds 27 1017 37 16093 2.1 0 22:20 16.08.2019
3556 Clear 26 1018 39 16093 4.78 54.296 21:59 16.08.2019
3557 Clear 26 1018 39 16093 2.1 70 21:39 16.08.2019
3558 Clear 26 1018 39 16093 2.1 70 21:19 16.08.2019
3559 Clear 24 1019 47 16093 2.1 340 20:43 16.08.2019
3560 Clouds 24 1019 47 16093 2.1 20 20:21 16.08.2019
3561 Clouds 24 1019 56 16093 1.85 98.699 19:59 16.08.2019
3562 Clouds 23 1019 56 16093 1.85 98.699 19:39 16.08.2019
3563 Clouds 23 1019 56 16093 1.85 98.699 19:19 16.08.2019
3564 Clouds 21 1019 68 16093 1.85 98.699 18:42 16.08.2019
3565 Clouds 20 1020 72 16093 2.6 280 18:23 16.08.2019
3566 Clouds 19 1021 77 16093 1.91 20.234 17:48 16.08.2019
3567 Mist 18 1021 77 9656 3.6 340 17:28 16.08.2019
3568 Mist 18 1021 77 9656 3.6 340 16:59 16.08.2019
3569 Mist 18 1021 77 9656 3.6 340 16:59 16.08.2019
3570 Mist 16 1021 100 2012 3.1 330 16:40 16.08.2019
3571 Fog 16 1020 100 603 3.6 10 16:19 16.08.2019
3572 Mist 17 1019 100 3219 3.6 30 15:56 16.08.2019
3573 Mist 17 1019 100 3219 3.6 30 15:56 16.08.2019
3574 Mist 17 1020 82 2012 4.1 10 15:37 16.08.2019
3575 Fog 16 1020 55 16093 3.6 340 15:19 16.08.2019
3576 Fog 16 1021 93 8047 2.6 340 14:56 16.08.2019
3577 Clouds 16 1019 87 16093 7.7 340 14:37 16.08.2019
3578 Clouds 16 1018 45 16093 6.2 190 14:18 16.08.2019
3579 Clear 16 1018 34 16093 2.1 240 13:39 16.08.2019
3580 Clouds 17 1018 55 16093 3.1 180 13:20 16.08.2019
3581 Clear 17 1018 36 16093 2.1 230 12:40 16.08.2019
3582 Clouds 17 1019 55 16093 2.6 240 12:21 16.08.2019
3583 Clear 17 1019 77 16093 1.5 220 11:55 16.08.2019
3584 Clear 17 1018 36 16093 3.1 280 11:37 16.08.2019
3585 Clear 17 1018 36 16093 3.1 280 11:37 16.08.2019
3586 Clouds 17 1019 55 16093 3.1 210 11:18 16.08.2019
3587 Clear 18 1019 59 16093 1.5 270 10:42 16.08.2019
3588 Clouds 18 1019 40 16093 2.1 200 10:20 16.08.2019
3589 Clear 19 1019 72 16093 1.33 299.055 09:39 16.08.2019
3590 Clouds 19 1018 52 16093 3.1 190 09:19 16.08.2019
3591 Clear 19 1019 72 16093 3.05 228.796 08:58 16.08.2019
3592 Clear 20 1019 56 16093 2.6 290 08:39 16.08.2019
3593 Clouds 20 1019 72 16093 3.6 190 08:19 16.08.2019
3594 Clear 21 1020 63 16093 2.6 350 07:45 16.08.2019
3595 Clouds 21 1020 68 16093 2.1 230 07:26 16.08.2019
3596 Clear 22 1021 53 16093 1.5 270 06:53 16.08.2019
3597 Clouds 23 1019 64 16093 4.1 100 06:18 16.08.2019
3598 Clouds 24 1019 38 16093 4.1 70 05:33 16.08.2019
3599 Clouds 31 1018 13 16093 4.6 350 03:20 16.08.2019
3600 Clear 33 1018 8 16093 5.7 350 01:52 16.08.2019
3601 Clouds 33 1018 7 16093 7.7 350 01:25 16.08.2019
3602 Clear 34 1018 7 16093 4.1 310 00:50 16.08.2019
3603 Clouds 34 1018 8 16093 7.2 290 00:23 16.08.2019
3604 Clear 34 1019 8 16093 6.7 310 23:57 15.08.2019
3605 Clouds 33 1019 7 16093 8.7 310 23:38 15.08.2019
3606 Clouds 33 1019 7 16093 8.7 310 23:18 15.08.2019
3607 Clouds 33 1020 8 16093 6.7 330 22:41 15.08.2019
3608 Clouds 33 1020 8 16093 6.7 330 22:22 15.08.2019
3609 Clouds 33 1020 11 16093 8.25 302.29 21:58 15.08.2019
3610 Clouds 33 1020 10 16093 4.6 250 21:39 15.08.2019
3611 Clouds 33 1020 10 16093 4.6 250 21:19 15.08.2019
3612 Clouds 32 1021 11 16093 4.1 340 20:57 15.08.2019
3613 Clouds 32 1021 12 16093 4.94 293.468 20:38 15.08.2019
3614 Clouds 31 1022 12 16093 4.1 340 20:20 15.08.2019
3615 Clouds 31 1022 13 16093 2.6 320 19:40 15.08.2019
3616 Clouds 31 1022 13 16093 2.6 320 19:21 15.08.2019
3617 Clear 29 1022 26 16093 4.6 100 18:55 15.08.2019
3618 Clouds 29 1022 20 16093 4.6 260 18:37 15.08.2019
3619 Clouds 28 1022 20 16093 4.6 260 18:18 15.08.2019
3620 Clear 27 1022 25 16093 4.6 240 17:39 15.08.2019
3621 Clouds 25 1023 26 16093 2.6 280 17:20 15.08.2019
3622 Clear 24 1023 33 16093 2.17 248.155 16:59 15.08.2019
3623 Clear 23 1023 33 16093 2.17 248.155 16:41 15.08.2019
3624 Clouds 22 1023 37 16093 4.6 210 16:23 15.08.2019
3625 Clouds 20 1022 67 16093 4.1 190 15:39 15.08.2019
3626 Clouds 18 1023 52 16093 2.6 250 15:21 15.08.2019
3627 Clouds 16 1022 63 16093 3.6 200 14:58 15.08.2019
3628 Clouds 16 1022 63 16093 3.6 200 14:40 15.08.2019
3629 Clouds 16 1022 63 16093 3.6 200 14:21 15.08.2019
3630 Clear 16 1022 81 16093 2.6 200 13:56 15.08.2019
3631 Clear 16 1021 34 16093 1.5 280 13:38 15.08.2019
3632 Clear 16 1021 36 16093 2.1 290 13:19 15.08.2019
3633 Clear 16 1021 58 16093 1.5 260 12:40 15.08.2019
3634 Clear 16 1021 55 16093 2.22 282.241 12:22 15.08.2019
3635 Clear 17 1021 67 16093 1.5 280 11:59 15.08.2019
3636 Clouds 17 1021 68 16093 7.7 200 11:39 15.08.2019
3637 Clouds 17 1021 68 16093 7.7 200 11:20 15.08.2019
3638 Clear 17 1022 68 16093 3.1 120 10:59 15.08.2019
3639 Clear 18 1022 45 16093 2.22 282.241 10:37 15.08.2019
3640 Clear 18 1021 68 16093 11.3 190 10:18 15.08.2019
3641 Clear 18 1023 71 16093 2.22 282.241 09:44 15.08.2019
3642 Clear 19 1022 68 16093 13.4 180 09:22 15.08.2019
3643 Clear 19 1023 59 16093 1.94 236.572 08:54 15.08.2019
3644 Clear 19 1023 40 16093 5.1 330 08:36 15.08.2019
3645 Clouds 20 1023 64 16093 9.8 180 08:18 15.08.2019
3646 Clear 20 1023 55 16093 1.94 236.572 07:40 15.08.2019
3647 Clear 20 1023 49 16093 5.1 170 07:21 15.08.2019
3648 Clear 21 1024 43 16093 1.94 236.572 06:52 15.08.2019
3649 Clear 21 1024 35 16093 2.1 90 06:31 15.08.2019
3650 Clouds 22 1023 37 16093 4.1 120 05:39 15.08.2019
3651 Clouds 23 1023 37 16093 4.1 120 05:19 15.08.2019
3652 Clouds 26 1022 23 16093 3.1 100 04:27 15.08.2019
3653 Clouds 29 1022 19 16093 4.6 50 03:26 15.08.2019
3654 Clouds 30 1022 13 16093 5.7 20 02:35 15.08.2019
3655 Clear 31 1022 17 16093 3.6 50 01:45 15.08.2019
3656 Clear 31 1022 18 16093 2.1 10 00:59 15.08.2019
3657 Clouds 32 1022 14 16093 5.1 60 00:37 15.08.2019
3658 Clouds 32 1022 13 16093 4.6 10 00:19 15.08.2019
3659 Clear 32 1022 11 16093 1.5 100 23:56 14.08.2019
3660 Clouds 32 1022 13 16093 4.1 360 23:37 14.08.2019
3661 Clouds 31 1023 13 16093 4.6 350 23:18 14.08.2019
3662 Clouds 31 1023 17 16093 5.1 350 22:42 14.08.2019
3663 Clouds 31 1023 20 16093 1.5 0 22:23 14.08.2019
3664 Clear 31 1023 16 11265 3.1 30 21:57 14.08.2019
3665 Clouds 30 1023 22 24140 3.1 90 21:39 14.08.2019
3666 Clouds 30 1024 22 16093 4.6 350 21:21 14.08.2019
3667 Clear 29 1024 32 16093 2.1 130 20:56 14.08.2019
3668 Clouds 29 1024 37 16093 2.1 330 20:38 14.08.2019
3669 Clouds 28 1024 36 19312 1.5 340 20:18 14.08.2019
3670 Clear 23 1025 47 16093 1.62 20.834 19:41 14.08.2019
3671 Clear 25 1025 47 16093 1.62 20.834 19:22 14.08.2019
3672 Clear 23 1026 53 16093 1.62 20.834 18:59 14.08.2019
3673 Clear 23 1026 53 16093 1.62 20.834 18:41 14.08.2019
3674 Clouds 22 1025 49 16093 7.7 170 18:23 14.08.2019
3675 Clear 21 1026 64 16093 0.98 10.289 17:59 14.08.2019
3676 Clouds 19 1026 53 16093 7.7 180 17:40 14.08.2019
3677 Clouds 19 1026 53 16093 7.7 180 17:21 14.08.2019
3678 Clear 18 1027 72 16093 0.98 10.289 16:56 14.08.2019
3679 Clouds 18 1026 72 16093 7.2 200 16:38 14.08.2019
3680 Haze 17 1026 77 16093 2.1 320 16:19 14.08.2019
3681 Mist 15 1027 93 16093 1.5 320 15:43 14.08.2019
3682 Mist 15 1026 87 32767 2.6 330 15:19 14.08.2019
3683 Mist 15 1026 87 32767 2.6 330 15:19 14.08.2019
3684 Clear 14 1027 93 16093 0.65 219.043 14:56 14.08.2019
3685 Clear 14 1025 93 16093 1.5 290 14:38 14.08.2019
3686 Clouds 14 1025 82 16093 3.1 180 14:18 14.08.2019
3687 Clear 15 1026 87 16093 0.65 219.043 13:43 14.08.2019
3688 Clear 15 1025 87 16093 2.6 160 13:24 14.08.2019
3689 Clear 15 1025 82 16093 2.6 280 12:57 14.08.2019
3690 Clear 15 1025 82 16093 2.6 280 12:39 14.08.2019
3691 Clear 15 1025 82 16093 2.6 280 12:39 14.08.2019
3692 Clear 15 1025 82 16093 2.1 140 12:21 14.08.2019
3693 Clear 16 1026 82 16093 0.61 14.943 11:56 14.08.2019
3694 Clear 16 1026 72 16093 2.6 290 11:37 14.08.2019
3695 Clouds 16 1025 77 16093 0.61 14.943 11:19 14.08.2019
3696 Clear 16 1027 77 16093 3.1 290 10:42 14.08.2019
3697 Thunderstorm 17 1027 72 16093 0.61 14.943 10:24 14.08.2019
3698 Clear 17 1028 68 16093 0.61 14.943 09:56 14.08.2019
3699 Clear 17 1027 72 16093 3.1 320 09:37 14.08.2019
3700 Clear 17 1027 72 16093 3.6 200 09:19 14.08.2019
3701 Thunderstorm 18 1028 68 16093 2.6 250 08:37 14.08.2019
3702 Thunderstorm 18 1028 68 16093 2.6 250 08:19 14.08.2019
3703 Thunderstorm 18 1028 60 16093 4.1 100 07:50 14.08.2019
3704 Thunderstorm 18 1028 56 16093 4.6 100 07:31 14.08.2019
3705 Rain 19 1028 52 16093 3.1 150 06:45 14.08.2019
3706 Clear 21 1027 56 16093 4.1 120 05:52 14.08.2019
3707 Thunderstorm 23 1026 56 16093 5.7 110 04:54 14.08.2019
3708 Thunderstorm 27 1024 31 16093 4.6 80 03:37 14.08.2019
3709 Clouds 30 1023 23 16093 6.7 60 02:32 14.08.2019
3710 Clouds 31 1022 22 16093 5.1 40 01:38 14.08.2019
3711 Clear 31 1023 18 16093 3.6 60 00:54 14.08.2019
3712 Clear 31 1023 18 16093 4.1 40 23:50 13.08.2019
3713 Clouds 31 1023 17 16093 5.1 50 23:25 13.08.2019
3714 Clouds 31 1023 15 16093 5.7 30 22:58 13.08.2019
3715 Clear 31 1024 16 16093 4.6 70 22:39 13.08.2019
3716 Clouds 31 1023 15 16093 6.7 60 22:21 13.08.2019
3717 Clear 31 1024 15 16093 6.2 40 21:57 13.08.2019
3718 Clouds 31 1024 17 16093 6.2 20 21:37 13.08.2019
3719 Clouds 31 1024 17 16093 2.6 290 21:18 13.08.2019
3720 Clear 30 1024 16 16093 2.1 90 20:45 13.08.2019
3721 Clouds 30 1024 19 16093 1.5 100 20:20 13.08.2019
3722 Clouds 30 1024 17 16093 1.5 0 19:58 13.08.2019
3723 Clouds 29 1024 24 16093 3.52 52.391 19:40 13.08.2019
3724 Clouds 29 1024 24 16093 3.52 52.391 19:21 13.08.2019
3725 Clear 27 1025 29 16093 1.5 130 18:42 13.08.2019
3726 Clouds 26 1024 33 16093 2.6 220 18:23 13.08.2019
3727 Clear 25 1025 38 16093 0.49 352.544 17:58 13.08.2019
3728 Clouds 24 1024 46 16093 3.1 240 17:39 13.08.2019
3729 Clouds 23 1024 46 16093 3.1 240 17:20 13.08.2019
3730 Clear 22 1025 43 16093 0.49 352.544 16:56 13.08.2019
3731 Clouds 21 1024 49 16093 4.1 210 16:37 13.08.2019
3732 Clouds 20 1024 49 16093 4.1 210 16:19 13.08.2019
3733 Clouds 18 1024 62 16093 2.6 220 15:39 13.08.2019
3734 Clouds 16 1024 62 16093 2.6 220 15:20 13.08.2019
3735 Clouds 15 1023 59 16093 2.1 270 14:58 13.08.2019
3736 Clouds 15 1023 59 16093 2.1 270 14:38 13.08.2019
3737 Clouds 15 1023 59 16093 2.1 270 14:38 13.08.2019
3738 Clouds 15 1023 59 16093 2.1 270 14:18 13.08.2019
3739 Clouds 15 1023 59 16093 2.1 270 14:18 13.08.2019
3740 Clear 16 1023 48 16093 4.6 340 13:41 13.08.2019
3741 Clouds 16 1022 52 16093 3.6 210 13:21 13.08.2019
3742 Clear 17 1023 48 16093 2.6 160 12:58 13.08.2019
3743 Clear 17 1022 45 16093 8.2 200 12:40 13.08.2019
3744 Clear 17 1022 45 16093 8.2 200 12:21 13.08.2019
3745 Clear 17 1023 76 16093 2.74 308.839 11:57 13.08.2019
3746 Clear 17 1022 42 16093 1.5 40 11:37 13.08.2019
3747 Clear 18 1021 40 16093 8.2 190 11:18 13.08.2019
3748 Clear 18 1022 45 16093 3.1 260 10:55 13.08.2019
3749 Clear 18 1022 45 16093 3.1 260 10:36 13.08.2019
3750 Clouds 18 1022 43 16093 7.7 200 10:18 13.08.2019
3751 Clear 19 1022 52 16093 3.1 280 09:42 13.08.2019
3752 Clouds 19 1022 40 16093 6.7 200 09:23 13.08.2019
3753 Clear 20 1022 63 16093 2.37 202.78 08:43 13.08.2019
3754 Clouds 20 1022 48 16093 3.1 190 08:22 13.08.2019
3755 Clear 20 1022 52 16093 3.1 240 07:56 13.08.2019
3756 Clear 21 1022 43 16093 4.1 330 07:32 13.08.2019
3757 Clear 21 1021 35 16093 3.6 190 06:53 13.08.2019
3758 Clouds 22 1021 40 16093 5.1 200 06:34 13.08.2019
3759 Clouds 23 1021 31 16093 5.7 180 05:34 13.08.2019
3760 Clouds 29 1020 20 16093 3.6 120 02:38 13.08.2019
3761 Clear 30 1020 18 16093 2.6 130 01:59 13.08.2019
3762 Clear 30 1020 11 16093 2.6 170 00:56 13.08.2019
3763 Clouds 31 1021 18 16093 4.1 100 00:37 13.08.2019
3764 Clear 30 1020 17 16093 4.1 160 23:49 12.08.2019
3765 Clouds 31 1021 18 16093 4.1 100 23:24 12.08.2019
3766 Clouds 31 1021 17 16093 3.1 160 22:57 12.08.2019
3767 Clouds 31 1022 20 16093 3.6 100 22:38 12.08.2019
3768 Clouds 30 1022 20 16093 3.6 100 22:19 12.08.2019
3769 Clouds 30 1021 17 32767 2.6 130 21:55 12.08.2019
3770 Clouds 30 1021 17 32767 2.6 130 21:55 12.08.2019
3771 Clouds 30 1021 17 32767 2.6 130 21:36 12.08.2019
3772 Clouds 30 1021 17 32767 2.6 130 21:18 12.08.2019
3773 Clear 29 1021 15 16093 4.6 100 20:55 12.08.2019
3774 Clouds 29 1022 23 16093 5.1 100 20:36 12.08.2019
3775 Clouds 29 1022 23 16093 5.1 100 20:18 12.08.2019
3776 Clear 29 1022 20 16093 3.1 150 19:54 12.08.2019
3777 Clear 29 1022 20 16093 3.1 150 19:54 12.08.2019
3778 Clouds 28 1022 21 16093 4.1 90 19:36 12.08.2019
3779 Clouds 28 1023 26 16093 2.1 0 19:18 12.08.2019
3780 Clear 27 1022 22 16093 2.6 120 18:41 12.08.2019
3781 Clouds 26 1022 21 16093 2.6 80 18:21 12.08.2019
3782 Clear 25 1022 26 16093 0.57 246.854 17:56 12.08.2019
3783 Clouds 25 1022 41 16093 1.5 180 17:38 12.08.2019
3784 Clouds 24 1022 46 16093 1.5 190 17:20 12.08.2019
3785 Clear 23 1022 43 16093 0.57 246.854 16:55 12.08.2019
3786 Clouds 22 1022 56 16093 2.6 190 16:37 12.08.2019
3787 Clouds 21 1022 56 16093 2.6 190 16:18 12.08.2019
3788 Clouds 21 1022 56 16093 2.6 190 16:18 12.08.2019
3789 Clear 19 1022 77 16093 1.5 230 15:42 12.08.2019
3790 Clouds 18 1021 67 16093 3.6 180 15:41 12.08.2019
3791 Clouds 16 1021 67 16093 3.6 180 15:21 12.08.2019
3792 Clouds 16 1021 67 16093 3.6 180 15:21 12.08.2019
3793 Clear 16 1021 87 16093 0.85 309.094 14:56 12.08.2019
3794 Clouds 16 1021 72 16093 2.6 210 14:38 12.08.2019
3795 Clouds 16 1021 67 16093 1.5 170 14:19 12.08.2019
3796 Clear 16 1021 93 16093 0.85 309.094 13:43 12.08.2019
3797 Clouds 16 1020 72 16093 3.1 220 13:24 12.08.2019
3798 Clear 16 1020 93 16093 2.6 200 12:58 12.08.2019
3799 Clear 16 1020 93 16093 2.6 200 12:58 12.08.2019
3800 Clear 16 1020 93 16093 2.6 200 12:39 12.08.2019
3801 Clouds 16 1020 67 16093 2.6 220 12:18 12.08.2019
3802 -273 0 0 0 0 0 11:42 12.08.2019
3803 Clear 16 1020 93 16093 1.97 267.18 11:42 12.08.2019
3804 Clouds 16 1019 72 16093 3.1 20 11:23 12.08.2019
3805 Clear 17 1020 87 16093 1.97 267.18 10:43 12.08.2019
3806 Clouds 17 1019 72 16093 3.1 190 10:23 12.08.2019
3807 Clear 17 1020 87 16093 1.97 267.18 09:56 12.08.2019
3808 Clear 18 1019 59 16093 1.97 267.18 09:38 12.08.2019
3809 Clouds 18 1019 63 16093 3.6 230 09:19 12.08.2019
3810 Clouds 18 1019 63 16093 3.6 230 09:19 12.08.2019
3811 -273 0 0 0 0 0 08:58 12.08.2019
3812 Clear 19 1019 60 16093 4.1 310 08:38 12.08.2019
3813 Clouds 19 1019 68 16093 4.1 230 08:19 12.08.2019
3814 Clear 19 1020 68 16093 2.1 280 07:52 12.08.2019
3815 Clouds 19 1019 72 16093 3.1 220 07:27 12.08.2019
3816 Clouds 19 1019 68 16093 3.1 180 06:50 12.08.2019
3817 Clear 20 1019 55 16093 2.1 80 05:39 12.08.2019
3818 Clouds 23 1018 44 16093 1.5 190 02:44 12.08.2019
3819 Rain 23 1019 29 16093 3.1 270 01:55 12.08.2019
3820 Rain 23 1019 50 16093 1.5 40 01:21 12.08.2019
3821 Rain 22 1020 46 16093 5.7 300 00:57 12.08.2019
3822 Rain 22 1020 46 16093 5.7 300 00:38 12.08.2019
3823 Thunderstorm 24 1020 46 16093 6.7 300 00:19 12.08.2019
3824 Rain 24 1018 44 16093 10.3 310 23:42 11.08.2019
3825 Rain 24 1018 44 16093 10.3 310 23:42 11.08.2019
3826 Rain 23 1019 73 12874 8.7 330 23:21 11.08.2019
3827 Thunderstorm 23 1021 38 16093 5.1 290 22:59 11.08.2019
3828 Thunderstorm 23 1021 38 16093 5.1 290 22:40 11.08.2019
3829 Thunderstorm 24 1019 39 16093 3.1 330 22:19 11.08.2019
3830 Thunderstorm 25 1020 39 16093 4.6 310 21:59 11.08.2019
3831 Thunderstorm 26 1019 37 16093 3.6 350 21:40 11.08.2019
3832 Clouds 27 1019 37 16093 2.1 320 21:21 11.08.2019
3833 Clear 27 1020 35 16093 2.6 340 20:56 11.08.2019
3834 Thunderstorm 27 1020 42 16093 1.25 347.417 20:38 11.08.2019
3835 Thunderstorm 27 1020 42 16093 1.25 347.417 20:19 11.08.2019
3836 Thunderstorm 26 1020 47 16093 2.6 330 19:42 11.08.2019
3837 Thunderstorm 25 1020 47 16093 2.6 330 19:19 11.08.2019
3838 Clouds 24 1021 47 16093 3.1 330 18:41 11.08.2019
3839 Clouds 24 1021 47 16093 3.1 330 18:22 11.08.2019
3840 Clouds 23 1021 47 16093 3.1 330 17:58 11.08.2019
3841 Clear 22 1021 68 16093 1.08 42.384 17:58 11.08.2019
3842 Clear 22 1021 68 16093 1.08 42.384 17:40 11.08.2019
3843 Thunderstorm 21 1021 72 16093 2.6 300 17:20 11.08.2019
3844 Clouds 20 1021 56 16093 2.1 290 16:56 11.08.2019
3845 Clouds 20 1021 72 16093 2.1 280 16:38 11.08.2019
3846 Clouds 19 1021 56 16093 1.5 210 16:18 11.08.2019
3847 Clear 19 1022 82 16093 1.5 310 15:43 11.08.2019
3848 Clouds 18 1021 60 16093 1.59 74.292 15:24 11.08.2019
3849 Clear 18 1021 82 16093 1.59 74.292 14:58 11.08.2019
3850 Clouds 18 1020 63 16093 3.1 360 14:39 11.08.2019
3851 Clouds 18 1020 63 16093 3.1 360 14:19 11.08.2019
3852 Clear 19 1021 77 16093 1.5 90 13:44 11.08.2019
3853 Clouds 19 1019 60 16093 2.1 240 13:24 11.08.2019
3854 Clear 19 1020 72 16093 2.81 321.133 12:48 11.08.2019
3855 Clouds 19 1020 60 16093 1.5 220 12:23 11.08.2019
3856 Clear 20 1020 72 16093 2.6 320 11:57 11.08.2019
3857 Clear 20 1020 52 16093 5.1 340 11:38 11.08.2019
3858 Clear 20 1020 52 16093 5.1 330 11:20 11.08.2019
3859 Clear 20 1020 49 16093 3.6 330 10:41 11.08.2019
3860 Clear 20 1020 49 16093 3.1 340 10:22 11.08.2019
3861 Clear 20 1020 72 16093 3.1 280 09:59 11.08.2019
3862 Clear 21 1020 72 16093 3.1 280 09:39 11.08.2019
3863 Clouds 20 1020 46 16093 2.6 210 09:20 11.08.2019
3864 Clear 21 1020 60 16093 1.99 243.706 08:48 11.08.2019
3865 Clouds 21 1020 53 16093 4.6 240 08:28 11.08.2019
3866 Clear 22 1021 53 16093 1.99 243.706 07:56 11.08.2019
3867 Clouds 22 1021 53 16093 3.1 160 07:26 11.08.2019
3868 Clear 22 1021 60 16093 1.99 243.706 06:45 11.08.2019
3869 Clouds 23 1021 44 16093 1.5 170 05:58 11.08.2019
3870 Clear 26 1020 36 16093 1.97 170.962 03:56 11.08.2019
3871 Thunderstorm 27 1020 30 16093 3.49 69.526 02:49 11.08.2019
3872 Clear 27 1021 25 16093 2.1 100 01:43 11.08.2019
3873 Thunderstorm 27 1020 32 16093 4.1 60 01:20 11.08.2019
3874 Clear 28 1021 23 16093 4.6 60 00:48 11.08.2019
3875 Clouds 28 1021 30 16093 5.7 360 00:28 11.08.2019
3876 Clear 28 1021 25 16093 5.7 20 23:47 10.08.2019
3877 Clouds 28 1021 30 16093 7.2 360 23:28 10.08.2019
3878 Clouds 28 1021 30 16093 7.2 330 22:44 10.08.2019
3879 Clouds 28 1021 30 16093 7.2 330 22:44 10.08.2019
3880 Clouds 28 1021 34 16093 5.7 330 22:26 10.08.2019
3881 Clouds 28 1022 26 16093 6.2 350 21:58 10.08.2019
3882 Clouds 28 1021 34 16093 6.2 360 21:39 10.08.2019
3883 Clouds 28 1021 30 16093 5.7 10 21:20 10.08.2019
3884 Clouds 27 1022 30 16093 4.6 350 20:56 10.08.2019
3885 Clouds 27 1021 30 16093 5.1 360 20:37 10.08.2019
3886 Clouds 27 1021 30 16093 5.1 360 20:18 10.08.2019
3887 Clouds 27 1021 36 16093 4.6 10 19:40 10.08.2019
3888 Clouds 27 1021 36 16093 4.6 10 19:21 10.08.2019
3889 Clouds 26 1021 38 16093 4.1 330 18:42 10.08.2019
3890 Clouds 25 1021 38 16093 4.1 330 18:23 10.08.2019
3891 Clouds 24 1021 47 16093 3.6 350 17:55 10.08.2019
3892 Clouds 24 1021 41 16093 4.1 300 17:36 10.08.2019
3893 Clouds 23 1021 41 16093 4.1 300 17:18 10.08.2019
3894 Clouds 22 1021 60 16093 2.1 240 16:42 10.08.2019
3895 Clouds 21 1021 60 16093 2.1 240 16:20 10.08.2019
3896 Clear 20 1021 82 16093 2.82 14.425 15:43 10.08.2019
3897 Clouds 20 1020 64 16093 2.1 210 15:21 10.08.2019
3898 Clouds 19 1020 77 16093 2.82 303.211 14:43 10.08.2019
3899 Clouds 19 1019 63 16093 2.1 190 14:19 10.08.2019
3900 Clouds 19 1019 68 16093 2.1 210 13:40 10.08.2019
3901 Clouds 19 1019 68 16093 2.1 210 13:19 10.08.2019
3902 Clouds 19 1019 77 16093 1.58 316.793 12:44 10.08.2019
3903 Clouds 19 1018 68 16093 3.6 170 12:23 10.08.2019
3904 Clouds 19 1019 77 16093 1.16 5.194 11:58 10.08.2019
3905 Clear 19 1019 56 16093 1.16 5.194 11:39 10.08.2019
3906 Clouds 20 1018 63 16093 2.1 170 11:21 10.08.2019
3907 Clear 20 1019 52 16093 3.6 270 10:39 10.08.2019
3908 Clouds 20 1019 59 16093 3.1 240 10:20 10.08.2019
3909 Clear 20 1019 68 16093 1.16 5.194 09:59 10.08.2019
3910 Clouds 21 1019 52 16093 2.1 210 09:39 10.08.2019
3911 Clouds 21 1019 52 16093 2.1 210 09:21 10.08.2019
3912 Clear 22 1019 46 16093 5.1 300 08:39 10.08.2019
3913 Clouds 22 1019 52 16093 3.1 120 08:20 10.08.2019
3914 Rain 22 1020 56 16093 1.5 250 07:53 10.08.2019
3915 Rain 23 1019 40 16093 3.1 40 07:27 10.08.2019
3916 Clouds 23 1020 49 16093 2.6 100 06:48 10.08.2019
3917 Rain 23 1019 44 16093 4.6 210 06:21 10.08.2019
3918 Rain 24 1018 44 16093 9.3 190 05:24 10.08.2019
3919 Rain 25 1018 47 16093 6.7 160 04:26 10.08.2019
3920 Thunderstorm 28 1018 39 16093 8.2 150 02:54 10.08.2019
3921 Thunderstorm 29 1018 45 16093 8.7 160 02:23 10.08.2019
3922 Thunderstorm 32 1016 25 16093 4.6 130 01:41 10.08.2019
3923 Clouds 32 1017 21 16093 5.1 110 01:21 10.08.2019
3924 Clear 33 1016 18 16093 2.4 116.277 00:46 10.08.2019
3925 Clouds 34 1017 17 16093 3.1 330 00:22 10.08.2019
3926 Clouds 33 1017 19 16093 3.32 122.684 23:44 09.08.2019
3927 Clouds 33 1017 19 16093 3.32 122.684 23:24 09.08.2019
3928 Clear 33 1018 18 16093 3.1 320 22:57 09.08.2019
3929 Clouds 33 1018 21 16093 2.6 120 22:38 09.08.2019
3930 Clouds 33 1018 21 16093 2.6 120 22:20 09.08.2019
3931 Clear 33 1018 18 16093 2.1 210 21:43 09.08.2019
3932 Clouds 32 1019 22 16093 3.1 290 21:23 09.08.2019
3933 Clear 31 1019 25 16093 2.1 140 20:59 09.08.2019
3934 Clouds 31 1020 32 16093 3.35 155.874 20:40 09.08.2019
3935 Clouds 30 1020 32 16093 3.35 155.874 20:21 09.08.2019
3936 Clouds 30 1020 27 16093 2.1 290 19:56 09.08.2019
3937 Clouds 29 1020 42 16093 2.1 110 19:38 09.08.2019
3938 Clouds 28 1020 42 16093 2.1 110 19:18 09.08.2019
3939 Clouds 27 1021 50 16093 3.35 155.874 18:41 09.08.2019
3940 Clouds 26 1021 50 16093 1.53 223.596 18:22 09.08.2019
3941 Clear 25 1021 50 16093 1.53 223.596 17:57 09.08.2019
3942 Clouds 24 1021 50 16093 5.1 260 17:39 09.08.2019
3943 Clouds 23 1021 50 16093 5.1 260 17:20 09.08.2019
3944 Clouds 22 1020 82 11265 1.53 223.596 16:41 09.08.2019
3945 Mist 20 1021 72 16093 3.6 240 16:23 09.08.2019
3946 Fog 19 1021 93 1207 3.6 350 15:57 09.08.2019
3947 Fog 19 1021 93 1207 3.6 350 15:57 09.08.2019
3948 Fog 19 1021 93 1207 3.6 350 15:38 09.08.2019
3949 Mist 18 1020 68 16093 5.7 250 15:19 09.08.2019
3950 Mist 18 1021 93 8047 2.1 330 14:44 09.08.2019
3951 Rain 18 1020 82 16093 2.1 330 14:23 09.08.2019
3952 Rain 18 1020 52 16093 6.7 270 13:59 09.08.2019
3953 Rain 18 1020 88 16093 1.15 79.695 13:59 09.08.2019
3954 Rain 19 1020 82 16093 1.15 79.695 13:40 09.08.2019
3955 Rain 18 1020 77 16093 6.2 210 13:20 09.08.2019
3956 Clouds 18 1020 93 16093 2.1 230 12:46 09.08.2019
3957 Clouds 18 1020 77 16093 8.2 210 12:24 09.08.2019
3958 Clouds 18 1021 77 16093 3.6 210 11:58 09.08.2019
3959 Clouds 18 1020 88 16093 5.1 220 11:37 09.08.2019
3960 Clouds 17 1020 88 16093 5.7 190 11:18 09.08.2019
3961 Rain 18 1020 82 16093 1.5 230 10:40 09.08.2019
3962 Rain 18 1020 82 16093 1.5 230 10:21 09.08.2019
3963 Rain 18 1021 88 16093 3.6 220 09:46 09.08.2019
3964 Rain 18 1020 82 16093 4.6 200 09:20 09.08.2019
3965 Clear 18 1021 88 16093 2.71 333.605 08:57 09.08.2019
3966 Clear 18 1021 88 16093 4.1 270 08:39 09.08.2019
3967 Clouds 18 1021 77 16093 5.7 200 08:19 09.08.2019
3968 Clear 18 1022 88 16093 1.26 224.582 07:43 09.08.2019
3969 Clear 18 1022 88 16093 1.26 224.582 07:43 09.08.2019
3970 Clouds 18 1022 82 16093 7.2 180 07:23 09.08.2019
3971 Clouds 19 1022 88 16093 1.26 224.582 06:56 09.08.2019
3972 Clouds 19 1021 88 16093 1.5 220 06:29 09.08.2019
3973 Rain 19 1021 88 16093 1.65 102.003 05:55 09.08.2019
3974 Rain 22 1020 68 16093 5.1 130 03:19 09.08.2019
3975 Rain 23 1021 73 16093 2.1 230 01:45 09.08.2019
3976 Rain 23 1021 57 16093 2.6 320 00:48 09.08.2019
3977 Rain 24 1021 53 16093 2.6 260 00:26 09.08.2019
3978 Rain 24 1020 36 11265 4.6 130 23:59 08.08.2019
3979 Rain 24 1020 77 16093 6.2 120 23:38 08.08.2019
3980 Rain 24 1020 64 16093 5.7 120 23:19 08.08.2019
3981 Rain 25 1021 47 16093 2.6 330 22:57 08.08.2019
3982 Thunderstorm 26 1020 42 16093 4.1 60 22:37 08.08.2019
3983 Thunderstorm 26 1020 42 16093 4.1 60 22:18 08.08.2019
3984 Thunderstorm 27 1020 39 16093 3.6 40 21:57 08.08.2019
3985 Haze 27 1020 48 16093 5.1 40 21:38 08.08.2019
3986 Clouds 27 1020 48 16093 5.1 40 21:20 08.08.2019
3987 Clouds 27 1021 44 16093 2.6 60 20:42 08.08.2019
3988 Clouds 27 1021 44 16093 2.6 60 20:22 08.08.2019
3989 Clear 26 1022 47 16093 4.1 30 19:59 08.08.2019
3990 Clouds 26 1022 47 16093 2.1 40 19:40 08.08.2019
3991 Clouds 25 1022 47 16093 2.1 40 19:20 08.08.2019
3992 Clouds 24 1022 56 16093 2.63 117.619 18:43 08.08.2019
3993 Clouds 23 1022 56 16093 1.74 338.577 18:22 08.08.2019
3994 Clouds 23 1022 68 16093 1.74 338.577 17:55 08.08.2019
3995 Clouds 22 1022 60 16093 1.74 338.577 17:37 08.08.2019
3996 Clouds 22 1022 60 16093 1.74 338.577 17:18 08.08.2019
3997 Clouds 20 1021 72 16093 3.1 140 16:42 08.08.2019
3998 Clouds 20 1021 72 16093 3.1 140 16:24 08.08.2019
3999 Rain 19 1022 88 16093 1.74 338.577 15:58 08.08.2019
4000 Clouds 19 1022 68 16093 2.6 150 15:58 08.08.2019
4001 Rain 19 1022 88 16093 1.74 338.577 15:39 08.08.2019
4002 Rain 18 1022 72 16093 2.1 140 15:20 08.08.2019
4003 Clouds 18 1021 77 16093 1.5 100 14:41 08.08.2019
4004 Clouds 18 1021 77 16093 1.5 100 14:23 08.08.2019
4005 Clouds 18 1021 72 16093 2.1 220 13:57 08.08.2019
4006 Clouds 18 1021 82 16093 1.5 90 13:38 08.08.2019
4007 Clouds 18 1021 82 16093 2.6 220 13:18 08.08.2019
4008 Clouds 18 1021 88 16093 1.5 230 12:39 08.08.2019
4009 Clouds 17 1021 93 16093 2.6 220 12:19 08.08.2019
4010 Clear 17 1022 88 16093 1.5 190 11:48 08.08.2019
4011 Clouds 18 1022 93 16093 1.5 200 11:27 08.08.2019
4012 Clear 18 1022 88 16093 1.59 205.887 10:59 08.08.2019
4013 Clear 18 1022 88 16093 1.59 205.887 10:59 08.08.2019
4014 Clouds 18 1022 82 16093 1.59 205.887 10:40 08.08.2019
4015 Clouds 18 1022 88 16093 3.1 150 10:20 08.08.2019
4016 Clear 18 1022 88 16093 1.5 360 09:44 08.08.2019
4017 Clouds 19 1022 93 16093 2.6 40 09:25 08.08.2019
4018 Clouds 19 1023 82 16093 3.59 92.424 08:55 08.08.2019
4019 Clear 19 1022 77 16093 2.1 330 08:36 08.08.2019
4020 Clouds 19 1021 88 16093 1.5 40 08:18 08.08.2019
4021 Clouds 19 1021 72 16093 2.1 10 07:39 08.08.2019
4022 Clouds 20 1021 82 16093 3.6 20 07:19 08.08.2019
4023 Rain 21 1021 73 16093 7.7 330 06:46 08.08.2019
4024 Rain 21 1021 64 16093 2.6 100 06:19 08.08.2019
4025 Rain 22 1020 73 14484 4.6 190 05:51 08.08.2019
4026 Thunderstorm 24 1020 39 16093 2.1 90 04:43 08.08.2019
4027 Thunderstorm 25 1020 39 16093 2.1 30 03:51 08.08.2019
4028 Clouds 28 1019 28 16093 5.7 180 01:59 08.08.2019
4029 Clouds 29 1019 28 16093 1.5 110 01:24 08.08.2019
4030 Clouds 30 1019 28 16093 1.5 90 00:25 08.08.2019
4031 Clouds 30 1019 27 16093 2.1 260 23:42 07.08.2019
4032 Clouds 30 1019 27 16093 2.1 260 23:19 07.08.2019
4033 Clear 30 1020 30 16093 2.1 210 22:55 07.08.2019
4034 Clouds 30 1020 29 16093 3.6 70 22:36 07.08.2019
4035 Clouds 30 1020 29 16093 3.6 70 22:36 07.08.2019
4036 Clouds 30 1020 29 16093 3.6 70 22:18 07.08.2019
4037 Clouds 30 1020 29 16093 3.6 70 22:18 07.08.2019
4038 Clear 30 1020 30 16093 2.1 360 21:54 07.08.2019
4039 Clouds 29 1020 30 16093 4.6 30 21:36 07.08.2019
4040 Clouds 29 1021 30 16093 2.1 360 21:18 07.08.2019
4041 Clear 28 1021 34 16093 3.6 340 20:41 07.08.2019
4042 Clouds 28 1021 37 16093 4.1 350 20:41 07.08.2019
4043 Clouds 28 1021 34 16093 5.1 360 20:23 07.08.2019
4044 Clear 27 1022 41 16093 2.1 320 19:56 07.08.2019
4045 Clouds 27 1021 44 16093 3.1 330 19:38 07.08.2019
4046 Clouds 26 1022 39 16093 4.1 350 19:19 07.08.2019
4047 Clouds 26 1022 41 16093 2.6 0 18:41 07.08.2019
4048 Clouds 25 1022 41 16093 2.6 0 18:20 07.08.2019
4049 Clear 24 1022 46 16093 3.6 20 17:57 07.08.2019
4050 Clouds 24 1021 49 16093 4.1 320 17:38 07.08.2019
4051 Clouds 23 1022 44 16093 2.6 300 17:19 07.08.2019
4052 Clear 23 1022 53 16093 3.1 360 16:57 07.08.2019
4053 Clouds 23 1021 49 16093 3.6 330 16:38 07.08.2019
4054 Clouds 22 1021 40 16093 4.1 330 16:19 07.08.2019
4055 Clear 21 1022 60 16093 3.86 14.991 15:55 07.08.2019
4056 Clouds 21 1020 52 16093 2.1 300 15:37 07.08.2019
4057 Clouds 21 1020 52 16093 2.1 300 15:37 07.08.2019
4058 Clouds 20 1020 52 16093 2.1 300 15:18 07.08.2019
4059 Clouds 19 1020 49 16093 0.78 19.777 14:44 07.08.2019
4060 Clear 19 1020 46 16093 2.1 60 14:24 07.08.2019
4061 Clear 19 1019 45 16093 1.5 300 13:41 07.08.2019
4062 Clear 19 1019 43 16093 0.5 245.424 13:19 07.08.2019
4063 Clear 20 1019 40 16093 4.1 340 12:58 07.08.2019
4064 Clear 20 1019 40 16093 4.1 340 12:39 07.08.2019
4065 Clear 20 1019 43 16093 4.6 330 12:20 07.08.2019
4066 Clear 20 1019 33 16093 6.7 330 11:58 07.08.2019
4067 Clear 20 1019 33 16093 6.7 330 11:40 07.08.2019
4068 Clear 20 1020 43 16093 7.7 170 11:19 07.08.2019
4069 Clear 20 1019 59 16093 2.1 360 10:41 07.08.2019
4070 Clear 21 1019 37 16093 5.48 340.993 10:20 07.08.2019
4071 Clear 21 1019 37 16093 5.48 340.993 09:59 07.08.2019
4072 Clear 21 1020 52 16093 5.48 340.993 09:41 07.08.2019
4073 Clouds 22 1020 40 16093 7.2 190 09:21 07.08.2019
4074 Clear 22 1020 45 16093 2.1 200 08:45 07.08.2019
4075 Clouds 22 1020 38 16093 8.7 180 08:25 07.08.2019
4076 Clear 23 1020 43 16093 2.22 249.68 07:51 07.08.2019
4077 Clouds 23 1020 33 16093 7.7 180 07:32 07.08.2019
4078 Clear 23 1020 46 16093 2.1 210 06:50 07.08.2019
4079 Clouds 24 1020 31 16093 4.1 160 06:26 07.08.2019
4080 Clouds 25 1019 26 16093 5.1 130 05:43 07.08.2019
4081 Clouds 28 1019 24 16093 3.1 60 04:41 07.08.2019
4082 Clouds 31 1019 16 16093 3.6 20 03:18 07.08.2019
4083 Clouds 33 1018 15 16093 4.1 340 02:39 07.08.2019
4084 Clear 33 1019 11 16093 3.6 60 01:52 07.08.2019
4085 Clouds 34 1019 12 16093 2.1 10 01:22 07.08.2019
4086 Clouds 34 1019 14 16093 5.1 60 00:24 07.08.2019
4087 Clouds 34 1020 13 16093 2.04 55.626 23:59 06.08.2019
4088 Clouds 34 1020 12 16093 3.6 300 23:38 06.08.2019
4089 Clouds 34 1020 12 16093 3.6 300 23:20 06.08.2019
4090 Clouds 34 1021 13 16093 5.1 310 22:40 06.08.2019
4091 Clouds 34 1021 13 16093 5.1 310 22:22 06.08.2019
4092 Clouds 34 1021 14 16093 4.6 350 21:57 06.08.2019
4093 Clouds 34 1021 14 16093 4.6 350 21:38 06.08.2019
4094 Clouds 33 1021 14 16093 4.6 350 21:19 06.08.2019
4095 Clouds 33 1021 14 16093 4.6 350 21:19 06.08.2019
4096 Clouds 33 1022 19 16093 2.1 260 20:46 06.08.2019
4097 Clouds 33 1022 19 16093 2.1 260 20:28 06.08.2019
4098 Clouds 33 1022 18 16093 4.6 340 19:57 06.08.2019
4099 Clouds 32 1022 23 16093 2.1 200 19:38 06.08.2019
4100 Clouds 32 1022 23 16093 2.1 200 19:19 06.08.2019
4101 Clouds 30 1022 28 32767 2.6 100 18:41 06.08.2019
4102 Clouds 29 1022 30 16093 4.1 210 18:23 06.08.2019
4103 Clouds 27 1023 44 16093 5.7 210 17:57 06.08.2019
4104 Clouds 26 1023 44 16093 5.7 210 17:37 06.08.2019
4105 Clouds 25 1023 44 16093 5.7 210 17:19 06.08.2019
4106 Clouds 24 1024 53 16093 0.99 184.889 16:47 06.08.2019
4107 Clouds 22 1024 53 16093 0.99 184.889 16:25 06.08.2019
4108 Clouds 20 1024 72 16093 3.1 170 15:59 06.08.2019
4109 Clouds 19 1024 72 16093 3.1 170 15:40 06.08.2019
4110 Clouds 18 1024 72 16093 3.1 170 15:21 06.08.2019
4111 Clouds 17 1024 72 16093 3.1 170 14:58 06.08.2019
4112 Clouds 16 1023 77 16093 4.6 210 14:37 06.08.2019
4113 Clouds 16 1023 77 16093 4.6 210 14:19 06.08.2019
4114 Clear 16 1024 72 16093 2.1 280 13:45 06.08.2019
4115 Clear 16 1024 77 16093 4.1 180 13:26 06.08.2019
4116 Clear 16 1025 77 16093 2.98 287.54 12:59 06.08.2019
4117 Clear 16 1024 68 16093 2.1 330 12:40 06.08.2019
4118 Clouds 16 1024 72 16093 3.6 170 12:21 06.08.2019
4119 Clear 17 1025 68 16093 3.1 330 11:45 06.08.2019
4120 Clouds 17 1024 72 16093 3.1 130 11:20 06.08.2019
4121 Clear 18 1025 60 16093 4.1 340 10:58 06.08.2019
4122 Clear 18 1025 60 16093 4.1 340 10:39 06.08.2019
4123 Clear 18 1025 60 16093 4.1 340 10:39 06.08.2019
4124 Clouds 18 1025 68 16093 1.08 38.461 10:21 06.08.2019
4125 Clear 18 1025 56 16093 4.6 350 09:41 06.08.2019
4126 Clouds 19 1025 63 16093 3.1 190 09:21 06.08.2019
4127 Clear 19 1025 56 16093 2.6 340 08:51 06.08.2019
4128 Clouds 19 1025 68 16093 3.6 170 08:28 06.08.2019
4129 Clear 20 1024 53 16093 4.6 350 07:59 06.08.2019
4130 Clear 20 1024 53 16093 4.6 350 07:30 06.08.2019
4131 Clear 21 1024 46 16093 2.43 260.135 06:45 06.08.2019
4132 Clouds 21 1024 60 16093 3.6 200 06:23 06.08.2019
4133 Clouds 23 1025 53 16093 3.1 180 05:31 06.08.2019
4134 Clouds 27 1023 34 16093 5.1 70 02:48 06.08.2019
4135 Rain 28 1023 37 16093 10.8 40 01:25 06.08.2019
4136 Clouds 29 1024 25 32767 7.2 330 00:51 06.08.2019
4137 Clouds 30 1023 22 16093 4.6 30 23:59 05.08.2019
4138 Rain 31 1023 25 16093 3.6 50 23:20 05.08.2019
4139 Rain 31 1023 24 16093 6.2 10 22:43 05.08.2019
4140 Rain 31 1023 24 16093 6.2 10 22:23 05.08.2019
4141 Rain 31 1024 23 16093 7.7 10 21:59 05.08.2019
4142 Rain 31 1023 27 16093 5.7 20 21:41 05.08.2019
4143 Rain 30 1023 27 16093 5.7 20 21:20 05.08.2019
4144 Clouds 30 1024 25 32767 3.1 30 20:57 05.08.2019
4145 Clouds 30 1024 25 32767 3.1 30 20:39 05.08.2019
4146 Clouds 30 1024 28 16093 2.6 10 20:20 05.08.2019
4147 Clouds 29 1024 39 16093 1.5 180 19:55 05.08.2019
4148 Clouds 28 1024 39 16093 1.5 180 19:36 05.08.2019
4149 Clouds 28 1024 39 16093 1.5 180 19:18 05.08.2019
4150 Clouds 27 1024 47 16093 1.5 240 18:40 05.08.2019
4151 Clouds 26 1024 47 16093 1.5 240 18:19 05.08.2019
4152 Clouds 24 1025 56 16093 3.1 280 17:46 05.08.2019
4153 Clouds 23 1025 56 16093 3.1 280 17:27 05.08.2019
4154 Clouds 22 1025 77 16093 1.5 280 16:47 05.08.2019
4155 Clouds 22 1025 68 16093 1.27 330.485 16:27 05.08.2019
4156 Clouds 19 1025 88 16093 3.1 320 15:58 05.08.2019
4157 Clouds 19 1025 88 16093 3.1 320 15:40 05.08.2019
4158 Clouds 18 1025 88 16093 3.1 320 15:20 05.08.2019
4159 Clouds 18 1024 88 12874 3.6 340 14:40 05.08.2019
4160 Clouds 18 1025 68 16093 3.1 350 14:21 05.08.2019
4161 Clouds 18 1025 72 16093 3.6 340 13:47 05.08.2019
4162 Clouds 18 1024 100 11265 5.1 340 13:23 05.08.2019
4163 Clouds 19 1024 93 12874 4.6 360 12:50 05.08.2019
4164 Clouds 19 1024 63 16093 4.1 350 12:21 05.08.2019
4165 Clouds 20 1024 52 16093 6.2 350 11:55 05.08.2019
4166 Clouds 20 1024 52 16093 6.2 350 11:37 05.08.2019
4167 Clouds 20 1022 52 16093 3.58 305.588 11:18 05.08.2019
4168 Clear 21 1023 38 16093 1.5 60 10:43 05.08.2019
4169 Clouds 21 1023 46 16093 3.58 305.588 10:25 05.08.2019
4170 Clouds 21 1023 36 16093 2.6 70 09:44 05.08.2019
4171 Clouds 22 1023 46 16093 2.6 280 09:26 05.08.2019
4172 Clouds 22 1023 43 16093 3.77 251.993 08:59 05.08.2019
4173 Clear 22 1023 36 16093 8.2 280 08:41 05.08.2019
4174 Clouds 22 1023 43 16093 3.77 251.993 08:20 05.08.2019
4175 Rain 23 1023 46 16093 10.8 260 07:45 05.08.2019
4176 Rain 23 1023 43 16093 3.6 240 07:26 05.08.2019
4177 Rain 23 1023 36 16093 6.7 260 06:35 05.08.2019
4178 Clouds 24 1023 41 16093 4.1 240 05:52 05.08.2019
4179 Clouds 24 1023 41 16093 4.1 240 05:20 05.08.2019
4180 Clouds 25 1022 39 16093 5.1 250 04:27 05.08.2019
4181 Rain 26 1021 28 16093 3.1 330 03:38 05.08.2019
4182 Rain 27 1021 28 16093 5.7 300 02:36 05.08.2019
4183 Clouds 28 1021 25 16093 5.7 230 01:35 05.08.2019
4184 Rain 28 1022 30 16093 4.1 260 00:43 05.08.2019
4185 Rain 28 1022 30 16093 4.1 260 00:23 05.08.2019
4186 Thunderstorm 27 1021 25 16093 8.2 260 23:58 04.08.2019
4187 Rain 27 1021 25 16093 8.2 260 23:40 04.08.2019
4188 Thunderstorm 27 1020 25 16093 7.7 300 23:19 04.08.2019
4189 Thunderstorm 28 1020 21 16093 3.6 180 22:55 04.08.2019
4190 Thunderstorm 30 1022 21 16093 6.7 270 22:37 04.08.2019
4191 Thunderstorm 31 1021 17 16093 2.1 120 22:18 04.08.2019
4192 Rain 32 1022 18 16093 3.1 210 21:43 04.08.2019
4193 Rain 33 1022 18 16093 3.1 210 21:20 04.08.2019
4194 Clouds 33 1022 21 16093 3.1 190 20:45 04.08.2019
4195 Clouds 33 1022 21 16093 3.1 190 20:21 04.08.2019
4196 Clouds 32 1023 25 16093 3.1 140 19:58 04.08.2019
4197 Clouds 31 1023 25 16093 3.1 140 19:38 04.08.2019
4198 Clouds 31 1023 25 16093 3.1 140 19:20 04.08.2019
4199 Clouds 29 1024 32 16093 2.6 220 18:42 04.08.2019
4200 Clouds 28 1024 32 16093 2.6 220 18:21 04.08.2019
4201 Clouds 27 1024 36 16093 3.6 240 17:45 04.08.2019
4202 Clouds 26 1024 36 16093 3.6 240 17:26 04.08.2019
4203 Clouds 25 1024 32 16093 2.1 230 16:59 04.08.2019
4204 Clouds 24 1024 38 16093 3.1 220 16:39 04.08.2019
4205 Clouds 23 1024 38 16093 3.1 220 16:20 04.08.2019
4206 Clouds 21 1023 46 16093 1.5 10 15:43 04.08.2019
4207 Clouds 20 1023 46 16093 1.5 10 15:22 04.08.2019
4208 Clouds 19 1023 49 16093 4.6 190 14:45 04.08.2019
4209 Clouds 19 1023 49 16093 4.6 190 14:26 04.08.2019
4210 Clear 19 1023 40 16093 0.65 279.347 13:47 04.08.2019
4211 Clouds 20 1022 40 16093 6.2 210 13:28 04.08.2019
4212 Clear 20 1023 46 16093 1.85 199.593 12:59 04.08.2019
4213 Clear 20 1023 46 16093 1.85 199.593 12:40 04.08.2019
4214 Clouds 20 1023 43 16093 6.2 200 12:22 04.08.2019
4215 Clear 21 1023 52 16093 1.77 202.341 11:55 04.08.2019
4216 Clear 21 1023 52 16093 1.77 202.341 11:36 04.08.2019
4217 Clouds 21 1023 43 16093 6.7 190 11:18 04.08.2019
4218 Clear 22 1023 43 16093 2.6 280 10:40 04.08.2019
4219 Clouds 22 1024 43 16093 5.1 190 10:19 04.08.2019
4220 Clear 22 1024 49 16093 1.5 220 09:42 04.08.2019
4221 Clouds 23 1024 46 16093 6.2 190 09:21 04.08.2019
4222 Clear 23 1024 43 16093 1.5 200 08:42 04.08.2019
4223 Clear 23 1024 43 16093 1.5 200 08:42 04.08.2019
4224 Clouds 23 1024 46 16093 6.2 180 08:20 04.08.2019
4225 Clear 23 1024 33 16093 2.1 170 07:48 04.08.2019
4226 Clear 24 1024 36 16093 3.1 150 06:50 04.08.2019
4227 Clouds 25 1024 47 16093 5.7 190 06:24 04.08.2019
4228 Clouds 29 1022 23 16093 6.2 170 03:45 04.08.2019
4229 Clouds 31 1022 25 16093 7.2 150 02:23 04.08.2019
4230 Clouds 33 1022 17 16093 3.6 30 01:33 04.08.2019
4231 Clouds 33 1022 14 16093 3.6 110 00:45 04.08.2019
4232 Clouds 34 1023 15 16093 4.1 90 00:26 04.08.2019
4233 Clouds 34 1023 14 32767 5.1 70 23:57 03.08.2019
4234 Clouds 34 1023 14 32767 5.1 70 23:39 03.08.2019
4235 Clouds 34 1023 15 16093 4.1 70 23:18 03.08.2019
4236 Clouds 34 1024 14 32767 4.1 60 22:43 03.08.2019
4237 Clouds 33 1024 15 16093 4.1 60 22:20 03.08.2019
4238 Clouds 33 1024 18 32767 2.6 310 21:40 03.08.2019
4239 Clouds 32 1024 16 16093 2.6 10 21:22 03.08.2019
4240 Clouds 31 1024 28 16093 2.1 110 20:46 03.08.2019
4241 Clouds 31 1025 28 16093 1.5 0 20:27 03.08.2019
4242 Clouds 30 1025 28 16093 1.5 0 19:58 03.08.2019
4243 Clouds 30 1025 35 16093 2.1 360 19:40 03.08.2019
4244 Clouds 29 1025 35 16093 2.1 360 19:21 03.08.2019
4245 Clouds 28 1025 41 16093 3.1 210 18:46 03.08.2019
4246 Clouds 27 1025 41 16093 3.1 210 18:26 03.08.2019
4247 Clouds 25 1025 47 32767 1.56 355.081 17:46 03.08.2019
4248 Clouds 24 1025 50 16093 1.5 220 17:20 03.08.2019
4249 Clouds 23 1025 49 16093 1.56 355.081 16:54 03.08.2019
4250 Clouds 23 1025 60 16093 2.6 200 16:36 03.08.2019
4251 Clouds 22 1025 60 16093 2.6 200 16:18 03.08.2019
4252 Clouds 20 1025 72 16093 2.1 180 15:42 03.08.2019
4253 Clouds 18 1025 72 16093 2.1 180 15:20 03.08.2019
4254 Clouds 17 1025 77 16093 3.1 190 14:38 03.08.2019
4255 Clouds 17 1025 77 16093 3.1 190 14:19 03.08.2019
4256 Clear 17 1024 63 16093 3.1 260 13:47 03.08.2019
4257 Clouds 17 1024 72 16093 2.6 200 13:23 03.08.2019
4258 Clear 18 1025 63 16093 2.6 230 12:56 03.08.2019
4259 Clear 18 1025 63 16093 2.6 230 12:37 03.08.2019
4260 Clouds 18 1025 77 16093 3.1 220 12:19 03.08.2019
4261 Clear 18 1025 59 16093 2.16 315.132 11:40 03.08.2019
4262 Clouds 18 1025 68 16093 3.1 200 11:22 03.08.2019
4263 Clear 19 1025 63 16093 2.1 290 10:39 03.08.2019
4264 Clouds 19 1026 72 16093 3.1 200 10:20 03.08.2019
4265 Clear 20 1026 52 16093 2.6 330 09:38 03.08.2019
4266 Clouds 20 1026 68 16093 3.6 200 09:18 03.08.2019
4267 Clear 21 1026 49 16093 2.6 320 08:44 03.08.2019
4268 Rain 21 1026 52 16093 1.46 247.733 07:41 03.08.2019
4269 Rain 22 1026 60 16093 3.1 180 07:22 03.08.2019
4270 Clouds 22 1026 64 16093 4.1 130 06:21 03.08.2019
4271 Rain 27 1024 30 16093 4.1 50 03:36 03.08.2019
4272 Clouds 29 1023 32 16093 6.2 50 02:27 03.08.2019
4273 Clouds 29 1024 35 16093 4.6 50 01:22 03.08.2019
4274 Rain 29 1024 28 32767 5.1 10 00:32 03.08.2019
4275 Rain 29 1024 28 32767 5.1 10 00:32 03.08.2019
4276 Clouds 29 1024 29 16093 7.2 30 23:55 02.08.2019
4277 Clouds 30 1024 29 16093 7.2 30 23:37 02.08.2019
4278 Clouds 30 1024 29 16093 7.2 30 23:18 02.08.2019
4279 Clouds 29 1024 33 16093 5.1 10 22:40 02.08.2019
4280 Clouds 29 1024 33 16093 5.1 10 22:22 02.08.2019
4281 Clouds 29 1025 35 16093 3.6 50 21:57 02.08.2019
4282 Clouds 29 1025 35 16093 3.6 50 21:39 02.08.2019
4283 Clouds 29 1025 39 16093 3.1 350 21:21 02.08.2019
4284 Clouds 28 1025 44 16093 3.1 20 20:44 02.08.2019
4285 Clouds 28 1025 44 16093 3.1 20 20:26 02.08.2019
4286 Clouds 28 1025 42 32767 5.1 80 19:55 02.08.2019
4287 Clouds 27 1025 42 32767 5.1 80 19:33 02.08.2019
4288 Clouds 27 1025 47 16093 4.1 30 18:57 02.08.2019
4289 Clouds 26 1025 47 16093 4.1 30 18:38 02.08.2019
4290 Clouds 26 1025 47 16093 4.1 30 18:18 02.08.2019
4291 Clouds 24 1025 68 16093 2.1 220 17:41 02.08.2019
4292 Clouds 23 1025 68 16093 2.1 220 17:22 02.08.2019
4293 Mist 21 1025 93 8047 3.1 200 16:40 02.08.2019
4294 Mist 20 1024 100 805 2.6 200 16:21 02.08.2019
4295 Mist 18 1024 100 4828 2.6 240 15:57 02.08.2019
4296 Mist 17 1024 100 4828 2.6 240 15:37 02.08.2019
4297 Mist 17 1024 93 402 2.1 220 15:18 02.08.2019
4298 Mist 17 1024 93 402 2.1 220 15:18 02.08.2019
4299 Rain 16 1024 88 1609 2.1 340 14:44 02.08.2019
4300 Rain 16 1024 88 16093 2.1 330 14:18 02.08.2019
4301 Mist 16 1023 100 402 3.6 280 13:46 02.08.2019
4302 Mist 16 1023 100 16093 1.5 240 13:23 02.08.2019
4303 Mist 16 1023 93 8047 2.1 290 12:44 02.08.2019
4304 Mist 16 1023 100 16093 1.5 290 12:21 02.08.2019
4305 Mist 17 1024 100 4828 2.1 270 11:42 02.08.2019
4306 Mist 17 1024 100 16093 0.35 277.714 11:24 02.08.2019
4307 Mist 17 1024 93 6437 0.35 277.714 10:49 02.08.2019
4308 Mist 17 1024 100 16093 2.6 150 10:24 02.08.2019
4309 Mist 17 1025 93 6437 2.6 320 09:59 02.08.2019
4310 Mist 18 1025 93 6437 2.6 320 09:41 02.08.2019
4311 Mist 18 1025 82 16093 3.1 40 09:23 02.08.2019
4312 Clear 18 1025 93 16093 5.1 340 08:42 02.08.2019
4313 Clouds 18 1025 88 16093 2.6 60 08:20 02.08.2019
4314 Clouds 19 1025 77 16093 1.5 20 07:46 02.08.2019
4315 Clouds 18 1025 88 16093 1.5 200 07:28 02.08.2019
4316 Rain 19 1024 82 16093 2.11 317.838 06:41 02.08.2019
4317 Rain 19 1024 77 16093 5.1 200 05:50 02.08.2019
4318 Rain 22 1023 64 16093 4.1 140 03:54 02.08.2019
4319 Rain 22 1023 64 16093 4.1 140 03:24 02.08.2019
4320 Rain 24 1023 53 16093 6.7 330 01:44 02.08.2019
4321 Rain 24 1022 42 16093 8.7 340 00:34 02.08.2019
4322 Thunderstorm 25 1022 45 16093 4.6 50 23:46 01.08.2019
4323 Thunderstorm 26 1023 45 16093 5.1 40 23:27 01.08.2019
4324 Thunderstorm 26 1023 45 16093 5.1 40 23:27 01.08.2019
4325 Thunderstorm 28 1022 39 16093 6.7 330 22:46 01.08.2019
4326 Clouds 28 1022 35 16093 7.2 330 22:25 01.08.2019
4327 Clouds 28 1024 39 16093 7.52 328.603 21:59 01.08.2019
4328 Clouds 28 1024 39 16093 7.52 328.603 21:41 01.08.2019
4329 Clouds 28 1023 33 16093 3.6 40 21:23 01.08.2019
4330 Clouds 28 1024 37 16093 2.1 40 20:47 01.08.2019
4331 Clouds 28 1024 39 16093 3.1 0 20:23 01.08.2019
4332 Clouds 27 1024 41 16093 1.5 280 19:59 01.08.2019
4333 Clouds 27 1024 41 16093 1.5 280 19:37 01.08.2019
4334 Clouds 26 1025 39 16093 2.6 30 19:18 01.08.2019
4335 Clouds 25 1025 44 16093 2.1 160 18:43 01.08.2019
4336 Clouds 24 1025 44 16093 2.1 160 18:24 01.08.2019
4337 Clouds 24 1025 44 16093 2.1 160 18:24 01.08.2019
4338 Clouds 23 1025 49 16093 2.1 210 17:49 01.08.2019
4339 Clouds 23 1025 49 16093 2.1 210 17:30 01.08.2019
4340 Clouds 21 1025 64 16093 2.6 150 16:45 01.08.2019
4341 Clouds 20 1025 64 16093 2.6 150 16:23 01.08.2019
4342 Clouds 19 1024 82 16093 3.6 140 15:54 01.08.2019
4343 Clouds 18 1024 82 16093 3.6 140 15:36 01.08.2019
4344 Clouds 17 1024 82 16093 3.6 140 15:18 01.08.2019
4345 Clouds 17 1024 82 16093 3.6 120 14:41 01.08.2019
4346 Clouds 16 1024 82 16093 3.6 120 14:19 01.08.2019
4347 Clear 16 1023 72 16093 2.6 350 13:57 01.08.2019
4348 Clear 16 1023 72 16093 2.6 350 13:38 01.08.2019
4349 Clouds 17 1023 77 16093 3.6 180 13:20 01.08.2019
4350 Clear 17 1023 68 16093 2.72 317.726 12:42 01.08.2019
4351 Clouds 17 1023 77 16093 3.1 210 12:23 01.08.2019
4352 Rain 18 1023 68 16093 3.1 270 11:43 01.08.2019
4353 Rain 18 1023 82 16093 3.1 220 11:24 01.08.2019
4354 Clear 18 1024 72 16093 3.6 250 10:54 01.08.2019
4355 Clear 18 1024 72 16093 3.6 250 10:36 01.08.2019
4356 Clouds 18 1024 82 16093 2.6 230 10:18 01.08.2019
4357 Rain 18 1025 77 16093 4.6 270 09:41 01.08.2019
4358 Rain 18 1025 82 16093 3.1 180 09:23 01.08.2019
4359 Rain 18 1025 82 16093 3.1 180 09:23 01.08.2019
4360 Rain 18 1025 77 16093 2.6 260 08:46 01.08.2019
4361 Rain 19 1025 77 16093 4.6 270 08:20 01.08.2019
4362 Rain 19 1025 77 16093 3.6 220 07:50 01.08.2019
4363 Rain 19 1025 82 16093 3.6 240 07:26 01.08.2019
4364 Rain 20 1025 77 16093 4.6 110 06:49 01.08.2019
4365 Rain 20 1025 82 16093 3.1 10 06:27 01.08.2019
4366 Rain 21 1023 46 16093 7.7 330 04:53 01.08.2019
4367 Clouds 29 1021 29 16093 6.7 340 02:35 01.08.2019
4368 Clouds 32 1022 23 16093 3.1 60 00:49 01.08.2019
4369 Clouds 32 1022 23 16093 3.1 60 00:25 01.08.2019
4370 Clouds 32 1023 23 16093 4.1 30 23:43 31.07.2019
4371 Clouds 32 1023 23 16093 4.1 30 23:43 31.07.2019
4372 Clouds 32 1022 25 16093 3.1 0 23:21 31.07.2019
4373 Clouds 32 1023 22 16093 4.1 310 22:58 31.07.2019
4374 Clouds 32 1023 25 16093 1.5 330 22:40 31.07.2019
4375 Clouds 32 1023 25 16093 1.5 330 22:21 31.07.2019
4376 Clouds 31 1024 27 16093 4.1 350 21:39 31.07.2019
4377 Clouds 31 1024 27 16093 4.1 350 21:39 31.07.2019
4378 Clouds 31 1024 25 16093 3.1 10 21:20 31.07.2019
4379 Clouds 30 1024 28 16093 2.6 70 20:48 31.07.2019
4380 Clouds 29 1024 28 16093 2.6 70 20:22 31.07.2019
4381 Clouds 28 1025 30 16093 4.6 360 19:43 31.07.2019
4382 Clouds 28 1025 30 16093 4.6 360 19:24 31.07.2019
4383 Clouds 28 1024 28 16093 6.7 40 18:55 31.07.2019
4384 Clouds 28 1024 28 16093 6.7 40 18:37 31.07.2019
4385 Clouds 28 1024 28 16093 6.7 40 18:18 31.07.2019
4386 Clouds 27 1023 26 16093 7.2 40 17:42 31.07.2019
4387 Clouds 27 1023 26 16093 7.2 40 17:20 31.07.2019
4388 Clouds 25 1022 43 16093 3.1 210 16:46 31.07.2019
4389 Clouds 24 1022 43 16093 3.1 210 16:20 31.07.2019
4390 Clouds 21 1022 45 16093 3.6 190 15:45 31.07.2019
4391 Clouds 20 1022 45 16093 3.6 190 15:26 31.07.2019
4392 Clouds 19 1021 48 16093 4.1 180 14:55 31.07.2019
4393 Clouds 18 1021 48 16093 4.1 180 14:36 31.07.2019
4394 Clouds 18 1021 42 32186 2.62 256.198 14:18 31.07.2019
4395 Clear 19 1020 40 16093 1.5 220 13:44 31.07.2019
4396 Clouds 18 1020 52 16093 3.1 190 13:25 31.07.2019
4397 Clear 19 1020 33 16093 1.74 227.726 12:56 31.07.2019
4398 Clouds 19 1020 48 16093 4.1 200 12:37 31.07.2019
4399 Clouds 19 1020 48 16093 4.1 200 12:18 31.07.2019
4400 Clear 19 1020 35 16093 2.1 270 11:38 31.07.2019
4401 Clouds 19 1020 45 16093 4.6 210 11:19 31.07.2019
4402 Clear 20 1020 35 16093 1.3 301.532 10:42 31.07.2019
4403 Clouds 20 1020 49 16093 4.6 200 10:20 31.07.2019
4404 Clear 21 1021 37 16093 1.3 301.532 09:54 31.07.2019
4405 Clear 21 1021 37 16093 1.3 301.532 09:36 31.07.2019
4406 Clouds 21 1021 49 16093 5.1 190 09:18 31.07.2019
4407 Clear 22 1021 46 16093 2.1 230 08:40 31.07.2019
4408 Clouds 22 1022 38 16093 4.6 150 08:20 31.07.2019
4409 Clear 24 1021 36 16093 4.1 170 07:35 31.07.2019
4410 Clear 24 1022 33 16093 5.7 180 06:34 31.07.2019
4411 Clouds 24 1022 33 16093 5.1 60 04:52 31.07.2019
4412 Rain 25 1022 26 16093 6.7 350 03:24 31.07.2019
4413 Clouds 34 1020 16 16093 3.1 100 23:58 30.07.2019
4414 Clouds 34 1020 16 16093 3.1 100 23:40 30.07.2019
4415 Clouds 33 1020 16 16093 3.1 100 23:19 30.07.2019
4416 Clouds 33 1021 15 16093 5.7 350 22:46 30.07.2019
4417 Clouds 33 1021 15 16093 5.7 350 22:25 30.07.2019
4418 Clouds 33 1021 17 16093 2.1 320 21:54 30.07.2019
4419 Clouds 32 1021 17 16093 2.1 320 21:36 30.07.2019
4420 Clouds 32 1021 17 16093 4.6 20 21:18 30.07.2019
4421 Clouds 32 1022 27 32767 3.1 350 20:41 30.07.2019
4422 Clouds 31 1021 17 16093 2.6 310 20:23 30.07.2019
4423 Clouds 31 1022 30 32767 3.1 20 19:58 30.07.2019
4424 Clouds 31 1021 20 16093 3.1 240 19:38 30.07.2019
4425 Clouds 29 1021 30 16093 5.7 210 18:56 30.07.2019
4426 Clouds 29 1021 30 16093 5.7 210 18:38 30.07.2019
4427 Clouds 27 1021 30 16093 5.7 210 18:18 30.07.2019
4428 Clouds 25 1021 38 16093 6.2 230 17:41 30.07.2019
4429 Clouds 24 1021 38 16093 6.2 230 17:19 30.07.2019
4430 Clouds 23 1021 49 16093 3.6 220 16:51 30.07.2019
4431 Clouds 22 1022 43 16093 2.1 0 16:21 30.07.2019
4432 Clouds 20 1021 63 16093 2.1 250 15:56 30.07.2019
4433 Clouds 19 1021 63 16093 2.1 250 15:37 30.07.2019
4434 Clouds 18 1022 59 16093 2.6 110 15:18 30.07.2019
4435 Clouds 17 1021 59 16093 4.6 210 14:41 30.07.2019
4436 Clouds 17 1021 59 16093 4.6 210 14:19 30.07.2019
4437 Clear 17 1021 77 16093 0.58 163.205 13:46 30.07.2019
4438 Clear 17 1021 59 16093 4.6 170 13:28 30.07.2019
4439 Clear 18 1021 72 16093 2.6 20 12:58 30.07.2019
4440 Clear 18 1021 72 16093 2.6 20 12:39 30.07.2019
4441 Clear 18 1020 63 16093 9.8 190 12:21 30.07.2019
4442 Clear 19 1021 55 16093 3.31 334.125 11:39 30.07.2019
4443 Clouds 19 1020 60 16093 10.8 200 11:20 30.07.2019
4444 Clouds 19 1020 60 16093 10.8 200 11:20 30.07.2019
4445 Clear 19 1021 59 16093 1.5 310 10:46 30.07.2019
4446 Clouds 20 1021 60 16093 9.3 200 10:26 30.07.2019
4447 Clear 20 1022 55 16093 3.6 250 09:49 30.07.2019
4448 Clouds 20 1021 52 16093 10.8 190 09:31 30.07.2019
4449 Clear 21 1022 52 16093 2.6 240 08:49 30.07.2019
4450 Clear 21 1022 52 16093 2.6 240 08:31 30.07.2019
4451 Clear 21 1021 43 16093 3.1 140 07:47 30.07.2019
4452 Clouds 21 1022 52 16093 5.7 150 07:28 30.07.2019
4453 Clear 21 1021 46 16093 4.03 352.067 06:48 30.07.2019
4454 Clouds 22 1020 40 16093 11.3 100 05:56 30.07.2019
4455 Clouds 22 1020 43 16093 7.7 190 05:32 30.07.2019
4456 Clouds 29 1020 27 16093 8.7 190 01:41 30.07.2019
4457 Clouds 30 1020 24 16093 7.7 190 00:45 30.07.2019
4458 Clouds 31 1020 24 16093 7.7 190 00:20 30.07.2019
4459 Clouds 31 1021 24 16093 6.2 160 23:44 29.07.2019
4460 Clouds 32 1021 24 16093 6.2 160 23:26 29.07.2019
4461 Clouds 32 1021 24 16093 6.2 160 23:26 29.07.2019
4462 Clouds 31 1022 29 16093 6.2 160 22:57 29.07.2019
4463 Clouds 31 1022 29 16093 6.2 160 22:38 29.07.2019
4464 Clouds 31 1022 30 16093 7.2 140 22:20 29.07.2019
4465 Clouds 31 1023 22 32767 4.1 80 21:55 29.07.2019
4466 Clouds 32 1023 22 32767 4.1 80 21:37 29.07.2019
4467 Clouds 31 1023 21 16093 3.1 170 21:18 29.07.2019
4468 Clouds 31 1023 25 16093 5.1 190 20:45 29.07.2019
4469 Clouds 30 1023 25 16093 5.1 190 20:23 29.07.2019
4470 Clouds 29 1024 30 16093 5.7 200 19:55 29.07.2019
4471 Clouds 29 1024 30 16093 5.7 200 19:36 29.07.2019
4472 Clouds 28 1024 30 16093 5.7 200 19:18 29.07.2019
4473 Clouds 26 1025 38 16093 2.1 170 18:41 29.07.2019
4474 Clouds 25 1025 39 16093 2.6 0 18:21 29.07.2019
4475 Clouds 24 1025 46 16093 2.64 342.424 17:50 29.07.2019
4476 Clouds 23 1025 46 16093 2.64 342.424 17:32 29.07.2019
4477 Clouds 22 1026 46 16093 1.5 170 16:58 29.07.2019
4478 Clouds 22 1026 46 16093 1.5 170 16:57 29.07.2019
4479 Clouds 21 1025 55 16093 1.5 200 16:39 29.07.2019
4480 Clouds 20 1026 49 16093 1.5 160 16:20 29.07.2019
4481 Clouds 19 1025 67 16093 2.6 180 15:50 29.07.2019
4482 Clouds 18 1025 67 16093 2.6 180 15:30 29.07.2019
4483 Clouds 15 1025 67 16093 1.5 260 14:45 29.07.2019
4484 Clouds 15 1025 67 16093 1.5 260 14:21 29.07.2019
4485 Clouds 15 1025 67 16093 1.5 260 14:21 29.07.2019
4486 Clouds 16 1025 55 16093 2.6 280 13:57 29.07.2019
4487 Clear 16 1025 59 16093 3.1 310 13:36 29.07.2019
4488 Clouds 16 1025 59 16093 3.6 280 13:18 29.07.2019
4489 Clear 17 1025 52 16093 4.6 330 12:41 29.07.2019
4490 Clouds 17 1025 59 16093 2.23 333.481 12:21 29.07.2019
4491 Clear 17 1025 52 16093 5.7 330 11:42 29.07.2019
4492 Clouds 18 1024 45 16093 3.6 210 11:21 29.07.2019
4493 Clear 18 1025 30 16093 4.1 330 10:45 29.07.2019
4494 Clear 18 1024 45 16093 5.1 200 10:23 29.07.2019
4495 Clear 19 1025 30 16093 1.5 310 09:45 29.07.2019
4496 Clouds 19 1025 40 16093 4.1 180 09:25 29.07.2019
4497 Clear 20 1025 33 16093 1.5 290 08:56 29.07.2019
4498 Clouds 20 1024 45 16093 3.1 180 08:27 29.07.2019
4499 Clear 21 1024 35 16093 2.6 200 07:55 29.07.2019
4500 Clear 21 1024 35 16093 2.6 200 07:32 29.07.2019
4501 Clear 23 1024 35 16093 1.76 198.497 06:43 29.07.2019
4502 Clouds 24 1023 36 16093 3.1 140 05:38 29.07.2019
4503 Clouds 27 1023 24 16093 3.6 70 04:24 29.07.2019
4504 Clouds 31 1022 19 16093 3.6 40 01:54 29.07.2019
4505 Clouds 31 1022 19 16093 3.6 40 01:35 29.07.2019
4506 Clouds 31 1022 20 16093 6.7 30 00:59 29.07.2019
4507 Clouds 31 1022 20 16093 6.7 30 00:32 29.07.2019
4508 Clouds 31 1023 20 16093 1.5 280 23:51 28.07.2019
4509 Clouds 31 1023 20 16093 1.5 280 23:33 28.07.2019
4510 Clouds 31 1023 20 16093 5.1 20 22:57 28.07.2019
4511 Clouds 31 1023 20 16093 5.1 20 22:36 28.07.2019
4512 Clouds 31 1023 20 16093 5.1 20 22:18 28.07.2019
4513 Clouds 30 1023 23 16093 3.6 310 21:42 28.07.2019
4514 Clouds 30 1023 23 16093 3.6 310 21:18 28.07.2019
4515 Clouds 29 1023 26 16093 6.7 350 20:43 28.07.2019
4516 Clouds 29 1024 28 16093 2.6 330 20:24 28.07.2019
4517 Clouds 29 1024 30 16093 3.6 330 19:42 28.07.2019
4518 Clouds 28 1024 30 16093 3.6 330 19:21 28.07.2019
4519 Clouds 28 1024 28 32767 5.7 360 18:47 28.07.2019
4520 Clouds 27 1023 30 16093 4.6 360 18:29 28.07.2019
4521 Clouds 26 1023 28 32767 2.22 323.156 17:58 28.07.2019
4522 Clouds 26 1023 36 16093 2.6 300 17:39 28.07.2019
4523 Clouds 25 1023 36 16093 2.6 300 17:19 28.07.2019
4524 Clouds 24 1023 44 16093 2.6 290 16:46 28.07.2019
4525 Clouds 23 1023 44 16093 2.6 290 16:25 28.07.2019
4526 Clouds 21 1022 63 16093 2.1 260 15:49 28.07.2019
4527 Clouds 19 1022 63 16093 2.1 260 15:27 28.07.2019
4528 Clouds 18 1022 72 16093 3.1 210 14:56 28.07.2019
4529 Clouds 17 1022 72 16093 3.1 210 14:37 28.07.2019
4530 Clouds 17 1022 72 16093 3.1 210 14:18 28.07.2019
4531 Clear 17 1022 63 16093 1.83 301.661 13:40 28.07.2019
4532 Clouds 17 1021 82 16093 3.1 210 13:21 28.07.2019
4533 Clouds 17 1021 82 16093 3.1 210 12:46 28.07.2019
4534 Clouds 18 1021 82 16093 3.1 210 12:28 28.07.2019
4535 Clear 18 1021 63 16093 3.01 273.426 11:51 28.07.2019
4536 Clouds 18 1022 68 16093 3.1 230 11:31 28.07.2019
4537 Clear 18 1022 56 16093 2.1 330 10:59 28.07.2019
4538 Clear 19 1022 56 16093 2.1 330 10:38 28.07.2019
4539 Clouds 19 1021 72 16093 3.1 220 10:19 28.07.2019
4540 Clouds 19 1021 72 16093 3.1 210 09:40 28.07.2019
4541 Clouds 19 1021 72 16093 3.1 210 09:22 28.07.2019
4542 Rain 20 1022 77 16093 1.5 250 08:42 28.07.2019
4543 Rain 20 1022 77 16093 1.5 250 08:22 28.07.2019
4544 Rain 20 1023 43 16093 3.1 320 07:44 28.07.2019
4545 Rain 20 1022 72 16093 2.1 210 07:25 28.07.2019
4546 Clear 20 1023 56 16093 1.5 230 06:36 28.07.2019
4547 Clouds 21 1022 64 16093 3.1 210 05:21 28.07.2019
4548 Thunderstorm 25 1022 39 16093 5.7 30 02:39 28.07.2019
4549 Clouds 28 1021 39 16093 8.2 350 01:43 28.07.2019
4550 Rain 27 1021 47 16093 2.6 0 00:56 28.07.2019
4551 Rain 26 1021 47 16093 2.6 0 00:37 28.07.2019
4552 Rain 30 1022 26 32767 8.2 170 23:53 27.07.2019
4553 Rain 29 1022 28 16093 3.6 170 23:28 27.07.2019
4554 Thunderstorm 30 1022 34 16093 2.1 0 22:47 27.07.2019
4555 Thunderstorm 30 1022 34 16093 2.1 0 22:28 27.07.2019
4556 Clouds 29 1022 25 16093 3.6 60 21:59 27.07.2019
4557 Clouds 28 1023 30 16093 1.5 190 21:37 27.07.2019
4558 Clouds 28 1023 30 16093 1.5 190 21:18 27.07.2019
4559 Clouds 29 1024 28 16093 4.1 90 20:44 27.07.2019
4560 Clouds 29 1024 28 16093 4.1 90 20:19 27.07.2019
4561 Clouds 29 1024 37 16093 1.5 70 19:41 27.07.2019
4562 Clouds 28 1024 37 16093 1.5 70 19:22 27.07.2019
4563 Clouds 27 1024 42 16093 2.6 260 18:48 27.07.2019
4564 Clouds 26 1024 42 16093 2.6 260 18:30 27.07.2019
4565 Clouds 25 1024 49 16093 2.6 170 17:52 27.07.2019
4566 Clouds 24 1024 49 16093 2.6 170 17:32 27.07.2019
4567 Clouds 23 1025 53 16093 1.47 3.671 16:56 27.07.2019
4568 Clouds 23 1024 60 16093 2.1 170 16:37 27.07.2019
4569 Clouds 21 1024 60 16093 2.1 170 16:18 27.07.2019
4570 Clouds 20 1024 68 16093 1.47 3.671 15:43 27.07.2019
4571 Clouds 19 1024 68 16093 1.27 314.746 15:19 27.07.2019
4572 Clouds 18 1023 59 16093 1.27 314.746 14:45 27.07.2019
4573 Clouds 18 1024 63 16093 1.5 230 14:26 27.07.2019
4574 Clear 19 1023 49 16093 4.6 340 13:50 27.07.2019
4575 Clouds 19 1023 52 16093 2.6 250 13:24 27.07.2019
4576 Clouds 20 1023 52 16093 2.6 220 12:51 27.07.2019
4577 Clouds 20 1023 52 16093 2.6 220 12:32 27.07.2019
4578 Clear 20 1024 56 16093 1.5 270 11:57 27.07.2019
4579 Clear 21 1024 56 16093 1.5 270 11:38 27.07.2019
4580 Clouds 21 1024 40 16093 3.6 220 11:20 27.07.2019
4581 Clear 21 1025 53 16093 1.13 297.629 10:41 27.07.2019
4582 Clouds 21 1025 43 16093 7.2 210 10:21 27.07.2019
4583 Clouds 21 1025 46 16093 5.7 200 09:41 27.07.2019
4584 Clouds 21 1025 43 16093 6.7 180 09:23 27.07.2019
4585 Clouds 22 1026 43 16093 2.1 140 08:49 27.07.2019
4586 Clouds 22 1026 43 16093 2.1 140 08:29 27.07.2019
4587 Clear 22 1025 36 16093 2.6 30 07:55 27.07.2019
4588 Clouds 22 1026 53 16093 6.2 140 07:29 27.07.2019
4589 Clear 22 1024 36 16093 2.6 120 06:56 27.07.2019
4590 Clouds 23 1024 46 16093 3.6 160 06:31 27.07.2019
4591 Clouds 24 1024 46 16093 6.7 180 05:52 27.07.2019
4592 Clouds 24 1024 46 16093 6.7 180 05:24 27.07.2019
4593 Thunderstorm 25 1024 41 16093 2.1 190 04:31 27.07.2019
4594 Rain 27 1024 36 16093 7.7 360 03:28 27.07.2019
4595 Clouds 28 1023 25 32767 8.2 280 02:32 27.07.2019
4596 Clouds 29 1022 20 16093 2.1 100 01:48 27.07.2019
4597 Clouds 30 1023 23 16093 3.6 150 01:21 27.07.2019
4598 Clouds 31 1023 22 16093 5.1 80 00:32 27.07.2019
4599 Clouds 32 1023 19 16093 3.6 110 23:54 26.07.2019
4600 Clouds 33 1023 17 16093 4.07 109.652 23:33 26.07.2019
4601 Clouds 33 1023 21 16093 4.07 109.652 22:57 26.07.2019
4602 Clouds 33 1023 21 16093 4.07 109.652 22:38 26.07.2019
4603 Clouds 33 1023 21 16093 4.07 109.652 22:20 26.07.2019
4604 Clouds 33 1024 24 16093 3.6 110 21:48 26.07.2019
4605 Clouds 32 1024 24 16093 3.6 110 21:19 26.07.2019
4606 Clouds 32 1024 27 16093 4.17 125.247 20:42 26.07.2019
4607 Clouds 31 1025 30 16093 1.5 120 20:23 26.07.2019
4608 Clouds 30 1024 32 16093 4.17 125.247 19:43 26.07.2019
4609 Clouds 30 1024 32 16093 4.17 125.247 19:25 26.07.2019
4610 Clouds 29 1025 30 16093 4.17 125.247 18:58 26.07.2019
4611 Clouds 28 1024 34 16093 2.6 330 18:37 26.07.2019
4612 Clouds 27 1024 34 16093 2.6 330 18:19 26.07.2019
4613 Clouds 26 1024 44 16093 2.6 260 17:46 26.07.2019
4614 Clouds 25 1024 44 16093 2.6 260 17:19 26.07.2019
4615 Clouds 24 1024 53 16093 3.6 220 16:57 26.07.2019
4616 Clouds 23 1024 53 16093 3.6 220 16:38 26.07.2019
4617 Clouds 22 1024 46 16093 2.6 250 16:19 26.07.2019
4618 Clouds 21 1023 68 16093 3.1 210 15:55 26.07.2019
4619 Clouds 20 1023 68 16093 3.1 210 15:36 26.07.2019
4620 Clouds 18 1023 68 16093 3.1 210 15:18 26.07.2019
4621 Clouds 17 1022 68 16093 3.6 210 14:42 26.07.2019
4622 Clouds 17 1022 68 16093 3.6 210 14:22 26.07.2019
4623 Clear 17 1022 45 16093 1.2 229.414 13:40 26.07.2019
4624 Clouds 17 1022 72 16093 2.1 200 13:22 26.07.2019
4625 Clear 17 1022 48 16093 1.11 302.329 12:48 26.07.2019
4626 Clouds 18 1022 68 16093 5.1 200 12:20 26.07.2019
4627 Clear 18 1022 52 16093 2.24 207.195 11:40 26.07.2019
4628 Clear 18 1022 55 16093 1.5 200 11:20 26.07.2019
4629 Clear 18 1022 55 16093 1.5 200 10:56 26.07.2019
4630 Clear 18 1022 55 16093 1.5 200 10:38 26.07.2019
4631 Clear 18 1022 55 16093 1.5 210 09:55 26.07.2019
4632 Clear 18 1022 55 16093 1.5 210 09:37 26.07.2019
4633 Clouds 19 1023 68 16093 4.6 180 08:57 26.07.2019
4634 Clear 19 1022 63 16093 2.6 260 08:39 26.07.2019
4635 Clouds 19 1023 68 16093 5.1 190 08:20 26.07.2019
4636 Clear 19 1022 68 16093 2.1 240 07:33 26.07.2019
4637 Clear 20 1022 56 16093 1.5 160 06:56 26.07.2019
4638 Clouds 21 1023 68 16093 5.1 220 05:23 26.07.2019
4639 Clouds 22 1023 56 16093 6.2 220 04:29 26.07.2019
4640 Clouds 22 1023 47 16093 9.3 210 03:43 26.07.2019
4641 Rain 25 1023 44 16093 2.6 240 01:44 26.07.2019
4642 Clouds 27 1023 32 16093 6.62 186.995 00:49 26.07.2019
4643 Clouds 28 1023 39 16093 4.1 160 00:23 26.07.2019
4644 Rain 28 1023 57 16093 7.2 160 23:25 25.07.2019
4645 Rain 27 1023 23 16093 3.1 50 22:59 25.07.2019
4646 Rain 28 1023 28 16093 4.6 200 22:59 25.07.2019
4647 Rain 26 1023 23 16093 3.1 50 22:40 25.07.2019
4648 Rain 28 1024 49 8047 2.6 50 22:21 25.07.2019
4649 Thunderstorm 28 1023 28 16093 4.1 20 21:46 25.07.2019
4650 Rain 29 1023 27 16093 2.1 60 21:22 25.07.2019
4651 Clouds 30 1023 30 16093 2.1 10 20:48 25.07.2019
4652 Clouds 30 1023 28 16093 4.1 90 20:29 25.07.2019
4653 Clouds 30 1024 30 16093 1.5 320 19:54 25.07.2019
4654 Clouds 30 1023 34 16093 1.5 80 19:36 25.07.2019
4655 Clouds 30 1023 34 16093 1.5 80 19:18 25.07.2019
4656 Clouds 28 1023 36 16093 2.9 46.831 18:39 25.07.2019
4657 Clouds 28 1023 36 16093 1.09 263.025 18:20 25.07.2019
4658 Clear 26 1023 41 16093 2.1 150 17:44 25.07.2019
4659 Clouds 26 1024 44 16093 2.1 190 17:24 25.07.2019
4660 Clear 24 1023 53 16093 1.09 263.025 16:45 25.07.2019
4661 Clear 23 1023 64 16093 1.5 180 16:26 25.07.2019
4662 Clouds 21 1024 46 16093 2.6 240 15:58 25.07.2019
4663 Clouds 20 1023 59 16093 2.6 200 15:36 25.07.2019
4664 Clear 19 1023 82 16093 1.21 268.394 15:18 25.07.2019
4665 Clouds 18 1023 63 16093 2.6 230 14:41 25.07.2019
4666 Clouds 18 1023 63 16093 2.6 230 14:22 25.07.2019
4667 Clear 18 1023 82 16093 2.1 210 13:44 25.07.2019
4668 Clouds 18 1022 68 16093 3.6 190 13:25 25.07.2019
4669 Clouds 18 1021 68 16093 3.6 190 12:46 25.07.2019
4670 Clouds 18 1021 68 16093 3.6 190 12:27 25.07.2019
4671 Clouds 19 1022 77 16093 2.22 344.419 11:43 25.07.2019
4672 Clear 19 1022 77 16093 1.5 180 11:23 25.07.2019
4673 Clear 19 1022 72 16093 1.5 230 10:46 25.07.2019
4674 -273 0 0 0 0 0 10:26 25.07.2019
4675 Clear 20 1022 72 16093 2.1 200 09:57 25.07.2019
4676 Clear 20 1022 56 16093 3.1 300 09:39 25.07.2019
4677 Clear 20 1023 82 16093 1.65 169.489 08:54 25.07.2019
4678 Clouds 20 1023 68 16093 4.6 170 08:36 25.07.2019
4679 Clear 21 1023 77 16093 1.65 169.489 07:49 25.07.2019
4680 -273 0 0 0 0 0 07:26 25.07.2019
4681 Rain 22 1024 56 16093 2.1 260 06:40 25.07.2019
4682 Rain 23 1024 64 16093 4.6 140 05:37 25.07.2019
4683 Clear 23 1023 68 16093 2.6 200 04:55 25.07.2019
4684 Rain 25 1023 64 16093 3.6 70 03:32 25.07.2019
4685 Clouds 31 1020 17 16093 2.6 130 01:27 25.07.2019
4686 Clouds 33 1021 17 16093 4.1 120 00:37 25.07.2019
4687 Clouds 34 1020 14 16093 3.6 90 00:18 25.07.2019
4688 Clear 34 1020 13 16093 4.78 357.398 23:43 24.07.2019
4689 Clouds 35 1021 15 16093 3.6 60 23:24 24.07.2019
4690 Clouds 34 1021 20 16093 2.1 150 22:45 24.07.2019
4691 Clouds 34 1021 20 16093 2.1 150 22:23 24.07.2019
4692 Clear 34 1022 16 16093 2.1 150 21:56 24.07.2019
4693 Clear 33 1022 16 16093 2.6 180 21:38 24.07.2019
4694 Clear 33 1022 16 16093 2.6 180 21:19 24.07.2019
4695 Clear 32 1022 17 16093 3.6 120 20:47 24.07.2019
4696 Clouds 32 1023 23 16093 3.6 200 20:29 24.07.2019
4697 Clouds 31 1024 23 16093 2.1 0 19:59 24.07.2019
4698 Clouds 31 1024 23 16093 2.1 0 19:59 24.07.2019
4699 Clear 31 1023 22 16093 3.6 160 19:40 24.07.2019
4700 Clouds 30 1024 25 32767 4.1 130 19:20 24.07.2019
4701 Clouds 29 1024 32 16093 1.5 190 18:43 24.07.2019
4702 Clouds 28 1024 32 16093 1.5 190 18:24 24.07.2019
4703 Clear 27 1025 36 16093 1.5 140 17:48 24.07.2019
4704 Clouds 25 1024 41 16093 3.1 230 17:23 24.07.2019
4705 Clear 25 1025 43 16093 1.03 161.6 16:57 24.07.2019
4706 Clouds 23 1025 49 16093 4.1 220 16:39 24.07.2019
4707 Clouds 23 1025 49 16093 4.1 220 16:20 24.07.2019
4708 Clouds 20 1024 59 16093 3.1 200 15:37 24.07.2019
4709 Clouds 18 1025 68 16093 2.6 130 15:19 24.07.2019
4710 Clear 17 1025 82 16093 0.59 31.13 14:45 24.07.2019
4711 Clouds 16 1024 72 16093 3.6 200 14:21 24.07.2019
4712 Clear 16 1024 63 16093 1.5 250 13:40 24.07.2019
4713 Clouds 16 1024 72 16093 3.6 190 13:19 24.07.2019
4714 Clear 17 1024 82 16093 0.84 358.086 12:53 24.07.2019
4715 Clear 17 1024 48 16093 0.84 358.086 12:34 24.07.2019
4716 Clear 18 1024 82 16093 1.61 308.069 11:55 24.07.2019
4717 Clear 18 1024 59 16093 1.61 308.069 11:36 24.07.2019
4718 Clouds 18 1024 68 16093 5.1 190 11:18 24.07.2019
4719 Clear 19 1024 77 16093 1.61 308.069 10:39 24.07.2019
4720 Clouds 19 1024 60 16093 7.2 190 10:18 24.07.2019
4721 Clear 20 1025 68 16093 1.5 210 09:43 24.07.2019
4722 Clouds 20 1025 56 16093 6.2 170 09:22 24.07.2019
4723 Clear 21 1025 64 16093 1.5 200 08:43 24.07.2019
4724 Clear 22 1025 56 16093 2.74 188.864 07:52 24.07.2019
4725 Clear 22 1025 52 16093 4.6 270 07:31 24.07.2019
4726 Clear 22 1025 60 16093 2.1 180 06:56 24.07.2019
4727 Clouds 23 1026 49 16093 4.1 180 06:28 24.07.2019
4728 Clouds 26 1025 39 16093 2.6 210 04:56 24.07.2019
4729 Clear 30 1025 39 16093 2.1 320 01:49 24.07.2019
4730 Clear 31 1025 28 16093 3.6 340 00:58 24.07.2019
4731 Clouds 31 1024 24 16093 5.1 350 00:39 24.07.2019
4732 Clear 31 1025 33 16093 3.1 320 23:52 23.07.2019
4733 Clouds 31 1025 33 16093 3.6 320 23:26 23.07.2019
4734 Clear 31 1026 35 16093 3.6 360 22:58 23.07.2019
4735 Clouds 30 1025 27 16093 2.6 10 22:37 23.07.2019
4736 Clouds 30 1025 27 16093 2.6 10 22:18 23.07.2019
4737 Clouds 30 1025 27 16093 2.6 10 22:18 23.07.2019
4738 Clear 29 1027 34 16093 2.29 80.004 21:44 23.07.2019
4739 Clear 29 1027 34 16093 2.29 80.004 21:44 23.07.2019
4740 Clouds 28 1026 32 16093 2.6 150 21:26 23.07.2019
4741 Clear 28 1027 39 16093 1.5 130 20:49 23.07.2019
4742 Clouds 27 1027 36 16093 2.2 81.044 20:29 23.07.2019
4743 Clouds 26 1027 47 16093 2.1 330 19:44 23.07.2019
4744 Clouds 25 1027 47 16093 2.1 330 19:24 23.07.2019
4745 Clear 25 1028 53 16093 2.2 81.044 18:57 23.07.2019
4746 Clouds 24 1028 56 32186 2.6 110 18:39 23.07.2019
4747 Clouds 23 1028 53 16093 1.22 11.153 18:19 23.07.2019
4748 Clouds 22 1028 60 16093 1.5 240 17:42 23.07.2019
4749 Clouds 22 1028 60 16093 1.5 240 17:42 23.07.2019
4750 Clouds 21 1028 60 16093 1.5 240 17:21 23.07.2019
4751 Clear 20 1029 77 16093 1.22 11.153 16:44 23.07.2019
4752 Clouds 19 1028 72 16093 2.6 230 16:25 23.07.2019
4753 Clear 18 1029 88 16093 2.1 350 15:51 23.07.2019
4754 Clouds 18 1028 82 16093 3.1 230 15:32 23.07.2019
4755 Clear 15 1029 93 11265 1.45 331.141 14:55 23.07.2019
4756 Clouds 15 1028 87 16093 3.6 190 14:36 23.07.2019
4757 Clear 15 1029 87 16093 1.45 331.141 14:18 23.07.2019
4758 Clear 15 1028 93 16093 1.5 150 13:42 23.07.2019
4759 Clear 15 1028 93 16093 2.13 309.102 13:23 23.07.2019
4760 Clear 15 1028 77 16093 4.1 190 12:59 23.07.2019
4761 Clear 16 1028 87 16093 2.13 309.102 12:41 23.07.2019
4762 Clouds 16 1027 77 16093 6.2 190 12:21 23.07.2019
4763 Clear 16 1027 77 16093 2.6 320 11:41 23.07.2019
4764 -273 0 0 0 0 0 11:21 23.07.2019
4765 Clear 17 1028 87 16093 2.77 22.878 10:49 23.07.2019
4766 Clouds 17 1027 72 16093 8.7 190 10:22 23.07.2019
4767 Clear 18 1028 82 16093 2.77 22.878 09:43 23.07.2019
4768 Clouds 18 1028 68 16093 8.2 180 09:22 23.07.2019
4769 Clear 19 1028 63 16093 3.8 142.536 08:44 23.07.2019
4770 Clouds 19 1028 72 16093 7.7 180 08:20 23.07.2019
4771 Clouds 19 1028 68 16093 6.2 180 07:59 23.07.2019
4772 Clear 19 1028 60 16093 3.8 142.536 07:37 23.07.2019
4773 Clear 19 1029 64 16093 2.1 130 06:52 23.07.2019
4774 Clouds 19 1028 59 16093 7.2 200 06:34 23.07.2019
4775 Clouds 19 1028 59 16093 7.2 200 06:34 23.07.2019
4776 Clouds 20 1028 60 16093 5.7 190 04:26 23.07.2019
4777 Thunderstorm 25 1026 47 16093 8.7 320 01:37 23.07.2019
4778 Rain 27 1026 35 16093 4.6 120 00:37 23.07.2019
4779 Rain 27 1026 35 16093 4.6 120 00:18 23.07.2019
4780 Rain 27 1026 35 16093 5.1 120 23:39 22.07.2019
4781 Rain 27 1027 39 16093 3.6 110 23:19 22.07.2019
4782 Rain 27 1029 57 16093 6.2 290 22:45 22.07.2019
4783 Rain 27 1027 39 16093 3.6 130 22:23 22.07.2019
4784 Clouds 27 1028 47 16093 0.43 291.629 21:44 22.07.2019
4785 Clear 26 1029 47 16093 0.54 297.793 21:23 22.07.2019
4786 Clouds 26 1028 44 16093 4.6 100 20:57 22.07.2019
4787 Clear 25 1030 57 16093 1.5 350 20:33 22.07.2019
4788 Clear 25 1030 60 16093 1.06 219.709 19:59 22.07.2019
4789 Clouds 24 1029 47 16093 3.1 150 19:40 22.07.2019
4790 Clouds 23 1029 47 16093 3.1 150 19:21 22.07.2019
4791 Clear 23 1030 73 16093 1.06 219.709 18:48 22.07.2019
4792 Clouds 22 1029 49 16093 2.6 180 18:28 22.07.2019
4793 Clouds 21 1030 77 16093 2.79 325.023 17:59 22.07.2019
4794 Clouds 21 1030 60 16093 2.79 325.023 17:38 22.07.2019
4795 Clouds 20 1030 60 16093 2.79 325.023 17:20 22.07.2019
4796 Clouds 19 1031 88 11265 2.79 325.023 16:40 22.07.2019
4797 Clouds 18 1030 68 16093 2.79 325.023 16:21 22.07.2019
4798 Clouds 18 1030 68 16093 2.79 325.023 16:21 22.07.2019
4799 Clouds 17 1031 93 11265 2.79 325.023 15:44 22.07.2019
4800 Clouds 17 1030 82 16093 3.1 180 15:21 22.07.2019
4801 Clouds 16 1030 93 11265 1.45 291.39 14:45 22.07.2019
4802 Clouds 15 1029 93 16093 2.6 190 14:26 22.07.2019
4803 Clear 15 1030 93 16093 1.45 291.39 13:52 22.07.2019
4804 Clouds 15 1029 93 16093 2.6 320 13:33 22.07.2019
4805 Clouds 16 1029 93 16093 2.1 280 12:56 22.07.2019
4806 Clouds 16 1029 88 16093 2.6 280 12:36 22.07.2019
4807 Clouds 16 1029 87 16093 2.32 73.09 11:57 22.07.2019
4808 Clear 16 1029 93 16093 1.5 310 11:39 22.07.2019
4809 Clouds 16 1028 93 16093 3.1 220 11:20 22.07.2019
4810 Rain 17 1029 88 16093 2.32 73.09 10:38 22.07.2019
4811 Rain 17 1029 88 16093 2.32 73.09 10:20 22.07.2019
4812 Rain 17 1029 88 16093 5.1 330 09:40 22.07.2019
4813 Rain 17 1029 88 16093 4.1 130 09:21 22.07.2019
4814 Thunderstorm 17 1029 93 16093 4.1 270 08:40 22.07.2019
4815 Thunderstorm 17 1029 77 16093 1.5 240 08:22 22.07.2019
4816 Thunderstorm 17 1029 82 16093 4.08 269.916 07:53 22.07.2019
4817 Thunderstorm 18 1030 88 3219 9.8 200 07:27 22.07.2019
4818 Rain 19 1027 56 16093 4.6 70 05:30 22.07.2019
4819 Thunderstorm 20 1026 47 16093 4.1 40 03:45 22.07.2019
4820 Clouds 29 1024 31 16093 7.2 20 01:28 22.07.2019
4821 Clear 29 1025 32 16093 3.6 360 00:49 22.07.2019
4822 Clouds 29 1024 31 16093 4.6 10 00:21 22.07.2019
4823 Clear 29 1025 42 16093 4.6 360 23:49 21.07.2019
4824 Clouds 29 1024 33 16093 5.7 10 22:59 21.07.2019
4825 Clouds 29 1025 42 16093 2.1 360 22:40 21.07.2019
4826 Clouds 29 1024 35 16093 3.6 10 22:21 21.07.2019
4827 Clouds 29 1025 42 16093 2.6 60 21:49 21.07.2019
4828 Clouds 29 1025 42 16093 2.6 60 21:49 21.07.2019
4829 Clouds 28 1024 37 16093 3.6 20 21:26 21.07.2019
4830 Clear 27 1025 44 16093 3.1 60 20:59 21.07.2019
4831 Clouds 27 1024 44 16093 2.1 50 20:41 21.07.2019
4832 Clouds 26 1024 44 16093 2.1 50 20:22 21.07.2019
4833 Clear 26 1025 47 16093 2.86 77.504 19:52 21.07.2019
4834 Clear 25 1025 53 16093 2.86 77.504 19:29 21.07.2019
4835 Clear 24 1025 56 16093 2.86 77.504 18:54 21.07.2019
4836 Clouds 24 1023 56 16093 2.86 77.504 18:35 21.07.2019
4837 Clouds 22 1023 49 16093 1.5 0 17:58 21.07.2019
4838 Clouds 22 1023 64 16093 2.84 46.028 17:40 21.07.2019
4839 Clouds 21 1023 64 16093 2.84 46.028 17:19 21.07.2019
4840 Clouds 20 1022 72 16093 2.6 170 16:41 21.07.2019
4841 Clouds 19 1022 82 16093 1.5 160 16:22 21.07.2019
4842 Clouds 17 1022 93 16093 2.1 150 15:42 21.07.2019
4843 Rain 15 1022 93 16093 2.1 150 15:21 21.07.2019
4844 Rain 14 1022 93 16093 1.12 150.433 14:51 21.07.2019
4845 Clouds 14 1021 93 16093 3.1 200 14:25 21.07.2019
4846 Clear 14 1022 93 16093 1.12 150.433 13:53 21.07.2019
4847 Clear 14 1022 82 16093 2.6 280 13:34 21.07.2019
4848 Clouds 15 1022 82 16093 3.1 240 12:58 21.07.2019
4849 Clear 15 1022 87 16093 2.1 250 12:39 21.07.2019
4850 Clouds 15 1022 87 16093 2.6 180 12:20 21.07.2019
4851 Clear 15 1022 87 16093 3.1 260 11:45 21.07.2019
4852 Clouds 15 1021 87 16093 3.1 140 11:26 21.07.2019
4853 Clear 16 1023 82 16093 2.1 260 10:43 21.07.2019
4854 Clouds 16 1022 87 16093 4.1 120 10:24 21.07.2019
4855 Rain 16 1022 82 16093 1.46 293.312 09:54 21.07.2019
4856 Rain 16 1021 77 16093 3.1 110 09:34 21.07.2019
4857 Clear 16 1021 87 16093 1.6 26.053 08:49 21.07.2019
4858 Clear 16 1021 87 16093 1.6 26.053 08:49 21.07.2019
4859 Clouds 16 1021 88 16093 3.1 220 08:28 21.07.2019
4860 Clear 16 1022 87 16093 1.6 26.053 07:53 21.07.2019
4861 Clouds 16 1022 93 16093 2.6 220 07:18 21.07.2019
4862 Rain 17 1024 82 16093 3.42 114.138 05:56 21.07.2019
4863 Rain 17 1024 82 11265 8.7 220 02:59 21.07.2019
4864 Rain 20 1023 78 16093 2.6 270 01:50 21.07.2019
4865 Rain 22 1022 78 16093 2.6 330 00:42 21.07.2019
4866 Rain 22 1022 60 16093 4.6 10 00:20 21.07.2019
4867 Rain 23 1020 47 16093 7.7 60 23:44 20.07.2019
4868 Rain 26 1020 48 16093 9.8 10 23:21 20.07.2019
4869 Rain 29 1020 42 16093 7.7 30 22:48 20.07.2019
4870 Rain 30 1020 42 16093 7.7 30 22:23 20.07.2019
4871 Clouds 30 1021 37 16093 5.1 40 21:57 20.07.2019
4872 Clouds 30 1019 42 16093 6.2 40 21:39 20.07.2019
4873 Clouds 30 1019 42 16093 6.2 40 21:20 20.07.2019
4874 Clear 30 1020 35 16093 6.2 30 20:41 20.07.2019
4875 Clouds 29 1019 45 16093 5.1 10 20:21 20.07.2019
4876 Clouds 29 1019 45 16093 5.7 20 19:46 20.07.2019
4877 Clear 29 1020 42 16093 3.1 80 19:46 20.07.2019
4878 Clouds 29 1019 45 16093 5.7 20 19:23 20.07.2019
4879 Clear 29 1020 30 16093 4.6 40 18:44 20.07.2019
4880 Clouds 28 1019 28 16093 6.2 20 18:22 20.07.2019
4881 Clear 28 1019 18 16093 4.6 50 17:55 20.07.2019
4882 Clouds 28 1018 23 16093 5.1 10 17:25 20.07.2019
4883 Clear 26 1018 21 16093 5.89 21.548 16:45 20.07.2019
4884 Clouds 26 1017 36 16093 5.89 21.548 16:27 20.07.2019
4885 Clear 24 1017 40 16093 5.89 21.548 15:58 20.07.2019
4886 Clouds 24 1017 40 16093 2.1 210 15:39 20.07.2019
4887 Clouds 20 1017 40 16093 2.1 210 15:20 20.07.2019
4888 Clear 19 1017 59 16093 2.42 285.828 14:48 20.07.2019
4889 Clear 19 1016 59 16093 2.42 285.828 14:28 20.07.2019
4890 Clear 20 1016 27 16093 1.5 20 13:41 20.07.2019
4891 Clouds 20 1015 35 16093 2.6 230 13:23 20.07.2019
4892 Clear 20 1016 48 16093 2.75 254.198 12:59 20.07.2019
4893 Clouds 21 1015 33 16093 2.6 230 12:26 20.07.2019
4894 Clear 21 1015 48 16093 1.5 210 11:59 20.07.2019
4895 Clouds 21 1015 31 16093 2.1 260 11:37 20.07.2019
4896 Clear 22 1015 48 16093 1.5 200 11:19 20.07.2019
4897 Clouds 22 1014 35 16093 2.1 210 10:37 20.07.2019
4898 Clouds 22 1014 35 16093 2.1 210 10:19 20.07.2019
4899 Clear 22 1015 40 16093 2.61 281.219 09:45 20.07.2019
4900 Clouds 23 1014 31 16093 3.6 300 09:24 20.07.2019
4901 Clear 24 1015 18 16093 4.1 330 08:47 20.07.2019
4902 Clouds 24 1015 28 16093 2.1 170 08:20 20.07.2019
4903 Clouds 26 1014 27 16093 3.1 270 07:26 20.07.2019
4904 Clear 26 1015 31 16093 4.47 288.196 06:43 20.07.2019
4905 Clear 29 1013 19 16093 3.13 177.312 04:58 20.07.2019
4906 Clouds 30 1013 20 16093 3.1 70 04:30 20.07.2019
4907 Clouds 36 1014 11 16093 3.1 130 01:22 20.07.2019
4908 Clear 37 1014 6 16093 2.6 100 00:49 20.07.2019
4909 Clouds 37 1014 8 16093 3.32 129.04 00:26 20.07.2019
4910 Clear 37 1014 7 16093 2.6 100 23:49 19.07.2019
4911 Clouds 36 1014 8 16093 5.1 140 23:27 19.07.2019
4912 Clear 36 1015 6 16093 3.51 136.835 22:52 19.07.2019
4913 Clouds 36 1015 8 16093 4.1 100 22:26 19.07.2019
4914 Clouds 36 1015 9 16093 4.6 10 21:59 19.07.2019
4915 Clear 36 1015 7 16093 2.6 40 21:39 19.07.2019
4916 Clouds 35 1016 10 16093 4.1 60 21:21 19.07.2019
4917 Clear 35 1016 8 16093 3.1 60 20:42 19.07.2019
4918 Clouds 35 1016 9 16093 3.6 40 20:23 19.07.2019
4919 Clouds 34 1017 11 16093 2.6 340 19:37 19.07.2019
4920 Clear 32 1016 11 16093 2.8 119.582 18:47 19.07.2019
4921 Clouds 31 1017 16 16093 2.6 210 18:26 19.07.2019
4922 Clouds 30 1017 11 16093 2.1 210 17:58 19.07.2019
4923 Clouds 29 1016 23 16093 4.6 210 17:40 19.07.2019
4924 Clouds 28 1016 23 16093 4.6 210 17:21 19.07.2019
4925 Clouds 27 1016 25 16093 5.7 210 16:42 19.07.2019
4926 Clouds 25 1016 25 16093 5.7 210 16:18 19.07.2019
4927 Clouds 23 1016 15 16093 3.6 250 15:47 19.07.2019
4928 Clouds 21 1016 32 16093 3.1 210 15:29 19.07.2019
4929 Clear 19 1016 51 16093 0.9 257.125 14:47 19.07.2019
4930 Clouds 18 1016 34 16093 3.6 190 14:27 19.07.2019
4931 Clouds 18 1016 41 16093 0.9 257.125 13:58 19.07.2019
4932 Clouds 18 1016 34 16093 4.1 190 13:39 19.07.2019
4933 Clouds 18 1016 34 16093 4.1 190 13:20 19.07.2019
4934 Clear 18 1015 35 16093 2.1 190 12:45 19.07.2019
4935 Clouds 18 1015 32 16093 4.6 190 12:26 19.07.2019
4936 Clear 19 1015 48 16093 1.06 244.113 11:46 19.07.2019
4937 Clear 19 1015 48 16093 2.1 190 11:19 19.07.2019
4938 Clouds 19 1015 37 16093 3.1 140 10:56 19.07.2019
4939 Clouds 20 1015 37 16093 3.1 140 10:37 19.07.2019
4940 Clouds 20 1015 37 16093 3.1 140 10:18 19.07.2019
4941 Clear 20 1015 36 16093 1.06 244.113 09:43 19.07.2019
4942 Clouds 21 1015 28 16093 1.5 210 09:22 19.07.2019
4943 Clouds 20 1015 28 16093 1.5 210 09:22 19.07.2019
4944 Clear 21 1015 32 16093 3.88 278.078 08:50 19.07.2019
4945 Clear 21 1015 45 16093 3.88 278.078 08:27 19.07.2019
4946 Clear 23 1015 37 16093 3.88 278.078 07:32 19.07.2019
4947 Clear 25 1015 15 16093 6.2 300 06:33 19.07.2019
4948 Clear 35 1014 9 16093 3.6 330 02:58 19.07.2019
4949 Clouds 36 1014 10 16093 5.1 10 01:21 19.07.2019
4950 Clear 36 1014 6 16093 4.6 330 00:46 19.07.2019
4951 Clear 36 1015 6 16093 6.7 290 23:59 18.07.2019
4952 Clouds 36 1015 8 16093 3.1 30 23:40 18.07.2019
4953 Clouds 36 1015 8 16093 3.1 30 23:22 18.07.2019
4954 Clear 36 1015 9 16093 4.1 240 22:41 18.07.2019
4955 Clouds 36 1015 11 16093 3.1 260 22:20 18.07.2019
4956 Clear 35 1015 8 16093 6.7 290 21:49 18.07.2019
4957 Clouds 35 1016 8 16093 3.01 247.137 21:31 18.07.2019
4958 Clear 34 1016 8 16093 6.2 280 20:55 18.07.2019
4959 Clouds 34 1017 11 16093 2.1 220 20:36 18.07.2019
4960 Clouds 34 1017 11 16093 2.1 220 20:18 18.07.2019
4961 Clear 33 1017 9 16093 1.5 130 19:45 18.07.2019
4962 Clouds 32 1018 15 16093 3.1 210 19:20 18.07.2019
4963 Clear 31 1017 13 16093 2.1 150 18:49 18.07.2019
4964 Clouds 30 1018 23 16093 5.7 190 18:21 18.07.2019
4965 Clear 28 1018 14 16093 3.1 150 17:45 18.07.2019
4966 Clouds 27 1018 26 16093 4.6 210 17:25 18.07.2019
4967 Clear 25 1018 19 16093 2.6 200 16:58 18.07.2019
4968 Clouds 25 1018 33 16093 3.1 200 16:40 18.07.2019
4969 Clouds 23 1019 27 16093 3.1 180 16:19 18.07.2019
4970 Clear 21 1018 30 16093 2.6 200 15:53 18.07.2019
4971 Clouds 21 1018 42 16093 4.1 180 15:35 18.07.2019
4972 Clear 17 1018 41 16093 2.6 180 14:55 18.07.2019
4973 Clear 17 1018 47 16093 2.6 180 14:36 18.07.2019
4974 Clear 16 1018 44 16093 2.1 214.994 13:52 18.07.2019
4975 Clear 17 1018 54 16093 2.4 218.671 13:31 18.07.2019
4976 Clear 17 1017 21 16093 2.4 218.671 12:57 18.07.2019
4977 Clear 18 1017 21 16093 2.4 218.671 12:37 18.07.2019
4978 Clear 18 1017 21 16093 3.1 30 12:18 18.07.2019
4979 Clear 18 1017 48 16093 1.5 220 11:47 18.07.2019
4980 Clear 19 1017 44 16093 2.1 20 11:26 18.07.2019
4981 Clear 19 1017 42 16093 2.6 210 10:51 18.07.2019
4982 Clear 20 1017 21 16093 4.6 270 09:51 18.07.2019
4983 Clear 20 1017 52 16093 2.41 353.481 09:27 18.07.2019
4984 Clear 20 1017 52 16093 3.75 231.917 08:54 18.07.2019
4985 Clear 21 1017 45 16093 3.75 231.917 08:25 18.07.2019
4986 Clear 22 1017 55 16093 2.1 200 07:58 18.07.2019
4987 Clear 23 1017 46 16093 6.2 190 07:35 18.07.2019
4988 Clear 23 1017 37 16093 3.1 330 06:51 18.07.2019
4989 Clear 24 1017 38 16093 1.5 330 06:26 18.07.2019
4990 Clear 30 1015 27 16093 7.7 150 03:41 18.07.2019
4991 Thunderstorm 33 1015 13 16093 2.1 180 02:23 18.07.2019
4992 Clear 33 1014 12 16093 2.1 280 01:36 18.07.2019
4993 Clear 33 1015 12 16093 2.1 90 23:59 17.07.2019
4994 Clouds 34 1016 16 16093 2.6 360 23:22 17.07.2019
4995 Clear 33 1016 17 16093 2.1 40 22:59 17.07.2019
4996 Clear 33 1016 13 16093 2.6 330 22:41 17.07.2019
4997 Clear 33 1016 13 16093 2.6 330 22:22 17.07.2019
4998 Clear 33 1016 13 16093 2.6 330 22:22 17.07.2019
4999 Clear 34 1016 9 16093 4.6 280 21:57 17.07.2019
5000 Clear 34 1016 13 16093 2.6 200 21:37 17.07.2019
5001 Clear 33 1016 13 16093 2.6 200 21:19 17.07.2019
5002 Clear 33 1016 12 16093 5.1 360 20:55 17.07.2019
5003 Clear 33 1017 12 16093 2.1 330 20:36 17.07.2019
5004 Clouds 33 1017 16 16093 2.1 40 20:18 17.07.2019
5005 Clouds 33 1017 16 16093 2.1 40 20:18 17.07.2019
5006 Clouds 33 1017 16 16093 2.1 40 20:18 17.07.2019
5007 Clear 33 1017 14 16093 5.07 275.796 19:40 17.07.2019
5008 Clear 33 1017 14 16093 5.07 275.796 19:40 17.07.2019
5009 Clouds 32 1017 15 16093 3.6 320 19:19 17.07.2019
5010 Clear 32 1017 22 16093 5.07 275.796 18:44 17.07.2019
5011 Clear 31 1017 22 16093 3.88 270.709 18:21 17.07.2019
5012 Clear 31 1017 22 16093 3.88 270.709 18:21 17.07.2019
5013 Clouds 30 1017 30 16093 5.7 220 17:56 17.07.2019
5014 Clouds 30 1017 30 16093 5.7 220 17:56 17.07.2019
5015 Clouds 30 1017 30 16093 5.7 220 17:38 17.07.2019
5016 Clear 29 1017 32 16093 3.88 270.709 17:19 17.07.2019
5017 Clouds 27 1017 36 16093 6.7 220 16:40 17.07.2019
5018 Clouds 26 1017 36 32767 3.88 270.709 16:19 17.07.2019
5019 Clouds 25 1017 36 32767 3.88 270.709 15:51 17.07.2019
5020 Clouds 23 1016 40 16093 6.7 210 15:29 17.07.2019
5021 -273 0 0 0 0 0 14:56 17.07.2019
5022 Clouds 22 1016 40 16093 7.2 190 14:38 17.07.2019
5023 Clouds 22 1016 40 16093 7.2 190 14:19 17.07.2019
5024 Clear 23 1016 31 16093 1.5 220 13:45 17.07.2019
5025 Clear 23 1016 31 16093 1.5 220 13:25 17.07.2019
5026 Clear 23 1015 59 16093 2.6 220 12:44 17.07.2019
5027 Clear 23 1015 35 16093 3.1 180 12:23 17.07.2019
5028 Thunderstorm 23 1015 37 16093 2.1 170 11:57 17.07.2019
5029 Thunderstorm 23 1015 37 16093 3.1 150 11:38 17.07.2019
5030 Thunderstorm 23 1015 37 16093 3.1 150 11:19 17.07.2019
5031 Thunderstorm 23 1016 49 16093 2.1 190 10:43 17.07.2019
5032 Clouds 23 1016 56 11265 6.7 150 10:20 17.07.2019
5033 Thunderstorm 23 1016 56 16093 2.6 270 09:44 17.07.2019
5034 Thunderstorm 23 1016 56 16093 2.6 270 09:26 17.07.2019
5035 Clear 23 1016 46 16093 3.6 200 08:44 17.07.2019
5036 Clear 23 1016 46 16093 3.6 200 08:22 17.07.2019
5037 Clear 23 1016 40 16093 2.6 210 07:51 17.07.2019
5038 Clear 23 1016 43 16093 2.6 190 07:27 17.07.2019
5039 Clear 24 1016 36 16093 2.6 200 06:58 17.07.2019
5040 Clear 24 1016 56 16093 1.94 295.824 06:31 17.07.2019
5041 Clear 25 1016 49 16093 0.65 246.731 05:59 17.07.2019
5042 Clear 26 1016 44 16093 1.5 210 05:32 17.07.2019
5043 Clear 28 1016 26 16093 4.1 130 04:48 17.07.2019
5044 Clear 31 1015 24 16093 0.65 246.731 03:39 17.07.2019
5045 Clear 32 1016 21 16093 2.1 230 02:25 17.07.2019
5046 Clouds 33 1016 21 16093 5.1 150 01:28 17.07.2019
5047 Thunderstorm 32 1016 14 16093 2.82 101.673 00:59 17.07.2019
5048 Clear 33 1016 15 16093 4.6 120 00:37 17.07.2019
5049 Thunderstorm 33 1017 18 16093 7.2 180 00:19 17.07.2019
5050 Thunderstorm 33 1017 15 16093 2.6 160 23:41 16.07.2019
5051 Thunderstorm 32 1018 19 16093 16.5 220 23:20 16.07.2019
5052 Clear 33 1018 19 16093 2.1 180 22:43 16.07.2019
5053 Clear 33 1018 19 16093 2.1 180 22:24 16.07.2019
5054 Clear 33 1019 27 16093 3.1 130 21:48 16.07.2019
5055 Clear 32 1019 27 16093 3.1 130 21:25 16.07.2019
5056 Clouds 31 1019 32 32767 3.1 120 20:59 16.07.2019
5057 Clear 30 1020 37 16093 2.1 90 20:40 16.07.2019
5058 Clear 30 1020 37 16093 2.1 90 20:22 16.07.2019
5059 Clear 28 1020 41 16093 2.1 350 19:54 16.07.2019
5060 Clear 28 1020 41 16093 2.1 350 19:30 16.07.2019
5061 Clear 27 1020 47 16093 2.1 20 18:58 16.07.2019
5062 Clear 26 1021 49 16093 2.1 360 18:39 16.07.2019
5063 Clouds 26 1020 44 16093 2.1 310 18:20 16.07.2019
5064 Clear 25 1021 46 16093 2.6 10 17:44 16.07.2019
5065 Clear 25 1021 46 16093 2.6 10 17:44 16.07.2019
5066 Clear 24 1021 46 16093 2.6 10 17:24 16.07.2019
5067 Clouds 24 1020 40 32767 2.1 30 16:49 16.07.2019
5068 Clouds 22 1019 49 32767 0.79 124.095 16:25 16.07.2019
5069 Clear 21 1020 68 16093 0.79 124.095 15:56 16.07.2019
5070 Clear 20 1020 72 16093 0.79 124.095 15:38 16.07.2019
5071 Clouds 18 1020 72 32767 2.6 250 15:19 16.07.2019
5072 Clouds 16 1020 72 32767 2.6 250 14:46 16.07.2019
5073 Clear 15 1020 93 16093 2.6 200 14:28 16.07.2019
5074 Clear 15 1020 93 16093 1.79 336.112 13:57 16.07.2019
5075 Clear 15 1020 93 16093 1.79 336.112 13:57 16.07.2019
5076 Clear 16 1019 82 16093 1.79 336.112 13:37 16.07.2019
5077 Clear 16 1019 82 16093 1.12 354.33 13:18 16.07.2019
5078 Clear 17 1020 87 16093 1.5 200 12:42 16.07.2019
5079 Clear 17 1019 82 16093 4.6 310 12:19 16.07.2019
5080 Clear 17 1020 87 16093 1.29 235.35 11:45 16.07.2019
5081 Clear 18 1020 77 16093 1.29 235.35 11:25 16.07.2019
5082 Clear 18 1020 82 16093 1.29 235.35 10:59 16.07.2019
5083 Clear 18 1020 82 16093 1.29 235.35 10:41 16.07.2019
5084 Clear 18 1019 59 16093 3.1 340 10:19 16.07.2019
5085 Clear 18 1020 77 16093 1.5 240 09:43 16.07.2019
5086 Clear 19 1020 77 16093 1.5 240 09:20 16.07.2019
5087 Clear 19 1020 77 16093 1.92 244.263 08:47 16.07.2019
5088 Clear 19 1020 77 16093 1.92 244.263 08:27 16.07.2019
5089 Clear 19 1020 77 16093 1.92 244.263 08:27 16.07.2019
5090 Clear 20 1020 72 16093 1.92 244.263 07:51 16.07.2019
5091 Clear 20 1020 68 16093 1.92 244.263 07:32 16.07.2019
5092 Clear 20 1021 77 16093 1.5 220 06:58 16.07.2019
5093 Clear 20 1021 77 16093 3.1 210 06:36 16.07.2019
5094 Clouds 20 1022 64 32186 4.33 151.643 05:51 16.07.2019
5095 Clear 20 1021 64 16093 2.1 220 05:26 16.07.2019
5096 Clouds 22 1021 60 16093 2.6 210 04:32 16.07.2019
5097 Rain 22 1022 60 16093 5.1 240 03:42 16.07.2019
5098 Thunderstorm 23 1022 56 16093 4.1 310 02:44 16.07.2019
5099 Thunderstorm 23 1022 56 16093 4.1 310 02:22 16.07.2019
5100 Rain 27 1023 56 16093 7.7 330 01:24 16.07.2019
5101 Thunderstorm 27 1022 26 16093 4.1 40 00:23 16.07.2019
5102 Thunderstorm 26 1022 26 16093 4.1 40 23:58 15.07.2019
5103 Rain 27 1022 27 16093 4.1 40 23:38 15.07.2019
5104 Clear 29 1022 28 16093 5.1 20 23:18 15.07.2019
5105 Clear 29 1022 25 16093 5.7 40 22:43 15.07.2019
5106 Clouds 31 1021 29 16093 8.7 40 22:20 15.07.2019
5107 Clear 31 1022 24 16093 7.2 40 22:20 15.07.2019
5108 Clear 31 1022 24 16093 7.2 40 21:57 15.07.2019
5109 Clouds 31 1022 25 16093 8.2 20 21:38 15.07.2019
5110 Clouds 31 1021 27 16093 10.3 40 21:19 15.07.2019
5111 Clouds 32 1021 21 32767 9.3 40 20:42 15.07.2019
5112 Clouds 32 1021 21 32767 9.3 40 20:22 15.07.2019
5113 Clouds 32 1021 19 32767 2.6 30 19:56 15.07.2019
5114 Clear 32 1021 22 16093 3.1 100 19:38 15.07.2019
5115 Clouds 32 1021 28 16093 2.1 90 19:18 15.07.2019
5116 Clear 30 1021 27 16093 2.17 87.512 18:43 15.07.2019
5117 Clouds 29 1021 32 16093 1.5 220 18:20 15.07.2019
5118 Clear 28 1021 32 16093 1.5 220 17:55 15.07.2019
5119 Clear 27 1021 36 16093 0.9 158.306 17:37 15.07.2019
5120 Clear 26 1021 50 16093 0.9 158.306 17:19 15.07.2019
5121 Clear 25 1021 56 16093 1.5 210 16:39 15.07.2019
5122 Clear 23 1021 56 16093 1.5 210 16:21 15.07.2019
5123 Clear 22 1022 68 16093 0.9 158.306 15:58 15.07.2019
5124 Clear 21 1022 77 16093 1.5 220 15:37 15.07.2019
5125 Clouds 19 1021 68 16093 3.1 200 15:19 15.07.2019
5126 Clouds 17 1021 63 16093 3.6 200 14:45 15.07.2019
5127 Clouds 17 1021 63 16093 3.6 200 14:26 15.07.2019
5128 Clear 17 1021 82 16093 2.38 285.734 13:57 15.07.2019
5129 Clear 17 1021 82 16093 2.38 285.734 13:36 15.07.2019
5130 Clear 17 1021 82 16093 2.8 279.143 13:18 15.07.2019
5131 Clear 17 1021 82 16093 2.8 279.143 12:41 15.07.2019
5132 Clear 17 1021 82 16093 1.69 176.707 12:21 15.07.2019
5133 Clear 18 1021 72 16093 1.69 176.707 11:43 15.07.2019
5134 Clear 18 1021 72 16093 1.69 176.707 11:25 15.07.2019
5135 Clear 18 1021 63 16093 2.6 280 10:47 15.07.2019
5136 Clear 18 1021 63 16093 3.1 190 10:28 15.07.2019
5137 Clear 19 1022 52 16093 1.69 176.707 09:48 15.07.2019
5138 Clear 19 1022 72 16093 2.76 270.083 09:28 15.07.2019
5139 Clear 20 1022 68 16093 1.5 170 08:59 15.07.2019
5140 Clear 20 1023 64 16093 2.6 250 08:41 15.07.2019
5141 Clear 20 1022 52 16093 4.1 300 08:23 15.07.2019
5142 Clear 21 1023 46 16093 2.1 260 07:39 15.07.2019
5143 Clouds 21 1023 41 16093 2.1 130 07:19 15.07.2019
5144 Clouds 22 1023 44 16093 2.6 200 06:39 15.07.2019
5145 Clouds 24 1023 34 16093 0.89 311.392 05:47 15.07.2019
5146 Clouds 24 1023 34 16093 0.89 311.392 05:27 15.07.2019
5147 Clouds 24 1022 47 16093 3.1 170 04:42 15.07.2019
5148 Clouds 26 1022 28 16093 0.89 311.392 03:48 15.07.2019
5149 Clouds 27 1022 32 16093 3.6 220 02:44 15.07.2019
5150 Clear 29 1022 20 16093 1.5 40 01:43 15.07.2019
5151 Clouds 29 1023 28 16093 4.6 280 01:24 15.07.2019
5152 Clouds 29 1022 27 32767 2.6 220 00:51 15.07.2019
5153 Clouds 28 1023 39 16093 2.6 210 00:19 15.07.2019
5154 Clouds 27 1023 39 16093 2.6 210 23:54 14.07.2019
5155 Clear 27 1023 32 16093 3.1 220 23:36 14.07.2019
5156 Rain 27 1023 33 16093 7.2 290 23:18 14.07.2019
5157 Rain 28 1024 32 16093 6.7 250 22:40 14.07.2019
5158 Rain 29 1024 32 16093 6.7 250 22:21 14.07.2019
5159 Thunderstorm 30 1023 26 32186 2.6 60 21:58 14.07.2019
5160 Thunderstorm 30 1023 26 32186 2.6 60 21:39 14.07.2019
5161 Clouds 30 1023 27 16093 2.1 40 21:18 14.07.2019
5162 Rain 31 1023 23 32767 2.1 80 21:18 14.07.2019
5163 Rain 31 1023 23 32767 2.1 80 20:54 14.07.2019
5164 Clear 31 1023 21 16093 3.1 100 20:36 14.07.2019
5165 Clouds 31 1024 21 16093 5.7 40 20:18 14.07.2019
5166 Clear 31 1023 22 16093 2.1 60 19:41 14.07.2019
5167 Clouds 30 1024 23 16093 2.6 350 19:23 14.07.2019
5168 Clear 29 1024 34 16093 1.5 10 18:45 14.07.2019
5169 Clear 28 1024 34 16093 1.5 10 18:27 14.07.2019
5170 Clear 27 1024 36 16093 1.61 21.729 17:59 14.07.2019
5171 Clear 27 1024 44 16093 1.61 21.729 17:39 14.07.2019
5172 Clouds 26 1024 44 16093 2.6 250 17:18 14.07.2019
5173 Clouds 25 1023 49 16093 3.6 210 16:46 14.07.2019
5174 Clear 24 1024 49 16093 1.5 340 16:23 14.07.2019
5175 Clear 24 1024 49 16093 1.5 340 16:23 14.07.2019
5176 Clouds 22 1023 60 16093 2.6 210 15:49 14.07.2019
5177 Clear 20 1023 63 16093 1.61 21.729 15:27 14.07.2019
5178 Clouds 18 1022 59 16093 4.1 180 14:48 14.07.2019
5179 Clouds 18 1022 59 16093 4.1 180 14:21 14.07.2019
5180 Clear 18 1022 48 16093 3.1 270 13:47 14.07.2019
5181 Clear 18 1022 63 16093 1.5 180 13:25 14.07.2019
5182 Clear 19 1022 59 16093 2.1 210 12:58 14.07.2019
5183 Clear 19 1022 59 16093 3.1 200 12:40 14.07.2019
5184 Clear 19 1022 59 16093 3.6 240 12:19 14.07.2019
5185 Clear 19 1022 52 16093 3.6 200 11:51 14.07.2019
5186 Clear 19 1022 46 16093 3.1 190 11:22 14.07.2019
5187 Clear 19 1022 40 16093 1.5 170 10:46 14.07.2019
5188 Clear 19 1022 40 16093 1.5 170 10:21 14.07.2019
5189 Clear 19 1023 46 16093 2.1 210 09:49 14.07.2019
5190 Clear 19 1023 46 16093 2.1 210 09:30 14.07.2019
5191 Clear 20 1023 52 16093 2.6 190 08:48 14.07.2019
5192 Clear 20 1024 52 16093 4.6 200 08:30 14.07.2019
5193 Rain 20 1024 60 16093 3.6 220 07:43 14.07.2019
5194 Rain 20 1024 60 16093 5.7 180 07:21 14.07.2019
5195 Rain 21 1025 49 16093 3.6 190 05:46 14.07.2019
5196 Rain 20 1023 68 14484 4.1 170 03:58 14.07.2019
5197 Rain 21 1021 44 16093 8.7 120 03:39 14.07.2019
5198 Rain 25 1022 41 16093 3.6 160 03:21 14.07.2019
5199 Rain 30 1021 28 16093 1.5 350 02:23 14.07.2019
5200 Thunderstorm 30 1021 27 16093 2.6 330 01:53 14.07.2019
5201 Thunderstorm 31 1021 27 16093 6.44 108.432 01:27 14.07.2019
5202 Rain 31 1021 23 16093 4.6 330 00:41 14.07.2019
5203 Rain 32 1020 12 16093 1.5 180 00:20 14.07.2019
5204 Clouds 33 1021 22 32186 8.2 340 23:57 13.07.2019
5205 Clear 33 1022 22 16093 7.2 360 23:38 13.07.2019
5206 Clear 33 1022 22 16093 7.2 360 23:20 13.07.2019
5207 Clear 34 1022 25 16093 5.7 340 22:41 13.07.2019
5208 Clouds 35 1021 16 16093 3.6 210 22:21 13.07.2019
5209 Clear 34 1022 18 16093 1.5 50 21:48 13.07.2019
5210 Clouds 33 1021 16 16093 2.6 130 21:21 13.07.2019
5211 Clear 33 1022 25 16093 2.6 110 20:51 13.07.2019
5212 Clear 32 1022 25 16093 2.6 110 20:33 13.07.2019
5213 Clear 30 1023 28 16093 2.46 113.131 19:50 13.07.2019
5214 Clear 29 1023 28 16093 2.46 113.131 19:30 13.07.2019
5215 Clear 27 1023 41 16093 2.46 113.131 18:47 13.07.2019
5216 Clear 26 1023 41 16093 1.21 113.161 18:28 13.07.2019
5217 Clouds 25 1023 38 32767 1.5 150 17:56 13.07.2019
5218 Clouds 25 1023 38 32767 1.5 150 17:56 13.07.2019
5219 Clear 24 1024 53 16093 1.21 113.161 17:37 13.07.2019
5220 Clouds 24 1023 43 16093 2.1 220 17:18 13.07.2019
5221 Clouds 22 1023 56 16093 2.1 180 16:42 13.07.2019
5222 Clear 21 1024 63 16093 1.21 113.161 16:23 13.07.2019
5223 Clouds 19 1023 48 16093 2.1 360 15:46 13.07.2019
5224 Clear 18 1024 77 16093 0.81 354.113 15:23 13.07.2019
5225 Clouds 16 1022 59 16093 2.6 340 14:46 13.07.2019
5226 Clouds 16 1022 59 16093 2.6 340 14:26 13.07.2019
5227 Clear 16 1022 55 16093 3.1 350 13:56 13.07.2019
5228 Clear 16 1023 82 16093 1.51 98.813 13:37 13.07.2019
5229 Clear 16 1022 48 16093 1.51 98.813 13:18 13.07.2019
5230 Clear 17 1022 67 16093 1.51 98.813 12:40 13.07.2019
5231 Clear 17 1022 67 16093 1.51 98.813 12:40 13.07.2019
5232 Clear 17 1022 67 16093 3.4 324.155 12:22 13.07.2019
5233 Clear 17 1022 67 16093 3.4 324.155 12:22 13.07.2019
5234 Clear 18 1022 63 16093 3.4 324.155 11:52 13.07.2019
5235 Clear 18 1022 51 16093 1.5 270 11:20 13.07.2019
5236 Clear 18 1023 59 16093 1.5 210 10:45 13.07.2019
5237 Clear 18 1022 63 16093 2.6 90 10:24 13.07.2019
5238 Clear 18 1022 63 16093 2.6 90 09:59 13.07.2019
5239 Clear 18 1022 52 16093 3.4 324.155 09:40 13.07.2019
5240 Clear 18 1022 52 16093 2.1 220 09:18 13.07.2019
5241 Clear 19 1022 59 16093 3.1 200 08:36 13.07.2019
5242 Clear 19 1022 52 16093 4.1 270 08:18 13.07.2019
5243 Clear 20 1023 59 16093 1.5 210 07:30 13.07.2019
5244 Clear 21 1023 55 16093 2.1 170 06:41 13.07.2019
5245 Clear 22 1023 46 16093 2.1 180.082 05:58 13.07.2019
5246 Clear 23 1023 43 16093 1.5 20 05:28 13.07.2019
5247 Clear 25 1022 24 16093 5.1 120 04:23 13.07.2019
5248 -273 0 0 0 0 0 03:56 13.07.2019
5249 Clear 26 1022 26 16093 6.7 120 03:37 13.07.2019
5250 Thunderstorm 29 1021 20 16093 2.67 246.9 01:55 13.07.2019
5251 Thunderstorm 29 1021 25 16093 2.1 320 01:37 13.07.2019
5252 Thunderstorm 29 1022 44 16093 4.1 110 01:18 13.07.2019
5253 Rain 29 1022 28 16093 6.7 290 00:51 13.07.2019
5254 Thunderstorm 30 1022 19 32767 7.2 320 00:19 13.07.2019
5255 Thunderstorm 31 1022 16 16093 4.1 360 23:44 12.07.2019
5256 Thunderstorm 32 1022 16 16093 4.1 360 23:25 12.07.2019
5257 Clear 33 1022 18 16093 5.1 360 22:46 12.07.2019
5258 Clear 33 1022 18 16093 5.1 360 22:24 12.07.2019
5259 Clear 33 1023 18 16093 2.6 40 21:43 12.07.2019
5260 Clear 32 1023 18 16093 2.6 40 21:22 12.07.2019
5261 Clouds 32 1023 18 32767 3.1 320 20:54 12.07.2019
5262 Clear 32 1023 18 16093 4.6 30 20:24 12.07.2019
5263 Clear 32 1023 19 16093 3.1 340 19:59 12.07.2019
5264 Clear 32 1023 19 16093 1.5 10 19:41 12.07.2019
5265 Clear 32 1023 19 16093 1.5 10 19:23 12.07.2019
5266 Clear 30 1023 18 16093 4.86 81.342 18:41 12.07.2019
5267 Clouds 29 1022 23 16093 2.6 280 18:21 12.07.2019
5268 -273 0 0 0 0 0 17:49 12.07.2019
5269 Clear 28 1023 26 16093 1.5 50 17:28 12.07.2019
5270 Clear 26 1023 27 16093 0.54 295.336 16:45 12.07.2019
5271 Clouds 25 1022 33 16093 4.6 210 16:21 12.07.2019
5272 Clear 23 1022 45 16093 0.54 295.336 15:42 12.07.2019
5273 Clouds 21 1022 35 16093 4.6 210 15:22 12.07.2019
5274 Clouds 20 1022 40 16093 5.1 190 14:57 12.07.2019
5275 Clear 19 1022 55 16093 2.36 294.086 14:38 12.07.2019
5276 Clouds 19 1022 40 16093 5.1 190 14:20 12.07.2019
5277 Clear 20 1022 42 16093 2.1 210 13:42 12.07.2019
5278 Clear 20 1022 37 16093 2.6 230 13:20 12.07.2019
5279 Clear 20 1022 34 16093 3.6 190 12:40 12.07.2019
5280 Clear 20 1022 34 16093 3.6 190 12:40 12.07.2019
5281 Clear 21 1022 34 16093 3.6 190 12:21 12.07.2019
5282 Clear 21 1022 30 16093 3.6 230 11:45 12.07.2019
5283 Clear 22 1022 30 16093 3.6 230 11:23 12.07.2019
5284 Clear 22 1022 33 16093 4.1 170 10:44 12.07.2019
5285 Clear 22 1022 37 16093 1.5 340 10:25 12.07.2019
5286 Clear 22 1022 37 16093 1.5 340 09:55 12.07.2019
5287 Clear 22 1022 40 16093 2.6 220 09:31 12.07.2019
5288 Clear 23 1022 37 16093 1.5 210 09:00 12.07.2019
5289 Clear 23 1023 31 16093 2.6 230 08:41 12.07.2019
5290 Rain 24 1023 35 16093 4.6 260 08:19 12.07.2019
5291 Rain 25 1024 22 16093 4.1 310 07:46 12.07.2019
5292 Rain 26 1023 28 16093 5.7 290 07:26 12.07.2019
5293 Rain 27 1023 13 16093 4.1 10 06:29 12.07.2019
5294 Rain 27 1022 14 16093 4.1 240 05:48 12.07.2019
5295 Clouds 31 1022 16 16093 3.1 60 03:23 12.07.2019
5296 Clouds 32 1022 15 16093 3.1 70 01:45 12.07.2019
5297 Clouds 33 1023 13 16093 1.46 308.519 01:26 12.07.2019
5298 Clear 34 1022 10 16093 2.1 30 00:30 12.07.2019
5299 Clear 34 1023 12 16093 2.6 40 23:50 11.07.2019
5300 Clear 34 1023 12 16093 2.6 40 23:26 11.07.2019
5301 Clouds 34 1023 13 16093 5.33 75.051 22:58 11.07.2019
5302 Clear 34 1023 12 16093 2.6 40 22:39 11.07.2019
5303 Clear 34 1023 12 16093 2.6 40 22:21 11.07.2019
5304 Clear 34 1024 12 16093 3.1 30 21:41 11.07.2019
5305 Clouds 33 1024 14 16093 4.6 10 21:19 11.07.2019
5306 Clear 33 1025 18 16093 2.42 105.099 20:55 11.07.2019
5307 Clear 33 1025 18 16093 2.42 105.099 20:36 11.07.2019
5308 Clear 32 1025 25 16093 2.42 105.099 20:18 11.07.2019
5309 Clear 32 1025 23 16093 1.5 50 19:43 11.07.2019
5310 Clouds 31 1026 23 16093 3.1 330 19:23 11.07.2019
5311 Clouds 30 1026 34 16093 2.6 0 18:49 11.07.2019
5312 Clear 29 1026 32 16093 2.42 105.099 18:31 11.07.2019
5313 Clouds 27 1026 50 16093 4.1 200 17:55 11.07.2019
5314 Clouds 27 1026 50 16093 4.1 200 17:37 11.07.2019
5315 Clouds 26 1027 41 16093 3.6 220 17:19 11.07.2019
5316 Clouds 25 1026 56 16093 5.7 190 16:43 11.07.2019
5317 Clouds 23 1026 56 16093 5.7 190 16:22 11.07.2019
5318 Clouds 21 1026 77 16093 6.7 180 15:44 11.07.2019
5319 Clear 19 1027 77 16093 0.67 325.553 15:25 11.07.2019
5320 Clear 17 1027 87 16093 0.67 325.553 14:59 11.07.2019
5321 Clear 17 1027 87 16093 0.67 325.553 14:39 11.07.2019
5322 Clear 16 1027 87 16093 0.67 325.553 14:19 11.07.2019
5323 Clear 16 1027 87 16093 0.67 325.553 13:45 11.07.2019
5324 Clear 16 1026 59 16093 1.5 310 13:25 11.07.2019
5325 Clear 17 1027 82 16093 0.21 261.442 12:39 11.07.2019
5326 Clear 17 1026 52 16093 0.88 255.442 12:20 11.07.2019
5327 Clear 17 1027 59 16093 2.6 250 11:52 11.07.2019
5328 Clear 18 1027 72 16093 0.88 255.442 11:30 11.07.2019
5329 Clear 18 1028 72 16093 1.5 220 10:54 11.07.2019
5330 Clear 18 1027 59 16093 1.5 220 10:21 11.07.2019
5331 Clear 18 1028 72 16093 0.88 255.442 09:58 11.07.2019
5332 Clear 18 1028 67 16093 1.5 270 09:39 11.07.2019
5333 Clear 19 1028 67 16093 1.5 270 09:21 11.07.2019
5334 Clear 19 1028 63 16093 1.61 188.09 08:49 11.07.2019
5335 Clear 19 1028 63 16093 1.61 188.09 08:22 11.07.2019
5336 Clear 20 1028 59 16093 2.6 290 07:46 11.07.2019
5337 Clear 21 1028 46 16093 2.1 330 07:28 11.07.2019
5338 Clear 22 1028 40 16093 5.7 320 06:21 11.07.2019
5339 Clear 23 1028 52 16093 3.1 340 05:43 11.07.2019
5340 Clear 24 1028 52 16093 3.1 340 05:24 11.07.2019
5341 Clear 27 1027 25 16093 3.6 40 03:58 11.07.2019
5342 Clear 30 1027 23 16093 4.1 40 02:34 11.07.2019
5343 Clear 30 1027 20 16093 3.6 100 00:48 11.07.2019
5344 Clear 30 1028 22 16093 3.6 90 23:52 10.07.2019
5345 Clear 29 1028 21 16093 1.5 50 23:31 10.07.2019
5346 Clouds 29 1028 26 32767 1.5 120 22:58 10.07.2019
5347 Clear 29 1028 23 16093 2.6 70 22:27 10.07.2019
5348 Clear 28 1029 24 16093 3.1 140 21:59 10.07.2019
5349 Clear 28 1029 24 16093 3.1 120 21:39 10.07.2019
5350 Clouds 27 1029 30 16093 4.6 150 21:21 10.07.2019
5351 Clear 26 1030 31 16093 2.6 150 20:48 10.07.2019
5352 Clear 25 1030 31 16093 2.6 150 20:27 10.07.2019
5353 Clear 25 1030 31 16093 4.1 170 19:59 10.07.2019
5354 Clear 24 1030 35 16093 3.6 130 19:40 10.07.2019
5355 Clear 24 1030 35 16093 3.6 130 19:21 10.07.2019
5356 Clear 23 1031 37 16093 2.6 150 18:46 10.07.2019
5357 Clear 22 1031 37 16093 2.6 150 18:24 10.07.2019
5358 Clear 21 1030 45 32767 2.1 130 17:49 10.07.2019
5359 Clear 20 1031 45 16093 1.5 140 17:30 10.07.2019
5360 Clear 19 1031 52 16093 1.5 100 16:48 10.07.2019
5361 Clouds 18 1030 63 16093 4.1 140 16:21 10.07.2019
5362 Clear 17 1031 82 16093 2.09 118.567 15:47 10.07.2019
5363 Clear 17 1031 82 16093 2.09 118.567 15:47 10.07.2019
5364 -273 0 0 0 0 0 15:26 10.07.2019
5365 Clear 15 1031 82 16093 1.33 72.385 15:26 10.07.2019
5366 Clouds 14 1030 72 32767 1.33 72.385 14:55 10.07.2019
5367 Clear 13 1030 93 16093 1.33 72.385 14:37 10.07.2019
5368 Clouds 13 1029 87 16093 1.5 120 14:18 10.07.2019
5369 Clear 13 1030 87 16093 1.33 72.385 13:37 10.07.2019
5370 Clear 14 1029 59 16093 2.44 49.993 13:18 10.07.2019
5371 Clear 14 1029 67 16093 1.5 290 12:41 10.07.2019
5372 Clear 15 1029 67 16093 1.5 290 12:21 10.07.2019
5373 Clouds 16 1029 82 16093 4.2 321.263 11:49 10.07.2019
5374 Clouds 16 1029 82 16093 4.2 321.263 11:22 10.07.2019
5375 Clear 16 1029 77 16093 4.2 321.263 10:58 10.07.2019
5376 Clear 16 1029 77 16093 4.2 321.263 10:58 10.07.2019
5377 Clear 17 1029 67 16093 4.2 321.263 10:24 10.07.2019
5378 Clear 17 1029 72 16093 1.5 340 09:57 10.07.2019
5379 Clear 17 1029 72 16093 1.5 350 09:38 10.07.2019
5380 Clear 18 1028 63 16093 2.6 340 09:19 10.07.2019
5381 Clear 18 1027 55 16093 3.6 340 08:49 10.07.2019
5382 Clear 19 1028 63 16093 2.1 340 08:24 10.07.2019
5383 Clear 19 1027 45 16093 4.6 340 07:51 10.07.2019
5384 Clear 20 1027 52 16093 2.1 330 07:23 10.07.2019
5385 Clear 21 1025 40 16093 2.6 10 06:39 10.07.2019
5386 Clear 24 1023 25 16093 2.1 280 05:40 10.07.2019
5387 Clear 28 1022 13 16093 3.6 20 04:31 10.07.2019
5388 Clouds 31 1020 11 16093 4.6 340 02:20 10.07.2019
5389 Clear 32 1020 11 16093 6.2 300 00:44 10.07.2019
5390 Clear 32 1020 11 16093 0.71 90.081 23:42 09.07.2019
5391 Clear 31 1020 11 16093 0.71 90.081 23:24 09.07.2019
5392 Clear 31 1020 11 16093 0.71 90.081 22:57 09.07.2019
5393 Clear 31 1020 12 16093 0.71 90.081 22:38 09.07.2019
5394 Clear 31 1020 12 16093 0.71 90.081 22:20 09.07.2019
5395 Clear 30 1020 11 16093 3.6 110 21:46 09.07.2019
5396 Clear 30 1020 14 16093 3.6 110 21:26 09.07.2019
5397 Clear 29 1021 20 16093 3.6 190 20:45 09.07.2019
5398 Clouds 28 1021 21 16093 3.6 180 20:26 09.07.2019
5399 Clear 28 1021 24 16093 3.6 140 19:56 09.07.2019
5400 Clear 27 1021 24 16093 3.6 140 19:36 09.07.2019
5401 Clouds 27 1021 29 32767 3.1 140 19:18 09.07.2019
5402 Clear 25 1022 29 16093 3.6 170 18:38 09.07.2019
5403 Clouds 25 1022 38 16093 0.66 357.93 18:19 09.07.2019
5404 Clear 23 1022 33 16093 3.1 170 17:43 09.07.2019
5405 Clouds 22 1022 46 16093 2.6 210 17:21 09.07.2019
5406 Clear 19 1022 37 32767 2.6 170 16:55 09.07.2019
5407 Clear 19 1022 49 32767 2.1 70 16:36 09.07.2019
5408 Clear 19 1021 48 16093 1.5 0 16:18 09.07.2019
5409 Clear 18 1022 72 16093 0.66 357.93 15:40 09.07.2019
5410 Clear 16 1022 72 16093 1.43 308.748 15:22 09.07.2019
5411 Clear 13 1021 81 16093 1.5 240 14:43 09.07.2019
5412 Clouds 13 1021 100 16093 3.1 190 14:22 09.07.2019
5413 Clear 13 1021 54 16093 1.43 308.748 13:46 09.07.2019
5414 Clear 13 1021 87 16093 1.57 291.665 13:28 09.07.2019
5415 Clear 13 1021 87 16093 1.57 291.665 12:57 09.07.2019
5416 Clear 14 1020 55 16093 4.6 340 12:37 09.07.2019
5417 Clouds 14 1020 87 16093 2.1 320 12:18 09.07.2019
5418 Clear 14 1020 82 16093 2.58 254.589 11:41 09.07.2019
5419 Clear 14 1020 82 16093 2.58 254.589 11:22 09.07.2019
5420 Clear 15 1020 76 16093 1.5 10 10:58 09.07.2019
5421 Clear 15 1019 67 16093 2.58 254.589 10:35 09.07.2019
5422 Clear 15 1019 72 16093 1.5 210 09:56 09.07.2019
5423 Clear 15 1019 59 16093 2.58 254.589 09:37 09.07.2019
5424 Clear 16 1018 55 16093 1.5 220 09:19 09.07.2019
5425 Clouds 16 1018 72 16093 4.1 110 08:41 09.07.2019
5426 Rain 19 1018 82 16093 2.62 178.58 04:19 05.07.2019
5427 Rain 20 1018 56 11265 4.6 90 03:39 05.07.2019
5428 Rain 20 1018 72 16093 4.6 270 03:20 05.07.2019
5429 Rain 20 1018 72 16093 4.6 270 02:51 05.07.2019
5430 Rain 27 1016 64 9656 6.2 90 01:56 05.07.2019
5431 Thunderstorm 28 1017 42 16093 2.1 350 01:28 05.07.2019
5432 Thunderstorm 28 1017 39 16093 4.1 100 00:51 05.07.2019
5433 Clear 29 1018 35 16093 3.1 90 00:29 05.07.2019
5434 Clear 28 1018 37 16093 1.5 120 23:39 04.07.2019
5435 Clouds 28 1017 42 16093 5.1 50 23:18 04.07.2019
5436 Clear 27 1019 47 16093 3.74 91.593 22:41 04.07.2019
5437 Clouds 26 1019 50 16093 3.1 320 22:20 04.07.2019
5438 Clouds 25 1020 50 16093 3.74 91.593 21:44 04.07.2019
5439 Clouds 25 1020 50 16093 3.01 50.221 21:26 04.07.2019
5440 Clouds 24 1019 57 24140 2.6 50 20:59 04.07.2019
5441 Clouds 24 1018 60 16093 3.06 74.34 20:37 04.07.2019
5442 Clouds 23 1019 60 16093 3.1 20 20:19 04.07.2019
5443 Clouds 23 1020 60 12874 4.6 20 19:41 04.07.2019
5444 Clouds 22 1020 60 12874 4.6 20 19:21 04.07.2019
5445 Clouds 22 1018 73 12874 3.1 30 18:55 04.07.2019
5446 Clouds 21 1018 77 12874 2.6 350 18:36 04.07.2019
5447 Clouds 21 1019 60 16093 5.1 360 18:18 04.07.2019
5448 Clouds 21 1018 82 16093 4.6 340 17:41 04.07.2019
5449 Clouds 20 1018 82 16093 4.6 340 17:18 04.07.2019
5450 Clouds 19 1018 77 32767 6.2 330 15:45 04.07.2019
5451 Clouds 17 1018 77 32767 6.2 330 15:25 04.07.2019
5452 Clouds 17 1017 82 32767 6.7 330 14:59 04.07.2019
5453 Clouds 17 1016 63 16093 3.1 320 14:39 04.07.2019
5454 Clouds 16 1016 63 16093 3.1 320 14:20 04.07.2019
5455 Clear 16 1016 59 16093 5.7 340 13:57 04.07.2019
5456 Clear 16 1016 52 16093 6.2 340 13:38 04.07.2019
5457 Clear 16 1016 52 16093 6.2 340 13:19 04.07.2019
5458 Clear 16 1016 52 16093 6.2 340 13:19 04.07.2019
5459 Clear 16 1014 52 16093 3.1 350 12:39 04.07.2019
5460 Clear 16 1014 52 16093 3.1 350 12:19 04.07.2019
5461 Clouds 17 1014 63 16093 4.1 170 11:46 04.07.2019
5462 Clear 17 1014 30 16093 2.1 350 11:20 04.07.2019
5463 Clear 18 1014 30 16093 1.5 360 10:56 04.07.2019
5464 Clear 18 1014 30 16093 1.5 360 10:56 04.07.2019
5465 Clear 18 1014 34 16093 2.1 10 10:38 04.07.2019
5466 Clear 19 1014 34 16093 2.1 10 10:18 04.07.2019
5467 Clear 19 1014 37 16093 2.1 240 10:18 04.07.2019
5468 Clear 20 1014 30 16093 1.5 250 09:38 04.07.2019
5469 Clear 20 1014 30 16093 1.5 250 09:19 04.07.2019
5470 Clear 21 1014 35 16093 2.1 250 08:52 04.07.2019
5471 Clear 22 1014 35 16093 2.1 250 08:18 04.07.2019
5472 Clouds 25 1014 33 16093 3.6 230 07:40 04.07.2019
5473 Clouds 25 1014 33 16093 3.6 230 07:19 04.07.2019
5474 Clear 24 1014 52 16093 1.5 200 06:32 04.07.2019
5475 Rain 26 1013 31 16093 2.1 270 05:43 04.07.2019
5476 Clear 28 1013 19 16093 1.5 120 04:28 04.07.2019
5477 Clear 31 1013 13 16093 2.1 120 02:23 04.07.2019
5478 Clear 32 1013 10 16093 3.13 260.474 01:26 04.07.2019
5479 Clear 32 1013 11 16093 1.5 90 00:41 04.07.2019
5480 Clear 31 1014 19 16093 2.6 210 23:52 03.07.2019
5481 Clouds 32 1014 15 16093 3.1 60 23:21 03.07.2019
5482 Clear 32 1014 20 16093 2.6 360 22:56 03.07.2019
5483 Clear 32 1014 15 16093 3.6 20 22:38 03.07.2019
5484 Clouds 32 1014 17 16093 3.1 40 22:20 03.07.2019
5485 Clouds 32 1014 17 16093 3.1 40 22:20 03.07.2019
5486 Clear 32 1014 18 16093 2.1 30 21:54 03.07.2019
5487 Clear 31 1015 20 16093 3.1 40 21:36 03.07.2019
5488 Clear 31 1015 18 16093 2.6 170 20:49 03.07.2019
5489 Clear 31 1015 19 16093 3.6 150 20:31 03.07.2019
5490 Clear 30 1016 23 16093 3.6 120 19:59 03.07.2019
5491 Clear 30 1016 23 16093 3.6 120 19:40 03.07.2019
5492 Clouds 30 1016 28 16093 2.6 180 19:20 03.07.2019
5493 Clear 28 1016 23 16093 1.5 130 18:44 03.07.2019
5494 Clouds 27 1016 28 32767 3.1 190 18:22 03.07.2019
5495 Clear 25 1016 31 16093 1.5 230 17:49 03.07.2019
5496 Clouds 24 1016 41 16093 4.1 230 17:19 03.07.2019
5497 Clear 23 1017 46 16093 1.46 205.445 16:57 03.07.2019
5498 Clear 22 1017 56 16093 1.46 205.445 16:39 03.07.2019
5499 Clouds 21 1016 49 32186 2.1 40 16:18 03.07.2019
5500 Clear 19 1017 72 16093 1.46 205.445 15:42 03.07.2019
5501 Clear 18 1017 72 16093 1.22 242.719 15:24 03.07.2019
5502 Clear 15 1017 82 16093 2.1 230 14:43 03.07.2019
5503 Clear 15 1017 82 16093 2.1 230 14:20 03.07.2019
5504 Clear 15 1016 82 16093 2.74 280.6 13:46 03.07.2019
5505 Clear 15 1016 82 16093 2.74 280.6 13:27 03.07.2019
5506 Clear 15 1016 72 16093 2.74 280.6 12:51 03.07.2019
5507 Clear 15 1016 82 16093 1.5 180 12:19 03.07.2019
5508 Clear 15 1016 87 16093 0.07 105.255 11:43 03.07.2019
5509 Clear 15 1016 87 16093 0.07 105.255 11:24 03.07.2019
5510 Clear 15 1016 55 16093 1.5 230 10:58 03.07.2019
5511 Clear 15 1017 55 16093 0.07 105.255 10:37 03.07.2019
5512 Clear 16 1017 55 16093 0.07 105.255 10:19 03.07.2019
5513 Clear 16 1017 82 16093 2.1 210 09:40 03.07.2019
5514 Clear 16 1018 67 16093 1.73 312.7 09:20 03.07.2019
5515 Clear 17 1018 67 16093 1.73 312.7 08:52 03.07.2019
5516 Clear 17 1018 67 16093 1.5 360 08:31 03.07.2019
5517 Clear 17 1018 67 16093 1.83 338.222 07:45 03.07.2019
5518 Clouds 18 1018 63 16093 2.1 150 07:27 03.07.2019
5519 Clear 19 1018 55 16093 1.5 330 06:27 03.07.2019
5520 Clear 21 1017 43 16093 4 188.97 05:34 03.07.2019
5521 Clear 23 1016 29 16093 3.1 180 04:41 03.07.2019
5522 Clouds 25 1016 41 16093 4.6 210 03:24 03.07.2019
5523 Rain 25 1016 34 32767 4.6 160 01:59 03.07.2019
5524 Rain 25 1017 53 16093 3.6 130 01:21 03.07.2019
5525 Thunderstorm 25 1017 30 16093 3.6 150 00:46 03.07.2019
5526 Rain 26 1018 32 16093 2.1 140 00:18 03.07.2019
5527 Thunderstorm 27 1017 26 16093 3.6 80 23:38 02.07.2019
5528 Thunderstorm 27 1018 44 16093 3.6 290 23:20 02.07.2019
5529 Thunderstorm 27 1018 44 16093 3.6 290 22:56 02.07.2019
5530 Rain 27 1019 47 16093 3.6 300 22:38 02.07.2019
5531 Rain 27 1019 44 16093 3.1 310 22:19 02.07.2019
5532 Clear 28 1019 28 16093 2.1 60 21:43 02.07.2019
5533 Clear 28 1019 30 16093 1.65 110.536 21:23 02.07.2019
5534 Clouds 28 1018 32 16093 5.1 130 20:58 02.07.2019
5535 Clear 28 1020 41 16093 1.5 90 20:39 02.07.2019
5536 Clear 27 1020 44 16093 2.1 330 20:20 02.07.2019
5537 Clear 27 1020 47 16093 2.1 230 19:42 02.07.2019
5538 Clear 26 1020 47 16093 2.1 230 19:23 02.07.2019
5539 Clear 25 1021 53 16093 1.5 270 18:50 02.07.2019
5540 Clear 24 1021 56 16093 1.21 171.903 18:19 02.07.2019
5541 Clear 22 1021 64 16093 2.6 160 17:44 02.07.2019
5542 Clear 22 1021 64 16093 2.6 160 17:24 02.07.2019
5543 Clouds 21 1021 77 32186 2.1 130 16:54 02.07.2019
5544 Clear 20 1021 77 16093 1.21 171.903 16:35 02.07.2019
5545 Clear 17 1021 87 16093 1.21 171.903 15:48 02.07.2019
5546 Clear 16 1021 87 16093 0.64 284.88 15:27 02.07.2019
5547 Clouds 14 1020 87 32186 0.64 284.88 14:57 02.07.2019
5548 Clear 14 1021 93 16093 0.64 284.88 14:39 02.07.2019
5549 Clouds 14 1020 100 16093 2.6 190 14:20 02.07.2019
5550 Clear 14 1021 93 16093 1.5 160 13:40 02.07.2019
5551 Clear 14 1022 93 16093 2.1 220 13:18 02.07.2019
5552 Clear 14 1022 93 16093 2.1 230 12:44 02.07.2019
5553 Clear 14 1022 93 16093 1.5 180 12:22 02.07.2019
5554 Clear 15 1022 93 16093 0.41 325.076 11:44 02.07.2019
5555 Clear 15 1022 93 16093 0.41 325.076 11:44 02.07.2019
5556 Clear 15 1022 93 16093 0.41 325.076 11:23 02.07.2019
5557 Clouds 15 1022 93 16093 3.6 340 10:54 02.07.2019
5558 Clouds 15 1022 93 16093 4.1 340 10:27 02.07.2019
5559 Clouds 16 1023 88 16093 1.5 40 09:51 02.07.2019
5560 Clouds 16 1022 82 16093 0.32 83.008 09:22 02.07.2019
5561 Thunderstorm 16 1022 82 16093 2.6 150 08:56 02.07.2019
5562 Thunderstorm 17 1023 88 16093 3.6 70 08:36 02.07.2019
5563 Thunderstorm 17 1021 82 16093 3.6 220 07:58 02.07.2019
5564 Thunderstorm 17 1021 88 16093 2.6 270 07:21 02.07.2019
5565 Thunderstorm 17 1023 93 16093 4.1 280 06:55 02.07.2019
5566 Thunderstorm 18 1023 93 16093 4.1 280 06:36 02.07.2019
5567 Rain 19 1022 88 11265 4.1 10 05:26 02.07.2019
5568 Rain 21 1020 44 16093 2.6 200 02:37 02.07.2019
5569 Rain 24 1021 39 16093 4.1 80 00:26 02.07.2019
5570 Thunderstorm 27 1020 39 16093 7.2 130 23:30 01.07.2019
5571 Rain 28 1020 34 16093 4.6 90 22:54 01.07.2019
5572 Clouds 29 1021 32 16093 4.1 90 22:28 01.07.2019
5573 Clouds 28 1021 32 16093 4.1 120 21:56 01.07.2019
5574 Clear 28 1022 34 16093 2.1 120 21:37 01.07.2019
5575 Clear 28 1022 34 16093 1.5 80 21:19 01.07.2019
5576 Clear 28 1022 37 16093 4.1 80 20:45 01.07.2019
5577 Clouds 27 1022 44 16093 3.6 60 20:20 01.07.2019
5578 Clear 26 1022 41 16093 2.6 110 19:44 01.07.2019
5579 Clear 26 1023 44 16093 1.79 125.952 19:25 01.07.2019
5580 Clear 25 1023 44 16093 1.79 125.952 18:56 01.07.2019
5581 Clear 25 1023 47 16093 1.79 125.952 18:37 01.07.2019
5582 Clear 23 1023 53 16093 1.5 200 18:19 01.07.2019
5583 Clear 22 1023 60 16093 1.5 230 17:43 01.07.2019
5584 Clear 22 1023 60 16093 1.5 230 17:23 01.07.2019
5585 Clear 21 1023 64 16093 1.03 222.51 16:48 01.07.2019
5586 Clouds 20 1022 88 16093 1.03 222.51 16:27 01.07.2019
5587 Clear 19 1023 77 16093 1.03 222.51 15:57 01.07.2019
5588 Clouds 18 1022 100 16093 1.03 222.51 15:38 01.07.2019
5589 Clouds 18 1022 100 16093 1.59 288.116 15:20 01.07.2019
5590 Clouds 15 1022 100 16093 1.5 290 14:43 01.07.2019
5591 Clouds 15 1022 100 16093 1.5 290 14:20 01.07.2019
5592 Clouds 15 1023 87 16093 1.59 288.116 13:44 01.07.2019
5593 Clouds 16 1022 93 16093 2.6 240 13:23 01.07.2019
5594 Clear 16 1022 87 16093 0.2 335.323 12:55 01.07.2019
5595 Clear 16 1022 87 16093 1.5 300 12:36 01.07.2019
5596 Clouds 17 1022 100 16093 3.1 230 12:18 01.07.2019
5597 Rain 17 1022 88 16093 3.6 340 11:43 01.07.2019
5598 Rain 18 1022 100 16093 2.66 307.349 11:20 01.07.2019
5599 Clear 18 1023 88 16093 2.66 307.349 10:47 01.07.2019
5600 Clear 18 1022 82 16093 1.5 20 10:24 01.07.2019
5601 Clear 18 1022 88 16093 2.1 20 09:58 01.07.2019
5602 Clear 18 1022 63 16093 2.66 307.349 09:39 01.07.2019
5603 Clouds 18 1022 82 16093 2.6 230 09:20 01.07.2019
5604 Clear 18 1022 68 16093 2.1 290 08:37 01.07.2019
5605 Clouds 18 1022 64 16093 2.23 67.364 07:40 01.07.2019
5606 Clouds 19 1023 100 16093 3.1 160 07:20 01.07.2019
5607 Rain 20 1023 88 16093 3.6 140 05:43 01.07.2019
5608 Rain 22 1021 88 12874 5.1 240 01:29 01.07.2019
5609 Thunderstorm 27 1022 36 16093 9.3 220 00:47 01.07.2019
5610 Thunderstorm 27 1021 34 16093 5.7 300 00:24 01.07.2019
5611 Thunderstorm 28 1020 27 16093 4.6 350 23:40 30.06.2019
5612 Thunderstorm 28 1020 27 16093 4.6 350 23:20 30.06.2019
5613 Rain 29 1021 20 16093 3.1 20 22:43 30.06.2019
5614 Rain 30 1021 23 16093 2.1 20 22:20 30.06.2019
5615 Rain 31 1021 15 16093 4.1 40 21:42 30.06.2019
5616 Rain 32 1021 17 16093 1.5 10 21:20 30.06.2019
5617 Clear 32 1022 17 16093 4.6 30 20:55 30.06.2019
5618 Clouds 32 1022 23 16093 2.6 350 20:37 30.06.2019
5619 Clouds 32 1022 23 16093 2.6 350 20:18 30.06.2019
5620 Clouds 31 1022 28 16093 1.17 66.455 19:44 30.06.2019
5621 Clouds 31 1022 28 16093 1.17 66.455 19:24 30.06.2019
5622 Clear 28 1023 25 16093 0.89 33.368 18:26 30.06.2019
5623 Clear 27 1023 26 16093 0.89 33.368 17:59 30.06.2019
5624 Clear 26 1023 28 16093 1.5 120 17:39 30.06.2019
5625 Clear 26 1023 28 16093 1.5 120 17:18 30.06.2019
5626 Clear 24 1023 38 16093 0.89 33.368 16:48 30.06.2019
5627 Clear 23 1023 38 16093 0.89 33.368 16:26 30.06.2019
5628 Clouds 20 1023 59 16093 3.6 200 15:38 30.06.2019
5629 Clouds 19 1023 59 16093 3.6 200 15:19 30.06.2019
5630 Clear 17 1024 72 16093 1.14 341.882 14:53 30.06.2019
5631 Clouds 16 1023 63 16093 3.6 200 14:35 30.06.2019
5632 Clear 16 1024 71 16093 1.14 341.882 13:49 30.06.2019
5633 Clouds 16 1023 63 16093 3.6 190 13:29 30.06.2019
5634 Clear 16 1024 63 16093 1.81 350.564 12:53 30.06.2019
5635 Clear 17 1023 67 16093 1.5 200 12:29 30.06.2019
5636 Clear 18 1023 63 16093 2.1 210 11:58 30.06.2019
5637 Clear 18 1023 45 16093 1.36 204.931 11:39 30.06.2019
5638 Clear 18 1024 63 16093 1.36 204.931 11:20 30.06.2019
5639 Clear 18 1024 63 16093 1.36 204.931 11:20 30.06.2019
5640 Clear 19 1024 59 16093 1.5 220 10:54 30.06.2019
5641 Clear 19 1023 45 16093 1.36 204.931 10:36 30.06.2019
5642 Clouds 20 1023 55 16093 3.1 120 10:18 30.06.2019
5643 Clear 20 1024 37 16093 5.1 360 09:41 30.06.2019
5644 Clouds 21 1024 46 16093 2.6 100 09:19 30.06.2019
5645 Clear 21 1024 37 16093 6.7 340 08:40 30.06.2019
5646 Clouds 22 1023 43 16093 4.6 230 08:21 30.06.2019
5647 Clear 23 1024 40 16093 3.1 300 07:42 30.06.2019
5648 Clouds 23 1024 43 16093 3.6 220 07:22 30.06.2019
5649 Clear 24 1024 29 16093 4.1 210 06:33 30.06.2019
5650 Rain 28 1023 28 16093 8.2 150 03:32 30.06.2019
5651 Clear 31 1021 14 16093 2.1 100 01:52 30.06.2019
5652 Clouds 32 1022 18 16093 5.1 310 00:45 30.06.2019
5653 Clouds 32 1022 18 16093 5.1 310 00:23 30.06.2019
5654 Rain 32 1022 14 16093 3.6 220 23:43 29.06.2019
5655 Rain 32 1022 19 16093 6.2 320 23:22 29.06.2019
5656 Rain 32 1023 18 16093 1.5 290 22:46 29.06.2019
5657 Rain 32 1022 17 16093 5.7 320 22:22 29.06.2019
5658 Rain 32 1023 14 16093 3.1 360 21:55 29.06.2019
5659 Rain 33 1022 16 16093 2.6 30 21:25 29.06.2019
5660 Clear 33 1023 19 16093 3.1 10 20:47 29.06.2019
5661 Clear 33 1023 22 16093 3.1 340 20:29 29.06.2019
5662 Clear 33 1023 22 16093 3.1 20 19:58 29.06.2019
5663 Clouds 33 1023 22 16093 2.1 290 19:39 29.06.2019
5664 Clouds 32 1023 22 16093 2.1 290 19:19 29.06.2019
5665 Clear 31 1023 27 16093 1.5 350 18:47 29.06.2019
5666 Clear 29 1023 20 16093 1.29 352.103 18:24 29.06.2019
5667 Clouds 28 1023 36 16093 1.5 220 17:37 29.06.2019
5668 Clouds 27 1023 36 16093 1.5 220 17:19 29.06.2019
5669 Clouds 24 1023 38 16093 5.7 190 16:42 29.06.2019
5670 Clouds 23 1024 38 16093 3.6 180 15:59 29.06.2019
5671 Clouds 22 1023 52 16093 4.1 150 15:32 29.06.2019
5672 Clouds 19 1022 55 16093 3.6 180 14:46 29.06.2019
5673 Clear 19 1022 59 16093 1.13 294.537 14:27 29.06.2019
5674 Clear 19 1023 59 16093 1.13 294.537 13:55 29.06.2019
5675 Clear 19 1022 42 16093 1.13 294.537 13:36 29.06.2019
5676 Clouds 19 1023 59 16093 4.6 180 13:18 29.06.2019
5677 Clouds 19 1023 63 16093 2.6 210 12:40 29.06.2019
5678 Clouds 19 1023 63 16093 2.6 210 12:21 29.06.2019
5679 Clear 19 1023 37 16093 2.1 340 11:43 29.06.2019
5680 Clear 20 1023 42 16093 1.5 230 11:25 29.06.2019
5681 Clear 20 1024 45 16093 2.6 230 10:49 29.06.2019
5682 Clouds 21 1023 56 16093 5.1 270 10:21 29.06.2019
5683 Rain 21 1024 35 16093 3.1 220 09:57 29.06.2019
5684 Rain 22 1025 29 16093 5.1 190 08:55 29.06.2019
5685 Rain 22 1025 29 16093 7.2 170 08:31 29.06.2019
5686 Rain 22 1025 29 16093 4.6 160 07:45 29.06.2019
5687 Rain 23 1024 35 16093 2.1 210 06:49 29.06.2019
5688 Rain 24 1024 36 16093 5.1 320 06:25 29.06.2019
5689 Thunderstorm 27 1022 44 16093 3.1 180 05:18 29.06.2019
5690 Clear 32 1021 8 16093 2.1 50 01:42 29.06.2019
5691 Clouds 34 1021 15 16093 6.7 130 00:41 29.06.2019
5692 Clouds 35 1021 7 16093 2.1 100 23:39 28.06.2019
5693 Clouds 35 1021 7 16093 2.1 100 23:20 28.06.2019
5694 Clear 35 1022 7 16093 2.1 60 22:47 28.06.2019
5695 Clear 34 1022 9 16093 2.1 10 21:59 28.06.2019
5696 Clouds 34 1023 9 16093 1.5 310 21:37 28.06.2019
5697 Clouds 33 1023 9 16093 1.5 310 21:18 28.06.2019
5698 Clouds 33 1023 11 16093 2.1 350 20:41 28.06.2019
5699 Clouds 33 1023 11 16093 2.1 350 20:19 28.06.2019
5700 Clouds 32 1023 11 16093 2.1 10 19:38 28.06.2019
5701 Clouds 32 1023 11 16093 2.1 10 19:20 28.06.2019
5702 Clear 30 1023 17 16093 1.5 110 18:41 28.06.2019
5703 Clear 29 1023 17 16093 1.5 110 18:21 28.06.2019
5704 Clouds 27 1023 24 16093 6.2 220 17:41 28.06.2019
5705 Clouds 26 1023 24 16093 6.2 220 17:23 28.06.2019
5706 Clouds 24 1023 31 16093 6.7 210 16:46 28.06.2019
5707 Clouds 23 1023 31 16093 6.7 210 16:18 28.06.2019
5708 Clouds 19 1023 55 16093 3.1 180 15:41 28.06.2019
5709 Clouds 17 1023 55 16093 3.1 180 15:18 28.06.2019
5710 Clouds 16 1023 54 16093 3.1 200 14:39 28.06.2019
5711 Clouds 16 1023 54 16093 3.1 200 14:21 28.06.2019
5712 Clear 15 1022 36 16093 1.23 234.532 13:46 28.06.2019
5713 Clouds 15 1022 54 16093 3.6 210 13:27 28.06.2019
5714 Clear 15 1022 62 16093 1.5 220 12:51 28.06.2019
5715 Clear 16 1022 42 16093 2.1 270 12:32 28.06.2019
5716 Clear 16 1021 48 16093 5.1 200 11:29 28.06.2019
5717 Clear 17 1022 67 16093 1.5 230 10:58 28.06.2019
5718 Clear 17 1021 34 16093 2.79 325.233 10:38 28.06.2019
5719 Clear 18 1021 48 16093 5.1 180 10:18 28.06.2019
5720 Clear 18 1021 32 16093 2.6 280 09:43 28.06.2019
5721 Clear 19 1021 48 16093 2.1 180 09:24 28.06.2019
5722 Clear 19 1021 35 16093 3.1 280 08:42 28.06.2019
5723 Clear 20 1021 45 16093 5.7 180 08:23 28.06.2019
5724 Clear 21 1021 49 16093 5.1 190 07:42 28.06.2019
5725 Clear 22 1021 52 16093 2.46 257.843 06:52 28.06.2019
5726 Rain 29 1020 15 16093 2.6 70 03:57 28.06.2019
5727 Clear 32 1019 19 16093 4.1 50 00:46 28.06.2019
5728 Clouds 33 1019 15 16093 1.5 250 00:19 28.06.2019
5729 Clear 34 1020 13 16093 2.6 20 23:43 27.06.2019
5730 Clouds 34 1020 16 16093 5.1 260 23:22 27.06.2019
5731 Clouds 32 1020 18 16093 2.6 220 22:43 27.06.2019
5732 Clouds 31 1020 18 16093 2.6 220 22:25 27.06.2019
5733 Clear 31 1021 26 16093 4.6 360 21:57 27.06.2019
5734 Clouds 31 1021 16 16093 3.6 250 21:38 27.06.2019
5735 Clouds 31 1021 16 16093 3.6 250 21:19 27.06.2019
5736 Clear 31 1021 26 16093 5.1 360 20:45 27.06.2019
5737 Clouds 31 1021 19 16093 4.6 190 20:27 27.06.2019
5738 Clear 31 1022 12 16093 1.5 200 19:47 27.06.2019
5739 Clouds 30 1022 15 16093 4.1 170 19:27 27.06.2019
5740 Clear 29 1022 12 16093 1.5 100 18:51 27.06.2019
5741 Clouds 28 1022 20 16093 8.2 200 18:30 27.06.2019
5742 Clear 27 1022 16 16093 1.5 130 17:47 27.06.2019
5743 Clouds 25 1022 29 16093 3.1 210 17:24 27.06.2019
5744 Clouds 24 1022 26 16093 5.1 200 16:55 27.06.2019
5745 Clouds 23 1022 37 16093 5.1 210 16:36 27.06.2019
5746 Clouds 21 1022 37 16093 5.1 210 16:18 27.06.2019
5747 Clouds 18 1022 39 16093 2.1 230 15:44 27.06.2019
5748 Clouds 17 1022 39 16093 2.1 230 15:18 27.06.2019
5749 Clear 15 1022 62 16093 2.31 260.338 14:43 27.06.2019
5750 Clouds 14 1021 38 16093 3.1 190 14:24 27.06.2019
5751 Clear 14 1020 25 16093 1.5 300 13:48 27.06.2019
5752 Clouds 14 1020 38 16093 4.6 180 13:30 27.06.2019
5753 Clear 15 1020 26 16093 1.5 190 12:52 27.06.2019
5754 Clear 15 1020 26 16093 1.5 190 12:33 27.06.2019
5755 Clear 15 1019 26 16093 1.5 140 11:56 27.06.2019
5756 Clear 15 1019 47 16093 4.6 180 11:38 27.06.2019
5757 Clear 15 1019 47 16093 4.6 180 11:20 27.06.2019
5758 Clear 16 1019 48 16093 3.6 200 10:42 27.06.2019
5759 Clear 16 1019 48 16093 3.6 200 10:20 27.06.2019
5760 Clear 16 1019 36 16093 5.1 260 09:50 27.06.2019
5761 Clear 16 1019 48 16093 3.6 230 09:22 27.06.2019
5762 Clear 17 1019 25 16093 5.7 270 08:52 27.06.2019
5763 Clear 17 1020 66 16093 2.85 276.193 08:30 27.06.2019
5764 Clear 17 1020 58 16093 2.85 276.193 07:49 27.06.2019
5765 Clouds 18 1019 37 16093 2.6 200 07:25 27.06.2019
5766 Clouds 19 1019 34 16093 4.6 230 06:39 27.06.2019
5767 Clear 28 1018 24 16093 1.95 191.627 03:53 27.06.2019
5768 Clouds 29 1017 14 16093 3.6 40 02:43 27.06.2019
5769 Clouds 29 1017 15 16093 3.6 100 01:46 27.06.2019
5770 Clear 29 1018 10 16093 6.2 50 00:54 27.06.2019
5771 Clouds 30 1018 16 16093 3.6 340 00:29 27.06.2019
5772 Clear 30 1018 9 16093 2.6 160 23:52 26.06.2019
5773 Clouds 30 1018 15 16093 5.1 180 23:23 26.06.2019
5774 Clear 31 1018 10 16093 2.6 160 22:59 26.06.2019
5775 Clear 31 1018 11 16093 4.1 160 22:40 26.06.2019
5776 Clear 31 1018 11 16093 4.1 160 22:20 26.06.2019
5777 Clouds 30 1018 23 16093 5.1 210 21:43 26.06.2019
5778 Clouds 29 1018 23 16093 5.1 210 21:22 26.06.2019
5779 Clear 29 1018 11 16093 3.1 180 20:58 26.06.2019
5780 Clouds 28 1018 26 16093 5.7 210 20:39 26.06.2019
5781 Clouds 28 1018 26 16093 5.7 210 20:39 26.06.2019
5782 Clouds 28 1018 26 16093 5.7 210 20:21 26.06.2019
5783 Clear 27 1018 11 16093 1.75 151.228 19:44 26.06.2019
5784 Clouds 26 1018 28 16093 6.2 210 19:25 26.06.2019
5785 Clear 26 1019 25 16093 1.75 151.228 18:48 26.06.2019
5786 Clouds 25 1019 38 16093 4.6 210 18:23 26.06.2019
5787 Clear 22 1020 35 16093 1.24 180.139 17:58 26.06.2019
5788 Clouds 21 1019 37 16093 5.1 200 17:38 26.06.2019
5789 Clouds 21 1019 37 16093 5.1 200 17:19 26.06.2019
5790 Clear 20 1020 45 16093 1.24 180.139 16:46 26.06.2019
5791 Clouds 19 1019 42 16093 1.5 210 16:24 26.06.2019
5792 Clouds 17 1019 51 16093 1.5 190 15:42 26.06.2019
5793 Clouds 15 1019 51 16093 1.5 190 15:23 26.06.2019
5794 Clouds 15 1019 51 16093 1.5 190 15:23 26.06.2019
5795 Clouds 13 1019 62 16093 4.1 180 14:38 26.06.2019
5796 Clouds 12 1019 62 16093 4.1 180 14:19 26.06.2019
5797 Clear 12 1019 81 16093 1.25 225.907 13:44 26.06.2019
5798 Clouds 12 1019 54 16093 2.1 210 13:20 26.06.2019
5799 Clear 12 1018 41 16093 2.1 270 12:42 26.06.2019
5800 Clouds 13 1019 58 16093 2.6 190 12:23 26.06.2019
5801 Clear 13 1019 47 16093 2.1 240 11:51 26.06.2019
5802 Clouds 13 1019 54 16093 2.1 230 11:23 26.06.2019
5803 Clear 14 1019 44 16093 4.1 310 10:47 26.06.2019
5804 Clear 14 1020 71 16093 1.5 170 10:28 26.06.2019
5805 Clear 15 1020 62 16093 2.1 250 09:49 26.06.2019
5806 Clouds 15 1019 47 16093 1.5 200 09:24 26.06.2019
5807 Clear 16 1020 39 16093 4.15 339.326 08:49 26.06.2019
5808 Clouds 17 1019 32 16093 5.1 200 08:20 26.06.2019
5809 Clouds 18 1019 39 16093 3.6 200 07:46 26.06.2019
5810 Clouds 18 1019 39 16093 3.6 200 07:25 26.06.2019
5811 Clear 19 1018 34 16093 4.6 290 06:32 26.06.2019
5812 Clouds 27 1017 26 16093 7.2 150 01:28 26.06.2019
5813 Rain 27 1017 15 16093 6.2 160 00:25 26.06.2019
5814 Rain 26 1017 14 16093 4.6 190 23:47 25.06.2019
5815 Rain 26 1018 31 16093 9.3 140 23:28 25.06.2019
5816 Thunderstorm 26 1017 15 16093 4.6 180 22:57 25.06.2019
5817 Rain 26 1018 20 16093 3.6 140 22:39 25.06.2019
5818 Thunderstorm 26 1017 15 16093 2.1 170 22:20 25.06.2019
5819 Thunderstorm 26 1018 15 16093 2.6 160 21:43 25.06.2019
5820 Thunderstorm 26 1018 27 16093 4.1 140 21:22 25.06.2019
5821 Clear 27 1018 19 16093 2.1 120 20:46 25.06.2019
5822 Clear 27 1018 19 16093 2.1 120 20:46 25.06.2019
5823 Clouds 27 1018 24 16093 4.6 140 20:22 25.06.2019
5824 Clear 27 1019 19 16093 2.1 180 19:54 25.06.2019
5825 Clear 26 1019 19 16093 2.6 150 19:36 25.06.2019
5826 Clear 26 1019 19 16093 2.6 150 19:18 25.06.2019
5827 Clouds 24 1019 38 16093 2.1 160 18:40 25.06.2019
5828 Clouds 23 1019 38 16093 2.1 160 18:21 25.06.2019
5829 -273 0 0 0 0 0 17:32 25.06.2019
5830 -273 0 0 0 0 0 17:32 25.06.2019
5831 Clear 19 1020 52 16093 0.71 152.968 16:59 25.06.2019
5832 Clouds 19 1019 42 16093 3.6 200 16:40 25.06.2019
5833 Clouds 18 1019 42 16093 3.6 200 16:22 25.06.2019
5834 Clear 16 1019 48 16093 0.71 152.968 15:42 25.06.2019
5835 Clouds 15 1018 54 16093 3.6 190 15:24 25.06.2019
5836 Clear 13 1019 76 16093 0.67 231.596 14:54 25.06.2019
5837 Clouds 13 1018 62 16093 4.1 180 14:35 25.06.2019
5838 Clear 12 1019 71 16093 0.67 231.596 13:47 25.06.2019
5839 Clear 12 1019 71 16093 0.67 231.596 13:47 25.06.2019
5840 Clouds 12 1018 58 16093 5.1 190 13:29 25.06.2019
5841 Clear 12 1018 58 16093 2.1 230 12:55 25.06.2019
5842 Clear 12 1018 66 16093 2.28 238.427 12:37 25.06.2019
5843 Clear 12 1018 66 16093 2.28 238.427 12:18 25.06.2019
5844 Clear 12 1018 66 16093 2.28 238.427 11:43 25.06.2019
5845 Clouds 13 1017 71 16093 4.1 180 11:21 25.06.2019
5846 Clear 13 1017 54 16093 2.6 150 10:45 25.06.2019
5847 Clouds 13 1017 71 16093 3.1 190 10:23 25.06.2019
5848 Clear 13 1018 71 16093 1.5 280 09:55 25.06.2019
5849 Clear 13 1017 47 16093 2.1 200 09:37 25.06.2019
5850 Clouds 14 1017 62 16093 2 289.748 09:18 25.06.2019
5851 Clear 15 1017 54 16093 3.6 260 08:43 25.06.2019
5852 Clouds 15 1017 58 16093 4.6 40 08:24 25.06.2019
5853 Clear 17 1018 36 16093 1.5 80 07:40 25.06.2019
5854 Clear 17 1018 36 16093 5.1 360 06:57 25.06.2019
5855 Clear 18 1018 32 16093 4.1 10 06:39 25.06.2019
5856 Clear 25 1015 20 16093 3.1 10 02:47 25.06.2019
5857 Clouds 26 1015 21 16093 3.1 90 01:41 25.06.2019
5858 Clear 27 1015 14 16093 2.6 270 00:37 25.06.2019
5859 Clear 27 1015 14 16093 7.15 300.283 23:56 24.06.2019
5860 Clouds 27 1015 20 16093 2.6 280 23:38 24.06.2019
5861 Clear 26 1015 16 16093 7.15 300.283 23:38 24.06.2019
5862 Clear 26 1015 16 16093 7.15 300.283 23:20 24.06.2019
5863 Clouds 26 1015 20 16093 7.15 300.283 22:41 24.06.2019
5864 Clouds 26 1015 20 16093 7.15 300.283 22:19 24.06.2019
5865 Clouds 25 1016 23 16093 5.1 320 21:39 24.06.2019
5866 Clouds 25 1016 23 16093 5.1 320 21:19 24.06.2019
5867 Clear 25 1017 20 16093 5.7 340 20:56 24.06.2019
5868 Clouds 24 1016 23 16093 7.2 280 20:38 24.06.2019
5869 Clouds 24 1016 23 16093 7.2 280 20:20 24.06.2019
5870 Clouds 24 1017 28 16093 5.7 270 19:44 24.06.2019
5871 Clouds 23 1017 28 16093 5.7 270 19:21 24.06.2019
5872 Clear 23 1017 19 16093 5.7 250 18:45 24.06.2019
5873 Clear 22 1017 19 16093 4.1 250 18:26 24.06.2019
5874 Clear 21 1017 20 16093 4.6 250 17:47 24.06.2019
5875 Clouds 19 1017 32 16093 4.6 220 17:25 24.06.2019
5876 Clouds 18 1017 42 16093 5.1 210 16:48 24.06.2019
5877 Clouds 17 1017 42 16093 5.1 210 16:20 24.06.2019
5878 Clouds 15 1018 41 16093 4.6 220 15:49 24.06.2019
5879 Clouds 13 1017 54 16093 5.1 180 15:30 24.06.2019
5880 Clouds 11 1017 57 16093 4.6 170 14:55 24.06.2019
5881 Clouds 11 1017 57 16093 4.6 170 14:31 24.06.2019
5882 Clear 9 1017 81 16093 3.1 220 13:49 24.06.2019
5883 Clear 9 1017 81 16093 3.1 220 13:49 24.06.2019
5884 Clouds 8 1017 61 16093 4.6 180 13:24 24.06.2019
5885 Clear 9 1018 70 16093 2.1 210 12:44 24.06.2019
5886 Clouds 9 1017 61 16093 5.7 180 12:21 24.06.2019
5887 Clear 9 1018 75 16093 2.1 190 11:47 24.06.2019
5888 Clouds 9 1017 66 16093 3.1 190 11:28 24.06.2019
5889 Clouds 9 1018 61 16093 3.1 180 10:58 24.06.2019
5890 Clear 9 1017 46 16093 2.6 230 10:39 24.06.2019
5891 Clouds 9 1018 70 16093 5.1 180 10:20 24.06.2019
5892 Clear 9 1018 53 16093 2.1 210 09:44 24.06.2019
5893 Clouds 9 1018 70 16093 4.1 180 09:19 24.06.2019
5894 Clear 9 1019 76 16093 4.87 271.647 08:50 24.06.2019
5895 Clouds 10 1018 70 16093 3.6 180 08:20 24.06.2019
5896 Clear 10 1018 57 16093 3.1 260 07:41 24.06.2019
5897 Clouds 11 1019 76 16093 3.1 190 07:23 24.06.2019
5898 Clear 12 1020 66 16093 4.13 254.404 06:24 24.06.2019
5899 Clouds 13 1018 50 16093 4.13 254.404 05:45 24.06.2019
5900 Clear 15 1019 44 16093 1.5 200 04:46 24.06.2019
5901 Clouds 16 1019 34 16093 1.5 220 03:49 24.06.2019
5902 Clear 17 1018 32 16093 2.1 190 02:48 24.06.2019
5903 Clouds 18 1018 32 16093 0.51 5.499 01:55 24.06.2019
5904 Clouds 18 1018 42 16093 4.6 320 01:33 24.06.2019
5905 Clear 17 1019 39 16093 1.5 350 00:55 24.06.2019
5906 Clouds 17 1018 47 16093 5.1 350 00:21 24.06.2019
5907 Rain 16 1019 42 16093 5.1 10 23:56 23.06.2019
5908 Rain 16 1020 54 16093 2.6 310 23:37 23.06.2019
5909 Rain 15 1019 58 16093 6.2 360 23:18 23.06.2019
5910 Rain 14 1018 62 16093 6.2 20 22:41 23.06.2019
5911 Rain 13 1018 62 16093 6.2 20 22:20 23.06.2019
5912 Rain 14 1018 54 16093 8.7 20 21:42 23.06.2019
5913 Rain 13 1018 62 16093 8.7 10 21:22 23.06.2019
5914 Rain 14 1019 62 16093 3.6 30 20:51 23.06.2019
5915 Thunderstorm 15 1017 38 16093 3.1 310 20:31 23.06.2019
5916 Rain 16 1019 41 16093 4.1 360 19:55 23.06.2019
5917 Rain 15 1018 51 16093 4.6 340 19:37 23.06.2019
5918 Clouds 15 1018 51 16093 4.6 340 19:19 23.06.2019
5919 Clouds 14 1018 50 16093 2.6 340 18:43 23.06.2019
5920 Clouds 14 1018 50 16093 2.6 340 18:19 23.06.2019
5921 Clouds 13 1018 62 16093 5.1 300 17:41 23.06.2019
5922 Clouds 13 1018 62 16093 5.1 300 17:22 23.06.2019
5923 Clear 12 1019 76 16093 2.55 49.447 16:45 23.06.2019
5924 Clouds 11 1017 87 16093 2.1 250 16:25 23.06.2019
5925 Clouds 10 1017 100 16093 1.5 200 15:45 23.06.2019
5926 Clouds 9 1017 100 16093 1.5 200 15:25 23.06.2019
5927 Clouds 7 1019 87 16093 2.43 303.985 14:59 23.06.2019
5928 Clouds 7 1017 100 16093 3.1 160 14:38 23.06.2019
5929 Clouds 6 1017 100 16093 3.1 160 14:20 23.06.2019
5930 Rain 6 1017 65 16093 2.1 240 13:42 23.06.2019
5931 Rain 6 1017 100 16093 1.5 230 13:21 23.06.2019
5932 Rain 6 1018 93 16093 1.5 190 12:56 23.06.2019
5933 Rain 6 1017 75 16093 2.1 280 12:37 23.06.2019
5934 Rain 7 1017 100 16093 2.6 200 12:18 23.06.2019
5935 Clear 7 1019 100 16093 1.02 351.057 11:45 23.06.2019
5936 Clouds 7 1018 100 16093 2.1 200 11:25 23.06.2019
5937 Clear 8 1019 93 16093 1.02 351.057 10:48 23.06.2019
5938 Clouds 8 1019 100 16093 2.6 190 10:21 23.06.2019
5939 Clear 8 1020 93 16093 1.02 351.057 09:57 23.06.2019
5940 Rain 9 1020 93 16093 2.34 29.681 09:22 23.06.2019
5941 Rain 9 1021 93 16093 1.5 210 08:46 23.06.2019
5942 Clear 9 1020 81 16093 2.86 23.594 08:27 23.06.2019
5943 Clear 9 1021 93 16093 2.86 23.594 07:55 23.06.2019
5944 Clear 9 1021 93 16093 2.86 23.594 07:55 23.06.2019
5945 Clouds 10 1020 93 16093 2.86 23.594 07:25 23.06.2019
5946 Clouds 10 1020 87 16093 2.86 23.594 06:55 23.06.2019
5947 Drizzle 10 1019 100 16093 1.5 280 05:59 23.06.2019
5948 Rain 10 1018 100 16093 4.1 280 04:38 23.06.2019
5949 Rain 11 1018 82 12874 4.1 360 02:24 23.06.2019
5950 Rain 13 1017 76 16093 4.1 70 01:37 23.06.2019
5951 Rain 14 1018 77 16093 2.6 320 00:37 23.06.2019
5952 Rain 14 1018 67 16093 1.5 40 23:58 22.06.2019
5953 Rain 13 1016 82 9656 6.7 70 23:39 22.06.2019
5954 Rain 14 1016 59 12874 3.1 60 23:20 22.06.2019
5955 Rain 16 1016 59 16093 3.1 90 22:45 22.06.2019
5956 Rain 16 1016 59 16093 3.1 90 22:24 22.06.2019
5957 Rain 16 1017 63 16093 3.1 80 21:41 22.06.2019
5958 Clouds 16 1017 63 16093 3.1 80 21:20 22.06.2019
5959 Rain 16 1019 59 16093 1.5 150 20:51 22.06.2019
5960 Clouds 15 1018 67 16093 4.6 130 20:26 22.06.2019
5961 Clouds 15 1020 67 16093 1.5 130 19:50 22.06.2019
5962 Clouds 14 1019 71 16093 5.1 130 19:28 22.06.2019
5963 Clouds 12 1020 71 16093 3.1 170 18:56 22.06.2019
5964 Clouds 12 1019 81 16093 3.6 160 18:36 22.06.2019
5965 Rain 10 1019 87 16093 7.7 140 18:18 22.06.2019
5966 Rain 9 1020 87 16093 3.1 160 17:38 22.06.2019
5967 Rain 8 1020 100 16093 4.6 140 17:19 22.06.2019
5968 Rain 8 1020 100 16093 2.6 80 16:39 22.06.2019
5969 Rain 8 1020 100 16093 2.6 80 16:39 22.06.2019
5970 Rain 8 1020 100 16093 2.6 80 16:20 22.06.2019
5971 Rain 8 1020 100 16093 2.6 80 16:20 22.06.2019
5972 Rain 8 1019 93 11265 4.1 100 15:40 22.06.2019
5973 Rain 8 1020 100 9656 4.6 30 15:22 22.06.2019
5974 Rain 8 1020 100 8047 4.6 340 14:41 22.06.2019
5975 Rain 8 1020 100 9656 6.2 350 14:20 22.06.2019
5976 Rain 9 1019 93 4023 4.6 10 13:43 22.06.2019
5977 Rain 9 1019 100 12874 2.6 140 13:25 22.06.2019
5978 Rain 9 1020 93 8047 5.1 40 12:54 22.06.2019
5979 Rain 9 1018 81 16093 2.6 100 12:35 22.06.2019
5980 Rain 9 1019 93 16093 2.1 40 11:59 22.06.2019
5981 Rain 9 1018 87 16093 3.34 139.594 11:34 22.06.2019
5982 Rain 9 1020 87 11265 1.5 120 10:54 22.06.2019
5983 Rain 9 1018 93 16093 2.6 150 10:21 22.06.2019
5984 Rain 9 1018 93 16093 2.6 150 10:21 22.06.2019
5985 Rain 9 1019 93 16093 3.34 139.594 09:55 22.06.2019
5986 Rain 9 1018 93 16093 2.1 130 09:23 22.06.2019
5987 Rain 9 1019 87 16093 2.6 200 08:44 22.06.2019
5988 Rain 9 1019 93 16093 4.08 133.7 08:25 22.06.2019
5989 Rain 10 1018 87 16093 2.1 160 07:35 22.06.2019
5990 Rain 10 1021 87 16093 2.1 240 06:56 22.06.2019
5991 Rain 10 1019 93 16093 2.6 150 05:23 22.06.2019
5992 Rain 12 1017 87 16093 3.87 114.087 02:33 22.06.2019
5993 Rain 12 1016 81 16093 5.1 60 01:22 22.06.2019
5994 Rain 12 1016 71 8047 1.5 60 00:41 22.06.2019
5995 Rain 13 1016 81 16093 4.1 50 00:22 22.06.2019
5996 Rain 13 1016 76 16093 3.1 20 23:44 21.06.2019
5997 Rain 13 1017 76 16093 2.18 124.119 23:22 21.06.2019
5998 Rain 13 1015 93 8047 4.6 360 22:50 21.06.2019
5999 Rain 13 1014 76 6437 7.2 50 22:24 21.06.2019
6000 Rain 15 1013 67 16093 7.7 50 21:41 21.06.2019
6001 Rain 15 1013 67 16093 7.7 50 21:41 21.06.2019
6002 Rain 17 1015 48 16093 7.2 60 21:22 21.06.2019
6003 Clouds 19 1014 45 16093 7.2 60 20:54 21.06.2019
6004 Clouds 19 1014 37 16093 6.2 140 20:28 21.06.2019
6005 Clouds 19 1014 37 16093 5.1 140 19:59 21.06.2019
6006 Clouds 20 1013 42 16093 5.7 110 19:31 21.06.2019
6007 Clear 20 1014 34 16093 3.6 130 18:48 21.06.2019
6008 Clouds 18 1013 39 16093 3.92 126.557 18:28 21.06.2019
6009 Clouds 17 1013 51 16093 4.1 90 17:46 21.06.2019
6010 Clouds 17 1014 45 16093 3.1 140 17:27 21.06.2019
6011 Clouds 16 1013 54 16093 3.1 110 16:40 21.06.2019
6012 Clouds 15 1013 51 16093 2.6 150 16:21 21.06.2019
6013 Clouds 14 1013 71 16093 2.6 150 15:39 21.06.2019
6014 Clouds 13 1013 71 16093 2.6 150 15:20 21.06.2019
6015 Clouds 13 1013 62 16093 3.1 160 14:47 21.06.2019
6016 Clouds 12 1012 87 16093 2.1 190 14:28 21.06.2019
6017 Clear 12 1012 66 16093 5.7 140 13:46 21.06.2019
6018 Clouds 11 1011 87 16093 3.1 130 13:27 21.06.2019
6019 Clear 12 1012 71 16093 3.1 120 12:54 21.06.2019
6020 Clouds 12 1011 76 16093 2.1 350 12:24 21.06.2019
6021 Clear 12 1011 71 16093 1.5 100 11:59 21.06.2019
6022 Clear 13 1010 58 16093 0.28 41.755 11:40 21.06.2019
6023 Clouds 13 1010 87 16093 3.6 60 11:22 21.06.2019
6024 Clear 14 1011 66 16093 0.28 41.755 10:48 21.06.2019
6025 Clouds 14 1010 100 16093 4.1 20 10:21 21.06.2019
6026 Clear 15 1011 58 16093 3.6 10 09:55 21.06.2019
6027 Clear 15 1011 67 16093 7.2 350 09:37 21.06.2019
6028 Clouds 15 1009 87 16093 4.6 340 09:18 21.06.2019
6029 Clear 15 1009 55 16093 4.17 150.322 08:42 21.06.2019
6030 Clouds 16 1008 82 16093 4.17 150.322 08:21 21.06.2019
6031 Clear 17 1010 59 16093 4.17 150.322 07:46 21.06.2019
6032 Clear 17 1010 55 16093 4.17 150.322 07:23 21.06.2019
6033 Clear 19 1010 42 16093 3.6 110 06:42 21.06.2019
6034 Clear 19 1010 42 16093 3.6 110 06:18 21.06.2019
6035 Clouds 22 1010 25 16093 5.7 260 04:57 21.06.2019
6036 Clear 25 1010 27 16093 7.7 360 03:53 21.06.2019
6037 Clouds 25 1008 27 16093 5.1 230 03:32 21.06.2019
6038 Clear 26 1008 15 16093 6.2 250 02:44 21.06.2019
6039 Clouds 27 1008 26 16093 3.1 290 01:33 21.06.2019
6040 Rain 27 1008 15 16093 4.6 260 00:48 21.06.2019
6041 Thunderstorm 27 1009 19 16093 5.1 310 23:59 20.06.2019
6042 Thunderstorm 27 1010 28 16093 3.6 170 23:41 20.06.2019
6043 Thunderstorm 26 1010 28 16093 3.6 170 23:21 20.06.2019
6044 Clouds 27 1010 30 16093 7.7 130 22:46 20.06.2019
6045 Clouds 27 1010 30 16093 7.7 130 22:24 20.06.2019
6046 Clear 27 1011 24 16093 3.1 120 21:57 20.06.2019
6047 Clear 27 1012 24 16093 4.6 160 21:38 20.06.2019
6048 Clouds 26 1011 34 16093 7.2 110 21:19 20.06.2019
6049 Clear 26 1012 26 16093 5.1 140 20:44 20.06.2019
6050 Clouds 25 1012 33 16093 5.7 120 20:25 20.06.2019
6051 Clouds 25 1012 33 16093 5.7 120 20:25 20.06.2019
6052 Clear 24 1013 31 16093 4.6 200 19:55 20.06.2019
6053 Clear 24 1013 33 16093 3.6 160 19:36 20.06.2019
6054 Clear 23 1013 33 16093 3.6 160 19:18 20.06.2019
6055 Clouds 22 1014 42 16093 3.6 130 18:41 20.06.2019
6056 Clouds 21 1014 42 16093 3.6 130 18:21 20.06.2019
6057 Clouds 19 1014 52 16093 3.1 150 17:49 20.06.2019
6058 Clouds 19 1014 52 16093 3.1 150 17:31 20.06.2019
6059 Clear 18 1015 52 16093 3.1 130 16:47 20.06.2019
6060 Clouds 17 1015 63 16093 4.1 140 16:20 20.06.2019
6061 Clear 16 1016 59 16093 2.1 140 15:58 20.06.2019
6062 Clouds 16 1014 76 16093 4.1 90 15:40 20.06.2019
6063 Clouds 15 1014 76 16093 4.1 90 15:21 20.06.2019
6064 Clouds 13 1014 71 16093 5.1 70 14:44 20.06.2019
6065 Clouds 13 1014 71 16093 5.1 70 14:22 20.06.2019
6066 Clouds 13 1013 81 16093 6.2 50 13:41 20.06.2019
6067 Clouds 13 1013 66 16093 3.6 140 13:20 20.06.2019
6068 Clear 14 1013 66 16093 1.77 281.183 12:47 20.06.2019
6069 Clouds 14 1012 66 16093 4.1 100 12:23 20.06.2019
6070 Clear 15 1012 48 16093 3.15 280.415 11:48 20.06.2019
6071 Clear 15 1013 45 16093 3.15 280.415 11:29 20.06.2019
6072 Clear 16 1013 51 16093 1.5 30 10:57 20.06.2019
6073 Clear 16 1011 36 16093 1.5 290 10:39 20.06.2019
6074 Clouds 17 1012 45 16093 4.6 310 10:20 20.06.2019
6075 Clouds 18 1011 32 16093 2.6 360 09:40 20.06.2019
6076 Clouds 18 1011 39 16093 4.6 190 09:21 20.06.2019
6077 Clouds 19 1012 32 16093 4.69 224.058 08:46 20.06.2019
6078 Clouds 19 1011 51 16093 5.1 190 08:27 20.06.2019
6079 Clear 19 1011 30 16093 2.1 180 07:53 20.06.2019
6080 Clouds 19 1012 55 16093 4.1 180 07:28 20.06.2019
6081 Clouds 20 1012 59 16093 4.1 180 06:28 20.06.2019
6082 Clouds 22 1013 22 16093 7.7 270 04:54 20.06.2019
6083 Clear 26 1012 19 16093 3.1 270 02:55 20.06.2019
6084 Clouds 27 1012 22 16093 5.1 320 00:34 20.06.2019
6085 Clear 27 1012 16 16093 5.1 310 23:58 19.06.2019
6086 Clouds 27 1012 21 16093 2.6 20 23:39 19.06.2019
6087 Clouds 27 1012 21 16093 2.6 20 23:21 19.06.2019
6088 Clouds 27 1013 24 16093 3.1 280 22:45 19.06.2019
6089 Clouds 27 1013 24 16093 3.1 280 22:18 19.06.2019
6090 Clear 27 1014 17 16093 4.6 320 21:46 19.06.2019
6091 Clouds 26 1014 27 16093 5.1 340 21:25 19.06.2019
6092 Clouds 25 1015 33 16093 5.7 320 20:44 19.06.2019
6093 Clouds 25 1015 33 16093 5.7 320 20:22 19.06.2019
6094 -273 0 0 0 0 0 20:22 19.06.2019
6095 Clear 24 1015 24 16093 2.5 314.951 19:58 19.06.2019
6096 Clouds 24 1016 35 16093 3.6 260 19:39 19.06.2019
6097 Clouds 24 1016 35 16093 3.6 260 19:20 19.06.2019
6098 Clear 23 1016 29 16093 3.1 300 18:47 19.06.2019
6099 Clouds 21 1016 45 16093 4.1 220 18:20 19.06.2019
6100 Clouds 19 1017 59 16093 4.1 200 17:37 19.06.2019
6101 Clear 17 1018 55 16093 5.1 180 16:59 19.06.2019
6102 Clear 16 1018 67 16093 3.6 160 16:39 19.06.2019
6103 Clouds 15 1018 67 16093 3.6 160 16:21 19.06.2019
6104 Rain 14 1018 77 16093 3.1 170 15:48 19.06.2019
6105 Rain 13 1018 93 16093 4.47 240.649 15:27 19.06.2019
6106 Rain 12 1018 87 16093 2.1 210 14:51 19.06.2019
6107 Rain 12 1018 81 16093 4.47 240.649 14:32 19.06.2019
6108 Clouds 11 1018 87 16093 4.47 240.649 13:59 19.06.2019
6109 Clear 11 1017 66 16093 3.1 50 13:41 19.06.2019
6110 Clouds 11 1017 76 16093 3.79 222.97 13:23 19.06.2019
6111 Clouds 11 1018 87 16093 3.79 222.97 12:44 19.06.2019
6112 Clouds 11 1016 81 16093 3.1 200 12:22 19.06.2019
6113 Clouds 11 1016 87 16093 4.79 245.773 11:55 19.06.2019
6114 Clouds 12 1016 87 16093 3.6 180 11:37 19.06.2019
6115 Clouds 12 1016 87 16093 3.6 180 11:18 19.06.2019
6116 Clouds 12 1016 81 16093 3.1 210 10:41 19.06.2019
6117 Clouds 12 1016 81 16093 3.1 210 10:23 19.06.2019
6118 Clouds 12 1017 93 16093 3.1 210 09:41 19.06.2019
6119 Clouds 12 1017 93 16093 3.1 210 09:20 19.06.2019
6120 Clear 13 1018 81 16093 3.05 299.873 08:50 19.06.2019
6121 Clouds 13 1018 93 16093 5.1 200 08:28 19.06.2019
6122 Clear 13 1018 82 16093 3.05 299.873 07:47 19.06.2019
6123 Clouds 13 1018 87 16093 3.6 200 07:25 19.06.2019
6124 Clear 14 1019 76 16093 1.5 150 06:52 19.06.2019
6125 Clouds 14 1018 93 16093 4.1 200 06:28 19.06.2019
6126 Clouds 14 1019 82 16093 3.1 210 05:49 19.06.2019
6127 Rain 15 1019 87 16093 2.6 190 04:41 19.06.2019
6128 Rain 16 1018 77 16093 3.6 80 03:33 19.06.2019
6129 Thunderstorm 17 1018 76 16093 7.7 40 02:26 19.06.2019
6130 Thunderstorm 19 1017 82 805 15.4 350 01:23 19.06.2019
6131 Clouds 20 1017 56 16093 3.6 30 00:43 19.06.2019
6132 Clouds 20 1017 56 16093 3.6 30 00:43 19.06.2019
6133 Clouds 20 1018 46 16093 1.5 300 00:20 19.06.2019
6134 Clouds 20 1018 46 16093 2.6 350 23:52 18.06.2019
6135 Thunderstorm 19 1018 49 16093 3.02 61.093 23:28 18.06.2019
6136 Rain 19 1019 59 16093 3.02 61.093 22:49 18.06.2019
6137 Rain 18 1019 56 16093 3.02 61.093 22:25 18.06.2019
6138 Rain 17 1020 56 11265 3.02 61.093 21:57 18.06.2019
6139 Rain 17 1018 59 16093 5.7 250 21:39 18.06.2019
6140 Rain 17 1018 59 16093 5.7 250 21:20 18.06.2019
6141 Rain 16 1020 72 16093 3.1 190 20:43 18.06.2019
6142 Rain 16 1021 59 16093 2.8 71.5 20:25 18.06.2019
6143 Thunderstorm 17 1019 63 16093 2.8 71.5 19:42 18.06.2019
6144 Thunderstorm 17 1020 72 16093 2.8 71.5 19:24 18.06.2019
6145 Clouds 17 1021 63 16093 2.8 71.5 18:59 18.06.2019
6146 Clouds 17 1020 82 16093 1.5 10 18:38 18.06.2019
6147 Clouds 17 1020 82 16093 1.5 10 18:20 18.06.2019
6148 Clouds 16 1020 82 16093 2.6 340 17:39 18.06.2019
6149 Clouds 16 1020 77 16093 2.6 320 17:19 18.06.2019
6150 Clouds 15 1020 93 24140 2.6 10 16:43 18.06.2019
6151 Clouds 15 1020 93 24140 2.6 10 16:43 18.06.2019
6152 Clouds 15 1020 100 16093 2.6 340 16:24 18.06.2019
6153 Mist 14 1020 82 16093 2.47 15.326 15:43 18.06.2019
6154 Mist 13 1020 100 16093 2.1 300 15:24 18.06.2019
6155 Mist 13 1021 87 16093 2.79 317.66 14:58 18.06.2019
6156 Mist 13 1021 87 16093 2.79 317.66 14:58 18.06.2019
6157 Mist 13 1020 87 16093 2.79 317.66 14:40 18.06.2019
6158 Mist 13 1020 100 16093 2.79 317.66 14:20 18.06.2019
6159 Mist 13 1021 93 16093 2.79 317.66 13:52 18.06.2019
6160 Mist 13 1019 93 9656 0.89 287.6 13:31 18.06.2019
6161 Clouds 13 1021 87 16093 0.89 287.6 12:48 18.06.2019
6162 Clouds 13 1020 100 16093 3.1 330 12:29 18.06.2019
6163 Rain 13 1021 87 16093 0.72 60.196 11:58 18.06.2019
6164 Rain 13 1020 93 11265 1.5 50 11:39 18.06.2019
6165 Rain 13 1020 100 16093 2.1 340 11:20 18.06.2019
6166 Mist 13 1021 87 16093 0.72 60.196 10:43 18.06.2019
6167 Mist 13 1020 100 16093 4.6 320 10:23 18.06.2019
6168 Drizzle 13 1021 87 16093 2.6 330 09:54 18.06.2019
6169 Rain 13 1020 100 16093 4.6 350 09:25 18.06.2019
6170 Rain 13 1020 87 16093 4.1 350 08:59 18.06.2019
6171 Rain 14 1021 93 16093 5.1 330 08:39 18.06.2019
6172 Rain 14 1021 100 16093 4.1 310 08:21 18.06.2019
6173 Clouds 15 1021 100 16093 1.37 270.21 07:28 18.06.2019
6174 Rain 15 1022 87 16093 4.1 10 06:59 18.06.2019
6175 Clouds 15 1020 93 16093 2.1 80 05:38 18.06.2019
6176 Clouds 16 1019 82 16093 2.1 50 04:23 18.06.2019
6177 Rain 16 1019 82 16093 3.1 50 02:51 18.06.2019
6178 Rain 16 1020 77 16093 6.55 265.273 01:49 18.06.2019
6179 Rain 15 1020 93 16093 2.1 210 01:24 18.06.2019
6180 Rain 14 1021 72 12874 2.1 290 00:40 18.06.2019
6181 Rain 14 1021 87 11265 3.6 210 00:22 18.06.2019
6182 Thunderstorm 18 1020 82 4828 11.8 280 23:39 17.06.2019
6183 Thunderstorm 20 1019 63 11265 0.49 101.379 23:19 17.06.2019
6184 Thunderstorm 20 1019 63 11265 0.49 101.379 23:19 17.06.2019
6185 Thunderstorm 22 1019 60 16093 4.1 40 22:41 17.06.2019
6186 Thunderstorm 22 1019 60 16093 4.1 40 22:41 17.06.2019
6187 Thunderstorm 22 1019 60 16093 4.1 40 22:21 17.06.2019
6188 Thunderstorm 22 1019 60 16093 4.1 40 22:21 17.06.2019
6189 Thunderstorm 21 1020 46 16093 2.1 120 21:56 17.06.2019
6190 Thunderstorm 21 1020 60 16093 0.49 101.379 21:38 17.06.2019
6191 Thunderstorm 20 1020 60 16093 2.12 70.976 21:18 17.06.2019
6192 Clouds 20 1020 68 16093 2.1 360 20:36 17.06.2019
6193 Clouds 20 1020 68 16093 2.1 360 20:18 17.06.2019
6194 Clouds 19 1021 68 16093 1.5 90 19:41 17.06.2019
6195 Clouds 18 1021 68 16093 1.5 90 19:22 17.06.2019
6196 Rain 17 1021 77 16093 1.5 360 18:57 17.06.2019
6197 Rain 17 1021 77 16093 1.5 360 18:36 17.06.2019
6198 Rain 17 1020 77 16093 1.5 330 18:18 17.06.2019
6199 Mist 16 1022 82 16093 1.08 44.775 17:42 17.06.2019
6200 Mist 16 1022 82 16093 1.08 44.775 17:24 17.06.2019
6201 Mist 14 1021 93 16093 1.5 360 16:45 17.06.2019
6202 Mist 14 1021 93 16093 1.5 360 16:27 17.06.2019
6203 Mist 14 1020 100 1609 3.1 350 15:56 17.06.2019
6204 Mist 13 1020 100 1609 3.1 350 15:37 17.06.2019
6205 Mist 13 1020 100 4828 2.1 330 15:18 17.06.2019
6206 Fog 13 1020 93 1609 3.1 310 14:47 17.06.2019
6207 Fog 13 1020 93 1609 3.1 310 14:26 17.06.2019
6208 Rain 12 1020 100 201 0.44 307.497 13:50 17.06.2019
6209 Rain 12 1020 100 2414 4.6 360 13:23 17.06.2019
6210 Rain 12 1019 93 402 2.6 340 12:51 17.06.2019
6211 Rain 12 1019 93 8047 4.6 360 12:31 17.06.2019
6212 Clouds 12 1018 82 16093 4.6 350 11:49 17.06.2019
6213 Clouds 12 1018 82 16093 4.6 350 11:26 17.06.2019
6214 Clear 12 1018 87 16093 3.1 350 10:58 17.06.2019
6215 Clear 12 1018 87 16093 4.1 270 10:40 17.06.2019
6216 Clear 13 1018 87 16093 4.1 270 10:21 17.06.2019
6217 -273 0 0 0 0 0 09:51 17.06.2019
6218 Clear 13 1018 87 16093 0.44 54.922 09:28 17.06.2019
6219 Rain 14 1019 87 16093 2.1 280 08:41 17.06.2019
6220 Rain 15 1019 87 16093 4.1 280 08:23 17.06.2019
6221 Rain 15 1018 87 16093 7.7 40 07:46 17.06.2019
6222 Rain 15 1018 87 16093 7.7 40 07:46 17.06.2019
6223 Rain 15 1018 87 16093 7.7 40 07:27 17.06.2019
6224 Rain 16 1019 77 16093 3.1 40 06:44 17.06.2019
6225 Rain 17 1019 67 32767 5.1 330 05:49 17.06.2019
6226 Clouds 18 1017 63 16093 2.1 100 04:42 17.06.2019
6227 Rain 20 1017 49 16093 3.15 343.695 03:49 17.06.2019
6228 Rain 20 1017 63 16093 3.6 180 02:59 17.06.2019
6229 Rain 20 1018 68 16093 4.1 310 02:41 17.06.2019
6230 Rain 20 1016 43 16093 1.5 0 01:56 17.06.2019
6231 Rain 21 1016 43 16093 1.5 0 01:34 17.06.2019
6232 Rain 20 1015 40 16093 8.2 260 00:44 17.06.2019
6233 Rain 20 1017 77 16093 6.7 330 00:23 17.06.2019
6234 Clouds 23 1016 27 16093 1.5 70 23:43 16.06.2019
6235 Clouds 24 1016 27 16093 1.5 70 23:23 16.06.2019
6236 Clouds 26 1016 40 16093 4.6 210 22:57 16.06.2019
6237 Thunderstorm 26 1016 27 16093 2.1 320 22:39 16.06.2019
6238 Rain 26 1017 33 32767 2.1 350 22:19 16.06.2019
6239 Rain 26 1017 33 32767 2.1 350 22:19 16.06.2019
6240 Rain 25 1017 33 32767 2.1 350 21:55 16.06.2019
6241 Rain 25 1017 29 16093 4.1 310 21:37 16.06.2019
6242 Rain 24 1018 43 32767 2.6 360 21:19 16.06.2019
6243 Rain 24 1018 33 16093 2.1 320 20:37 16.06.2019
6244 Rain 24 1018 40 16093 2.6 0 20:18 16.06.2019
6245 Rain 23 1018 40 16093 2.6 0 19:43 16.06.2019
6246 Rain 22 1018 40 16093 2.6 0 19:22 16.06.2019
6247 Clouds 22 1018 45 16093 2.6 0 18:59 16.06.2019
6248 Clouds 21 1018 45 16093 2.6 0 18:40 16.06.2019
6249 Clouds 20 1019 52 16093 4.1 270 18:20 16.06.2019
6250 Clouds 19 1019 52 16093 4.1 270 17:48 16.06.2019
6251 Clouds 19 1019 52 16093 4.1 270 17:23 16.06.2019
6252 Clouds 18 1019 55 16093 3.1 30 16:57 16.06.2019
6253 Clouds 18 1019 51 16093 2.1 290 16:39 16.06.2019
6254 Clouds 17 1019 51 16093 2.1 290 16:21 16.06.2019
6255 Clouds 15 1018 62 16093 5.7 200 15:44 16.06.2019
6256 Clouds 14 1018 62 16093 5.7 200 15:24 16.06.2019
6257 Clouds 12 1018 71 16093 3.1 180 14:45 16.06.2019
6258 Clouds 12 1018 71 16093 3.1 180 14:24 16.06.2019
6259 Clear 11 1018 58 16093 1.33 320.95 13:56 16.06.2019
6260 Clear 11 1018 58 16093 1.33 320.95 13:56 16.06.2019
6261 Clear 11 1018 58 16093 1.33 320.95 13:38 16.06.2019
6262 Clear 12 1018 58 16093 1.08 196.806 13:20 16.06.2019
6263 Clear 12 1018 66 16093 1.5 230 12:41 16.06.2019
6264 Clear 12 1018 76 16093 1.95 279.83 12:20 16.06.2019
6265 Clear 12 1017 71 16093 1.5 220 11:46 16.06.2019
6266 Clear 12 1017 71 16093 1.5 220 11:21 16.06.2019
6267 Clear 12 1017 66 16093 1.5 250 10:56 16.06.2019
6268 Clear 12 1018 66 16093 1.95 279.83 10:38 16.06.2019
6269 Clear 12 1018 66 16093 1.95 279.83 10:18 16.06.2019
6270 Clear 13 1019 66 16093 1.95 279.83 09:39 16.06.2019
6271 Clear 13 1019 66 16093 1.43 191.184 09:21 16.06.2019
6272 Clear 14 1019 71 16093 1.43 191.184 08:42 16.06.2019
6273 Clouds 14 1020 62 16093 2.1 220 08:19 16.06.2019
6274 Clear 14 1020 71 16093 3.1 280 07:44 16.06.2019
6275 Clear 15 1020 59 16093 3.6 360 07:19 16.06.2019
6276 Clouds 16 1020 59 16093 3.1 20 06:43 16.06.2019
6277 Clouds 16 1020 45 32767 4.67 225.624 05:51 16.06.2019
6278 Rain 18 1019 52 32767 2.1 120 04:56 16.06.2019
6279 Rain 20 1019 40 32767 3.6 40 03:57 16.06.2019
6280 Thunderstorm 20 1018 63 16093 6.2 360 03:32 16.06.2019
6281 Rain 21 1019 40 32767 3.6 110 02:33 16.06.2019
6282 Thunderstorm 21 1018 43 16093 8.2 200 01:47 16.06.2019
6283 Thunderstorm 22 1018 43 16093 8.2 200 01:27 16.06.2019
6284 Rain 21 1019 59 16093 8.7 170 00:41 16.06.2019
6285 Thunderstorm 22 1019 59 16093 8.7 170 00:21 16.06.2019
6286 Rain 21 1019 59 11265 6.2 290 23:45 15.06.2019
6287 Rain 22 1019 59 11265 6.2 290 23:25 15.06.2019
6288 Rain 23 1018 31 16093 3.6 30 22:50 15.06.2019
6289 Rain 23 1018 31 16093 3.6 30 22:27 15.06.2019
6290 Rain 24 1019 31 16093 4.6 340 21:57 15.06.2019
6291 Rain 24 1019 31 16093 4.6 340 21:39 15.06.2019
6292 Rain 24 1020 27 16093 2.87 52.244 21:18 15.06.2019
6293 Rain 24 1020 27 16093 4.1 30 20:42 15.06.2019
6294 Rain 24 1019 33 16093 4.1 40 20:22 15.06.2019
6295 Rain 24 1019 33 16093 4.1 40 20:22 15.06.2019
6296 Rain 23 1020 31 16093 3.1 20 19:43 15.06.2019
6297 Rain 23 1020 31 16093 3.1 20 19:24 15.06.2019
6298 Clear 22 1020 31 16093 2.6 10 18:41 15.06.2019
6299 Clouds 21 1019 35 16093 4.6 30 18:21 15.06.2019
6300 Clear 21 1020 40 16093 0.98 46.205 17:43 15.06.2019
6301 Clear 21 1020 40 16093 0.98 46.205 17:25 15.06.2019
6302 Clear 19 1020 52 16093 0.98 46.205 16:48 15.06.2019
6303 Clouds 18 1019 59 16093 0.98 46.205 16:20 15.06.2019
6304 Clear 16 1019 67 16093 0.98 46.205 15:44 15.06.2019
6305 Clear 16 1019 67 16093 0.98 46.205 15:44 15.06.2019
6306 Clear 15 1019 67 16093 2.66 342.349 15:24 15.06.2019
6307 Clear 13 1018 81 16093 2.66 342.349 14:44 15.06.2019
6308 Clear 12 1018 76 16093 2.66 342.349 14:19 15.06.2019
6309 Clear 12 1018 76 16093 2.66 342.349 13:58 15.06.2019
6310 Clear 12 1017 76 16093 2.66 342.349 13:40 15.06.2019
6311 Clouds 12 1016 71 16093 3.1 190 13:19 15.06.2019
6312 Clear 12 1017 76 16093 2.1 220 12:51 15.06.2019
6313 Clear 13 1017 76 16093 2.1 220 12:26 15.06.2019
6314 Clear 13 1016 67 16093 1.5 210 11:53 15.06.2019
6315 Clear 13 1016 67 16093 1.5 210 11:53 15.06.2019
6316 Clear 14 1016 67 16093 3.26 330.264 11:33 15.06.2019
6317 Clear 14 1016 55 16093 2.15 254.775 10:54 15.06.2019
6318 Clear 15 1016 45 16093 2.6 290 10:36 15.06.2019
6319 Clear 15 1016 45 16093 2.6 290 10:18 15.06.2019
6320 Clouds 16 1017 45 16093 2.15 254.775 09:42 15.06.2019
6321 Clear 16 1016 48 16093 2.1 220 09:21 15.06.2019
6322 Clear 16 1017 39 16093 1.41 317.45 08:48 15.06.2019
6323 Clear 16 1017 39 16093 1.41 317.45 08:29 15.06.2019
6324 Clear 16 1016 42 16093 2.1 200 07:43 15.06.2019
6325 Clear 16 1016 42 16093 2.1 200 07:21 15.06.2019
6326 Clear 16 1016 42 16093 2.1 200 07:21 15.06.2019
6327 Clear 17 1016 32 16093 3.1 220 06:39 15.06.2019
6328 Clouds 17 1016 32 32767 6.7 260 05:59 15.06.2019
6329 Clouds 18 1015 59 16093 3.6 130 05:24 15.06.2019
6330 Clear 19 1015 28 16093 2.1 330 04:42 15.06.2019
6331 Clear 19 1015 28 16093 2.1 330 04:42 15.06.2019
6332 Clear 21 1014 25 16093 4.1 300 03:42 15.06.2019
6333 Clear 22 1014 27 16093 4.6 340 02:55 15.06.2019
6334 Clouds 23 1013 27 32767 4.6 330 02:21 15.06.2019
6335 Thunderstorm 24 1014 27 16093 3.1 300 01:43 15.06.2019
6336 Thunderstorm 24 1014 35 32186 3.1 340 00:47 15.06.2019
6337 Thunderstorm 24 1014 35 32186 3.1 340 00:29 15.06.2019
6338 Thunderstorm 24 1013 52 16093 4.6 40 23:54 14.06.2019
6339 Rain 25 1013 33 16093 4.6 30 23:25 14.06.2019
6340 Rain 27 1013 21 32186 7.7 340 22:43 14.06.2019
6341 Rain 27 1013 21 32186 7.7 340 22:23 14.06.2019
6342 Rain 27 1013 21 32186 7.7 340 22:23 14.06.2019
6343 Rain 27 1013 21 32186 7.7 340 22:23 14.06.2019
6344 Clear 28 1013 17 16093 4.6 40 21:58 14.06.2019
6345 Clear 28 1013 17 16093 4.1 10 21:39 14.06.2019
6346 Clear 28 1014 18 16093 3.1 50 21:21 14.06.2019
6347 Clear 28 1014 18 16093 5.1 360 20:42 14.06.2019
6348 Clouds 28 1014 21 32767 4.6 270 20:18 14.06.2019
6349 Clouds 28 1014 21 32767 4.6 270 19:51 14.06.2019
6350 Clouds 27 1014 26 16093 2.6 320 19:23 14.06.2019
6351 Clouds 27 1014 26 16093 2.6 320 19:23 14.06.2019
6352 Clear 26 1014 19 16093 4.1 280 18:58 14.06.2019
6353 Clear 26 1015 23 16093 4.6 250 18:40 14.06.2019
6354 Clear 24 1015 25 16093 4.1 250 18:22 14.06.2019
6355 Clouds 24 1015 25 16093 4.1 250 17:46 14.06.2019
6356 Clouds 23 1015 25 16093 4.1 250 17:27 14.06.2019
6357 Clouds 22 1014 28 32767 7.7 260 16:56 14.06.2019
6358 Clouds 21 1014 45 16093 3.1 200 16:38 14.06.2019
6359 Clouds 21 1014 45 16093 3.1 200 16:18 14.06.2019
6360 Clouds 17 1014 48 16093 3.6 200 15:39 14.06.2019
6361 Clouds 17 1014 48 16093 3.6 200 15:21 14.06.2019
6362 Clouds 16 1014 58 16093 3.1 200 14:54 14.06.2019
6363 Clouds 16 1014 58 16093 3.1 200 14:33 14.06.2019
6364 Clouds 16 1014 58 16093 3.1 200 14:32 14.06.2019
6365 Clear 15 1014 36 16093 7.7 260 13:56 14.06.2019
6366 Clear 15 1014 36 16093 7.7 260 13:56 14.06.2019
6367 Clear 15 1014 36 16093 7.7 260 13:56 14.06.2019
6368 Clear 15 1014 36 16093 7.7 260 13:56 14.06.2019
6369 Clear 15 1015 51 16093 1.5 130 13:37 14.06.2019
6370 Clear 16 1015 51 16093 2.68 237.175 13:19 14.06.2019
6371 Clear 16 1015 48 16093 2.68 237.175 12:41 14.06.2019
6372 Clouds 16 1015 54 16093 3.1 190 12:23 14.06.2019
6373 Clear 16 1015 48 16093 2.6 210 11:46 14.06.2019
6374 Clear 16 1015 48 16093 2.6 210 11:24 14.06.2019
6375 Clear 17 1016 45 16093 1.89 309.114 10:50 14.06.2019
6376 Clear 17 1016 45 16093 1.89 309.114 10:24 14.06.2019
6377 Clear 18 1016 45 16093 2.1 220 09:58 14.06.2019
6378 Clear 18 1016 48 16093 2.1 210 09:39 14.06.2019
6379 Clear 18 1016 48 16093 2.1 210 09:39 14.06.2019
6380 Clear 18 1016 32 16093 2.99 231.675 09:20 14.06.2019
6381 Rain 19 1016 45 16093 2.99 231.675 08:41 14.06.2019
6382 Clouds 19 1017 42 16093 2.99 231.675 08:18 14.06.2019
6383 Clouds 19 1017 37 16093 2.99 231.675 07:46 14.06.2019
6384 Rain 19 1017 28 16093 3.6 240 07:19 14.06.2019
6385 Rain 20 1018 37 16093 2.1 40 06:27 14.06.2019
6386 Rain 21 1017 30 16093 4.1 280 05:55 14.06.2019
6387 Rain 21 1017 30 16093 4.1 280 05:55 14.06.2019
6388 Thunderstorm 21 1016 37 16093 5.7 320 04:57 14.06.2019
6389 Rain 22 1016 30 16093 4.6 260 04:36 14.06.2019
6390 Clouds 23 1014 27 16093 10.8 20 03:49 14.06.2019
6391 Clouds 24 1014 27 16093 10.8 20 03:24 14.06.2019
6392 Clear 25 1013 20 16093 8.7 260 02:45 14.06.2019
6393 Rain 26 1014 15 16093 12.3 250 01:56 14.06.2019
6394 Thunderstorm 27 1015 21 16093 4.1 50 00:46 14.06.2019
6395 Thunderstorm 27 1015 21 16093 4.1 50 00:22 14.06.2019
6396 Thunderstorm 28 1014 18 16093 2.1 90 23:53 13.06.2019
6397 Clear 29 1014 19 16093 4.6 180 23:27 13.06.2019
6398 Clouds 29 1015 18 16093 2.1 190 22:58 13.06.2019
6399 Clear 29 1015 19 16093 3.54 45.401 22:38 13.06.2019
6400 Clouds 29 1016 20 16093 4.1 90 22:19 13.06.2019
6401 Clear 29 1016 19 16093 3.54 45.401 21:38 13.06.2019
6402 Clouds 28 1017 19 16093 2.1 0 21:19 13.06.2019
6403 Clear 28 1017 27 16093 6.2 130 20:45 13.06.2019
6404 Clear 28 1017 27 16093 6.2 130 20:45 13.06.2019
6405 Clouds 27 1018 24 16093 4.6 130 20:21 13.06.2019
6406 Clear 27 1018 27 16093 2.6 210 19:56 13.06.2019
6407 Clear 27 1018 19 16093 3.1 140 19:37 13.06.2019
6408 Clouds 26 1018 26 16093 2.6 150 19:18 13.06.2019
6409 Clouds 25 1019 29 16093 2.1 150 18:45 13.06.2019
6410 Clouds 25 1019 29 16093 2.1 150 18:45 13.06.2019
6411 Clouds 24 1019 29 16093 2.1 150 18:27 13.06.2019
6412 Clouds 23 1019 37 16093 2.6 160 17:58 13.06.2019
6413 Clouds 22 1020 40 16093 2.1 160 17:39 13.06.2019
6414 Clouds 21 1019 45 16093 3.1 240 17:19 13.06.2019
6415 Clouds 20 1020 45 16093 2.6 260 16:45 13.06.2019
6416 -273 0 0 0 0 0 16:21 13.06.2019
6417 Clear 16 1020 67 16093 2.32 18.201 15:43 13.06.2019
6418 Clear 15 1020 67 16093 0.99 272.784 15:25 13.06.2019
6419 Clouds 13 1020 58 32186 0.99 272.784 14:56 13.06.2019
6420 Clouds 13 1019 66 16093 2.6 210 14:38 13.06.2019
6421 Clear 12 1019 62 16093 1.5 280 14:19 13.06.2019
6422 Clear 12 1019 58 16093 1.5 280 13:40 13.06.2019
6423 Clear 12 1019 62 16093 3.1 280 13:21 13.06.2019
6424 Clear 12 1019 62 16093 3.1 280 13:21 13.06.2019
6425 Clear 12 1020 58 16093 1.5 300 12:42 13.06.2019
6426 Clear 12 1020 58 16093 1.5 300 12:22 13.06.2019
6427 Clear 13 1020 58 16093 3.1 320 11:56 13.06.2019
6428 Clear 13 1020 62 16093 3.6 320 11:37 13.06.2019
6429 Clear 13 1020 62 16093 3.6 320 11:18 13.06.2019
6430 Clear 13 1022 76 16093 0.61 240.918 10:43 13.06.2019
6431 Clear 13 1022 76 16093 0.61 240.918 10:23 13.06.2019
6432 Clear 13 1023 71 16093 1.5 360 09:43 13.06.2019
6433 Clear 14 1023 71 16093 1.5 360 09:23 13.06.2019
6434 Clear 14 1023 71 16093 1.5 360 09:23 13.06.2019
6435 Clear 14 1023 51 16093 2.11 150.309 08:44 13.06.2019
6436 Clear 14 1024 48 16093 2.1 170 08:25 13.06.2019
6437 Clear 15 1024 48 16093 1.5 210 07:52 13.06.2019
6438 Clear 15 1023 42 16093 2.1 150 07:25 13.06.2019
6439 Clear 16 1024 39 16093 2.6 160 06:47 13.06.2019
6440 Clear 16 1024 39 16093 2.6 160 06:23 13.06.2019
6441 Clouds 17 1024 39 16093 3.1 130 05:55 13.06.2019
6442 Clouds 17 1024 34 16093 3.6 120 05:36 13.06.2019
6443 Clear 18 1024 34 16093 3.6 120 04:57 13.06.2019
6444 Clear 22 1024 25 16093 5.1 130 02:26 13.06.2019
6445 Clear 23 1025 25 16093 1.5 170 00:47 13.06.2019
6446 Clouds 23 1025 25 16093 4.1 140 23:52 12.06.2019
6447 Clouds 22 1025 25 16093 4.1 140 23:23 12.06.2019
6448 Clear 22 1026 27 16093 4.6 120 22:44 12.06.2019
6449 Clear 22 1026 27 16093 4.6 120 22:25 12.06.2019
6450 Clouds 22 1026 28 32767 2.6 300 21:56 12.06.2019
6451 Clear 22 1027 28 16093 3.6 100 21:37 12.06.2019
6452 Clouds 21 1027 32 16093 3.82 83.569 21:18 12.06.2019
6453 Clouds 21 1027 32 16093 3.82 83.569 21:18 12.06.2019
6454 Clouds 20 1027 28 16093 4.6 50 20:38 12.06.2019
6455 Clouds 20 1027 37 16093 1.5 60 20:20 12.06.2019
6456 Clear 20 1028 32 16093 2.1 150 19:42 12.06.2019
6457 Clouds 19 1028 42 16093 2.6 120 19:23 12.06.2019
6458 Clouds 19 1028 39 32767 2.1 120 18:56 12.06.2019
6459 Clear 18 1029 39 16093 1.5 180 18:38 12.06.2019
6460 Clouds 17 1028 45 32767 2.6 160 18:19 12.06.2019
6461 Clear 17 1030 45 16093 2.38 96.039 17:43 12.06.2019
6462 Clouds 16 1029 51 16093 1.5 70 17:20 12.06.2019
6463 Clouds 15 1030 54 16093 1.5 110 16:42 12.06.2019
6464 Clouds 15 1029 51 16093 3.1 20 16:23 12.06.2019
6465 -273 0 0 0 0 0 15:53 12.06.2019
6466 Clouds 13 1030 54 16093 2.6 80 15:32 12.06.2019
6467 Clouds 13 1028 66 32767 1.5 70 14:49 12.06.2019
6468 Clouds 12 1028 66 16093 2.6 40 14:27 12.06.2019
6469 Clouds 13 1029 62 16093 1.5 40 13:44 12.06.2019
6470 Clouds 13 1028 62 16093 2.6 20 13:20 12.06.2019
6471 Clouds 13 1029 58 16093 1.5 40 12:59 12.06.2019
6472 Clouds 13 1029 58 16093 0.43 145.683 12:38 12.06.2019
6473 Clouds 13 1029 58 16093 0.43 145.683 12:38 12.06.2019
6474 Clouds 13 1029 58 16093 0.43 145.683 12:38 12.06.2019
6475 Clouds 13 1028 62 16093 1.5 60 12:19 12.06.2019
6476 Clouds 13 1028 62 16093 2.6 40 12:19 12.06.2019
6477 Clouds 13 1028 62 16093 1.5 60 12:19 12.06.2019
6478 Clouds 13 1029 54 16093 0.29 7.371 11:46 12.06.2019
6479 Clouds 13 1029 54 16093 0.29 7.371 11:28 12.06.2019
6480 Drizzle 13 1028 58 16093 2.1 80 10:51 12.06.2019
6481 Drizzle 13 1029 54 16093 2.1 90 10:31 12.06.2019
6482 Clouds 13 1029 51 16093 0.29 7.371 09:45 12.06.2019
6483 Clouds 14 1028 51 16093 2.6 40 09:23 12.06.2019
6484 Clouds 14 1029 58 16093 2.15 337.249 08:58 12.06.2019
6485 Clouds 14 1029 51 16093 2.15 337.249 08:24 12.06.2019
6486 Clouds 14 1028 51 16093 2.1 330 07:48 12.06.2019
6487 Clouds 14 1029 54 16093 2.15 337.249 06:54 12.06.2019
6488 Clouds 14 1029 54 16093 2.15 337.249 06:54 12.06.2019
6489 Clouds 16 1028 51 16093 2.1 30 05:37 12.06.2019
6490 Clouds 16 1026 54 16093 5.1 50 05:19 12.06.2019
6491 Clear 21 1024 28 16093 4.99 39.106 01:58 12.06.2019
6492 Clear 23 1024 27 16093 6.2 40 00:40 12.06.2019
6493 Clouds 24 1023 25 32767 5.1 30 23:50 11.06.2019
6494 Clear 24 1023 22 16093 7.2 30 23:31 11.06.2019
6495 Clouds 25 1023 15 16093 7.2 40 22:44 11.06.2019
6496 Clouds 25 1022 17 32767 5.7 360 22:21 11.06.2019
6497 Clouds 25 1022 17 32767 5.7 360 21:58 11.06.2019
6498 Clear 25 1023 15 16093 7.75 40.863 21:39 11.06.2019
6499 Clouds 25 1023 16 32767 4.1 30 21:20 11.06.2019
6500 Clear 25 1024 15 16093 3.47 35.198 20:49 11.06.2019
6501 Clear 24 1024 15 16093 3.47 35.198 20:26 11.06.2019
6502 Clouds 24 1023 16 32767 4.1 360 19:57 11.06.2019
6503 -273 0 0 0 0 0 19:38 11.06.2019
6504 Clear 24 1024 14 16093 3.6 70 19:38 11.06.2019
6505 Clear 24 1024 14 16093 3.6 70 19:37 11.06.2019
6506 Clear 24 1024 14 16093 3.6 70 19:37 11.06.2019
6507 Clear 24 1024 14 16093 3.6 70 19:37 11.06.2019
6508 Clouds 23 1023 23 16093 3.47 35.198 18:58 11.06.2019
6509 -273 0 0 0 0 0 18:23 11.06.2019
6510 Clear 21 1024 19 16093 1.17 298.86 17:57 11.06.2019
6511 Clear 21 1025 23 16093 1.17 298.86 17:39 11.06.2019
6512 Clouds 20 1024 32 16093 2.6 350 17:19 11.06.2019
6513 Clear 19 1025 39 16093 1.17 298.86 16:42 11.06.2019
6514 Clouds 18 1024 39 16093 2.6 250 16:23 11.06.2019
6515 Clouds 16 1024 27 16093 1.17 298.86 15:43 11.06.2019
6516 Clouds 14 1024 58 16093 1.5 240 15:25 11.06.2019
6517 Clouds 12 1023 50 16093 1.5 230 14:54 11.06.2019
6518 Clouds 11 1023 50 16093 1.5 230 14:23 11.06.2019
6519 Clouds 11 1023 53 16093 2.1 200 13:58 11.06.2019
6520 Clouds 11 1023 53 16093 2.1 200 13:37 11.06.2019
6521 Haze 11 1023 32 16093 1.5 250 13:19 11.06.2019
6522 Haze 11 1022 32 16093 1.98 282.06 12:41 11.06.2019
6523 Clear 11 1022 32 16093 3.6 350 12:21 11.06.2019
6524 Clear 11 1022 37 16093 1.5 330 11:41 11.06.2019
6525 Clear 12 1022 37 16093 1.5 330 11:21 11.06.2019
6526 Clouds 12 1022 54 16093 3.6 180 10:50 11.06.2019
6527 Clear 13 1022 34 16093 2.17 289.875 10:27 11.06.2019
6528 Clear 13 1022 43 16093 4.1 270 09:51 11.06.2019
6529 Clear 13 1023 66 16093 3.11 293.254 09:25 11.06.2019
6530 Clear 14 1023 41 16093 4.6 270 08:49 11.06.2019
6531 Clear 14 1023 54 16093 1.5 200 08:30 11.06.2019
6532 Clear 15 1023 38 16093 4.1 270 07:57 11.06.2019
6533 Clear 16 1024 54 16093 1.5 190 07:31 11.06.2019
6534 Clear 16 1023 33 16093 4.1 290 06:51 11.06.2019
6535 Clouds 19 1023 42 16093 3.1 140 05:20 11.06.2019
6536 Clouds 22 1023 26 32767 4.1 350 03:55 11.06.2019
6537 Clear 26 1023 22 16093 3.1 110 01:43 11.06.2019
6538 Clear 26 1023 22 16093 1.5 20 00:49 11.06.2019
6539 Clouds 26 1023 25 16093 1.5 150 00:23 11.06.2019
6540 Clear 25 1025 19 16093 4.1 140 23:41 10.06.2019
6541 Clear 25 1025 17 16093 6.59 103.674 22:59 10.06.2019
6542 Clear 25 1026 19 16093 2.1 210 22:41 10.06.2019
6543 Clouds 24 1025 28 16093 5.7 190 22:23 10.06.2019
6544 Clear 23 1027 20 16093 6.59 103.674 21:41 10.06.2019
6545 Clear 23 1027 20 16093 4.41 107.256 21:23 10.06.2019
6546 Clouds 22 1027 24 16093 3.1 140 20:48 10.06.2019
6547 Clear 21 1028 24 16093 2.6 200 20:26 10.06.2019
6548 Clouds 21 1029 26 16093 4.1 120 19:58 10.06.2019
6549 Clear 21 1030 30 16093 3.6 220 19:39 10.06.2019
6550 Clouds 20 1029 32 16093 5.7 200 19:21 10.06.2019
6551 Clear 19 1031 36 16093 1.5 100 18:55 10.06.2019
6552 Clear 19 1031 36 16093 1.5 100 18:37 10.06.2019
6553 Clouds 18 1031 36 16093 5.7 190 18:18 10.06.2019
6554 Clear 16 1033 41 16093 2.1 190 17:40 10.06.2019
6555 Clear 16 1033 41 16093 2.1 190 17:22 10.06.2019
6556 Clear 14 1034 54 16093 1.5 140 16:46 10.06.2019
6557 Clear 13 1034 54 16093 1.5 140 16:28 10.06.2019
6558 Clear 12 1034 81 16093 1.96 117.626 15:46 10.06.2019
6559 Clear 12 1034 81 16093 1.96 117.626 15:46 10.06.2019
6560 Clear 11 1034 81 16093 0.88 174.994 15:24 10.06.2019
6561 Clear 9 1034 93 16093 0.88 174.994 14:59 10.06.2019
6562 Clear 8 1034 86 16093 0.88 174.994 14:39 10.06.2019
6563 Clouds 7 1033 61 16093 6.7 190 14:21 10.06.2019
6564 Clear 7 1034 86 16093 0.88 174.994 13:43 10.06.2019
6565 Clear 7 1034 86 16093 0.88 174.994 13:23 10.06.2019
6566 Clear 7 1034 93 16093 0.62 198.289 12:45 10.06.2019
6567 Clear 7 1034 93 16093 1.5 164.06 12:27 10.06.2019
6568 Clear 7 1034 87 16093 1.5 164.06 11:48 10.06.2019
6569 Clear 8 1034 87 16093 1.5 164.06 11:29 10.06.2019
6570 Clear 8 1034 87 16093 1.5 164.06 10:57 10.06.2019
6571 Clear 8 1034 87 16093 1.5 164.06 10:38 10.06.2019
6572 Clouds 8 1033 61 16093 4.6 170 10:18 10.06.2019
6573 Clear 8 1034 87 16093 1.5 164.06 09:45 10.06.2019
6574 Clear 8 1034 87 16093 2.52 189.638 09:26 10.06.2019
6575 Clear 9 1033 75 16093 3.6 270 08:45 10.06.2019
6576 Clear 9 1033 75 16093 3.6 270 08:25 10.06.2019
6577 Clear 9 1034 66 16093 1.5 200 07:26 10.06.2019
6578 Clear 13 1033 38 16093 2.07 166.024 04:41 10.06.2019
6579 Clear 16 1033 27 16093 5.51 100.779 01:59 10.06.2019
6580 Clouds 16 1032 38 16093 3.1 80 01:27 10.06.2019
6581 Clouds 16 1032 29 16093 3.1 130 00:58 10.06.2019
6582 Clouds 16 1032 41 16093 1.5 260 00:23 10.06.2019
6583 Clouds 15 1033 33 16093 2.1 210 23:44 09.06.2019
6584 Clouds 15 1033 47 16093 2.1 0 23:20 09.06.2019
6585 Clouds 15 1033 36 16093 4.1 120 22:45 09.06.2019
6586 Clouds 14 1033 50 16093 1.5 200 22:25 09.06.2019
6587 Clouds 14 1034 44 16093 4.1 140 21:46 09.06.2019
6588 Clouds 13 1034 44 16093 4.1 140 21:26 09.06.2019
6589 Clouds 12 1034 44 16093 5.87 106.488 20:45 09.06.2019
6590 Clouds 12 1034 44 16093 5.87 106.488 20:23 09.06.2019
6591 Clouds 11 1034 44 16093 3.1 110 19:56 09.06.2019
6592 Clouds 11 1034 47 16093 2.6 160 19:36 09.06.2019
6593 Clouds 10 1033 53 16093 1.5 140 19:18 09.06.2019
6594 Clouds 10 1034 53 16093 2.1 160 18:41 09.06.2019
6595 Clouds 10 1034 53 16093 2.1 160 18:41 09.06.2019
6596 Clouds 10 1034 53 16093 2.1 160 18:23 09.06.2019
6597 Clouds 9 1034 57 16093 2.6 110 17:48 09.06.2019
6598 Clouds 9 1034 57 16093 2.6 110 17:27 09.06.2019
6599 Clouds 9 1034 61 16093 2.6 100 16:55 09.06.2019
6600 Clouds 8 1033 61 16093 1.5 50 16:36 09.06.2019
6601 Clouds 8 1032 70 16093 2.6 210 16:18 09.06.2019
6602 Clouds 8 1033 70 16093 1.5 230 15:44 09.06.2019
6603 Clouds 7 1033 70 16093 1.5 230 15:26 09.06.2019
6604 Clouds 7 1032 75 16093 1.97 103.945 14:46 09.06.2019
6605 Clouds 7 1030 75 16093 2.1 240 14:25 09.06.2019
6606 Clouds 7 1031 75 16093 2.6 230 13:52 09.06.2019
6607 Clouds 7 1031 81 16093 2.1 230 13:27 09.06.2019
6608 Clouds 7 1031 81 16093 1.6 61.067 12:42 09.06.2019
6609 Clouds 7 1029 70 16093 3.1 360 12:24 09.06.2019
6610 Drizzle 7 1030 81 16093 1.5 40 11:40 09.06.2019
6611 Rain 7 1029 75 16093 4.1 10 11:22 09.06.2019
6612 Rain 8 1029 75 16093 4.1 20 10:46 09.06.2019
6613 Rain 8 1028 81 16093 6.7 30 10:23 09.06.2019
6614 Rain 8 1027 81 16093 4.6 20 09:41 09.06.2019
6615 Rain 9 1027 81 16093 4.6 20 09:23 09.06.2019
6616 Rain 9 1026 81 16093 4.6 10 08:55 09.06.2019
6617 Rain 9 1027 76 16093 6.2 20 08:36 09.06.2019
6618 Rain 11 1026 76 16093 4.6 30 07:46 09.06.2019
6619 Drizzle 15 1024 77 16093 2.1 360 06:30 09.06.2019
6620 Clouds 16 1023 67 16093 3.1 360 05:34 09.06.2019
6621 Rain 21 1015 49 16093 6.7 40 01:46 09.06.2019
6622 Rain 21 1015 46 16093 5.7 50 01:22 09.06.2019
6623 Rain 22 1014 44 16093 8.2 70 00:59 09.06.2019
6624 Rain 23 1016 38 16093 4.6 50 00:19 09.06.2019
6625 Rain 24 1015 36 16093 5.7 80 23:38 08.06.2019
6626 Rain 25 1015 33 16093 5.7 60 23:20 08.06.2019
6627 Clear 25 1015 27 16093 4.1 80 22:43 08.06.2019
6628 Clear 26 1015 27 16093 4.1 80 22:25 08.06.2019
6629 Clouds 26 1014 30 16093 6.2 80 21:52 08.06.2019
6630 Clear 26 1015 28 16093 4.6 70 21:29 08.06.2019
6631 Clear 26 1015 28 16093 4.6 90 20:59 08.06.2019
6632 Clear 26 1015 28 16093 4.6 90 20:40 08.06.2019
6633 Clear 26 1015 28 16093 4.6 90 20:40 08.0